<?xml version="1.0" encoding="UTF-8" ?>
<gpx version="1.1" xmlns:xsi="http://www.w3.org/2001/XMLSchema-instance" 
    xmlns="http://www.topografix.com/GPX/1/1" 
    xsi:schemaLocation="http://www.topografix.com/GPX/1/1 http://www.topografix.com/GPX/1/1/gpx.xsd" 
    creator="Openrunner - https://www.openrunner.com" >	<trk>
						<name>CD Au Pays des Mille Etangs-4 cols-15914142</name>
						<trkseg>
					<trkpt lat="48.012420" lon="6.587690">
						<ele>415</ele>
						<time>2023-01-17T20:36:26Z</time>
					</trkpt>
					<trkpt lat="48.011860" lon="6.587250">
						<ele>418</ele>
						<time>2023-01-17T20:36:37Z</time>
					</trkpt>
					<trkpt lat="48.011680" lon="6.587080">
						<ele>419</ele>
						<time>2023-01-17T20:36:41Z</time>
					</trkpt>
					<trkpt lat="48.011570" lon="6.586920">
						<ele>420</ele>
						<time>2023-01-17T20:36:44Z</time>
					</trkpt>
					<trkpt lat="48.011370" lon="6.586510">
						<ele>421</ele>
						<time>2023-01-17T20:36:50Z</time>
					</trkpt>
					<trkpt lat="48.011350" lon="6.586370">
						<ele>422</ele>
						<time>2023-01-17T20:36:52Z</time>
					</trkpt>
					<trkpt lat="48.011400" lon="6.586340">
						<ele>421</ele>
						<time>2023-01-17T20:36:52Z</time>
					</trkpt>
					<trkpt lat="48.011730" lon="6.586380">
						<ele>419</ele>
						<time>2023-01-17T20:36:58Z</time>
					</trkpt>
					<trkpt lat="48.011940" lon="6.586370">
						<ele>417</ele>
						<time>2023-01-17T20:37:02Z</time>
					</trkpt>
					<trkpt lat="48.012060" lon="6.586330">
						<ele>416</ele>
						<time>2023-01-17T20:37:04Z</time>
					</trkpt>
					<trkpt lat="48.012170" lon="6.586250">
						<ele>416</ele>
						<time>2023-01-17T20:37:06Z</time>
					</trkpt>
					<trkpt lat="48.012340" lon="6.586040">
						<ele>415</ele>
						<time>2023-01-17T20:37:10Z</time>
					</trkpt>
					<trkpt lat="48.012550" lon="6.585690">
						<ele>414</ele>
						<time>2023-01-17T20:37:16Z</time>
					</trkpt>
					<trkpt lat="48.012790" lon="6.585890">
						<ele>413</ele>
						<time>2023-01-17T20:37:21Z</time>
					</trkpt>
					<trkpt lat="48.013090" lon="6.586200">
						<ele>412</ele>
						<time>2023-01-17T20:37:27Z</time>
					</trkpt>
					<trkpt lat="48.013710" lon="6.586230">
						<ele>411</ele>
						<time>2023-01-17T20:37:38Z</time>
					</trkpt>
					<trkpt lat="48.015010" lon="6.586160">
						<ele>407</ele>
						<time>2023-01-17T20:38:02Z</time>
					</trkpt>
					<trkpt lat="48.016440" lon="6.586080">
						<ele>405</ele>
						<time>2023-01-17T20:38:27Z</time>
					</trkpt>
					<trkpt lat="48.016400" lon="6.585670">
						<ele>406</ele>
						<time>2023-01-17T20:38:32Z</time>
					</trkpt>
					<trkpt lat="48.016230" lon="6.583620">
						<ele>411</ele>
						<time>2023-01-17T20:38:57Z</time>
					</trkpt>
					<trkpt lat="48.016260" lon="6.583280">
						<ele>412</ele>
						<time>2023-01-17T20:39:01Z</time>
					</trkpt>
					<trkpt lat="48.016430" lon="6.582890">
						<ele>412</ele>
						<time>2023-01-17T20:39:06Z</time>
					</trkpt>
					<trkpt lat="48.016900" lon="6.582230">
						<ele>412</ele>
						<time>2023-01-17T20:39:18Z</time>
					</trkpt>
					<trkpt lat="48.017390" lon="6.581040">
						<ele>415</ele>
						<time>2023-01-17T20:39:34Z</time>
					</trkpt>
					<trkpt lat="48.017790" lon="6.579070">
						<ele>439</ele>
						<time>2023-01-17T20:39:59Z</time>
					</trkpt>
					<trkpt lat="48.018440" lon="6.576950">
						<ele>442</ele>
						<time>2023-01-17T20:40:27Z</time>
					</trkpt>
					<trkpt lat="48.018690" lon="6.575530">
						<ele>448</ele>
						<time>2023-01-17T20:40:44Z</time>
					</trkpt>
					<trkpt lat="48.019160" lon="6.572020">
						<ele>443</ele>
						<time>2023-01-17T20:41:27Z</time>
					</trkpt>
					<trkpt lat="48.019430" lon="6.570480">
						<ele>446</ele>
						<time>2023-01-17T20:41:46Z</time>
					</trkpt>
					<trkpt lat="48.019560" lon="6.569490">
						<ele>448</ele>
						<time>2023-01-17T20:41:58Z</time>
					</trkpt>
					<trkpt lat="48.019580" lon="6.569350">
						<ele>448</ele>
						<time>2023-01-17T20:41:59Z</time>
					</trkpt>
					<trkpt lat="48.019390" lon="6.569330">
						<ele>450</ele>
						<time>2023-01-17T20:42:03Z</time>
					</trkpt>
					<trkpt lat="48.019280" lon="6.569210">
						<ele>451</ele>
						<time>2023-01-17T20:42:05Z</time>
					</trkpt>
					<trkpt lat="48.019210" lon="6.569030">
						<ele>451</ele>
						<time>2023-01-17T20:42:08Z</time>
					</trkpt>
					<trkpt lat="48.019000" lon="6.568230">
						<ele>454</ele>
						<time>2023-01-17T20:42:18Z</time>
					</trkpt>
					<trkpt lat="48.018910" lon="6.568000">
						<ele>455</ele>
						<time>2023-01-17T20:42:21Z</time>
					</trkpt>
					<trkpt lat="48.018800" lon="6.567830">
						<ele>457</ele>
						<time>2023-01-17T20:42:24Z</time>
					</trkpt>
					<trkpt lat="48.018300" lon="6.567260">
						<ele>461</ele>
						<time>2023-01-17T20:42:35Z</time>
					</trkpt>
					<trkpt lat="48.017910" lon="6.566860">
						<ele>463</ele>
						<time>2023-01-17T20:42:43Z</time>
					</trkpt>
					<trkpt lat="48.017600" lon="6.566670">
						<ele>465</ele>
						<time>2023-01-17T20:42:49Z</time>
					</trkpt>
					<trkpt lat="48.017430" lon="6.566540">
						<ele>466</ele>
						<time>2023-01-17T20:42:53Z</time>
					</trkpt>
					<trkpt lat="48.016980" lon="6.566120">
						<ele>467</ele>
						<time>2023-01-17T20:43:02Z</time>
					</trkpt>
					<trkpt lat="48.016190" lon="6.565460">
						<ele>473</ele>
						<time>2023-01-17T20:43:18Z</time>
					</trkpt>
					<trkpt lat="48.016050" lon="6.565380">
						<ele>474</ele>
						<time>2023-01-17T20:43:21Z</time>
					</trkpt>
					<trkpt lat="48.015890" lon="6.565350">
						<ele>475</ele>
						<time>2023-01-17T20:43:24Z</time>
					</trkpt>
					<trkpt lat="48.015730" lon="6.565410">
						<ele>477</ele>
						<time>2023-01-17T20:43:27Z</time>
					</trkpt>
					<trkpt lat="48.015450" lon="6.565580">
						<ele>480</ele>
						<time>2023-01-17T20:43:32Z</time>
					</trkpt>
					<trkpt lat="48.015140" lon="6.565820">
						<ele>483</ele>
						<time>2023-01-17T20:43:38Z</time>
					</trkpt>
					<trkpt lat="48.014110" lon="6.566530">
						<ele>497</ele>
						<time>2023-01-17T20:43:59Z</time>
					</trkpt>
					<trkpt lat="48.013970" lon="6.566600">
						<ele>499</ele>
						<time>2023-01-17T20:44:01Z</time>
					</trkpt>
					<trkpt lat="48.013830" lon="6.566590">
						<ele>499</ele>
						<time>2023-01-17T20:44:04Z</time>
					</trkpt>
					<trkpt lat="48.013750" lon="6.566540">
						<ele>499</ele>
						<time>2023-01-17T20:44:05Z</time>
					</trkpt>
					<trkpt lat="48.013640" lon="6.566410">
						<ele>498</ele>
						<time>2023-01-17T20:44:08Z</time>
					</trkpt>
					<trkpt lat="48.013580" lon="6.566300">
						<ele>497</ele>
						<time>2023-01-17T20:44:09Z</time>
					</trkpt>
					<trkpt lat="48.013520" lon="6.566130">
						<ele>495</ele>
						<time>2023-01-17T20:44:12Z</time>
					</trkpt>
					<trkpt lat="48.013440" lon="6.565780">
						<ele>492</ele>
						<time>2023-01-17T20:44:16Z</time>
					</trkpt>
					<trkpt lat="48.013290" lon="6.564830">
						<ele>496</ele>
						<time>2023-01-17T20:44:28Z</time>
					</trkpt>
					<trkpt lat="48.013180" lon="6.564200">
						<ele>498</ele>
						<time>2023-01-17T20:44:35Z</time>
					</trkpt>
					<trkpt lat="48.013030" lon="6.563870">
						<ele>498</ele>
						<time>2023-01-17T20:44:40Z</time>
					</trkpt>
					<trkpt lat="48.012910" lon="6.563740">
						<ele>499</ele>
						<time>2023-01-17T20:44:43Z</time>
					</trkpt>
					<trkpt lat="48.011970" lon="6.563020">
						<ele>507</ele>
						<time>2023-01-17T20:45:02Z</time>
					</trkpt>
					<trkpt lat="48.011820" lon="6.562960">
						<ele>508</ele>
						<time>2023-01-17T20:45:04Z</time>
					</trkpt>
					<trkpt lat="48.011040" lon="6.562800">
						<ele>512</ele>
						<time>2023-01-17T20:45:18Z</time>
					</trkpt>
					<trkpt lat="48.010560" lon="6.562790">
						<ele>518</ele>
						<time>2023-01-17T20:45:27Z</time>
					</trkpt>
					<trkpt lat="48.010330" lon="6.562820">
						<ele>522</ele>
						<time>2023-01-17T20:45:31Z</time>
					</trkpt>
					<trkpt lat="48.010210" lon="6.562760">
						<ele>523</ele>
						<time>2023-01-17T20:45:33Z</time>
					</trkpt>
					<trkpt lat="48.010110" lon="6.562650">
						<ele>523</ele>
						<time>2023-01-17T20:45:35Z</time>
					</trkpt>
					<trkpt lat="48.010020" lon="6.562470">
						<ele>521</ele>
						<time>2023-01-17T20:45:38Z</time>
					</trkpt>
					<trkpt lat="48.009820" lon="6.561960">
						<ele>517</ele>
						<time>2023-01-17T20:45:45Z</time>
					</trkpt>
					<trkpt lat="48.009730" lon="6.561830">
						<ele>517</ele>
						<time>2023-01-17T20:45:47Z</time>
					</trkpt>
					<trkpt lat="48.009620" lon="6.561700">
						<ele>518</ele>
						<time>2023-01-17T20:45:50Z</time>
					</trkpt>
					<trkpt lat="48.009250" lon="6.561370">
						<ele>523</ele>
						<time>2023-01-17T20:45:58Z</time>
					</trkpt>
					<trkpt lat="48.009040" lon="6.561090">
						<ele>525</ele>
						<time>2023-01-17T20:46:03Z</time>
					</trkpt>
					<trkpt lat="48.008890" lon="6.560850">
						<ele>526</ele>
						<time>2023-01-17T20:46:06Z</time>
					</trkpt>
					<trkpt lat="48.008800" lon="6.560660">
						<ele>526</ele>
						<time>2023-01-17T20:46:09Z</time>
					</trkpt>
					<trkpt lat="48.008710" lon="6.560430">
						<ele>526</ele>
						<time>2023-01-17T20:46:12Z</time>
					</trkpt>
					<trkpt lat="48.008560" lon="6.559900">
						<ele>525</ele>
						<time>2023-01-17T20:46:19Z</time>
					</trkpt>
					<trkpt lat="48.008500" lon="6.559770">
						<ele>524</ele>
						<time>2023-01-17T20:46:21Z</time>
					</trkpt>
					<trkpt lat="48.008340" lon="6.559520">
						<ele>525</ele>
						<time>2023-01-17T20:46:25Z</time>
					</trkpt>
					<trkpt lat="48.008010" lon="6.559140">
						<ele>527</ele>
						<time>2023-01-17T20:46:33Z</time>
					</trkpt>
					<trkpt lat="48.007860" lon="6.559000">
						<ele>528</ele>
						<time>2023-01-17T20:46:36Z</time>
					</trkpt>
					<trkpt lat="48.007630" lon="6.558830">
						<ele>530</ele>
						<time>2023-01-17T20:46:40Z</time>
					</trkpt>
					<trkpt lat="48.007520" lon="6.558790">
						<ele>532</ele>
						<time>2023-01-17T20:46:42Z</time>
					</trkpt>
					<trkpt lat="48.007350" lon="6.558790">
						<ele>533</ele>
						<time>2023-01-17T20:46:45Z</time>
					</trkpt>
					<trkpt lat="48.006610" lon="6.558920">
						<ele>541</ele>
						<time>2023-01-17T20:46:59Z</time>
					</trkpt>
					<trkpt lat="48.006450" lon="6.558890">
						<ele>546</ele>
						<time>2023-01-17T20:47:02Z</time>
					</trkpt>
					<trkpt lat="48.006310" lon="6.558810">
						<ele>549</ele>
						<time>2023-01-17T20:47:04Z</time>
					</trkpt>
					<trkpt lat="48.006180" lon="6.558700">
						<ele>550</ele>
						<time>2023-01-17T20:47:07Z</time>
					</trkpt>
					<trkpt lat="48.006040" lon="6.558490">
						<ele>550</ele>
						<time>2023-01-17T20:47:10Z</time>
					</trkpt>
					<trkpt lat="48.005480" lon="6.557450">
						<ele>544</ele>
						<time>2023-01-17T20:47:26Z</time>
					</trkpt>
					<trkpt lat="48.005330" lon="6.557190">
						<ele>544</ele>
						<time>2023-01-17T20:47:30Z</time>
					</trkpt>
					<trkpt lat="48.005250" lon="6.557090">
						<ele>545</ele>
						<time>2023-01-17T20:47:32Z</time>
					</trkpt>
					<trkpt lat="48.005120" lon="6.556990">
						<ele>546</ele>
						<time>2023-01-17T20:47:35Z</time>
					</trkpt>
					<trkpt lat="48.004750" lon="6.556770">
						<ele>546</ele>
						<time>2023-01-17T20:47:42Z</time>
					</trkpt>
					<trkpt lat="48.004510" lon="6.556580">
						<ele>546</ele>
						<time>2023-01-17T20:47:47Z</time>
					</trkpt>
					<trkpt lat="48.003420" lon="6.555590">
						<ele>549</ele>
						<time>2023-01-17T20:48:09Z</time>
					</trkpt>
					<trkpt lat="48.002820" lon="6.555050">
						<ele>556</ele>
						<time>2023-01-17T20:48:22Z</time>
					</trkpt>
					<trkpt lat="48.002060" lon="6.554400">
						<ele>553</ele>
						<time>2023-01-17T20:48:38Z</time>
					</trkpt>
					<trkpt lat="48.002030" lon="6.554510">
						<ele>555</ele>
						<time>2023-01-17T20:48:39Z</time>
					</trkpt>
					<trkpt lat="48.001750" lon="6.554920">
						<ele>563</ele>
						<time>2023-01-17T20:48:46Z</time>
					</trkpt>
					<trkpt lat="48.000880" lon="6.555990">
						<ele>571</ele>
						<time>2023-01-17T20:49:06Z</time>
					</trkpt>
					<trkpt lat="48.000660" lon="6.556530">
						<ele>575</ele>
						<time>2023-01-17T20:49:13Z</time>
					</trkpt>
					<trkpt lat="48.000560" lon="6.556950">
						<ele>577</ele>
						<time>2023-01-17T20:49:19Z</time>
					</trkpt>
					<trkpt lat="48.000500" lon="6.557870">
						<ele>581</ele>
						<time>2023-01-17T20:49:30Z</time>
					</trkpt>
					<trkpt lat="48.000510" lon="6.558720">
						<ele>583</ele>
						<time>2023-01-17T20:49:40Z</time>
					</trkpt>
					<trkpt lat="48.000420" lon="6.563120">
						<ele>596</ele>
						<time>2023-01-17T20:50:32Z</time>
					</trkpt>
					<trkpt lat="48.000510" lon="6.564090">
						<ele>602</ele>
						<time>2023-01-17T20:50:44Z</time>
					</trkpt>
					<trkpt lat="48.000570" lon="6.564520">
						<ele>606</ele>
						<time>2023-01-17T20:50:49Z</time>
					</trkpt>
					<trkpt lat="48.000570" lon="6.564700">
						<ele>608</ele>
						<time>2023-01-17T20:50:51Z</time>
					</trkpt>
					<trkpt lat="48.000520" lon="6.564860">
						<ele>609</ele>
						<time>2023-01-17T20:50:53Z</time>
					</trkpt>
					<trkpt lat="48.000440" lon="6.564920">
						<ele>609</ele>
						<time>2023-01-17T20:50:55Z</time>
					</trkpt>
					<trkpt lat="48.000360" lon="6.564920">
						<ele>608</ele>
						<time>2023-01-17T20:50:56Z</time>
					</trkpt>
					<trkpt lat="48.000280" lon="6.564890">
						<ele>608</ele>
						<time>2023-01-17T20:50:58Z</time>
					</trkpt>
					<trkpt lat="48.000190" lon="6.564820">
						<ele>606</ele>
						<time>2023-01-17T20:51:00Z</time>
					</trkpt>
					<trkpt lat="48.000130" lon="6.564730">
						<ele>605</ele>
						<time>2023-01-17T20:51:01Z</time>
					</trkpt>
					<trkpt lat="48.000050" lon="6.564520">
						<ele>603</ele>
						<time>2023-01-17T20:51:04Z</time>
					</trkpt>
					<trkpt lat="47.999960" lon="6.564400">
						<ele>602</ele>
						<time>2023-01-17T20:51:06Z</time>
					</trkpt>
					<trkpt lat="47.999640" lon="6.564120">
						<ele>606</ele>
						<time>2023-01-17T20:51:13Z</time>
					</trkpt>
					<trkpt lat="47.999510" lon="6.563910">
						<ele>607</ele>
						<time>2023-01-17T20:51:16Z</time>
					</trkpt>
					<trkpt lat="47.999200" lon="6.563130">
						<ele>608</ele>
						<time>2023-01-17T20:51:27Z</time>
					</trkpt>
					<trkpt lat="47.998420" lon="6.561260">
						<ele>610</ele>
						<time>2023-01-17T20:51:53Z</time>
					</trkpt>
					<trkpt lat="47.998310" lon="6.561180">
						<ele>611</ele>
						<time>2023-01-17T20:51:55Z</time>
					</trkpt>
					<trkpt lat="47.998090" lon="6.561150">
						<ele>610</ele>
						<time>2023-01-17T20:51:59Z</time>
					</trkpt>
					<trkpt lat="47.998020" lon="6.561200">
						<ele>611</ele>
						<time>2023-01-17T20:52:01Z</time>
					</trkpt>
					<trkpt lat="47.997950" lon="6.561260">
						<ele>611</ele>
						<time>2023-01-17T20:52:02Z</time>
					</trkpt>
					<trkpt lat="47.997680" lon="6.561690">
						<ele>615</ele>
						<time>2023-01-17T20:52:09Z</time>
					</trkpt>
					<trkpt lat="47.997520" lon="6.561890">
						<ele>617</ele>
						<time>2023-01-17T20:52:13Z</time>
					</trkpt>
					<trkpt lat="47.997370" lon="6.561980">
						<ele>619</ele>
						<time>2023-01-17T20:52:16Z</time>
					</trkpt>
					<trkpt lat="47.997250" lon="6.562010">
						<ele>620</ele>
						<time>2023-01-17T20:52:18Z</time>
					</trkpt>
					<trkpt lat="47.996790" lon="6.561920">
						<ele>623</ele>
						<time>2023-01-17T20:52:26Z</time>
					</trkpt>
					<trkpt lat="47.996660" lon="6.561800">
						<ele>623</ele>
						<time>2023-01-17T20:52:29Z</time>
					</trkpt>
					<trkpt lat="47.996440" lon="6.561220">
						<ele>623</ele>
						<time>2023-01-17T20:52:37Z</time>
					</trkpt>
					<trkpt lat="47.996250" lon="6.560570">
						<ele>623</ele>
						<time>2023-01-17T20:52:45Z</time>
					</trkpt>
					<trkpt lat="47.995910" lon="6.559960">
						<ele>626</ele>
						<time>2023-01-17T20:52:55Z</time>
					</trkpt>
					<trkpt lat="47.995370" lon="6.559440">
						<ele>630</ele>
						<time>2023-01-17T20:53:06Z</time>
					</trkpt>
					<trkpt lat="47.995170" lon="6.559060">
						<ele>630</ele>
						<time>2023-01-17T20:53:12Z</time>
					</trkpt>
					<trkpt lat="47.995020" lon="6.558640">
						<ele>627</ele>
						<time>2023-01-17T20:53:18Z</time>
					</trkpt>
					<trkpt lat="47.994420" lon="6.556200">
						<ele>621</ele>
						<time>2023-01-17T20:53:49Z</time>
					</trkpt>
					<trkpt lat="47.993970" lon="6.554240">
						<ele>615</ele>
						<time>2023-01-17T20:54:13Z</time>
					</trkpt>
					<trkpt lat="47.993820" lon="6.553840">
						<ele>612</ele>
						<time>2023-01-17T20:54:19Z</time>
					</trkpt>
					<trkpt lat="47.993760" lon="6.553730">
						<ele>612</ele>
						<time>2023-01-17T20:54:20Z</time>
					</trkpt>
					<trkpt lat="47.993700" lon="6.553680">
						<ele>612</ele>
						<time>2023-01-17T20:54:22Z</time>
					</trkpt>
					<trkpt lat="47.993570" lon="6.553670">
						<ele>613</ele>
						<time>2023-01-17T20:54:24Z</time>
					</trkpt>
					<trkpt lat="47.993450" lon="6.553760">
						<ele>616</ele>
						<time>2023-01-17T20:54:26Z</time>
					</trkpt>
					<trkpt lat="47.993260" lon="6.554010">
						<ele>619</ele>
						<time>2023-01-17T20:54:31Z</time>
					</trkpt>
					<trkpt lat="47.992790" lon="6.554970">
						<ele>622</ele>
						<time>2023-01-17T20:54:45Z</time>
					</trkpt>
					<trkpt lat="47.992450" lon="6.555530">
						<ele>622</ele>
						<time>2023-01-17T20:54:54Z</time>
					</trkpt>
					<trkpt lat="47.992130" lon="6.555760">
						<ele>621</ele>
						<time>2023-01-17T20:55:00Z</time>
					</trkpt>
					<trkpt lat="47.991450" lon="6.556010">
						<ele>618</ele>
						<time>2023-01-17T20:55:13Z</time>
					</trkpt>
					<trkpt lat="47.991280" lon="6.556150">
						<ele>618</ele>
						<time>2023-01-17T20:55:16Z</time>
					</trkpt>
					<trkpt lat="47.991070" lon="6.556460">
						<ele>619</ele>
						<time>2023-01-17T20:55:22Z</time>
					</trkpt>
					<trkpt lat="47.990400" lon="6.557820">
						<ele>616</ele>
						<time>2023-01-17T20:55:42Z</time>
					</trkpt>
					<trkpt lat="47.990040" lon="6.559360">
						<ele>618</ele>
						<time>2023-01-17T20:56:01Z</time>
					</trkpt>
					<trkpt lat="47.989950" lon="6.559590">
						<ele>617</ele>
						<time>2023-01-17T20:56:04Z</time>
					</trkpt>
					<trkpt lat="47.989870" lon="6.559750">
						<ele>616</ele>
						<time>2023-01-17T20:56:07Z</time>
					</trkpt>
					<trkpt lat="47.989460" lon="6.560340">
						<ele>606</ele>
						<time>2023-01-17T20:56:17Z</time>
					</trkpt>
					<trkpt lat="47.989390" lon="6.560590">
						<ele>604</ele>
						<time>2023-01-17T20:56:20Z</time>
					</trkpt>
					<trkpt lat="47.989370" lon="6.560880">
						<ele>603</ele>
						<time>2023-01-17T20:56:23Z</time>
					</trkpt>
					<trkpt lat="47.989430" lon="6.561190">
						<ele>604</ele>
						<time>2023-01-17T20:56:27Z</time>
					</trkpt>
					<trkpt lat="47.989790" lon="6.561850">
						<ele>614</ele>
						<time>2023-01-17T20:56:37Z</time>
					</trkpt>
					<trkpt lat="47.989860" lon="6.562130">
						<ele>614</ele>
						<time>2023-01-17T20:56:41Z</time>
					</trkpt>
					<trkpt lat="47.989910" lon="6.562680">
						<ele>613</ele>
						<time>2023-01-17T20:56:48Z</time>
					</trkpt>
					<trkpt lat="47.989900" lon="6.563180">
						<ele>614</ele>
						<time>2023-01-17T20:56:54Z</time>
					</trkpt>
					<trkpt lat="47.989750" lon="6.563740">
						<ele>611</ele>
						<time>2023-01-17T20:57:01Z</time>
					</trkpt>
					<trkpt lat="47.989680" lon="6.564340">
						<ele>612</ele>
						<time>2023-01-17T20:57:08Z</time>
					</trkpt>
					<trkpt lat="47.989630" lon="6.565250">
						<ele>613</ele>
						<time>2023-01-17T20:57:19Z</time>
					</trkpt>
					<trkpt lat="47.989560" lon="6.566970">
						<ele>614</ele>
						<time>2023-01-17T20:57:39Z</time>
					</trkpt>
					<trkpt lat="47.989650" lon="6.567590">
						<ele>615</ele>
						<time>2023-01-17T20:57:47Z</time>
					</trkpt>
					<trkpt lat="47.989600" lon="6.567880">
						<ele>613</ele>
						<time>2023-01-17T20:57:51Z</time>
					</trkpt>
					<trkpt lat="47.990310" lon="6.569150">
						<ele>613</ele>
						<time>2023-01-17T20:58:10Z</time>
					</trkpt>
					<trkpt lat="47.990710" lon="6.569630">
						<ele>620</ele>
						<time>2023-01-17T20:58:19Z</time>
					</trkpt>
					<trkpt lat="47.991150" lon="6.570040">
						<ele>619</ele>
						<time>2023-01-17T20:58:29Z</time>
					</trkpt>
					<trkpt lat="47.991970" lon="6.570840">
						<ele>622</ele>
						<time>2023-01-17T20:58:46Z</time>
					</trkpt>
					<trkpt lat="47.992410" lon="6.571170">
						<ele>619</ele>
						<time>2023-01-17T20:58:55Z</time>
					</trkpt>
					<trkpt lat="47.992820" lon="6.571420">
						<ele>615</ele>
						<time>2023-01-17T20:59:03Z</time>
					</trkpt>
					<trkpt lat="47.993800" lon="6.572100">
						<ele>603</ele>
						<time>2023-01-17T20:59:22Z</time>
					</trkpt>
					<trkpt lat="47.993890" lon="6.572100">
						<ele>602</ele>
						<time>2023-01-17T20:59:23Z</time>
					</trkpt>
					<trkpt lat="47.993880" lon="6.572590">
						<ele>602</ele>
						<time>2023-01-17T20:59:29Z</time>
					</trkpt>
					<trkpt lat="47.993910" lon="6.572700">
						<ele>604</ele>
						<time>2023-01-17T20:59:31Z</time>
					</trkpt>
					<trkpt lat="47.993980" lon="6.572800">
						<ele>605</ele>
						<time>2023-01-17T20:59:32Z</time>
					</trkpt>
					<trkpt lat="47.994250" lon="6.572970">
						<ele>603</ele>
						<time>2023-01-17T20:59:38Z</time>
					</trkpt>
					<trkpt lat="47.994750" lon="6.573190">
						<ele>596</ele>
						<time>2023-01-17T20:59:47Z</time>
					</trkpt>
					<trkpt lat="47.995020" lon="6.573470">
						<ele>595</ele>
						<time>2023-01-17T20:59:53Z</time>
					</trkpt>
					<trkpt lat="47.995240" lon="6.573830">
						<ele>596</ele>
						<time>2023-01-17T20:59:59Z</time>
					</trkpt>
					<trkpt lat="47.995400" lon="6.574240">
						<ele>599</ele>
						<time>2023-01-17T21:00:04Z</time>
					</trkpt>
					<trkpt lat="47.995600" lon="6.574610">
						<ele>600</ele>
						<time>2023-01-17T21:00:10Z</time>
					</trkpt>
					<trkpt lat="47.995700" lon="6.574760">
						<ele>600</ele>
						<time>2023-01-17T21:00:12Z</time>
					</trkpt>
					<trkpt lat="47.996280" lon="6.575450">
						<ele>595</ele>
						<time>2023-01-17T21:00:26Z</time>
					</trkpt>
					<trkpt lat="47.996580" lon="6.575930">
						<ele>593</ele>
						<time>2023-01-17T21:00:33Z</time>
					</trkpt>
					<trkpt lat="47.996710" lon="6.576310">
						<ele>593</ele>
						<time>2023-01-17T21:00:38Z</time>
					</trkpt>
					<trkpt lat="47.996750" lon="6.576490">
						<ele>593</ele>
						<time>2023-01-17T21:00:41Z</time>
					</trkpt>
					<trkpt lat="47.996750" lon="6.576820">
						<ele>595</ele>
						<time>2023-01-17T21:00:45Z</time>
					</trkpt>
					<trkpt lat="47.996730" lon="6.577020">
						<ele>595</ele>
						<time>2023-01-17T21:00:47Z</time>
					</trkpt>
					<trkpt lat="47.996670" lon="6.577150">
						<ele>597</ele>
						<time>2023-01-17T21:00:49Z</time>
					</trkpt>
					<trkpt lat="47.996560" lon="6.577250">
						<ele>599</ele>
						<time>2023-01-17T21:00:51Z</time>
					</trkpt>
					<trkpt lat="47.996330" lon="6.577420">
						<ele>602</ele>
						<time>2023-01-17T21:00:56Z</time>
					</trkpt>
					<trkpt lat="47.996070" lon="6.577480">
						<ele>606</ele>
						<time>2023-01-17T21:01:01Z</time>
					</trkpt>
					<trkpt lat="47.995970" lon="6.577530">
						<ele>607</ele>
						<time>2023-01-17T21:01:02Z</time>
					</trkpt>
					<trkpt lat="47.995770" lon="6.577730">
						<ele>609</ele>
						<time>2023-01-17T21:01:07Z</time>
					</trkpt>
					<trkpt lat="47.995430" lon="6.578140">
						<ele>613</ele>
						<time>2023-01-17T21:01:14Z</time>
					</trkpt>
					<trkpt lat="47.995010" lon="6.578730">
						<ele>612</ele>
						<time>2023-01-17T21:01:25Z</time>
					</trkpt>
					<trkpt lat="47.994830" lon="6.578860">
						<ele>613</ele>
						<time>2023-01-17T21:01:28Z</time>
					</trkpt>
					<trkpt lat="47.994550" lon="6.578870">
						<ele>618</ele>
						<time>2023-01-17T21:01:33Z</time>
					</trkpt>
					<trkpt lat="47.993710" lon="6.579160">
						<ele>625</ele>
						<time>2023-01-17T21:01:49Z</time>
					</trkpt>
					<trkpt lat="47.993300" lon="6.579420">
						<ele>626</ele>
						<time>2023-01-17T21:01:57Z</time>
					</trkpt>
					<trkpt lat="47.993140" lon="6.579490">
						<ele>628</ele>
						<time>2023-01-17T21:01:59Z</time>
					</trkpt>
					<trkpt lat="47.992560" lon="6.579810">
						<ele>633</ele>
						<time>2023-01-17T21:02:10Z</time>
					</trkpt>
					<trkpt lat="47.992330" lon="6.579980">
						<ele>634</ele>
						<time>2023-01-17T21:02:15Z</time>
					</trkpt>
					<trkpt lat="47.992080" lon="6.580100">
						<ele>639</ele>
						<time>2023-01-17T21:02:20Z</time>
					</trkpt>
					<trkpt lat="47.991980" lon="6.580170">
						<ele>641</ele>
						<time>2023-01-17T21:02:22Z</time>
					</trkpt>
					<trkpt lat="47.991900" lon="6.580250">
						<ele>643</ele>
						<time>2023-01-17T21:02:23Z</time>
					</trkpt>
					<trkpt lat="47.991860" lon="6.580380">
						<ele>643</ele>
						<time>2023-01-17T21:02:25Z</time>
					</trkpt>
					<trkpt lat="47.991850" lon="6.580530">
						<ele>642</ele>
						<time>2023-01-17T21:02:27Z</time>
					</trkpt>
					<trkpt lat="47.991880" lon="6.580790">
						<ele>641</ele>
						<time>2023-01-17T21:02:30Z</time>
					</trkpt>
					<trkpt lat="47.992010" lon="6.581090">
						<ele>640</ele>
						<time>2023-01-17T21:02:34Z</time>
					</trkpt>
					<trkpt lat="47.992100" lon="6.581240">
						<ele>639</ele>
						<time>2023-01-17T21:02:37Z</time>
					</trkpt>
					<trkpt lat="47.992280" lon="6.581600">
						<ele>636</ele>
						<time>2023-01-17T21:02:42Z</time>
					</trkpt>
					<trkpt lat="47.992380" lon="6.581980">
						<ele>637</ele>
						<time>2023-01-17T21:02:47Z</time>
					</trkpt>
					<trkpt lat="47.992450" lon="6.582380">
						<ele>639</ele>
						<time>2023-01-17T21:02:52Z</time>
					</trkpt>
					<trkpt lat="47.992510" lon="6.582940">
						<ele>638</ele>
						<time>2023-01-17T21:02:59Z</time>
					</trkpt>
					<trkpt lat="47.992500" lon="6.583100">
						<ele>638</ele>
						<time>2023-01-17T21:03:00Z</time>
					</trkpt>
					<trkpt lat="47.992450" lon="6.583270">
						<ele>639</ele>
						<time>2023-01-17T21:03:03Z</time>
					</trkpt>
					<trkpt lat="47.992280" lon="6.583600">
						<ele>643</ele>
						<time>2023-01-17T21:03:08Z</time>
					</trkpt>
					<trkpt lat="47.992030" lon="6.584010">
						<ele>647</ele>
						<time>2023-01-17T21:03:14Z</time>
					</trkpt>
					<trkpt lat="47.991800" lon="6.584510">
						<ele>648</ele>
						<time>2023-01-17T21:03:21Z</time>
					</trkpt>
					<trkpt lat="47.991590" lon="6.584830">
						<ele>651</ele>
						<time>2023-01-17T21:03:27Z</time>
					</trkpt>
					<trkpt lat="47.991480" lon="6.584950">
						<ele>653</ele>
						<time>2023-01-17T21:03:29Z</time>
					</trkpt>
					<trkpt lat="47.991160" lon="6.585370">
						<ele>655</ele>
						<time>2023-01-17T21:03:37Z</time>
					</trkpt>
					<trkpt lat="47.990640" lon="6.585770">
						<ele>661</ele>
						<time>2023-01-17T21:03:47Z</time>
					</trkpt>
					<trkpt lat="47.990390" lon="6.586010">
						<ele>664</ele>
						<time>2023-01-17T21:03:53Z</time>
					</trkpt>
					<trkpt lat="47.989850" lon="6.586790">
						<ele>664</ele>
						<time>2023-01-17T21:04:06Z</time>
					</trkpt>
					<trkpt lat="47.989310" lon="6.587490">
						<ele>669</ele>
						<time>2023-01-17T21:04:19Z</time>
					</trkpt>
					<trkpt lat="47.988980" lon="6.587860">
						<ele>675</ele>
						<time>2023-01-17T21:04:26Z</time>
					</trkpt>
					<trkpt lat="47.988870" lon="6.588240">
						<ele>674</ele>
						<time>2023-01-17T21:04:31Z</time>
					</trkpt>
					<trkpt lat="47.988720" lon="6.588590">
						<ele>676</ele>
						<time>2023-01-17T21:04:36Z</time>
					</trkpt>
					<trkpt lat="47.988560" lon="6.588860">
						<ele>678</ele>
						<time>2023-01-17T21:04:40Z</time>
					</trkpt>
					<trkpt lat="47.988270" lon="6.589260">
						<ele>680</ele>
						<time>2023-01-17T21:04:47Z</time>
					</trkpt>
					<trkpt lat="47.988160" lon="6.589370">
						<ele>680</ele>
						<time>2023-01-17T21:04:49Z</time>
					</trkpt>
					<trkpt lat="47.987440" lon="6.589880">
						<ele>685</ele>
						<time>2023-01-17T21:05:04Z</time>
					</trkpt>
					<trkpt lat="47.986620" lon="6.590510">
						<ele>692</ele>
						<time>2023-01-17T21:05:20Z</time>
					</trkpt>
					<trkpt lat="47.986230" lon="6.590900">
						<ele>698</ele>
						<time>2023-01-17T21:05:28Z</time>
					</trkpt>
					<trkpt lat="47.986160" lon="6.591020">
						<ele>700</ele>
						<time>2023-01-17T21:05:30Z</time>
					</trkpt>
					<trkpt lat="47.986120" lon="6.591140">
						<ele>701</ele>
						<time>2023-01-17T21:05:32Z</time>
					</trkpt>
					<trkpt lat="47.986120" lon="6.591300">
						<ele>701</ele>
						<time>2023-01-17T21:05:34Z</time>
					</trkpt>
					<trkpt lat="47.986160" lon="6.591890">
						<ele>701</ele>
						<time>2023-01-17T21:05:41Z</time>
					</trkpt>
					<trkpt lat="47.986190" lon="6.592090">
						<ele>701</ele>
						<time>2023-01-17T21:05:43Z</time>
					</trkpt>
					<trkpt lat="47.986410" lon="6.592990">
						<ele>702</ele>
						<time>2023-01-17T21:05:55Z</time>
					</trkpt>
					<trkpt lat="47.986450" lon="6.593280">
						<ele>703</ele>
						<time>2023-01-17T21:05:58Z</time>
					</trkpt>
					<trkpt lat="47.986430" lon="6.593590">
						<ele>704</ele>
						<time>2023-01-17T21:06:02Z</time>
					</trkpt>
					<trkpt lat="47.986340" lon="6.594170">
						<ele>704</ele>
						<time>2023-01-17T21:06:09Z</time>
					</trkpt>
					<trkpt lat="47.986310" lon="6.594280">
						<ele>703</ele>
						<time>2023-01-17T21:06:10Z</time>
					</trkpt>
					<trkpt lat="47.986250" lon="6.594380">
						<ele>704</ele>
						<time>2023-01-17T21:06:12Z</time>
					</trkpt>
					<trkpt lat="47.986110" lon="6.594540">
						<ele>704</ele>
						<time>2023-01-17T21:06:15Z</time>
					</trkpt>
					<trkpt lat="47.985920" lon="6.594600">
						<ele>705</ele>
						<time>2023-01-17T21:06:19Z</time>
					</trkpt>
					<trkpt lat="47.985400" lon="6.594550">
						<ele>708</ele>
						<time>2023-01-17T21:06:28Z</time>
					</trkpt>
					<trkpt lat="47.984970" lon="6.594540">
						<ele>710</ele>
						<time>2023-01-17T21:06:36Z</time>
					</trkpt>
					<trkpt lat="47.984470" lon="6.594570">
						<ele>710</ele>
						<time>2023-01-17T21:06:44Z</time>
					</trkpt>
					<trkpt lat="47.984210" lon="6.594640">
						<ele>709</ele>
						<time>2023-01-17T21:06:49Z</time>
					</trkpt>
					<trkpt lat="47.983130" lon="6.594920">
						<ele>709</ele>
						<time>2023-01-17T21:07:09Z</time>
					</trkpt>
					<trkpt lat="47.982980" lon="6.594930">
						<ele>708</ele>
						<time>2023-01-17T21:07:11Z</time>
					</trkpt>
					<trkpt lat="47.982660" lon="6.594900">
						<ele>706</ele>
						<time>2023-01-17T21:07:17Z</time>
					</trkpt>
					<trkpt lat="47.982190" lon="6.594950">
						<ele>704</ele>
						<time>2023-01-17T21:07:25Z</time>
					</trkpt>
					<trkpt lat="47.981600" lon="6.595060">
						<ele>702</ele>
						<time>2023-01-17T21:07:36Z</time>
					</trkpt>
					<trkpt lat="47.980800" lon="6.594920">
						<ele>701</ele>
						<time>2023-01-17T21:07:50Z</time>
					</trkpt>
					<trkpt lat="47.980340" lon="6.594930">
						<ele>700</ele>
						<time>2023-01-17T21:07:59Z</time>
					</trkpt>
					<trkpt lat="47.980080" lon="6.595020">
						<ele>699</ele>
						<time>2023-01-17T21:08:03Z</time>
					</trkpt>
					<trkpt lat="47.979100" lon="6.595500">
						<ele>702</ele>
						<time>2023-01-17T21:08:22Z</time>
					</trkpt>
					<trkpt lat="47.978300" lon="6.595840">
						<ele>699</ele>
						<time>2023-01-17T21:08:36Z</time>
					</trkpt>
					<trkpt lat="47.976990" lon="6.596330">
						<ele>685</ele>
						<time>2023-01-17T21:09:00Z</time>
					</trkpt>
					<trkpt lat="47.976450" lon="6.596650">
						<ele>682</ele>
						<time>2023-01-17T21:09:11Z</time>
					</trkpt>
					<trkpt lat="47.976130" lon="6.596920">
						<ele>678</ele>
						<time>2023-01-17T21:09:17Z</time>
					</trkpt>
					<trkpt lat="47.975780" lon="6.597130">
						<ele>679</ele>
						<time>2023-01-17T21:09:24Z</time>
					</trkpt>
					<trkpt lat="47.975370" lon="6.597280">
						<ele>675</ele>
						<time>2023-01-17T21:09:32Z</time>
					</trkpt>
					<trkpt lat="47.975100" lon="6.597350">
						<ele>674</ele>
						<time>2023-01-17T21:09:36Z</time>
					</trkpt>
					<trkpt lat="47.974950" lon="6.597370">
						<ele>673</ele>
						<time>2023-01-17T21:09:39Z</time>
					</trkpt>
					<trkpt lat="47.974750" lon="6.597310">
						<ele>674</ele>
						<time>2023-01-17T21:09:43Z</time>
					</trkpt>
					<trkpt lat="47.974030" lon="6.596800">
						<ele>677</ele>
						<time>2023-01-17T21:09:57Z</time>
					</trkpt>
					<trkpt lat="47.974000" lon="6.596760">
						<ele>677</ele>
						<time>2023-01-17T21:09:58Z</time>
					</trkpt>
					<trkpt lat="47.973910" lon="6.596660">
						<ele>679</ele>
						<time>2023-01-17T21:10:00Z</time>
					</trkpt>
					<trkpt lat="47.973840" lon="6.596550">
						<ele>681</ele>
						<time>2023-01-17T21:10:01Z</time>
					</trkpt>
					<trkpt lat="47.973790" lon="6.596390">
						<ele>682</ele>
						<time>2023-01-17T21:10:04Z</time>
					</trkpt>
					<trkpt lat="47.973010" lon="6.593410">
						<ele>686</ele>
						<time>2023-01-17T21:10:42Z</time>
					</trkpt>
					<trkpt lat="47.972940" lon="6.593200">
						<ele>686</ele>
						<time>2023-01-17T21:10:44Z</time>
					</trkpt>
					<trkpt lat="47.972870" lon="6.593110">
						<ele>687</ele>
						<time>2023-01-17T21:10:46Z</time>
					</trkpt>
					<trkpt lat="47.972800" lon="6.593090">
						<ele>688</ele>
						<time>2023-01-17T21:10:47Z</time>
					</trkpt>
					<trkpt lat="47.972750" lon="6.593120">
						<ele>689</ele>
						<time>2023-01-17T21:10:48Z</time>
					</trkpt>
					<trkpt lat="47.972720" lon="6.593190">
						<ele>691</ele>
						<time>2023-01-17T21:10:49Z</time>
					</trkpt>
					<trkpt lat="47.972720" lon="6.593310">
						<ele>692</ele>
						<time>2023-01-17T21:10:51Z</time>
					</trkpt>
					<trkpt lat="47.972730" lon="6.593450">
						<ele>693</ele>
						<time>2023-01-17T21:10:52Z</time>
					</trkpt>
					<trkpt lat="47.972800" lon="6.593910">
						<ele>695</ele>
						<time>2023-01-17T21:10:58Z</time>
					</trkpt>
					<trkpt lat="47.972820" lon="6.594300">
						<ele>697</ele>
						<time>2023-01-17T21:11:03Z</time>
					</trkpt>
					<trkpt lat="47.972710" lon="6.595060">
						<ele>701</ele>
						<time>2023-01-17T21:11:12Z</time>
					</trkpt>
					<trkpt lat="47.972660" lon="6.595250">
						<ele>701</ele>
						<time>2023-01-17T21:11:14Z</time>
					</trkpt>
					<trkpt lat="47.972570" lon="6.595550">
						<ele>703</ele>
						<time>2023-01-17T21:11:18Z</time>
					</trkpt>
					<trkpt lat="47.972480" lon="6.595720">
						<ele>704</ele>
						<time>2023-01-17T21:11:21Z</time>
					</trkpt>
					<trkpt lat="47.971130" lon="6.597400">
						<ele>718</ele>
						<time>2023-01-17T21:11:52Z</time>
					</trkpt>
					<trkpt lat="47.971040" lon="6.597490">
						<ele>719</ele>
						<time>2023-01-17T21:11:54Z</time>
					</trkpt>
					<trkpt lat="47.970820" lon="6.597600">
						<ele>719</ele>
						<time>2023-01-17T21:11:58Z</time>
					</trkpt>
					<trkpt lat="47.970240" lon="6.597590">
						<ele>720</ele>
						<time>2023-01-17T21:12:09Z</time>
					</trkpt>
					<trkpt lat="47.970070" lon="6.597680">
						<ele>720</ele>
						<time>2023-01-17T21:12:12Z</time>
					</trkpt>
					<trkpt lat="47.969980" lon="6.597800">
						<ele>720</ele>
						<time>2023-01-17T21:12:14Z</time>
					</trkpt>
					<trkpt lat="47.969870" lon="6.598010">
						<ele>720</ele>
						<time>2023-01-17T21:12:17Z</time>
					</trkpt>
					<trkpt lat="47.969810" lon="6.598190">
						<ele>720</ele>
						<time>2023-01-17T21:12:19Z</time>
					</trkpt>
					<trkpt lat="47.969670" lon="6.598400">
						<ele>720</ele>
						<time>2023-01-17T21:12:23Z</time>
					</trkpt>
					<trkpt lat="47.969550" lon="6.598540">
						<ele>719</ele>
						<time>2023-01-17T21:12:26Z</time>
					</trkpt>
					<trkpt lat="47.968420" lon="6.599430">
						<ele>716</ele>
						<time>2023-01-17T21:12:48Z</time>
					</trkpt>
					<trkpt lat="47.968120" lon="6.599850">
						<ele>714</ele>
						<time>2023-01-17T21:12:56Z</time>
					</trkpt>
					<trkpt lat="47.967670" lon="6.600590">
						<ele>708</ele>
						<time>2023-01-17T21:13:08Z</time>
					</trkpt>
					<trkpt lat="47.967460" lon="6.600860">
						<ele>707</ele>
						<time>2023-01-17T21:13:13Z</time>
					</trkpt>
					<trkpt lat="47.967090" lon="6.601150">
						<ele>710</ele>
						<time>2023-01-17T21:13:20Z</time>
					</trkpt>
					<trkpt lat="47.966360" lon="6.601420">
						<ele>714</ele>
						<time>2023-01-17T21:13:33Z</time>
					</trkpt>
					<trkpt lat="47.965900" lon="6.601740">
						<ele>717</ele>
						<time>2023-01-17T21:13:42Z</time>
					</trkpt>
					<trkpt lat="47.965790" lon="6.601790">
						<ele>717</ele>
						<time>2023-01-17T21:13:44Z</time>
					</trkpt>
					<trkpt lat="47.965560" lon="6.601990">
						<ele>720</ele>
						<time>2023-01-17T21:13:49Z</time>
					</trkpt>
					<trkpt lat="47.965300" lon="6.602500">
						<ele>728</ele>
						<time>2023-01-17T21:13:57Z</time>
					</trkpt>
					<trkpt lat="47.965080" lon="6.602710">
						<ele>731</ele>
						<time>2023-01-17T21:14:02Z</time>
					</trkpt>
					<trkpt lat="47.964950" lon="6.602780">
						<ele>733</ele>
						<time>2023-01-17T21:14:04Z</time>
					</trkpt>
					<trkpt lat="47.964820" lon="6.602890">
						<ele>735</ele>
						<time>2023-01-17T21:14:07Z</time>
					</trkpt>
					<trkpt lat="47.964680" lon="6.602970">
						<ele>738</ele>
						<time>2023-01-17T21:14:09Z</time>
					</trkpt>
					<trkpt lat="47.964490" lon="6.603010">
						<ele>741</ele>
						<time>2023-01-17T21:14:13Z</time>
					</trkpt>
					<trkpt lat="47.964310" lon="6.602950">
						<ele>743</ele>
						<time>2023-01-17T21:14:16Z</time>
					</trkpt>
					<trkpt lat="47.964140" lon="6.602870">
						<ele>744</ele>
						<time>2023-01-17T21:14:19Z</time>
					</trkpt>
					<trkpt lat="47.963860" lon="6.602670">
						<ele>745</ele>
						<time>2023-01-17T21:14:25Z</time>
					</trkpt>
					<trkpt lat="47.963610" lon="6.602400">
						<ele>746</ele>
						<time>2023-01-17T21:14:30Z</time>
					</trkpt>
					<trkpt lat="47.963470" lon="6.602140">
						<ele>747</ele>
						<time>2023-01-17T21:14:34Z</time>
					</trkpt>
					<trkpt lat="47.963380" lon="6.601830">
						<ele>747</ele>
						<time>2023-01-17T21:14:38Z</time>
					</trkpt>
					<trkpt lat="47.963250" lon="6.601540">
						<ele>746</ele>
						<time>2023-01-17T21:14:42Z</time>
					</trkpt>
					<trkpt lat="47.963050" lon="6.601180">
						<ele>744</ele>
						<time>2023-01-17T21:14:48Z</time>
					</trkpt>
					<trkpt lat="47.962990" lon="6.601010">
						<ele>744</ele>
						<time>2023-01-17T21:14:50Z</time>
					</trkpt>
					<trkpt lat="47.962860" lon="6.600750">
						<ele>743</ele>
						<time>2023-01-17T21:14:54Z</time>
					</trkpt>
					<trkpt lat="47.962720" lon="6.600390">
						<ele>740</ele>
						<time>2023-01-17T21:14:59Z</time>
					</trkpt>
					<trkpt lat="47.962670" lon="6.600200">
						<ele>739</ele>
						<time>2023-01-17T21:15:01Z</time>
					</trkpt>
					<trkpt lat="47.962560" lon="6.599900">
						<ele>738</ele>
						<time>2023-01-17T21:15:06Z</time>
					</trkpt>
					<trkpt lat="47.962400" lon="6.599620">
						<ele>736</ele>
						<time>2023-01-17T21:15:10Z</time>
					</trkpt>
					<trkpt lat="47.962170" lon="6.599450">
						<ele>734</ele>
						<time>2023-01-17T21:15:14Z</time>
					</trkpt>
					<trkpt lat="47.961960" lon="6.599390">
						<ele>732</ele>
						<time>2023-01-17T21:15:18Z</time>
					</trkpt>
					<trkpt lat="47.961740" lon="6.599500">
						<ele>731</ele>
						<time>2023-01-17T21:15:22Z</time>
					</trkpt>
					<trkpt lat="47.961490" lon="6.599930">
						<ele>729</ele>
						<time>2023-01-17T21:15:29Z</time>
					</trkpt>
					<trkpt lat="47.961340" lon="6.600280">
						<ele>728</ele>
						<time>2023-01-17T21:15:34Z</time>
					</trkpt>
					<trkpt lat="47.961180" lon="6.600880">
						<ele>728</ele>
						<time>2023-01-17T21:15:42Z</time>
					</trkpt>
					<trkpt lat="47.961130" lon="6.601210">
						<ele>727</ele>
						<time>2023-01-17T21:15:46Z</time>
					</trkpt>
					<trkpt lat="47.961040" lon="6.601630">
						<ele>725</ele>
						<time>2023-01-17T21:15:51Z</time>
					</trkpt>
					<trkpt lat="47.960900" lon="6.601990">
						<ele>723</ele>
						<time>2023-01-17T21:15:56Z</time>
					</trkpt>
					<trkpt lat="47.960800" lon="6.602400">
						<ele>721</ele>
						<time>2023-01-17T21:16:01Z</time>
					</trkpt>
					<trkpt lat="47.960530" lon="6.602990">
						<ele>716</ele>
						<time>2023-01-17T21:16:10Z</time>
					</trkpt>
					<trkpt lat="47.960210" lon="6.603540">
						<ele>708</ele>
						<time>2023-01-17T21:16:18Z</time>
					</trkpt>
					<trkpt lat="47.960120" lon="6.603650">
						<ele>706</ele>
						<time>2023-01-17T21:16:21Z</time>
					</trkpt>
					<trkpt lat="47.960030" lon="6.603720">
						<ele>705</ele>
						<time>2023-01-17T21:16:22Z</time>
					</trkpt>
					<trkpt lat="47.959860" lon="6.603780">
						<ele>703</ele>
						<time>2023-01-17T21:16:25Z</time>
					</trkpt>
					<trkpt lat="47.959620" lon="6.603790">
						<ele>703</ele>
						<time>2023-01-17T21:16:30Z</time>
					</trkpt>
					<trkpt lat="47.958310" lon="6.603770">
						<ele>701</ele>
						<time>2023-01-17T21:16:53Z</time>
					</trkpt>
					<trkpt lat="47.957780" lon="6.603670">
						<ele>701</ele>
						<time>2023-01-17T21:17:03Z</time>
					</trkpt>
					<trkpt lat="47.957120" lon="6.603660">
						<ele>698</ele>
						<time>2023-01-17T21:17:14Z</time>
					</trkpt>
					<trkpt lat="47.956430" lon="6.603490">
						<ele>695</ele>
						<time>2023-01-17T21:17:27Z</time>
					</trkpt>
					<trkpt lat="47.956290" lon="6.603420">
						<ele>696</ele>
						<time>2023-01-17T21:17:29Z</time>
					</trkpt>
					<trkpt lat="47.956180" lon="6.603320">
						<ele>696</ele>
						<time>2023-01-17T21:17:32Z</time>
					</trkpt>
					<trkpt lat="47.955590" lon="6.602430">
						<ele>699</ele>
						<time>2023-01-17T21:17:47Z</time>
					</trkpt>
					<trkpt lat="47.955310" lon="6.601930">
						<ele>705</ele>
						<time>2023-01-17T21:17:54Z</time>
					</trkpt>
					<trkpt lat="47.955130" lon="6.601660">
						<ele>709</ele>
						<time>2023-01-17T21:17:59Z</time>
					</trkpt>
					<trkpt lat="47.954850" lon="6.601390">
						<ele>712</ele>
						<time>2023-01-17T21:18:05Z</time>
					</trkpt>
					<trkpt lat="47.954750" lon="6.601270">
						<ele>712</ele>
						<time>2023-01-17T21:18:07Z</time>
					</trkpt>
					<trkpt lat="47.954220" lon="6.600500">
						<ele>717</ele>
						<time>2023-01-17T21:18:20Z</time>
					</trkpt>
					<trkpt lat="47.954110" lon="6.600420">
						<ele>719</ele>
						<time>2023-01-17T21:18:22Z</time>
					</trkpt>
					<trkpt lat="47.953840" lon="6.600150">
						<ele>722</ele>
						<time>2023-01-17T21:18:28Z</time>
					</trkpt>
					<trkpt lat="47.953430" lon="6.599870">
						<ele>727</ele>
						<time>2023-01-17T21:18:36Z</time>
					</trkpt>
					<trkpt lat="47.952850" lon="6.599290">
						<ele>730</ele>
						<time>2023-01-17T21:18:49Z</time>
					</trkpt>
					<trkpt lat="47.952570" lon="6.598920">
						<ele>731</ele>
						<time>2023-01-17T21:18:55Z</time>
					</trkpt>
					<trkpt lat="47.952500" lon="6.598760">
						<ele>732</ele>
						<time>2023-01-17T21:18:58Z</time>
					</trkpt>
					<trkpt lat="47.952420" lon="6.598160">
						<ele>731</ele>
						<time>2023-01-17T21:19:05Z</time>
					</trkpt>
					<trkpt lat="47.952360" lon="6.597820">
						<ele>730</ele>
						<time>2023-01-17T21:19:09Z</time>
					</trkpt>
					<trkpt lat="47.952300" lon="6.597700">
						<ele>730</ele>
						<time>2023-01-17T21:19:11Z</time>
					</trkpt>
					<trkpt lat="47.952220" lon="6.597470">
						<ele>730</ele>
						<time>2023-01-17T21:19:14Z</time>
					</trkpt>
					<trkpt lat="47.952120" lon="6.597290">
						<ele>731</ele>
						<time>2023-01-17T21:19:17Z</time>
					</trkpt>
					<trkpt lat="47.952000" lon="6.597170">
						<ele>731</ele>
						<time>2023-01-17T21:19:19Z</time>
					</trkpt>
					<trkpt lat="47.951310" lon="6.596370">
						<ele>732</ele>
						<time>2023-01-17T21:19:35Z</time>
					</trkpt>
					<trkpt lat="47.950930" lon="6.596020">
						<ele>732</ele>
						<time>2023-01-17T21:19:43Z</time>
					</trkpt>
					<trkpt lat="47.950790" lon="6.595840">
						<ele>732</ele>
						<time>2023-01-17T21:19:46Z</time>
					</trkpt>
					<trkpt lat="47.950660" lon="6.595640">
						<ele>730</ele>
						<time>2023-01-17T21:19:49Z</time>
					</trkpt>
					<trkpt lat="47.950070" lon="6.594510">
						<ele>722</ele>
						<time>2023-01-17T21:20:06Z</time>
					</trkpt>
					<trkpt lat="47.949860" lon="6.594190">
						<ele>720</ele>
						<time>2023-01-17T21:20:12Z</time>
					</trkpt>
					<trkpt lat="47.949750" lon="6.594100">
						<ele>719</ele>
						<time>2023-01-17T21:20:14Z</time>
					</trkpt>
					<trkpt lat="47.949550" lon="6.594060">
						<ele>719</ele>
						<time>2023-01-17T21:20:18Z</time>
					</trkpt>
					<trkpt lat="47.949320" lon="6.594070">
						<ele>718</ele>
						<time>2023-01-17T21:20:22Z</time>
					</trkpt>
					<trkpt lat="47.948660" lon="6.594180">
						<ele>727</ele>
						<time>2023-01-17T21:20:34Z</time>
					</trkpt>
					<trkpt lat="47.948580" lon="6.594140">
						<ele>728</ele>
						<time>2023-01-17T21:20:35Z</time>
					</trkpt>
					<trkpt lat="47.948400" lon="6.593960">
						<ele>731</ele>
						<time>2023-01-17T21:20:39Z</time>
					</trkpt>
					<trkpt lat="47.948350" lon="6.593840">
						<ele>732</ele>
						<time>2023-01-17T21:20:41Z</time>
					</trkpt>
					<trkpt lat="47.948330" lon="6.593690">
						<ele>731</ele>
						<time>2023-01-17T21:20:42Z</time>
					</trkpt>
					<trkpt lat="47.948230" lon="6.592960">
						<ele>732</ele>
						<time>2023-01-17T21:20:51Z</time>
					</trkpt>
					<trkpt lat="47.948090" lon="6.593100">
						<ele>737</ele>
						<time>2023-01-17T21:20:54Z</time>
					</trkpt>
					<trkpt lat="47.948060" lon="6.593270">
						<ele>739</ele>
						<time>2023-01-17T21:20:56Z</time>
					</trkpt>
					<trkpt lat="47.948150" lon="6.593970">
						<ele>738</ele>
						<time>2023-01-17T21:21:05Z</time>
					</trkpt>
					<trkpt lat="47.948160" lon="6.594840">
						<ele>739</ele>
						<time>2023-01-17T21:21:15Z</time>
					</trkpt>
					<trkpt lat="47.948000" lon="6.596000">
						<ele>739</ele>
						<time>2023-01-17T21:21:29Z</time>
					</trkpt>
					<trkpt lat="47.947780" lon="6.596760">
						<ele>743</ele>
						<time>2023-01-17T21:21:39Z</time>
					</trkpt>
					<trkpt lat="47.947340" lon="6.597460">
						<ele>751</ele>
						<time>2023-01-17T21:21:51Z</time>
					</trkpt>
					<trkpt lat="47.946820" lon="6.598180">
						<ele>755</ele>
						<time>2023-01-17T21:22:03Z</time>
					</trkpt>
					<trkpt lat="47.946310" lon="6.598750">
						<ele>756</ele>
						<time>2023-01-17T21:22:15Z</time>
					</trkpt>
					<trkpt lat="47.945090" lon="6.600350">
						<ele>758</ele>
						<time>2023-01-17T21:22:44Z</time>
					</trkpt>
					<trkpt lat="47.944670" lon="6.600880">
						<ele>758</ele>
						<time>2023-01-17T21:22:53Z</time>
					</trkpt>
					<trkpt lat="47.944500" lon="6.601140">
						<ele>760</ele>
						<time>2023-01-17T21:22:58Z</time>
					</trkpt>
					<trkpt lat="47.944430" lon="6.601380">
						<ele>762</ele>
						<time>2023-01-17T21:23:01Z</time>
					</trkpt>
					<trkpt lat="47.944380" lon="6.601740">
						<ele>765</ele>
						<time>2023-01-17T21:23:05Z</time>
					</trkpt>
					<trkpt lat="47.944400" lon="6.602250">
						<ele>765</ele>
						<time>2023-01-17T21:23:11Z</time>
					</trkpt>
					<trkpt lat="47.944380" lon="6.602830">
						<ele>766</ele>
						<time>2023-01-17T21:23:18Z</time>
					</trkpt>
					<trkpt lat="47.944160" lon="6.603500">
						<ele>772</ele>
						<time>2023-01-17T21:23:27Z</time>
					</trkpt>
					<trkpt lat="47.943940" lon="6.604980">
						<ele>777</ele>
						<time>2023-01-17T21:23:45Z</time>
					</trkpt>
					<trkpt lat="47.943840" lon="6.605490">
						<ele>778</ele>
						<time>2023-01-17T21:23:51Z</time>
					</trkpt>
					<trkpt lat="47.943790" lon="6.605630">
						<ele>779</ele>
						<time>2023-01-17T21:23:53Z</time>
					</trkpt>
					<trkpt lat="47.943780" lon="6.605910">
						<ele>779</ele>
						<time>2023-01-17T21:23:57Z</time>
					</trkpt>
					<trkpt lat="47.943800" lon="6.606550">
						<ele>776</ele>
						<time>2023-01-17T21:24:04Z</time>
					</trkpt>
					<trkpt lat="47.943780" lon="6.606640">
						<ele>777</ele>
						<time>2023-01-17T21:24:05Z</time>
					</trkpt>
					<trkpt lat="47.943740" lon="6.606720">
						<ele>777</ele>
						<time>2023-01-17T21:24:07Z</time>
					</trkpt>
					<trkpt lat="47.943690" lon="6.606780">
						<ele>778</ele>
						<time>2023-01-17T21:24:08Z</time>
					</trkpt>
					<trkpt lat="47.943530" lon="6.606810">
						<ele>781</ele>
						<time>2023-01-17T21:24:11Z</time>
					</trkpt>
					<trkpt lat="47.943440" lon="6.606770">
						<ele>783</ele>
						<time>2023-01-17T21:24:12Z</time>
					</trkpt>
					<trkpt lat="47.943370" lon="6.606640">
						<ele>785</ele>
						<time>2023-01-17T21:24:14Z</time>
					</trkpt>
					<trkpt lat="47.943360" lon="6.606500">
						<ele>786</ele>
						<time>2023-01-17T21:24:16Z</time>
					</trkpt>
					<trkpt lat="47.943460" lon="6.605920">
						<ele>789</ele>
						<time>2023-01-17T21:24:23Z</time>
					</trkpt>
					<trkpt lat="47.943460" lon="6.605500">
						<ele>790</ele>
						<time>2023-01-17T21:24:28Z</time>
					</trkpt>
					<trkpt lat="47.943430" lon="6.605260">
						<ele>791</ele>
						<time>2023-01-17T21:24:31Z</time>
					</trkpt>
					<trkpt lat="47.943380" lon="6.605100">
						<ele>792</ele>
						<time>2023-01-17T21:24:33Z</time>
					</trkpt>
					<trkpt lat="47.943310" lon="6.604960">
						<ele>793</ele>
						<time>2023-01-17T21:24:35Z</time>
					</trkpt>
					<trkpt lat="47.943200" lon="6.604800">
						<ele>794</ele>
						<time>2023-01-17T21:24:38Z</time>
					</trkpt>
					<trkpt lat="47.943120" lon="6.604760">
						<ele>795</ele>
						<time>2023-01-17T21:24:39Z</time>
					</trkpt>
					<trkpt lat="47.943030" lon="6.604780">
						<ele>796</ele>
						<time>2023-01-17T21:24:41Z</time>
					</trkpt>
					<trkpt lat="47.942920" lon="6.604910">
						<ele>798</ele>
						<time>2023-01-17T21:24:44Z</time>
					</trkpt>
					<trkpt lat="47.942650" lon="6.605530">
						<ele>803</ele>
						<time>2023-01-17T21:24:52Z</time>
					</trkpt>
					<trkpt lat="47.942390" lon="6.605960">
						<ele>806</ele>
						<time>2023-01-17T21:24:59Z</time>
					</trkpt>
					<trkpt lat="47.942180" lon="6.606550">
						<ele>805</ele>
						<time>2023-01-17T21:25:07Z</time>
					</trkpt>
					<trkpt lat="47.942050" lon="6.606850">
						<ele>806</ele>
						<time>2023-01-17T21:25:12Z</time>
					</trkpt>
					<trkpt lat="47.941190" lon="6.608160">
						<ele>813</ele>
						<time>2023-01-17T21:25:33Z</time>
					</trkpt>
					<trkpt lat="47.940890" lon="6.608430">
						<ele>813</ele>
						<time>2023-01-17T21:25:40Z</time>
					</trkpt>
					<trkpt lat="47.940140" lon="6.608890">
						<ele>809</ele>
						<time>2023-01-17T21:25:54Z</time>
					</trkpt>
					<trkpt lat="47.939440" lon="6.609390">
						<ele>806</ele>
						<time>2023-01-17T21:26:08Z</time>
					</trkpt>
					<trkpt lat="47.939060" lon="6.609710">
						<ele>804</ele>
						<time>2023-01-17T21:26:16Z</time>
					</trkpt>
					<trkpt lat="47.938860" lon="6.609760">
						<ele>804</ele>
						<time>2023-01-17T21:26:19Z</time>
					</trkpt>
					<trkpt lat="47.938600" lon="6.609720">
						<ele>803</ele>
						<time>2023-01-17T21:26:24Z</time>
					</trkpt>
					<trkpt lat="47.938310" lon="6.609570">
						<ele>803</ele>
						<time>2023-01-17T21:26:29Z</time>
					</trkpt>
					<trkpt lat="47.936520" lon="6.608350">
						<ele>798</ele>
						<time>2023-01-17T21:27:04Z</time>
					</trkpt>
					<trkpt lat="47.936160" lon="6.608050">
						<ele>794</ele>
						<time>2023-01-17T21:27:12Z</time>
					</trkpt>
					<trkpt lat="47.935950" lon="6.607900">
						<ele>792</ele>
						<time>2023-01-17T21:27:16Z</time>
					</trkpt>
					<trkpt lat="47.935680" lon="6.607740">
						<ele>792</ele>
						<time>2023-01-17T21:27:21Z</time>
					</trkpt>
					<trkpt lat="47.935300" lon="6.607580">
						<ele>794</ele>
						<time>2023-01-17T21:27:28Z</time>
					</trkpt>
					<trkpt lat="47.935130" lon="6.607580">
						<ele>795</ele>
						<time>2023-01-17T21:27:31Z</time>
					</trkpt>
					<trkpt lat="47.934910" lon="6.607640">
						<ele>797</ele>
						<time>2023-01-17T21:27:35Z</time>
					</trkpt>
					<trkpt lat="47.934600" lon="6.607740">
						<ele>799</ele>
						<time>2023-01-17T21:27:41Z</time>
					</trkpt>
					<trkpt lat="47.934340" lon="6.607900">
						<ele>801</ele>
						<time>2023-01-17T21:27:46Z</time>
					</trkpt>
					<trkpt lat="47.934250" lon="6.608040">
						<ele>801</ele>
						<time>2023-01-17T21:27:48Z</time>
					</trkpt>
					<trkpt lat="47.934120" lon="6.608450">
						<ele>802</ele>
						<time>2023-01-17T21:27:53Z</time>
					</trkpt>
					<trkpt lat="47.934040" lon="6.608580">
						<ele>802</ele>
						<time>2023-01-17T21:27:55Z</time>
					</trkpt>
					<trkpt lat="47.933890" lon="6.608680">
						<ele>802</ele>
						<time>2023-01-17T21:27:58Z</time>
					</trkpt>
					<trkpt lat="47.933620" lon="6.608740">
						<ele>801</ele>
						<time>2023-01-17T21:28:03Z</time>
					</trkpt>
					<trkpt lat="47.933300" lon="6.608760">
						<ele>801</ele>
						<time>2023-01-17T21:28:09Z</time>
					</trkpt>
					<trkpt lat="47.933120" lon="6.608800">
						<ele>800</ele>
						<time>2023-01-17T21:28:12Z</time>
					</trkpt>
					<trkpt lat="47.932990" lon="6.608950">
						<ele>799</ele>
						<time>2023-01-17T21:28:15Z</time>
					</trkpt>
					<trkpt lat="47.932900" lon="6.609160">
						<ele>799</ele>
						<time>2023-01-17T21:28:18Z</time>
					</trkpt>
					<trkpt lat="47.932860" lon="6.609340">
						<ele>800</ele>
						<time>2023-01-17T21:28:20Z</time>
					</trkpt>
					<trkpt lat="47.932840" lon="6.609580">
						<ele>801</ele>
						<time>2023-01-17T21:28:23Z</time>
					</trkpt>
					<trkpt lat="47.932930" lon="6.612410">
						<ele>801</ele>
						<time>2023-01-17T21:28:57Z</time>
					</trkpt>
					<trkpt lat="47.932920" lon="6.612980">
						<ele>800</ele>
						<time>2023-01-17T21:29:04Z</time>
					</trkpt>
					<trkpt lat="47.932830" lon="6.613490">
						<ele>799</ele>
						<time>2023-01-17T21:29:10Z</time>
					</trkpt>
					<trkpt lat="47.932450" lon="6.614840">
						<ele>800</ele>
						<time>2023-01-17T21:29:28Z</time>
					</trkpt>
					<trkpt lat="47.932270" lon="6.615300">
						<ele>798</ele>
						<time>2023-01-17T21:29:34Z</time>
					</trkpt>
					<trkpt lat="47.931540" lon="6.616610">
						<ele>797</ele>
						<time>2023-01-17T21:29:54Z</time>
					</trkpt>
					<trkpt lat="47.931270" lon="6.616950">
						<ele>799</ele>
						<time>2023-01-17T21:30:00Z</time>
					</trkpt>
					<trkpt lat="47.930930" lon="6.617180">
						<ele>801</ele>
						<time>2023-01-17T21:30:07Z</time>
					</trkpt>
					<trkpt lat="47.930320" lon="6.617420">
						<ele>805</ele>
						<time>2023-01-17T21:30:18Z</time>
					</trkpt>
					<trkpt lat="47.929970" lon="6.617690">
						<ele>806</ele>
						<time>2023-01-17T21:30:25Z</time>
					</trkpt>
					<trkpt lat="47.929780" lon="6.618060">
						<ele>808</ele>
						<time>2023-01-17T21:30:31Z</time>
					</trkpt>
					<trkpt lat="47.929640" lon="6.618440">
						<ele>810</ele>
						<time>2023-01-17T21:30:36Z</time>
					</trkpt>
					<trkpt lat="47.929540" lon="6.618920">
						<ele>809</ele>
						<time>2023-01-17T21:30:42Z</time>
					</trkpt>
					<trkpt lat="47.929390" lon="6.619240">
						<ele>810</ele>
						<time>2023-01-17T21:30:47Z</time>
					</trkpt>
					<trkpt lat="47.929010" lon="6.619910">
						<ele>813</ele>
						<time>2023-01-17T21:30:57Z</time>
					</trkpt>
					<trkpt lat="47.928540" lon="6.620670">
						<ele>813</ele>
						<time>2023-01-17T21:31:10Z</time>
					</trkpt>
					<trkpt lat="47.926810" lon="6.622910">
						<ele>814</ele>
						<time>2023-01-17T21:31:50Z</time>
					</trkpt>
					<trkpt lat="47.926400" lon="6.623630">
						<ele>814</ele>
						<time>2023-01-17T21:32:02Z</time>
					</trkpt>
					<trkpt lat="47.923180" lon="6.629530">
						<ele>808</ele>
						<time>2023-01-17T21:33:32Z</time>
					</trkpt>
					<trkpt lat="47.922700" lon="6.630240">
						<ele>805</ele>
						<time>2023-01-17T21:33:44Z</time>
					</trkpt>
					<trkpt lat="47.922480" lon="6.630480">
						<ele>804</ele>
						<time>2023-01-17T21:33:49Z</time>
					</trkpt>
					<trkpt lat="47.922240" lon="6.630660">
						<ele>802</ele>
						<time>2023-01-17T21:33:54Z</time>
					</trkpt>
					<trkpt lat="47.919960" lon="6.631330">
						<ele>793</ele>
						<time>2023-01-17T21:34:35Z</time>
					</trkpt>
					<trkpt lat="47.919800" lon="6.631430">
						<ele>791</ele>
						<time>2023-01-17T21:34:38Z</time>
					</trkpt>
					<trkpt lat="47.919610" lon="6.631600">
						<ele>789</ele>
						<time>2023-01-17T21:34:42Z</time>
					</trkpt>
					<trkpt lat="47.918300" lon="6.632880">
						<ele>779</ele>
						<time>2023-01-17T21:35:10Z</time>
					</trkpt>
					<trkpt lat="47.918000" lon="6.633210">
						<ele>777</ele>
						<time>2023-01-17T21:35:17Z</time>
					</trkpt>
					<trkpt lat="47.917890" lon="6.633420">
						<ele>776</ele>
						<time>2023-01-17T21:35:20Z</time>
					</trkpt>
					<trkpt lat="47.917820" lon="6.633680">
						<ele>775</ele>
						<time>2023-01-17T21:35:23Z</time>
					</trkpt>
					<trkpt lat="47.917740" lon="6.634070">
						<ele>774</ele>
						<time>2023-01-17T21:35:28Z</time>
					</trkpt>
					<trkpt lat="47.917710" lon="6.634150">
						<ele>774</ele>
						<time>2023-01-17T21:35:29Z</time>
					</trkpt>
					<trkpt lat="47.917650" lon="6.634170">
						<ele>773</ele>
						<time>2023-01-17T21:35:30Z</time>
					</trkpt>
					<trkpt lat="47.917610" lon="6.634120">
						<ele>772</ele>
						<time>2023-01-17T21:35:31Z</time>
					</trkpt>
					<trkpt lat="47.917590" lon="6.634070">
						<ele>772</ele>
						<time>2023-01-17T21:35:32Z</time>
					</trkpt>
					<trkpt lat="47.917570" lon="6.633600">
						<ele>774</ele>
						<time>2023-01-17T21:35:38Z</time>
					</trkpt>
					<trkpt lat="47.917500" lon="6.632900">
						<ele>772</ele>
						<time>2023-01-17T21:35:46Z</time>
					</trkpt>
					<trkpt lat="47.917530" lon="6.632630">
						<ele>772</ele>
						<time>2023-01-17T21:35:49Z</time>
					</trkpt>
					<trkpt lat="47.917620" lon="6.632290">
						<ele>770</ele>
						<time>2023-01-17T21:35:54Z</time>
					</trkpt>
					<trkpt lat="47.918000" lon="6.631280">
						<ele>763</ele>
						<time>2023-01-17T21:36:07Z</time>
					</trkpt>
					<trkpt lat="47.918150" lon="6.630970">
						<ele>760</ele>
						<time>2023-01-17T21:36:12Z</time>
					</trkpt>
					<trkpt lat="47.918520" lon="6.630290">
						<ele>756</ele>
						<time>2023-01-17T21:36:22Z</time>
					</trkpt>
					<trkpt lat="47.918550" lon="6.630160">
						<ele>755</ele>
						<time>2023-01-17T21:36:24Z</time>
					</trkpt>
					<trkpt lat="47.918540" lon="6.630040">
						<ele>753</ele>
						<time>2023-01-17T21:36:26Z</time>
					</trkpt>
					<trkpt lat="47.918510" lon="6.629950">
						<ele>751</ele>
						<time>2023-01-17T21:36:27Z</time>
					</trkpt>
					<trkpt lat="47.918440" lon="6.629890">
						<ele>749</ele>
						<time>2023-01-17T21:36:28Z</time>
					</trkpt>
					<trkpt lat="47.918320" lon="6.629860">
						<ele>746</ele>
						<time>2023-01-17T21:36:30Z</time>
					</trkpt>
					<trkpt lat="47.917650" lon="6.630010">
						<ele>742</ele>
						<time>2023-01-17T21:36:42Z</time>
					</trkpt>
					<trkpt lat="47.917500" lon="6.630080">
						<ele>742</ele>
						<time>2023-01-17T21:36:45Z</time>
					</trkpt>
					<trkpt lat="47.917290" lon="6.630230">
						<ele>742</ele>
						<time>2023-01-17T21:36:49Z</time>
					</trkpt>
					<trkpt lat="47.916730" lon="6.630780">
						<ele>741</ele>
						<time>2023-01-17T21:37:01Z</time>
					</trkpt>
					<trkpt lat="47.916250" lon="6.631430">
						<ele>736</ele>
						<time>2023-01-17T21:37:13Z</time>
					</trkpt>
					<trkpt lat="47.915510" lon="6.632540">
						<ele>730</ele>
						<time>2023-01-17T21:37:32Z</time>
					</trkpt>
					<trkpt lat="47.914870" lon="6.633670">
						<ele>720</ele>
						<time>2023-01-17T21:37:49Z</time>
					</trkpt>
					<trkpt lat="47.914460" lon="6.634300">
						<ele>715</ele>
						<time>2023-01-17T21:38:00Z</time>
					</trkpt>
					<trkpt lat="47.914390" lon="6.634490">
						<ele>716</ele>
						<time>2023-01-17T21:38:02Z</time>
					</trkpt>
					<trkpt lat="47.914320" lon="6.634840">
						<ele>718</ele>
						<time>2023-01-17T21:38:07Z</time>
					</trkpt>
					<trkpt lat="47.914230" lon="6.635090">
						<ele>719</ele>
						<time>2023-01-17T21:38:10Z</time>
					</trkpt>
					<trkpt lat="47.913970" lon="6.635540">
						<ele>715</ele>
						<time>2023-01-17T21:38:17Z</time>
					</trkpt>
					<trkpt lat="47.913810" lon="6.635790">
						<ele>713</ele>
						<time>2023-01-17T21:38:21Z</time>
					</trkpt>
					<trkpt lat="47.913720" lon="6.635880">
						<ele>712</ele>
						<time>2023-01-17T21:38:23Z</time>
					</trkpt>
					<trkpt lat="47.913610" lon="6.635950">
						<ele>711</ele>
						<time>2023-01-17T21:38:25Z</time>
					</trkpt>
					<trkpt lat="47.913530" lon="6.635960">
						<ele>710</ele>
						<time>2023-01-17T21:38:27Z</time>
					</trkpt>
					<trkpt lat="47.913410" lon="6.635920">
						<ele>708</ele>
						<time>2023-01-17T21:38:29Z</time>
					</trkpt>
					<trkpt lat="47.912880" lon="6.635430">
						<ele>710</ele>
						<time>2023-01-17T21:38:40Z</time>
					</trkpt>
					<trkpt lat="47.912610" lon="6.635200">
						<ele>712</ele>
						<time>2023-01-17T21:38:45Z</time>
					</trkpt>
					<trkpt lat="47.912000" lon="6.634880">
						<ele>712</ele>
						<time>2023-01-17T21:38:57Z</time>
					</trkpt>
					<trkpt lat="47.911100" lon="6.634050">
						<ele>705</ele>
						<time>2023-01-17T21:39:16Z</time>
					</trkpt>
					<trkpt lat="47.910850" lon="6.633860">
						<ele>702</ele>
						<time>2023-01-17T21:39:21Z</time>
					</trkpt>
					<trkpt lat="47.910550" lon="6.633700">
						<ele>701</ele>
						<time>2023-01-17T21:39:26Z</time>
					</trkpt>
					<trkpt lat="47.909640" lon="6.633370">
						<ele>699</ele>
						<time>2023-01-17T21:39:43Z</time>
					</trkpt>
					<trkpt lat="47.909500" lon="6.633290">
						<ele>700</ele>
						<time>2023-01-17T21:39:46Z</time>
					</trkpt>
					<trkpt lat="47.909410" lon="6.633200">
						<ele>700</ele>
						<time>2023-01-17T21:39:48Z</time>
					</trkpt>
					<trkpt lat="47.909350" lon="6.633080">
						<ele>700</ele>
						<time>2023-01-17T21:39:49Z</time>
					</trkpt>
					<trkpt lat="47.909060" lon="6.632160">
						<ele>702</ele>
						<time>2023-01-17T21:40:02Z</time>
					</trkpt>
					<trkpt lat="47.909000" lon="6.632020">
						<ele>703</ele>
						<time>2023-01-17T21:40:04Z</time>
					</trkpt>
					<trkpt lat="47.908880" lon="6.631830">
						<ele>705</ele>
						<time>2023-01-17T21:40:07Z</time>
					</trkpt>
					<trkpt lat="47.908750" lon="6.631650">
						<ele>706</ele>
						<time>2023-01-17T21:40:10Z</time>
					</trkpt>
					<trkpt lat="47.908240" lon="6.631140">
						<ele>703</ele>
						<time>2023-01-17T21:40:21Z</time>
					</trkpt>
					<trkpt lat="47.907720" lon="6.630690">
						<ele>698</ele>
						<time>2023-01-17T21:40:31Z</time>
					</trkpt>
					<trkpt lat="47.907490" lon="6.630550">
						<ele>697</ele>
						<time>2023-01-17T21:40:36Z</time>
					</trkpt>
					<trkpt lat="47.907160" lon="6.630470">
						<ele>692</ele>
						<time>2023-01-17T21:40:42Z</time>
					</trkpt>
					<trkpt lat="47.906920" lon="6.630460">
						<ele>689</ele>
						<time>2023-01-17T21:40:46Z</time>
					</trkpt>
					<trkpt lat="47.906760" lon="6.630510">
						<ele>688</ele>
						<time>2023-01-17T21:40:49Z</time>
					</trkpt>
					<trkpt lat="47.906680" lon="6.630590">
						<ele>688</ele>
						<time>2023-01-17T21:40:51Z</time>
					</trkpt>
					<trkpt lat="47.906600" lon="6.630740">
						<ele>689</ele>
						<time>2023-01-17T21:40:53Z</time>
					</trkpt>
					<trkpt lat="47.906560" lon="6.630940">
						<ele>689</ele>
						<time>2023-01-17T21:40:56Z</time>
					</trkpt>
					<trkpt lat="47.906540" lon="6.631330">
						<ele>691</ele>
						<time>2023-01-17T21:41:00Z</time>
					</trkpt>
					<trkpt lat="47.906490" lon="6.631810">
						<ele>691</ele>
						<time>2023-01-17T21:41:06Z</time>
					</trkpt>
					<trkpt lat="47.906440" lon="6.631970">
						<ele>690</ele>
						<time>2023-01-17T21:41:08Z</time>
					</trkpt>
					<trkpt lat="47.906340" lon="6.632150">
						<ele>689</ele>
						<time>2023-01-17T21:41:11Z</time>
					</trkpt>
					<trkpt lat="47.906180" lon="6.632310">
						<ele>687</ele>
						<time>2023-01-17T21:41:14Z</time>
					</trkpt>
					<trkpt lat="47.905130" lon="6.633010">
						<ele>685</ele>
						<time>2023-01-17T21:41:35Z</time>
					</trkpt>
					<trkpt lat="47.904990" lon="6.633150">
						<ele>684</ele>
						<time>2023-01-17T21:41:38Z</time>
					</trkpt>
					<trkpt lat="47.904880" lon="6.633320">
						<ele>683</ele>
						<time>2023-01-17T21:41:41Z</time>
					</trkpt>
					<trkpt lat="47.904780" lon="6.633540">
						<ele>681</ele>
						<time>2023-01-17T21:41:44Z</time>
					</trkpt>
					<trkpt lat="47.904570" lon="6.634130">
						<ele>676</ele>
						<time>2023-01-17T21:41:52Z</time>
					</trkpt>
					<trkpt lat="47.904510" lon="6.634330">
						<ele>675</ele>
						<time>2023-01-17T21:41:54Z</time>
					</trkpt>
					<trkpt lat="47.904480" lon="6.634570">
						<ele>674</ele>
						<time>2023-01-17T21:41:57Z</time>
					</trkpt>
					<trkpt lat="47.904470" lon="6.635910">
						<ele>674</ele>
						<time>2023-01-17T21:42:13Z</time>
					</trkpt>
					<trkpt lat="47.904450" lon="6.636090">
						<ele>674</ele>
						<time>2023-01-17T21:42:15Z</time>
					</trkpt>
					<trkpt lat="47.904410" lon="6.636240">
						<ele>674</ele>
						<time>2023-01-17T21:42:17Z</time>
					</trkpt>
					<trkpt lat="47.904360" lon="6.636340">
						<ele>673</ele>
						<time>2023-01-17T21:42:19Z</time>
					</trkpt>
					<trkpt lat="47.904280" lon="6.636410">
						<ele>672</ele>
						<time>2023-01-17T21:42:20Z</time>
					</trkpt>
					<trkpt lat="47.904020" lon="6.636510">
						<ele>670</ele>
						<time>2023-01-17T21:42:25Z</time>
					</trkpt>
					<trkpt lat="47.903920" lon="6.636570">
						<ele>669</ele>
						<time>2023-01-17T21:42:27Z</time>
					</trkpt>
					<trkpt lat="47.903820" lon="6.636660">
						<ele>669</ele>
						<time>2023-01-17T21:42:29Z</time>
					</trkpt>
					<trkpt lat="47.903390" lon="6.637290">
						<ele>673</ele>
						<time>2023-01-17T21:42:40Z</time>
					</trkpt>
					<trkpt lat="47.902970" lon="6.637700">
						<ele>669</ele>
						<time>2023-01-17T21:42:49Z</time>
					</trkpt>
					<trkpt lat="47.902560" lon="6.638210">
						<ele>667</ele>
						<time>2023-01-17T21:42:58Z</time>
					</trkpt>
					<trkpt lat="47.902370" lon="6.638350">
						<ele>665</ele>
						<time>2023-01-17T21:43:02Z</time>
					</trkpt>
					<trkpt lat="47.902090" lon="6.638510">
						<ele>662</ele>
						<time>2023-01-17T21:43:08Z</time>
					</trkpt>
					<trkpt lat="47.901990" lon="6.638630">
						<ele>661</ele>
						<time>2023-01-17T21:43:10Z</time>
					</trkpt>
					<trkpt lat="47.901820" lon="6.639110">
						<ele>658</ele>
						<time>2023-01-17T21:43:16Z</time>
					</trkpt>
					<trkpt lat="47.901730" lon="6.639510">
						<ele>655</ele>
						<time>2023-01-17T21:43:21Z</time>
					</trkpt>
					<trkpt lat="47.901690" lon="6.639800">
						<ele>653</ele>
						<time>2023-01-17T21:43:25Z</time>
					</trkpt>
					<trkpt lat="47.901710" lon="6.640040">
						<ele>652</ele>
						<time>2023-01-17T21:43:28Z</time>
					</trkpt>
					<trkpt lat="47.901930" lon="6.640680">
						<ele>652</ele>
						<time>2023-01-17T21:43:36Z</time>
					</trkpt>
					<trkpt lat="47.902180" lon="6.641360">
						<ele>648</ele>
						<time>2023-01-17T21:43:46Z</time>
					</trkpt>
					<trkpt lat="47.902560" lon="6.642530">
						<ele>640</ele>
						<time>2023-01-17T21:44:01Z</time>
					</trkpt>
					<trkpt lat="47.902770" lon="6.643510">
						<ele>631</ele>
						<time>2023-01-17T21:44:13Z</time>
					</trkpt>
					<trkpt lat="47.902850" lon="6.643790">
						<ele>629</ele>
						<time>2023-01-17T21:44:17Z</time>
					</trkpt>
					<trkpt lat="47.903000" lon="6.644040">
						<ele>629</ele>
						<time>2023-01-17T21:44:21Z</time>
					</trkpt>
					<trkpt lat="47.903200" lon="6.644240">
						<ele>632</ele>
						<time>2023-01-17T21:44:25Z</time>
					</trkpt>
					<trkpt lat="47.903720" lon="6.644570">
						<ele>635</ele>
						<time>2023-01-17T21:44:35Z</time>
					</trkpt>
					<trkpt lat="47.903780" lon="6.644680">
						<ele>633</ele>
						<time>2023-01-17T21:44:37Z</time>
					</trkpt>
					<trkpt lat="47.903770" lon="6.644760">
						<ele>632</ele>
						<time>2023-01-17T21:44:38Z</time>
					</trkpt>
					<trkpt lat="47.903250" lon="6.644510">
						<ele>632</ele>
						<time>2023-01-17T21:44:48Z</time>
					</trkpt>
					<trkpt lat="47.903240" lon="6.644550">
						<ele>631</ele>
						<time>2023-01-17T21:44:48Z</time>
					</trkpt>
					<trkpt lat="47.903210" lon="6.644590">
						<ele>631</ele>
						<time>2023-01-17T21:44:49Z</time>
					</trkpt>
					<trkpt lat="47.902970" lon="6.644790">
						<ele>627</ele>
						<time>2023-01-17T21:44:54Z</time>
					</trkpt>
					<trkpt lat="47.902790" lon="6.644960">
						<ele>625</ele>
						<time>2023-01-17T21:44:58Z</time>
					</trkpt>
					<trkpt lat="47.902740" lon="6.645030">
						<ele>625</ele>
						<time>2023-01-17T21:44:59Z</time>
					</trkpt>
					<trkpt lat="47.902710" lon="6.645150">
						<ele>626</ele>
						<time>2023-01-17T21:45:00Z</time>
					</trkpt>
					<trkpt lat="47.902690" lon="6.645630">
						<ele>630</ele>
						<time>2023-01-17T21:45:06Z</time>
					</trkpt>
					<trkpt lat="47.902660" lon="6.645700">
						<ele>631</ele>
						<time>2023-01-17T21:45:07Z</time>
					</trkpt>
					<trkpt lat="47.902610" lon="6.645790">
						<ele>631</ele>
						<time>2023-01-17T21:45:08Z</time>
					</trkpt>
					<trkpt lat="47.902460" lon="6.645870">
						<ele>631</ele>
						<time>2023-01-17T21:45:11Z</time>
					</trkpt>
					<trkpt lat="47.901890" lon="6.645980">
						<ele>635</ele>
						<time>2023-01-17T21:45:22Z</time>
					</trkpt>
					<trkpt lat="47.901760" lon="6.645970">
						<ele>636</ele>
						<time>2023-01-17T21:45:24Z</time>
					</trkpt>
					<trkpt lat="47.901430" lon="6.645870">
						<ele>638</ele>
						<time>2023-01-17T21:45:30Z</time>
					</trkpt>
					<trkpt lat="47.900980" lon="6.645650">
						<ele>638</ele>
						<time>2023-01-17T21:45:38Z</time>
					</trkpt>
					<trkpt lat="47.900660" lon="6.645480">
						<ele>638</ele>
						<time>2023-01-17T21:45:44Z</time>
					</trkpt>
					<trkpt lat="47.900420" lon="6.645450">
						<ele>640</ele>
						<time>2023-01-17T21:45:49Z</time>
					</trkpt>
					<trkpt lat="47.900300" lon="6.645480">
						<ele>642</ele>
						<time>2023-01-17T21:45:51Z</time>
					</trkpt>
					<trkpt lat="47.900110" lon="6.645580">
						<ele>646</ele>
						<time>2023-01-17T21:45:54Z</time>
					</trkpt>
					<trkpt lat="47.899400" lon="6.646020">
						<ele>649</ele>
						<time>2023-01-17T21:46:08Z</time>
					</trkpt>
					<trkpt lat="47.899210" lon="6.646210">
						<ele>650</ele>
						<time>2023-01-17T21:46:12Z</time>
					</trkpt>
					<trkpt lat="47.899160" lon="6.646350">
						<ele>651</ele>
						<time>2023-01-17T21:46:14Z</time>
					</trkpt>
					<trkpt lat="47.898920" lon="6.647240">
						<ele>654</ele>
						<time>2023-01-17T21:46:25Z</time>
					</trkpt>
					<trkpt lat="47.898890" lon="6.647440">
						<ele>654</ele>
						<time>2023-01-17T21:46:28Z</time>
					</trkpt>
					<trkpt lat="47.898860" lon="6.647780">
						<ele>655</ele>
						<time>2023-01-17T21:46:32Z</time>
					</trkpt>
					<trkpt lat="47.898870" lon="6.648460">
						<ele>657</ele>
						<time>2023-01-17T21:46:40Z</time>
					</trkpt>
					<trkpt lat="47.898890" lon="6.648720">
						<ele>658</ele>
						<time>2023-01-17T21:46:43Z</time>
					</trkpt>
					<trkpt lat="47.898930" lon="6.648970">
						<ele>659</ele>
						<time>2023-01-17T21:46:46Z</time>
					</trkpt>
					<trkpt lat="47.899480" lon="6.651100">
						<ele>668</ele>
						<time>2023-01-17T21:47:13Z</time>
					</trkpt>
					<trkpt lat="47.899510" lon="6.651300">
						<ele>670</ele>
						<time>2023-01-17T21:47:16Z</time>
					</trkpt>
					<trkpt lat="47.899510" lon="6.651440">
						<ele>671</ele>
						<time>2023-01-17T21:47:18Z</time>
					</trkpt>
					<trkpt lat="47.899430" lon="6.652020">
						<ele>676</ele>
						<time>2023-01-17T21:47:25Z</time>
					</trkpt>
					<trkpt lat="47.899440" lon="6.652170">
						<ele>678</ele>
						<time>2023-01-17T21:47:26Z</time>
					</trkpt>
					<trkpt lat="47.899470" lon="6.652280">
						<ele>680</ele>
						<time>2023-01-17T21:47:28Z</time>
					</trkpt>
					<trkpt lat="47.899740" lon="6.652910">
						<ele>685</ele>
						<time>2023-01-17T21:47:37Z</time>
					</trkpt>
					<trkpt lat="47.899810" lon="6.653140">
						<ele>687</ele>
						<time>2023-01-17T21:47:40Z</time>
					</trkpt>
					<trkpt lat="47.899870" lon="6.653400">
						<ele>688</ele>
						<time>2023-01-17T21:47:43Z</time>
					</trkpt>
					<trkpt lat="47.899930" lon="6.654020">
						<ele>691</ele>
						<time>2023-01-17T21:47:51Z</time>
					</trkpt>
					<trkpt lat="47.900030" lon="6.655770">
						<ele>693</ele>
						<time>2023-01-17T21:48:12Z</time>
					</trkpt>
					<trkpt lat="47.900010" lon="6.656020">
						<ele>692</ele>
						<time>2023-01-17T21:48:15Z</time>
					</trkpt>
					<trkpt lat="47.899970" lon="6.656210">
						<ele>691</ele>
						<time>2023-01-17T21:48:17Z</time>
					</trkpt>
					<trkpt lat="47.899830" lon="6.656570">
						<ele>689</ele>
						<time>2023-01-17T21:48:22Z</time>
					</trkpt>
					<trkpt lat="47.899550" lon="6.657060">
						<ele>688</ele>
						<time>2023-01-17T21:48:30Z</time>
					</trkpt>
					<trkpt lat="47.899440" lon="6.657220">
						<ele>688</ele>
						<time>2023-01-17T21:48:32Z</time>
					</trkpt>
					<trkpt lat="47.898670" lon="6.658060">
						<ele>689</ele>
						<time>2023-01-17T21:48:49Z</time>
					</trkpt>
					<trkpt lat="47.898550" lon="6.658230">
						<ele>688</ele>
						<time>2023-01-17T21:48:52Z</time>
					</trkpt>
					<trkpt lat="47.898030" lon="6.659280">
						<ele>687</ele>
						<time>2023-01-17T21:49:08Z</time>
					</trkpt>
					<trkpt lat="47.897840" lon="6.659710">
						<ele>687</ele>
						<time>2023-01-17T21:49:14Z</time>
					</trkpt>
					<trkpt lat="47.897760" lon="6.659840">
						<ele>687</ele>
						<time>2023-01-17T21:49:16Z</time>
					</trkpt>
					<trkpt lat="47.897700" lon="6.659900">
						<ele>687</ele>
						<time>2023-01-17T21:49:17Z</time>
					</trkpt>
					<trkpt lat="47.897630" lon="6.659920">
						<ele>687</ele>
						<time>2023-01-17T21:49:19Z</time>
					</trkpt>
					<trkpt lat="47.897580" lon="6.659900">
						<ele>687</ele>
						<time>2023-01-17T21:49:19Z</time>
					</trkpt>
					<trkpt lat="47.897380" lon="6.659700">
						<ele>685</ele>
						<time>2023-01-17T21:49:24Z</time>
					</trkpt>
					<trkpt lat="47.897310" lon="6.659690">
						<ele>684</ele>
						<time>2023-01-17T21:49:25Z</time>
					</trkpt>
					<trkpt lat="47.897220" lon="6.659720">
						<ele>683</ele>
						<time>2023-01-17T21:49:27Z</time>
					</trkpt>
					<trkpt lat="47.897150" lon="6.659790">
						<ele>683</ele>
						<time>2023-01-17T21:49:28Z</time>
					</trkpt>
					<trkpt lat="47.896990" lon="6.660070">
						<ele>683</ele>
						<time>2023-01-17T21:49:33Z</time>
					</trkpt>
					<trkpt lat="47.896910" lon="6.660130">
						<ele>683</ele>
						<time>2023-01-17T21:49:34Z</time>
					</trkpt>
					<trkpt lat="47.896830" lon="6.660140">
						<ele>682</ele>
						<time>2023-01-17T21:49:36Z</time>
					</trkpt>
					<trkpt lat="47.896760" lon="6.660110">
						<ele>681</ele>
						<time>2023-01-17T21:49:37Z</time>
					</trkpt>
					<trkpt lat="47.896670" lon="6.660020">
						<ele>679</ele>
						<time>2023-01-17T21:49:39Z</time>
					</trkpt>
					<trkpt lat="47.896600" lon="6.660000">
						<ele>678</ele>
						<time>2023-01-17T21:49:40Z</time>
					</trkpt>
					<trkpt lat="47.896540" lon="6.660020">
						<ele>678</ele>
						<time>2023-01-17T21:49:41Z</time>
					</trkpt>
					<trkpt lat="47.896450" lon="6.660160">
						<ele>679</ele>
						<time>2023-01-17T21:49:43Z</time>
					</trkpt>
					<trkpt lat="47.896330" lon="6.660540">
						<ele>684</ele>
						<time>2023-01-17T21:49:48Z</time>
					</trkpt>
					<trkpt lat="47.896240" lon="6.660700">
						<ele>686</ele>
						<time>2023-01-17T21:49:51Z</time>
					</trkpt>
					<trkpt lat="47.896100" lon="6.660850">
						<ele>688</ele>
						<time>2023-01-17T21:49:54Z</time>
					</trkpt>
					<trkpt lat="47.896030" lon="6.660910">
						<ele>688</ele>
						<time>2023-01-17T21:49:55Z</time>
					</trkpt>
					<trkpt lat="47.895800" lon="6.660870">
						<ele>687</ele>
						<time>2023-01-17T21:50:00Z</time>
					</trkpt>
					<trkpt lat="47.895680" lon="6.660830">
						<ele>685</ele>
						<time>2023-01-17T21:50:02Z</time>
					</trkpt>
					<trkpt lat="47.895560" lon="6.660830">
						<ele>684</ele>
						<time>2023-01-17T21:50:04Z</time>
					</trkpt>
					<trkpt lat="47.895390" lon="6.660890">
						<ele>683</ele>
						<time>2023-01-17T21:50:07Z</time>
					</trkpt>
					<trkpt lat="47.895200" lon="6.661130">
						<ele>685</ele>
						<time>2023-01-17T21:50:11Z</time>
					</trkpt>
					<trkpt lat="47.895050" lon="6.661210">
						<ele>686</ele>
						<time>2023-01-17T21:50:14Z</time>
					</trkpt>
					<trkpt lat="47.894850" lon="6.661180">
						<ele>685</ele>
						<time>2023-01-17T21:50:18Z</time>
					</trkpt>
					<trkpt lat="47.894670" lon="6.661080">
						<ele>684</ele>
						<time>2023-01-17T21:50:21Z</time>
					</trkpt>
					<trkpt lat="47.894520" lon="6.660900">
						<ele>681</ele>
						<time>2023-01-17T21:50:25Z</time>
					</trkpt>
					<trkpt lat="47.894420" lon="6.660720">
						<ele>678</ele>
						<time>2023-01-17T21:50:27Z</time>
					</trkpt>
					<trkpt lat="47.894270" lon="6.660620">
						<ele>676</ele>
						<time>2023-01-17T21:50:30Z</time>
					</trkpt>
					<trkpt lat="47.894200" lon="6.660600">
						<ele>675</ele>
						<time>2023-01-17T21:50:32Z</time>
					</trkpt>
					<trkpt lat="47.893790" lon="6.660690">
						<ele>678</ele>
						<time>2023-01-17T21:50:39Z</time>
					</trkpt>
					<trkpt lat="47.893440" lon="6.660840">
						<ele>681</ele>
						<time>2023-01-17T21:50:46Z</time>
					</trkpt>
					<trkpt lat="47.892930" lon="6.660950">
						<ele>680</ele>
						<time>2023-01-17T21:50:55Z</time>
					</trkpt>
					<trkpt lat="47.892820" lon="6.661010">
						<ele>680</ele>
						<time>2023-01-17T21:50:57Z</time>
					</trkpt>
					<trkpt lat="47.892660" lon="6.661200">
						<ele>681</ele>
						<time>2023-01-17T21:51:00Z</time>
					</trkpt>
					<trkpt lat="47.892030" lon="6.662830">
						<ele>674</ele>
						<time>2023-01-17T21:51:23Z</time>
					</trkpt>
					<trkpt lat="47.891850" lon="6.663130">
						<ele>669</ele>
						<time>2023-01-17T21:51:28Z</time>
					</trkpt>
					<trkpt lat="47.891810" lon="6.663260">
						<ele>668</ele>
						<time>2023-01-17T21:51:29Z</time>
					</trkpt>
					<trkpt lat="47.891780" lon="6.663430">
						<ele>666</ele>
						<time>2023-01-17T21:51:31Z</time>
					</trkpt>
					<trkpt lat="47.891780" lon="6.663560">
						<ele>665</ele>
						<time>2023-01-17T21:51:33Z</time>
					</trkpt>
					<trkpt lat="47.892010" lon="6.664480">
						<ele>662</ele>
						<time>2023-01-17T21:51:45Z</time>
					</trkpt>
					<trkpt lat="47.892030" lon="6.664660">
						<ele>662</ele>
						<time>2023-01-17T21:51:47Z</time>
					</trkpt>
					<trkpt lat="47.892030" lon="6.664900">
						<ele>661</ele>
						<time>2023-01-17T21:51:50Z</time>
					</trkpt>
					<trkpt lat="47.891990" lon="6.665640">
						<ele>659</ele>
						<time>2023-01-17T21:51:59Z</time>
					</trkpt>
					<trkpt lat="47.891990" lon="6.665850">
						<ele>658</ele>
						<time>2023-01-17T21:52:01Z</time>
					</trkpt>
					<trkpt lat="47.892030" lon="6.666070">
						<ele>659</ele>
						<time>2023-01-17T21:52:04Z</time>
					</trkpt>
					<trkpt lat="47.892020" lon="6.666250">
						<ele>659</ele>
						<time>2023-01-17T21:52:06Z</time>
					</trkpt>
					<trkpt lat="47.891990" lon="6.666400">
						<ele>658</ele>
						<time>2023-01-17T21:52:08Z</time>
					</trkpt>
					<trkpt lat="47.891870" lon="6.666720">
						<ele>655</ele>
						<time>2023-01-17T21:52:12Z</time>
					</trkpt>
					<trkpt lat="47.891850" lon="6.666840">
						<ele>655</ele>
						<time>2023-01-17T21:52:14Z</time>
					</trkpt>
					<trkpt lat="47.891850" lon="6.666980">
						<ele>656</ele>
						<time>2023-01-17T21:52:15Z</time>
					</trkpt>
					<trkpt lat="47.891870" lon="6.667150">
						<ele>656</ele>
						<time>2023-01-17T21:52:17Z</time>
					</trkpt>
					<trkpt lat="47.891980" lon="6.667530">
						<ele>659</ele>
						<time>2023-01-17T21:52:22Z</time>
					</trkpt>
					<trkpt lat="47.892020" lon="6.667800">
						<ele>660</ele>
						<time>2023-01-17T21:52:26Z</time>
					</trkpt>
					<trkpt lat="47.892030" lon="6.668120">
						<ele>661</ele>
						<time>2023-01-17T21:52:30Z</time>
					</trkpt>
					<trkpt lat="47.892050" lon="6.668330">
						<ele>662</ele>
						<time>2023-01-17T21:52:32Z</time>
					</trkpt>
					<trkpt lat="47.892110" lon="6.668580">
						<ele>662</ele>
						<time>2023-01-17T21:52:35Z</time>
					</trkpt>
					<trkpt lat="47.892310" lon="6.669160">
						<ele>661</ele>
						<time>2023-01-17T21:52:43Z</time>
					</trkpt>
					<trkpt lat="47.892370" lon="6.669420">
						<ele>660</ele>
						<time>2023-01-17T21:52:46Z</time>
					</trkpt>
					<trkpt lat="47.892520" lon="6.670120">
						<ele>656</ele>
						<time>2023-01-17T21:52:55Z</time>
					</trkpt>
					<trkpt lat="47.892570" lon="6.670420">
						<ele>657</ele>
						<time>2023-01-17T21:52:59Z</time>
					</trkpt>
					<trkpt lat="47.892570" lon="6.670640">
						<ele>656</ele>
						<time>2023-01-17T21:53:01Z</time>
					</trkpt>
					<trkpt lat="47.892470" lon="6.672020">
						<ele>659</ele>
						<time>2023-01-17T21:53:18Z</time>
					</trkpt>
					<trkpt lat="47.892410" lon="6.672310">
						<ele>661</ele>
						<time>2023-01-17T21:53:22Z</time>
					</trkpt>
					<trkpt lat="47.892370" lon="6.672430">
						<ele>662</ele>
						<time>2023-01-17T21:53:23Z</time>
					</trkpt>
					<trkpt lat="47.892320" lon="6.672480">
						<ele>664</ele>
						<time>2023-01-17T21:53:24Z</time>
					</trkpt>
					<trkpt lat="47.892260" lon="6.672500">
						<ele>665</ele>
						<time>2023-01-17T21:53:25Z</time>
					</trkpt>
					<trkpt lat="47.892210" lon="6.672500">
						<ele>667</ele>
						<time>2023-01-17T21:53:26Z</time>
					</trkpt>
					<trkpt lat="47.892150" lon="6.672460">
						<ele>669</ele>
						<time>2023-01-17T21:53:27Z</time>
					</trkpt>
					<trkpt lat="47.892120" lon="6.672390">
						<ele>669</ele>
						<time>2023-01-17T21:53:28Z</time>
					</trkpt>
					<trkpt lat="47.891940" lon="6.671830">
						<ele>672</ele>
						<time>2023-01-17T21:53:36Z</time>
					</trkpt>
					<trkpt lat="47.891690" lon="6.670710">
						<ele>665</ele>
						<time>2023-01-17T21:53:50Z</time>
					</trkpt>
					<trkpt lat="47.891620" lon="6.670550">
						<ele>666</ele>
						<time>2023-01-17T21:53:52Z</time>
					</trkpt>
					<trkpt lat="47.891580" lon="6.670510">
						<ele>667</ele>
						<time>2023-01-17T21:53:53Z</time>
					</trkpt>
					<trkpt lat="47.891530" lon="6.670490">
						<ele>669</ele>
						<time>2023-01-17T21:53:54Z</time>
					</trkpt>
					<trkpt lat="47.891440" lon="6.670540">
						<ele>672</ele>
						<time>2023-01-17T21:53:56Z</time>
					</trkpt>
					<trkpt lat="47.891400" lon="6.670670">
						<ele>673</ele>
						<time>2023-01-17T21:53:57Z</time>
					</trkpt>
					<trkpt lat="47.891410" lon="6.670750">
						<ele>673</ele>
						<time>2023-01-17T21:53:58Z</time>
					</trkpt>
					<trkpt lat="47.891550" lon="6.670970">
						<ele>671</ele>
						<time>2023-01-17T21:54:02Z</time>
					</trkpt>
					<trkpt lat="47.891590" lon="6.671070">
						<ele>671</ele>
						<time>2023-01-17T21:54:03Z</time>
					</trkpt>
					<trkpt lat="47.891610" lon="6.671170">
						<ele>672</ele>
						<time>2023-01-17T21:54:05Z</time>
					</trkpt>
					<trkpt lat="47.891690" lon="6.672180">
						<ele>681</ele>
						<time>2023-01-17T21:54:17Z</time>
					</trkpt>
					<trkpt lat="47.891690" lon="6.672320">
						<ele>682</ele>
						<time>2023-01-17T21:54:18Z</time>
					</trkpt>
					<trkpt lat="47.891620" lon="6.672580">
						<ele>685</ele>
						<time>2023-01-17T21:54:22Z</time>
					</trkpt>
					<trkpt lat="47.891030" lon="6.673800">
						<ele>691</ele>
						<time>2023-01-17T21:54:40Z</time>
					</trkpt>
					<trkpt lat="47.890840" lon="6.674060">
						<ele>695</ele>
						<time>2023-01-17T21:54:44Z</time>
					</trkpt>
					<trkpt lat="47.890740" lon="6.674260">
						<ele>696</ele>
						<time>2023-01-17T21:54:47Z</time>
					</trkpt>
					<trkpt lat="47.890430" lon="6.675580">
						<ele>701</ele>
						<time>2023-01-17T21:55:04Z</time>
					</trkpt>
					<trkpt lat="47.890330" lon="6.676140">
						<ele>707</ele>
						<time>2023-01-17T21:55:11Z</time>
					</trkpt>
					<trkpt lat="47.890310" lon="6.676550">
						<ele>711</ele>
						<time>2023-01-17T21:55:16Z</time>
					</trkpt>
					<trkpt lat="47.890320" lon="6.677660">
						<ele>717</ele>
						<time>2023-01-17T21:55:29Z</time>
					</trkpt>
					<trkpt lat="47.890260" lon="6.679040">
						<ele>720</ele>
						<time>2023-01-17T21:55:45Z</time>
					</trkpt>
					<trkpt lat="47.890310" lon="6.682810">
						<ele>737</ele>
						<time>2023-01-17T21:56:30Z</time>
					</trkpt>
					<trkpt lat="47.890320" lon="6.683040">
						<ele>739</ele>
						<time>2023-01-17T21:56:33Z</time>
					</trkpt>
					<trkpt lat="47.890640" lon="6.684380">
						<ele>739</ele>
						<time>2023-01-17T21:56:50Z</time>
					</trkpt>
					<trkpt lat="47.890660" lon="6.684670">
						<ele>739</ele>
						<time>2023-01-17T21:56:54Z</time>
					</trkpt>
					<trkpt lat="47.890660" lon="6.684750">
						<ele>739</ele>
						<time>2023-01-17T21:56:55Z</time>
					</trkpt>
					<trkpt lat="47.890270" lon="6.685910">
						<ele>748</ele>
						<time>2023-01-17T21:57:10Z</time>
					</trkpt>
					<trkpt lat="47.890160" lon="6.686060">
						<ele>751</ele>
						<time>2023-01-17T21:57:13Z</time>
					</trkpt>
					<trkpt lat="47.890020" lon="6.686110">
						<ele>754</ele>
						<time>2023-01-17T21:57:15Z</time>
					</trkpt>
					<trkpt lat="47.889510" lon="6.685980">
						<ele>758</ele>
						<time>2023-01-17T21:57:25Z</time>
					</trkpt>
					<trkpt lat="47.889110" lon="6.685840">
						<ele>761</ele>
						<time>2023-01-17T21:57:32Z</time>
					</trkpt>
					<trkpt lat="47.888970" lon="6.685850">
						<ele>762</ele>
						<time>2023-01-17T21:57:34Z</time>
					</trkpt>
					<trkpt lat="47.888910" lon="6.685910">
						<ele>764</ele>
						<time>2023-01-17T21:57:36Z</time>
					</trkpt>
					<trkpt lat="47.888790" lon="6.686140">
						<ele>766</ele>
						<time>2023-01-17T21:57:39Z</time>
					</trkpt>
					<trkpt lat="47.888520" lon="6.686840">
						<ele>768</ele>
						<time>2023-01-17T21:57:49Z</time>
					</trkpt>
					<trkpt lat="47.888090" lon="6.688000">
						<ele>765</ele>
						<time>2023-01-17T21:58:05Z</time>
					</trkpt>
					<trkpt lat="47.887670" lon="6.689150">
						<ele>760</ele>
						<time>2023-01-17T21:58:20Z</time>
					</trkpt>
					<trkpt lat="47.887570" lon="6.689300">
						<ele>760</ele>
						<time>2023-01-17T21:58:23Z</time>
					</trkpt>
					<trkpt lat="47.887430" lon="6.689410">
						<ele>760</ele>
						<time>2023-01-17T21:58:25Z</time>
					</trkpt>
					<trkpt lat="47.886630" lon="6.689530">
						<ele>758</ele>
						<time>2023-01-17T21:58:40Z</time>
					</trkpt>
					<trkpt lat="47.886500" lon="6.689590">
						<ele>758</ele>
						<time>2023-01-17T21:58:42Z</time>
					</trkpt>
					<trkpt lat="47.886450" lon="6.689640">
						<ele>757</ele>
						<time>2023-01-17T21:58:43Z</time>
					</trkpt>
					<trkpt lat="47.886380" lon="6.689800">
						<ele>756</ele>
						<time>2023-01-17T21:58:46Z</time>
					</trkpt>
					<trkpt lat="47.885880" lon="6.691820">
						<ele>748</ele>
						<time>2023-01-17T21:59:11Z</time>
					</trkpt>
					<trkpt lat="47.885740" lon="6.692360">
						<ele>748</ele>
						<time>2023-01-17T21:59:18Z</time>
					</trkpt>
					<trkpt lat="47.885670" lon="6.692560">
						<ele>748</ele>
						<time>2023-01-17T21:59:21Z</time>
					</trkpt>
					<trkpt lat="47.885610" lon="6.692660">
						<ele>748</ele>
						<time>2023-01-17T21:59:22Z</time>
					</trkpt>
					<trkpt lat="47.885550" lon="6.692720">
						<ele>748</ele>
						<time>2023-01-17T21:59:24Z</time>
					</trkpt>
					<trkpt lat="47.885020" lon="6.692930">
						<ele>747</ele>
						<time>2023-01-17T21:59:34Z</time>
					</trkpt>
					<trkpt lat="47.884830" lon="6.693050">
						<ele>748</ele>
						<time>2023-01-17T21:59:37Z</time>
					</trkpt>
					<trkpt lat="47.884750" lon="6.693170">
						<ele>749</ele>
						<time>2023-01-17T21:59:39Z</time>
					</trkpt>
					<trkpt lat="47.884640" lon="6.693370">
						<ele>749</ele>
						<time>2023-01-17T21:59:42Z</time>
					</trkpt>
					<trkpt lat="47.884350" lon="6.694040">
						<ele>744</ele>
						<time>2023-01-17T21:59:52Z</time>
					</trkpt>
					<trkpt lat="47.883650" lon="6.695530">
						<ele>741</ele>
						<time>2023-01-17T22:00:14Z</time>
					</trkpt>
					<trkpt lat="47.882960" lon="6.696640">
						<ele>741</ele>
						<time>2023-01-17T22:00:32Z</time>
					</trkpt>
					<trkpt lat="47.882660" lon="6.695970">
						<ele>740</ele>
						<time>2023-01-17T22:00:41Z</time>
					</trkpt>
					<trkpt lat="47.882350" lon="6.695080">
						<ele>742</ele>
						<time>2023-01-17T22:00:53Z</time>
					</trkpt>
					<trkpt lat="47.882280" lon="6.694800">
						<ele>742</ele>
						<time>2023-01-17T22:00:57Z</time>
					</trkpt>
					<trkpt lat="47.882210" lon="6.694370">
						<ele>743</ele>
						<time>2023-01-17T22:01:02Z</time>
					</trkpt>
					<trkpt lat="47.882100" lon="6.693550">
						<ele>743</ele>
						<time>2023-01-17T22:01:12Z</time>
					</trkpt>
					<trkpt lat="47.882140" lon="6.693310">
						<ele>743</ele>
						<time>2023-01-17T22:01:15Z</time>
					</trkpt>
					<trkpt lat="47.882140" lon="6.693220">
						<ele>743</ele>
						<time>2023-01-17T22:01:16Z</time>
					</trkpt>
					<trkpt lat="47.882130" lon="6.693160">
						<ele>743</ele>
						<time>2023-01-17T22:01:17Z</time>
					</trkpt>
					<trkpt lat="47.882020" lon="6.692900">
						<ele>742</ele>
						<time>2023-01-17T22:01:20Z</time>
					</trkpt>
					<trkpt lat="47.881900" lon="6.692700">
						<ele>742</ele>
						<time>2023-01-17T22:01:24Z</time>
					</trkpt>
					<trkpt lat="47.881700" lon="6.692300">
						<ele>741</ele>
						<time>2023-01-17T22:01:30Z</time>
					</trkpt>
					<trkpt lat="47.881480" lon="6.691770">
						<ele>740</ele>
						<time>2023-01-17T22:01:37Z</time>
					</trkpt>
					<trkpt lat="47.881320" lon="6.691300">
						<ele>741</ele>
						<time>2023-01-17T22:01:43Z</time>
					</trkpt>
					<trkpt lat="47.881210" lon="6.690910">
						<ele>742</ele>
						<time>2023-01-17T22:01:48Z</time>
					</trkpt>
					<trkpt lat="47.881140" lon="6.690770">
						<ele>741</ele>
						<time>2023-01-17T22:01:50Z</time>
					</trkpt>
					<trkpt lat="47.881020" lon="6.690670">
						<ele>741</ele>
						<time>2023-01-17T22:01:53Z</time>
					</trkpt>
					<trkpt lat="47.880760" lon="6.690490">
						<ele>739</ele>
						<time>2023-01-17T22:01:58Z</time>
					</trkpt>
					<trkpt lat="47.880530" lon="6.690290">
						<ele>738</ele>
						<time>2023-01-17T22:02:03Z</time>
					</trkpt>
					<trkpt lat="47.880310" lon="6.690030">
						<ele>738</ele>
						<time>2023-01-17T22:02:08Z</time>
					</trkpt>
					<trkpt lat="47.880210" lon="6.689990">
						<ele>737</ele>
						<time>2023-01-17T22:02:10Z</time>
					</trkpt>
					<trkpt lat="47.880150" lon="6.689990">
						<ele>737</ele>
						<time>2023-01-17T22:02:11Z</time>
					</trkpt>
					<trkpt lat="47.880080" lon="6.690050">
						<ele>736</ele>
						<time>2023-01-17T22:02:12Z</time>
					</trkpt>
					<trkpt lat="47.879920" lon="6.690390">
						<ele>734</ele>
						<time>2023-01-17T22:02:17Z</time>
					</trkpt>
					<trkpt lat="47.879570" lon="6.690760">
						<ele>731</ele>
						<time>2023-01-17T22:02:25Z</time>
					</trkpt>
					<trkpt lat="47.879360" lon="6.690930">
						<ele>730</ele>
						<time>2023-01-17T22:02:29Z</time>
					</trkpt>
					<trkpt lat="47.879150" lon="6.690480">
						<ele>728</ele>
						<time>2023-01-17T22:02:35Z</time>
					</trkpt>
					<trkpt lat="47.879050" lon="6.690340">
						<ele>727</ele>
						<time>2023-01-17T22:02:38Z</time>
					</trkpt>
					<trkpt lat="47.878700" lon="6.689900">
						<ele>724</ele>
						<time>2023-01-17T22:02:46Z</time>
					</trkpt>
					<trkpt lat="47.878310" lon="6.689910">
						<ele>721</ele>
						<time>2023-01-17T22:02:53Z</time>
					</trkpt>
					<trkpt lat="47.877900" lon="6.689870">
						<ele>718</ele>
						<time>2023-01-17T22:03:00Z</time>
					</trkpt>
					<trkpt lat="47.877810" lon="6.689840">
						<ele>717</ele>
						<time>2023-01-17T22:03:02Z</time>
					</trkpt>
					<trkpt lat="47.877630" lon="6.689710">
						<ele>716</ele>
						<time>2023-01-17T22:03:05Z</time>
					</trkpt>
					<trkpt lat="47.877500" lon="6.689680">
						<ele>715</ele>
						<time>2023-01-17T22:03:08Z</time>
					</trkpt>
					<trkpt lat="47.876900" lon="6.689820">
						<ele>716</ele>
						<time>2023-01-17T22:03:19Z</time>
					</trkpt>
					<trkpt lat="47.876790" lon="6.689710">
						<ele>716</ele>
						<time>2023-01-17T22:03:21Z</time>
					</trkpt>
					<trkpt lat="47.876710" lon="6.689530">
						<ele>715</ele>
						<time>2023-01-17T22:03:24Z</time>
					</trkpt>
					<trkpt lat="47.876550" lon="6.689300">
						<ele>716</ele>
						<time>2023-01-17T22:03:27Z</time>
					</trkpt>
					<trkpt lat="47.876440" lon="6.689210">
						<ele>716</ele>
						<time>2023-01-17T22:03:30Z</time>
					</trkpt>
					<trkpt lat="47.875940" lon="6.688940">
						<ele>716</ele>
						<time>2023-01-17T22:03:39Z</time>
					</trkpt>
					<trkpt lat="47.875540" lon="6.688630">
						<ele>717</ele>
						<time>2023-01-17T22:03:47Z</time>
					</trkpt>
					<trkpt lat="47.875460" lon="6.688510">
						<ele>717</ele>
						<time>2023-01-17T22:03:49Z</time>
					</trkpt>
					<trkpt lat="47.875430" lon="6.688420">
						<ele>716</ele>
						<time>2023-01-17T22:03:50Z</time>
					</trkpt>
					<trkpt lat="47.875420" lon="6.688310">
						<ele>716</ele>
						<time>2023-01-17T22:03:52Z</time>
					</trkpt>
					<trkpt lat="47.875410" lon="6.688090">
						<ele>716</ele>
						<time>2023-01-17T22:03:54Z</time>
					</trkpt>
					<trkpt lat="47.875460" lon="6.687890">
						<ele>715</ele>
						<time>2023-01-17T22:03:57Z</time>
					</trkpt>
					<trkpt lat="47.875500" lon="6.687790">
						<ele>715</ele>
						<time>2023-01-17T22:03:58Z</time>
					</trkpt>
					<trkpt lat="47.875500" lon="6.687590">
						<ele>715</ele>
						<time>2023-01-17T22:04:01Z</time>
					</trkpt>
					<trkpt lat="47.875470" lon="6.687470">
						<ele>715</ele>
						<time>2023-01-17T22:04:02Z</time>
					</trkpt>
					<trkpt lat="47.874910" lon="6.686860">
						<ele>717</ele>
						<time>2023-01-17T22:04:15Z</time>
					</trkpt>
					<trkpt lat="47.874760" lon="6.686660">
						<ele>717</ele>
						<time>2023-01-17T22:04:18Z</time>
					</trkpt>
					<trkpt lat="47.874590" lon="6.686370">
						<ele>718</ele>
						<time>2023-01-17T22:04:23Z</time>
					</trkpt>
					<trkpt lat="47.874480" lon="6.686220">
						<ele>719</ele>
						<time>2023-01-17T22:04:25Z</time>
					</trkpt>
					<trkpt lat="47.874290" lon="6.686010">
						<ele>720</ele>
						<time>2023-01-17T22:04:30Z</time>
					</trkpt>
					<trkpt lat="47.873960" lon="6.685700">
						<ele>720</ele>
						<time>2023-01-17T22:04:37Z</time>
					</trkpt>
					<trkpt lat="47.873450" lon="6.685480">
						<ele>719</ele>
						<time>2023-01-17T22:04:46Z</time>
					</trkpt>
					<trkpt lat="47.873160" lon="6.685310">
						<ele>720</ele>
						<time>2023-01-17T22:04:52Z</time>
					</trkpt>
					<trkpt lat="47.873080" lon="6.685130">
						<ele>720</ele>
						<time>2023-01-17T22:04:54Z</time>
					</trkpt>
					<trkpt lat="47.873040" lon="6.684990">
						<ele>720</ele>
						<time>2023-01-17T22:04:56Z</time>
					</trkpt>
					<trkpt lat="47.872980" lon="6.684860">
						<ele>720</ele>
						<time>2023-01-17T22:04:58Z</time>
					</trkpt>
					<trkpt lat="47.872930" lon="6.684790">
						<ele>719</ele>
						<time>2023-01-17T22:04:59Z</time>
					</trkpt>
					<trkpt lat="47.872820" lon="6.684720">
						<ele>719</ele>
						<time>2023-01-17T22:05:01Z</time>
					</trkpt>
					<trkpt lat="47.872800" lon="6.684680">
						<ele>719</ele>
						<time>2023-01-17T22:05:02Z</time>
					</trkpt>
					<trkpt lat="47.872980" lon="6.684020">
						<ele>717</ele>
						<time>2023-01-17T22:05:10Z</time>
					</trkpt>
					<trkpt lat="47.873050" lon="6.683300">
						<ele>716</ele>
						<time>2023-01-17T22:05:19Z</time>
					</trkpt>
					<trkpt lat="47.873160" lon="6.682030">
						<ele>716</ele>
						<time>2023-01-17T22:05:34Z</time>
					</trkpt>
					<trkpt lat="47.873170" lon="6.681790">
						<ele>716</ele>
						<time>2023-01-17T22:05:37Z</time>
					</trkpt>
					<trkpt lat="47.873140" lon="6.681550">
						<ele>716</ele>
						<time>2023-01-17T22:05:40Z</time>
					</trkpt>
					<trkpt lat="47.872990" lon="6.681230">
						<ele>715</ele>
						<time>2023-01-17T22:05:45Z</time>
					</trkpt>
					<trkpt lat="47.872130" lon="6.679610">
						<ele>711</ele>
						<time>2023-01-17T22:06:09Z</time>
					</trkpt>
					<trkpt lat="47.872010" lon="6.679280">
						<ele>710</ele>
						<time>2023-01-17T22:06:14Z</time>
					</trkpt>
					<trkpt lat="47.871510" lon="6.677690">
						<ele>705</ele>
						<time>2023-01-17T22:06:35Z</time>
					</trkpt>
					<trkpt lat="47.871460" lon="6.677520">
						<ele>705</ele>
						<time>2023-01-17T22:06:37Z</time>
					</trkpt>
					<trkpt lat="47.871480" lon="6.677110">
						<ele>707</ele>
						<time>2023-01-17T22:06:42Z</time>
					</trkpt>
					<trkpt lat="47.871460" lon="6.676970">
						<ele>708</ele>
						<time>2023-01-17T22:06:44Z</time>
					</trkpt>
					<trkpt lat="47.871410" lon="6.676860">
						<ele>707</ele>
						<time>2023-01-17T22:06:45Z</time>
					</trkpt>
					<trkpt lat="47.870730" lon="6.675880">
						<ele>699</ele>
						<time>2023-01-17T22:07:02Z</time>
					</trkpt>
					<trkpt lat="47.870600" lon="6.675670">
						<ele>697</ele>
						<time>2023-01-17T22:07:05Z</time>
					</trkpt>
					<trkpt lat="47.870310" lon="6.674970">
						<ele>693</ele>
						<time>2023-01-17T22:07:15Z</time>
					</trkpt>
					<trkpt lat="47.870210" lon="6.674610">
						<ele>692</ele>
						<time>2023-01-17T22:07:20Z</time>
					</trkpt>
					<trkpt lat="47.870110" lon="6.674060">
						<ele>691</ele>
						<time>2023-01-17T22:07:27Z</time>
					</trkpt>
					<trkpt lat="47.870100" lon="6.673790">
						<ele>691</ele>
						<time>2023-01-17T22:07:30Z</time>
					</trkpt>
					<trkpt lat="47.870100" lon="6.673360">
						<ele>691</ele>
						<time>2023-01-17T22:07:35Z</time>
					</trkpt>
					<trkpt lat="47.870110" lon="6.673230">
						<ele>690</ele>
						<time>2023-01-17T22:07:37Z</time>
					</trkpt>
					<trkpt lat="47.870150" lon="6.673090">
						<ele>690</ele>
						<time>2023-01-17T22:07:38Z</time>
					</trkpt>
					<trkpt lat="47.870220" lon="6.672950">
						<ele>689</ele>
						<time>2023-01-17T22:07:41Z</time>
					</trkpt>
					<trkpt lat="47.870510" lon="6.672550">
						<ele>686</ele>
						<time>2023-01-17T22:07:48Z</time>
					</trkpt>
					<trkpt lat="47.870570" lon="6.672430">
						<ele>686</ele>
						<time>2023-01-17T22:07:49Z</time>
					</trkpt>
					<trkpt lat="47.870670" lon="6.672180">
						<ele>685</ele>
						<time>2023-01-17T22:07:53Z</time>
					</trkpt>
					<trkpt lat="47.870790" lon="6.671790">
						<ele>685</ele>
						<time>2023-01-17T22:07:58Z</time>
					</trkpt>
					<trkpt lat="47.870890" lon="6.671420">
						<ele>686</ele>
						<time>2023-01-17T22:08:03Z</time>
					</trkpt>
					<trkpt lat="47.870920" lon="6.671230">
						<ele>687</ele>
						<time>2023-01-17T22:08:05Z</time>
					</trkpt>
					<trkpt lat="47.870980" lon="6.669820">
						<ele>686</ele>
						<time>2023-01-17T22:08:22Z</time>
					</trkpt>
					<trkpt lat="47.870980" lon="6.668760">
						<ele>685</ele>
						<time>2023-01-17T22:08:35Z</time>
					</trkpt>
					<trkpt lat="47.870990" lon="6.668520">
						<ele>684</ele>
						<time>2023-01-17T22:08:37Z</time>
					</trkpt>
					<trkpt lat="47.871080" lon="6.667830">
						<ele>682</ele>
						<time>2023-01-17T22:08:46Z</time>
					</trkpt>
					<trkpt lat="47.871090" lon="6.667570">
						<ele>681</ele>
						<time>2023-01-17T22:08:49Z</time>
					</trkpt>
					<trkpt lat="47.871050" lon="6.667140">
						<ele>679</ele>
						<time>2023-01-17T22:08:54Z</time>
					</trkpt>
					<trkpt lat="47.870980" lon="6.666860">
						<ele>678</ele>
						<time>2023-01-17T22:08:58Z</time>
					</trkpt>
					<trkpt lat="47.870900" lon="6.666640">
						<ele>677</ele>
						<time>2023-01-17T22:09:01Z</time>
					</trkpt>
					<trkpt lat="47.870800" lon="6.666480">
						<ele>677</ele>
						<time>2023-01-17T22:09:03Z</time>
					</trkpt>
					<trkpt lat="47.870660" lon="6.666310">
						<ele>677</ele>
						<time>2023-01-17T22:09:06Z</time>
					</trkpt>
					<trkpt lat="47.870520" lon="6.666250">
						<ele>677</ele>
						<time>2023-01-17T22:09:09Z</time>
					</trkpt>
					<trkpt lat="47.870220" lon="6.666570">
						<ele>680</ele>
						<time>2023-01-17T22:09:16Z</time>
					</trkpt>
					<trkpt lat="47.869780" lon="6.666850">
						<ele>682</ele>
						<time>2023-01-17T22:09:24Z</time>
					</trkpt>
					<trkpt lat="47.869560" lon="6.666990">
						<ele>683</ele>
						<time>2023-01-17T22:09:28Z</time>
					</trkpt>
					<trkpt lat="47.869340" lon="6.667060">
						<ele>683</ele>
						<time>2023-01-17T22:09:32Z</time>
					</trkpt>
					<trkpt lat="47.868730" lon="6.667130">
						<ele>681</ele>
						<time>2023-01-17T22:09:43Z</time>
					</trkpt>
					<trkpt lat="47.868580" lon="6.667120">
						<ele>680</ele>
						<time>2023-01-17T22:09:46Z</time>
					</trkpt>
					<trkpt lat="47.868470" lon="6.667030">
						<ele>680</ele>
						<time>2023-01-17T22:09:48Z</time>
					</trkpt>
					<trkpt lat="47.868360" lon="6.666900">
						<ele>680</ele>
						<time>2023-01-17T22:09:51Z</time>
					</trkpt>
					<trkpt lat="47.868260" lon="6.666680">
						<ele>679</ele>
						<time>2023-01-17T22:09:54Z</time>
					</trkpt>
					<trkpt lat="47.868160" lon="6.666570">
						<ele>678</ele>
						<time>2023-01-17T22:09:56Z</time>
					</trkpt>
					<trkpt lat="47.868000" lon="6.666550">
						<ele>677</ele>
						<time>2023-01-17T22:09:59Z</time>
					</trkpt>
					<trkpt lat="47.867470" lon="6.666640">
						<ele>674</ele>
						<time>2023-01-17T22:10:08Z</time>
					</trkpt>
					<trkpt lat="47.867330" lon="6.666750">
						<ele>673</ele>
						<time>2023-01-17T22:10:11Z</time>
					</trkpt>
					<trkpt lat="47.867140" lon="6.667130">
						<ele>672</ele>
						<time>2023-01-17T22:10:17Z</time>
					</trkpt>
					<trkpt lat="47.867030" lon="6.667500">
						<ele>673</ele>
						<time>2023-01-17T22:10:22Z</time>
					</trkpt>
					<trkpt lat="47.866820" lon="6.668360">
						<ele>672</ele>
						<time>2023-01-17T22:10:33Z</time>
					</trkpt>
					<trkpt lat="47.866510" lon="6.669830">
						<ele>670</ele>
						<time>2023-01-17T22:10:51Z</time>
					</trkpt>
					<trkpt lat="47.866250" lon="6.670880">
						<ele>666</ele>
						<time>2023-01-17T22:11:04Z</time>
					</trkpt>
					<trkpt lat="47.866130" lon="6.672350">
						<ele>659</ele>
						<time>2023-01-17T22:11:22Z</time>
					</trkpt>
					<trkpt lat="47.866130" lon="6.672650">
						<ele>658</ele>
						<time>2023-01-17T22:11:26Z</time>
					</trkpt>
					<trkpt lat="47.866170" lon="6.672990">
						<ele>657</ele>
						<time>2023-01-17T22:11:30Z</time>
					</trkpt>
					<trkpt lat="47.866130" lon="6.673800">
						<ele>656</ele>
						<time>2023-01-17T22:11:39Z</time>
					</trkpt>
					<trkpt lat="47.866150" lon="6.673930">
						<ele>655</ele>
						<time>2023-01-17T22:11:41Z</time>
					</trkpt>
					<trkpt lat="47.866180" lon="6.674040">
						<ele>655</ele>
						<time>2023-01-17T22:11:42Z</time>
					</trkpt>
					<trkpt lat="47.866240" lon="6.674170">
						<ele>654</ele>
						<time>2023-01-17T22:11:44Z</time>
					</trkpt>
					<trkpt lat="47.866360" lon="6.674270">
						<ele>652</ele>
						<time>2023-01-17T22:11:47Z</time>
					</trkpt>
					<trkpt lat="47.866450" lon="6.674310">
						<ele>651</ele>
						<time>2023-01-17T22:11:48Z</time>
					</trkpt>
					<trkpt lat="47.866700" lon="6.674340">
						<ele>649</ele>
						<time>2023-01-17T22:11:53Z</time>
					</trkpt>
					<trkpt lat="47.866900" lon="6.674330">
						<ele>651</ele>
						<time>2023-01-17T22:11:57Z</time>
					</trkpt>
					<trkpt lat="47.866990" lon="6.674370">
						<ele>652</ele>
						<time>2023-01-17T22:11:58Z</time>
					</trkpt>
					<trkpt lat="47.867120" lon="6.674540">
						<ele>652</ele>
						<time>2023-01-17T22:12:01Z</time>
					</trkpt>
					<trkpt lat="47.867160" lon="6.674620">
						<ele>652</ele>
						<time>2023-01-17T22:12:02Z</time>
					</trkpt>
					<trkpt lat="47.867250" lon="6.675050">
						<ele>651</ele>
						<time>2023-01-17T22:12:08Z</time>
					</trkpt>
					<trkpt lat="47.867330" lon="6.675510">
						<ele>649</ele>
						<time>2023-01-17T22:12:13Z</time>
					</trkpt>
					<trkpt lat="47.867340" lon="6.676100">
						<ele>646</ele>
						<time>2023-01-17T22:12:21Z</time>
					</trkpt>
					<trkpt lat="47.867310" lon="6.676400">
						<ele>644</ele>
						<time>2023-01-17T22:12:24Z</time>
					</trkpt>
					<trkpt lat="47.867270" lon="6.676540">
						<ele>643</ele>
						<time>2023-01-17T22:12:26Z</time>
					</trkpt>
					<trkpt lat="47.867170" lon="6.676680">
						<ele>642</ele>
						<time>2023-01-17T22:12:28Z</time>
					</trkpt>
					<trkpt lat="47.867030" lon="6.676740">
						<ele>641</ele>
						<time>2023-01-17T22:12:31Z</time>
					</trkpt>
					<trkpt lat="47.866810" lon="6.676780">
						<ele>639</ele>
						<time>2023-01-17T22:12:35Z</time>
					</trkpt>
					<trkpt lat="47.865800" lon="6.677080">
						<ele>639</ele>
						<time>2023-01-17T22:12:53Z</time>
					</trkpt>
					<trkpt lat="47.865640" lon="6.677160">
						<ele>637</ele>
						<time>2023-01-17T22:12:56Z</time>
					</trkpt>
					<trkpt lat="47.864700" lon="6.678430">
						<ele>622</ele>
						<time>2023-01-17T22:13:19Z</time>
					</trkpt>
					<trkpt lat="47.864520" lon="6.678440">
						<ele>619</ele>
						<time>2023-01-17T22:13:22Z</time>
					</trkpt>
					<trkpt lat="47.864260" lon="6.678370">
						<ele>615</ele>
						<time>2023-01-17T22:13:27Z</time>
					</trkpt>
					<trkpt lat="47.864130" lon="6.678420">
						<ele>613</ele>
						<time>2023-01-17T22:13:29Z</time>
					</trkpt>
					<trkpt lat="47.863600" lon="6.679300">
						<ele>609</ele>
						<time>2023-01-17T22:13:43Z</time>
					</trkpt>
					<trkpt lat="47.863490" lon="6.679320">
						<ele>608</ele>
						<time>2023-01-17T22:13:45Z</time>
					</trkpt>
					<trkpt lat="47.863430" lon="6.679330">
						<ele>608</ele>
						<time>2023-01-17T22:13:46Z</time>
					</trkpt>
					<trkpt lat="47.863390" lon="6.679320">
						<ele>608</ele>
						<time>2023-01-17T22:13:47Z</time>
					</trkpt>
					<trkpt lat="47.863260" lon="6.678880">
						<ele>607</ele>
						<time>2023-01-17T22:13:53Z</time>
					</trkpt>
					<trkpt lat="47.863180" lon="6.678720">
						<ele>606</ele>
						<time>2023-01-17T22:13:55Z</time>
					</trkpt>
					<trkpt lat="47.862990" lon="6.678500">
						<ele>605</ele>
						<time>2023-01-17T22:13:59Z</time>
					</trkpt>
					<trkpt lat="47.862290" lon="6.677940">
						<ele>601</ele>
						<time>2023-01-17T22:14:14Z</time>
					</trkpt>
					<trkpt lat="47.862060" lon="6.677710">
						<ele>600</ele>
						<time>2023-01-17T22:14:18Z</time>
					</trkpt>
					<trkpt lat="47.861520" lon="6.676880">
						<ele>599</ele>
						<time>2023-01-17T22:14:32Z</time>
					</trkpt>
					<trkpt lat="47.861430" lon="6.676800">
						<ele>599</ele>
						<time>2023-01-17T22:14:34Z</time>
					</trkpt>
					<trkpt lat="47.861150" lon="6.676690">
						<ele>598</ele>
						<time>2023-01-17T22:14:39Z</time>
					</trkpt>
					<trkpt lat="47.860770" lon="6.676080">
						<ele>596</ele>
						<time>2023-01-17T22:14:49Z</time>
					</trkpt>
					<trkpt lat="47.860590" lon="6.675890">
						<ele>597</ele>
						<time>2023-01-17T22:14:53Z</time>
					</trkpt>
					<trkpt lat="47.860340" lon="6.675490">
						<ele>600</ele>
						<time>2023-01-17T22:15:00Z</time>
					</trkpt>
					<trkpt lat="47.859850" lon="6.673970">
						<ele>599</ele>
						<time>2023-01-17T22:15:20Z</time>
					</trkpt>
					<trkpt lat="47.859660" lon="6.673430">
						<ele>599</ele>
						<time>2023-01-17T22:15:27Z</time>
					</trkpt>
					<trkpt lat="47.859200" lon="6.672860">
						<ele>599</ele>
						<time>2023-01-17T22:15:38Z</time>
					</trkpt>
					<trkpt lat="47.858950" lon="6.672750">
						<ele>597</ele>
						<time>2023-01-17T22:15:42Z</time>
					</trkpt>
					<trkpt lat="47.858770" lon="6.672730">
						<ele>596</ele>
						<time>2023-01-17T22:15:46Z</time>
					</trkpt>
					<trkpt lat="47.858520" lon="6.672820">
						<ele>594</ele>
						<time>2023-01-17T22:15:50Z</time>
					</trkpt>
					<trkpt lat="47.857870" lon="6.672530">
						<ele>591</ele>
						<time>2023-01-17T22:16:02Z</time>
					</trkpt>
					<trkpt lat="47.857760" lon="6.672440">
						<ele>591</ele>
						<time>2023-01-17T22:16:04Z</time>
					</trkpt>
					<trkpt lat="47.857380" lon="6.672030">
						<ele>589</ele>
						<time>2023-01-17T22:16:13Z</time>
					</trkpt>
					<trkpt lat="47.857080" lon="6.671750">
						<ele>587</ele>
						<time>2023-01-17T22:16:19Z</time>
					</trkpt>
					<trkpt lat="47.856910" lon="6.671560">
						<ele>586</ele>
						<time>2023-01-17T22:16:23Z</time>
					</trkpt>
					<trkpt lat="47.856720" lon="6.671430">
						<ele>586</ele>
						<time>2023-01-17T22:16:27Z</time>
					</trkpt>
					<trkpt lat="47.856060" lon="6.671150">
						<ele>586</ele>
						<time>2023-01-17T22:16:39Z</time>
					</trkpt>
					<trkpt lat="47.855840" lon="6.671020">
						<ele>585</ele>
						<time>2023-01-17T22:16:43Z</time>
					</trkpt>
					<trkpt lat="47.855330" lon="6.670560">
						<ele>586</ele>
						<time>2023-01-17T22:16:54Z</time>
					</trkpt>
					<trkpt lat="47.854790" lon="6.670180">
						<ele>583</ele>
						<time>2023-01-17T22:17:04Z</time>
					</trkpt>
					<trkpt lat="47.854620" lon="6.669960">
						<ele>581</ele>
						<time>2023-01-17T22:17:08Z</time>
					</trkpt>
					<trkpt lat="47.854230" lon="6.669340">
						<ele>579</ele>
						<time>2023-01-17T22:17:18Z</time>
					</trkpt>
					<trkpt lat="47.854160" lon="6.669270">
						<ele>578</ele>
						<time>2023-01-17T22:17:20Z</time>
					</trkpt>
					<trkpt lat="47.854040" lon="6.669230">
						<ele>577</ele>
						<time>2023-01-17T22:17:22Z</time>
					</trkpt>
					<trkpt lat="47.854010" lon="6.669270">
						<ele>576</ele>
						<time>2023-01-17T22:17:23Z</time>
					</trkpt>
					<trkpt lat="47.853830" lon="6.669690">
						<ele>576</ele>
						<time>2023-01-17T22:17:29Z</time>
					</trkpt>
					<trkpt lat="47.853750" lon="6.669840">
						<ele>576</ele>
						<time>2023-01-17T22:17:31Z</time>
					</trkpt>
					<trkpt lat="47.853630" lon="6.669950">
						<ele>576</ele>
						<time>2023-01-17T22:17:34Z</time>
					</trkpt>
					<trkpt lat="47.853470" lon="6.669870">
						<ele>576</ele>
						<time>2023-01-17T22:17:37Z</time>
					</trkpt>
					<trkpt lat="47.853170" lon="6.669640">
						<ele>574</ele>
						<time>2023-01-17T22:17:43Z</time>
					</trkpt>
					<trkpt lat="47.852850" lon="6.669580">
						<ele>574</ele>
						<time>2023-01-17T22:17:48Z</time>
					</trkpt>
					<trkpt lat="47.852570" lon="6.669620">
						<ele>575</ele>
						<time>2023-01-17T22:17:53Z</time>
					</trkpt>
					<trkpt lat="47.852210" lon="6.669780">
						<ele>586</ele>
						<time>2023-01-17T22:18:00Z</time>
					</trkpt>
					<trkpt lat="47.852070" lon="6.669780">
						<ele>590</ele>
						<time>2023-01-17T22:18:03Z</time>
					</trkpt>
					<trkpt lat="47.851970" lon="6.669750">
						<ele>592</ele>
						<time>2023-01-17T22:18:04Z</time>
					</trkpt>
					<trkpt lat="47.851920" lon="6.669650">
						<ele>592</ele>
						<time>2023-01-17T22:18:06Z</time>
					</trkpt>
					<trkpt lat="47.851760" lon="6.669090">
						<ele>585</ele>
						<time>2023-01-17T22:18:13Z</time>
					</trkpt>
					<trkpt lat="47.851450" lon="6.668260">
						<ele>580</ele>
						<time>2023-01-17T22:18:24Z</time>
					</trkpt>
					<trkpt lat="47.851230" lon="6.667840">
						<ele>579</ele>
						<time>2023-01-17T22:18:31Z</time>
					</trkpt>
					<trkpt lat="47.851020" lon="6.667780">
						<ele>581</ele>
						<time>2023-01-17T22:18:35Z</time>
					</trkpt>
					<trkpt lat="47.850660" lon="6.667720">
						<ele>585</ele>
						<time>2023-01-17T22:18:41Z</time>
					</trkpt>
					<trkpt lat="47.850530" lon="6.667720">
						<ele>587</ele>
						<time>2023-01-17T22:18:43Z</time>
					</trkpt>
					<trkpt lat="47.850410" lon="6.667760">
						<ele>588</ele>
						<time>2023-01-17T22:18:46Z</time>
					</trkpt>
					<trkpt lat="47.850260" lon="6.667720">
						<ele>590</ele>
						<time>2023-01-17T22:18:48Z</time>
					</trkpt>
					<trkpt lat="47.849890" lon="6.667160">
						<ele>590</ele>
						<time>2023-01-17T22:18:58Z</time>
					</trkpt>
					<trkpt lat="47.849690" lon="6.667040">
						<ele>593</ele>
						<time>2023-01-17T22:19:01Z</time>
					</trkpt>
					<trkpt lat="47.849050" lon="6.666780">
						<ele>605</ele>
						<time>2023-01-17T22:19:13Z</time>
					</trkpt>
					<trkpt lat="47.848940" lon="6.666640">
						<ele>608</ele>
						<time>2023-01-17T22:19:16Z</time>
					</trkpt>
					<trkpt lat="47.848840" lon="6.666200">
						<ele>609</ele>
						<time>2023-01-17T22:19:21Z</time>
					</trkpt>
					<trkpt lat="47.848820" lon="6.665840">
						<ele>608</ele>
						<time>2023-01-17T22:19:26Z</time>
					</trkpt>
					<trkpt lat="47.848830" lon="6.664630">
						<ele>607</ele>
						<time>2023-01-17T22:19:40Z</time>
					</trkpt>
					<trkpt lat="47.848850" lon="6.663940">
						<ele>605</ele>
						<time>2023-01-17T22:19:48Z</time>
					</trkpt>
					<trkpt lat="47.848700" lon="6.663030">
						<ele>601</ele>
						<time>2023-01-17T22:20:00Z</time>
					</trkpt>
					<trkpt lat="47.848390" lon="6.662100">
						<ele>596</ele>
						<time>2023-01-17T22:20:12Z</time>
					</trkpt>
					<trkpt lat="47.848230" lon="6.661940">
						<ele>596</ele>
						<time>2023-01-17T22:20:15Z</time>
					</trkpt>
					<trkpt lat="47.848010" lon="6.661920">
						<ele>596</ele>
						<time>2023-01-17T22:20:19Z</time>
					</trkpt>
					<trkpt lat="47.847760" lon="6.662040">
						<ele>596</ele>
						<time>2023-01-17T22:20:24Z</time>
					</trkpt>
					<trkpt lat="47.847660" lon="6.662000">
						<ele>597</ele>
						<time>2023-01-17T22:20:26Z</time>
					</trkpt>
					<trkpt lat="47.847620" lon="6.661950">
						<ele>597</ele>
						<time>2023-01-17T22:20:27Z</time>
					</trkpt>
					<trkpt lat="47.847590" lon="6.661860">
						<ele>597</ele>
						<time>2023-01-17T22:20:28Z</time>
					</trkpt>
					<trkpt lat="47.847580" lon="6.661730">
						<ele>598</ele>
						<time>2023-01-17T22:20:30Z</time>
					</trkpt>
					<trkpt lat="47.847600" lon="6.661530">
						<ele>599</ele>
						<time>2023-01-17T22:20:32Z</time>
					</trkpt>
					<trkpt lat="47.847580" lon="6.661370">
						<ele>600</ele>
						<time>2023-01-17T22:20:34Z</time>
					</trkpt>
					<trkpt lat="47.847540" lon="6.661260">
						<ele>601</ele>
						<time>2023-01-17T22:20:35Z</time>
					</trkpt>
					<trkpt lat="47.847470" lon="6.661130">
						<ele>602</ele>
						<time>2023-01-17T22:20:37Z</time>
					</trkpt>
					<trkpt lat="47.847100" lon="6.660760">
						<ele>605</ele>
						<time>2023-01-17T22:20:45Z</time>
					</trkpt>
					<trkpt lat="47.846890" lon="6.660730">
						<ele>605</ele>
						<time>2023-01-17T22:20:49Z</time>
					</trkpt>
					<trkpt lat="47.846620" lon="6.660850">
						<ele>605</ele>
						<time>2023-01-17T22:20:54Z</time>
					</trkpt>
					<trkpt lat="47.846170" lon="6.660980">
						<ele>607</ele>
						<time>2023-01-17T22:21:02Z</time>
					</trkpt>
					<trkpt lat="47.845920" lon="6.660930">
						<ele>608</ele>
						<time>2023-01-17T22:21:07Z</time>
					</trkpt>
					<trkpt lat="47.845780" lon="6.660940">
						<ele>610</ele>
						<time>2023-01-17T22:21:09Z</time>
					</trkpt>
					<trkpt lat="47.845580" lon="6.661070">
						<ele>612</ele>
						<time>2023-01-17T22:21:13Z</time>
					</trkpt>
					<trkpt lat="47.845500" lon="6.661030">
						<ele>613</ele>
						<time>2023-01-17T22:21:15Z</time>
					</trkpt>
					<trkpt lat="47.845490" lon="6.660990">
						<ele>613</ele>
						<time>2023-01-17T22:21:15Z</time>
					</trkpt>
					<trkpt lat="47.845490" lon="6.660930">
						<ele>613</ele>
						<time>2023-01-17T22:21:16Z</time>
					</trkpt>
					<trkpt lat="47.845560" lon="6.660360">
						<ele>616</ele>
						<time>2023-01-17T22:21:23Z</time>
					</trkpt>
					<trkpt lat="47.845560" lon="6.660090">
						<ele>617</ele>
						<time>2023-01-17T22:21:26Z</time>
					</trkpt>
					<trkpt lat="47.845540" lon="6.659900">
						<ele>619</ele>
						<time>2023-01-17T22:21:28Z</time>
					</trkpt>
					<trkpt lat="47.845420" lon="6.659310">
						<ele>622</ele>
						<time>2023-01-17T22:21:36Z</time>
					</trkpt>
					<trkpt lat="47.845280" lon="6.658960">
						<ele>624</ele>
						<time>2023-01-17T22:21:40Z</time>
					</trkpt>
					<trkpt lat="47.844990" lon="6.658640">
						<ele>627</ele>
						<time>2023-01-17T22:21:47Z</time>
					</trkpt>
					<trkpt lat="47.844800" lon="6.658490">
						<ele>627</ele>
						<time>2023-01-17T22:21:51Z</time>
					</trkpt>
					<trkpt lat="47.844500" lon="6.659720">
						<ele>625</ele>
						<time>2023-01-17T22:22:06Z</time>
					</trkpt>
					<trkpt lat="47.844360" lon="6.659860">
						<ele>624</ele>
						<time>2023-01-17T22:22:09Z</time>
					</trkpt>
					<trkpt lat="47.844110" lon="6.659860">
						<ele>624</ele>
						<time>2023-01-17T22:22:14Z</time>
					</trkpt>
					<trkpt lat="47.843990" lon="6.659920">
						<ele>624</ele>
						<time>2023-01-17T22:22:16Z</time>
					</trkpt>
					<trkpt lat="47.843910" lon="6.660000">
						<ele>624</ele>
						<time>2023-01-17T22:22:18Z</time>
					</trkpt>
					<trkpt lat="47.843840" lon="6.660130">
						<ele>624</ele>
						<time>2023-01-17T22:22:20Z</time>
					</trkpt>
					<trkpt lat="47.843590" lon="6.660720">
						<ele>625</ele>
						<time>2023-01-17T22:22:28Z</time>
					</trkpt>
					<trkpt lat="47.843210" lon="6.661440">
						<ele>623</ele>
						<time>2023-01-17T22:22:39Z</time>
					</trkpt>
					<trkpt lat="47.842920" lon="6.661710">
						<ele>624</ele>
						<time>2023-01-17T22:22:45Z</time>
					</trkpt>
					<trkpt lat="47.842710" lon="6.661860">
						<ele>624</ele>
						<time>2023-01-17T22:22:49Z</time>
					</trkpt>
					<trkpt lat="47.842480" lon="6.662130">
						<ele>625</ele>
						<time>2023-01-17T22:22:54Z</time>
					</trkpt>
					<trkpt lat="47.841410" lon="6.662820">
						<ele>621</ele>
						<time>2023-01-17T22:23:15Z</time>
					</trkpt>
					<trkpt lat="47.841330" lon="6.662830">
						<ele>621</ele>
						<time>2023-01-17T22:23:17Z</time>
					</trkpt>
					<trkpt lat="47.840970" lon="6.662730">
						<ele>620</ele>
						<time>2023-01-17T22:23:23Z</time>
					</trkpt>
					<trkpt lat="47.840900" lon="6.662750">
						<ele>620</ele>
						<time>2023-01-17T22:23:24Z</time>
					</trkpt>
					<trkpt lat="47.840740" lon="6.662870">
						<ele>621</ele>
						<time>2023-01-17T22:23:28Z</time>
					</trkpt>
					<trkpt lat="47.840340" lon="6.662940">
						<ele>622</ele>
						<time>2023-01-17T22:23:35Z</time>
					</trkpt>
					<trkpt lat="47.840020" lon="6.663090">
						<ele>624</ele>
						<time>2023-01-17T22:23:41Z</time>
					</trkpt>
					<trkpt lat="47.839890" lon="6.663180">
						<ele>625</ele>
						<time>2023-01-17T22:23:43Z</time>
					</trkpt>
					<trkpt lat="47.839730" lon="6.663370">
						<ele>627</ele>
						<time>2023-01-17T22:23:47Z</time>
					</trkpt>
					<trkpt lat="47.839570" lon="6.663450">
						<ele>628</ele>
						<time>2023-01-17T22:23:50Z</time>
					</trkpt>
					<trkpt lat="47.839500" lon="6.663450">
						<ele>628</ele>
						<time>2023-01-17T22:23:51Z</time>
					</trkpt>
					<trkpt lat="47.839450" lon="6.663420">
						<ele>629</ele>
						<time>2023-01-17T22:23:52Z</time>
					</trkpt>
					<trkpt lat="47.839390" lon="6.663350">
						<ele>629</ele>
						<time>2023-01-17T22:23:54Z</time>
					</trkpt>
					<trkpt lat="47.839300" lon="6.663180">
						<ele>629</ele>
						<time>2023-01-17T22:23:56Z</time>
					</trkpt>
					<trkpt lat="47.839210" lon="6.663060">
						<ele>629</ele>
						<time>2023-01-17T22:23:58Z</time>
					</trkpt>
					<trkpt lat="47.839130" lon="6.663010">
						<ele>629</ele>
						<time>2023-01-17T22:24:00Z</time>
					</trkpt>
					<trkpt lat="47.839070" lon="6.663020">
						<ele>629</ele>
						<time>2023-01-17T22:24:01Z</time>
					</trkpt>
					<trkpt lat="47.839010" lon="6.663080">
						<ele>630</ele>
						<time>2023-01-17T22:24:02Z</time>
					</trkpt>
					<trkpt lat="47.838960" lon="6.663250">
						<ele>630</ele>
						<time>2023-01-17T22:24:04Z</time>
					</trkpt>
					<trkpt lat="47.838930" lon="6.663450">
						<ele>631</ele>
						<time>2023-01-17T22:24:07Z</time>
					</trkpt>
					<trkpt lat="47.838900" lon="6.663440">
						<ele>631</ele>
						<time>2023-01-17T22:24:07Z</time>
					</trkpt>
					<trkpt lat="47.838760" lon="6.663250">
						<ele>631</ele>
						<time>2023-01-17T22:24:11Z</time>
					</trkpt>
					<trkpt lat="47.838540" lon="6.662570">
						<ele>631</ele>
						<time>2023-01-17T22:24:20Z</time>
					</trkpt>
					<trkpt lat="47.838460" lon="6.662230">
						<ele>630</ele>
						<time>2023-01-17T22:24:24Z</time>
					</trkpt>
					<trkpt lat="47.838360" lon="6.662030">
						<ele>630</ele>
						<time>2023-01-17T22:24:27Z</time>
					</trkpt>
					<trkpt lat="47.838240" lon="6.661890">
						<ele>629</ele>
						<time>2023-01-17T22:24:30Z</time>
					</trkpt>
					<trkpt lat="47.837810" lon="6.661830">
						<ele>630</ele>
						<time>2023-01-17T22:24:37Z</time>
					</trkpt>
					<trkpt lat="47.837560" lon="6.661700">
						<ele>629</ele>
						<time>2023-01-17T22:24:42Z</time>
					</trkpt>
					<trkpt lat="47.837330" lon="6.661470">
						<ele>628</ele>
						<time>2023-01-17T22:24:47Z</time>
					</trkpt>
					<trkpt lat="47.837010" lon="6.661370">
						<ele>626</ele>
						<time>2023-01-17T22:24:53Z</time>
					</trkpt>
					<trkpt lat="47.836830" lon="6.661340">
						<ele>626</ele>
						<time>2023-01-17T22:24:56Z</time>
					</trkpt>
					<trkpt lat="47.836660" lon="6.661400">
						<ele>626</ele>
						<time>2023-01-17T22:24:59Z</time>
					</trkpt>
					<trkpt lat="47.836510" lon="6.661510">
						<ele>626</ele>
						<time>2023-01-17T22:25:02Z</time>
					</trkpt>
					<trkpt lat="47.836360" lon="6.661620">
						<ele>626</ele>
						<time>2023-01-17T22:25:05Z</time>
					</trkpt>
					<trkpt lat="47.836290" lon="6.661620">
						<ele>626</ele>
						<time>2023-01-17T22:25:06Z</time>
					</trkpt>
					<trkpt lat="47.835890" lon="6.661330">
						<ele>623</ele>
						<time>2023-01-17T22:25:14Z</time>
					</trkpt>
					<trkpt lat="47.835800" lon="6.661330">
						<ele>623</ele>
						<time>2023-01-17T22:25:16Z</time>
					</trkpt>
					<trkpt lat="47.835720" lon="6.661360">
						<ele>623</ele>
						<time>2023-01-17T22:25:17Z</time>
					</trkpt>
					<trkpt lat="47.835410" lon="6.661570">
						<ele>623</ele>
						<time>2023-01-17T22:25:23Z</time>
					</trkpt>
					<trkpt lat="47.835090" lon="6.661660">
						<ele>621</ele>
						<time>2023-01-17T22:25:29Z</time>
					</trkpt>
					<trkpt lat="47.834810" lon="6.661540">
						<ele>621</ele>
						<time>2023-01-17T22:25:34Z</time>
					</trkpt>
					<trkpt lat="47.834320" lon="6.661090">
						<ele>620</ele>
						<time>2023-01-17T22:25:45Z</time>
					</trkpt>
					<trkpt lat="47.834260" lon="6.661000">
						<ele>620</ele>
						<time>2023-01-17T22:25:46Z</time>
					</trkpt>
					<trkpt lat="47.833990" lon="6.660950">
						<ele>620</ele>
						<time>2023-01-17T22:25:51Z</time>
					</trkpt>
					<trkpt lat="47.833910" lon="6.660980">
						<ele>620</ele>
						<time>2023-01-17T22:25:53Z</time>
					</trkpt>
					<trkpt lat="47.833580" lon="6.661370">
						<ele>621</ele>
						<time>2023-01-17T22:26:00Z</time>
					</trkpt>
					<trkpt lat="47.833470" lon="6.661400">
						<ele>621</ele>
						<time>2023-01-17T22:26:02Z</time>
					</trkpt>
					<trkpt lat="47.833380" lon="6.661370">
						<ele>621</ele>
						<time>2023-01-17T22:26:04Z</time>
					</trkpt>
					<trkpt lat="47.833230" lon="6.661210">
						<ele>620</ele>
						<time>2023-01-17T22:26:07Z</time>
					</trkpt>
					<trkpt lat="47.833060" lon="6.661150">
						<ele>620</ele>
						<time>2023-01-17T22:26:10Z</time>
					</trkpt>
					<trkpt lat="47.832600" lon="6.661260">
						<ele>620</ele>
						<time>2023-01-17T22:26:18Z</time>
					</trkpt>
					<trkpt lat="47.832460" lon="6.661230">
						<ele>620</ele>
						<time>2023-01-17T22:26:21Z</time>
					</trkpt>
					<trkpt lat="47.832210" lon="6.660920">
						<ele>620</ele>
						<time>2023-01-17T22:26:27Z</time>
					</trkpt>
					<trkpt lat="47.832120" lon="6.660860">
						<ele>620</ele>
						<time>2023-01-17T22:26:28Z</time>
					</trkpt>
					<trkpt lat="47.832060" lon="6.660870">
						<ele>619</ele>
						<time>2023-01-17T22:26:29Z</time>
					</trkpt>
					<trkpt lat="47.831970" lon="6.660890">
						<ele>619</ele>
						<time>2023-01-17T22:26:31Z</time>
					</trkpt>
					<trkpt lat="47.831790" lon="6.661050">
						<ele>619</ele>
						<time>2023-01-17T22:26:35Z</time>
					</trkpt>
					<trkpt lat="47.831630" lon="6.661220">
						<ele>619</ele>
						<time>2023-01-17T22:26:38Z</time>
					</trkpt>
					<trkpt lat="47.831460" lon="6.661540">
						<ele>619</ele>
						<time>2023-01-17T22:26:43Z</time>
					</trkpt>
					<trkpt lat="47.831170" lon="6.661740">
						<ele>618</ele>
						<time>2023-01-17T22:26:49Z</time>
					</trkpt>
					<trkpt lat="47.831050" lon="6.661750">
						<ele>618</ele>
						<time>2023-01-17T22:26:51Z</time>
					</trkpt>
					<trkpt lat="47.830930" lon="6.661710">
						<ele>617</ele>
						<time>2023-01-17T22:26:53Z</time>
					</trkpt>
					<trkpt lat="47.830840" lon="6.661520">
						<ele>616</ele>
						<time>2023-01-17T22:26:56Z</time>
					</trkpt>
					<trkpt lat="47.830530" lon="6.659470">
						<ele>607</ele>
						<time>2023-01-17T22:27:21Z</time>
					</trkpt>
					<trkpt lat="47.830480" lon="6.659350">
						<ele>606</ele>
						<time>2023-01-17T22:27:23Z</time>
					</trkpt>
					<trkpt lat="47.830380" lon="6.659490">
						<ele>606</ele>
						<time>2023-01-17T22:27:25Z</time>
					</trkpt>
					<trkpt lat="47.830220" lon="6.659750">
						<ele>607</ele>
						<time>2023-01-17T22:27:29Z</time>
					</trkpt>
					<trkpt lat="47.830020" lon="6.660110">
						<ele>606</ele>
						<time>2023-01-17T22:27:35Z</time>
					</trkpt>
					<trkpt lat="47.829940" lon="6.660340">
						<ele>607</ele>
						<time>2023-01-17T22:27:38Z</time>
					</trkpt>
					<trkpt lat="47.829850" lon="6.660790">
						<ele>609</ele>
						<time>2023-01-17T22:27:44Z</time>
					</trkpt>
					<trkpt lat="47.829780" lon="6.661300">
						<ele>611</ele>
						<time>2023-01-17T22:27:50Z</time>
					</trkpt>
					<trkpt lat="47.829660" lon="6.661880">
						<ele>612</ele>
						<time>2023-01-17T22:27:57Z</time>
					</trkpt>
					<trkpt lat="47.829470" lon="6.662460">
						<ele>610</ele>
						<time>2023-01-17T22:28:05Z</time>
					</trkpt>
					<trkpt lat="47.829150" lon="6.663140">
						<ele>603</ele>
						<time>2023-01-17T22:28:15Z</time>
					</trkpt>
					<trkpt lat="47.828960" lon="6.663380">
						<ele>601</ele>
						<time>2023-01-17T22:28:19Z</time>
					</trkpt>
					<trkpt lat="47.828810" lon="6.663600">
						<ele>600</ele>
						<time>2023-01-17T22:28:23Z</time>
					</trkpt>
					<trkpt lat="47.828630" lon="6.663730">
						<ele>599</ele>
						<time>2023-01-17T22:28:27Z</time>
					</trkpt>
					<trkpt lat="47.828440" lon="6.663790">
						<ele>597</ele>
						<time>2023-01-17T22:28:30Z</time>
					</trkpt>
					<trkpt lat="47.828360" lon="6.663830">
						<ele>597</ele>
						<time>2023-01-17T22:28:31Z</time>
					</trkpt>
					<trkpt lat="47.828270" lon="6.663920">
						<ele>595</ele>
						<time>2023-01-17T22:28:33Z</time>
					</trkpt>
					<trkpt lat="47.828070" lon="6.664070">
						<ele>590</ele>
						<time>2023-01-17T22:28:37Z</time>
					</trkpt>
					<trkpt lat="47.827910" lon="6.664120">
						<ele>588</ele>
						<time>2023-01-17T22:28:40Z</time>
					</trkpt>
					<trkpt lat="47.827650" lon="6.664140">
						<ele>584</ele>
						<time>2023-01-17T22:28:45Z</time>
					</trkpt>
					<trkpt lat="47.827460" lon="6.664180">
						<ele>581</ele>
						<time>2023-01-17T22:28:48Z</time>
					</trkpt>
					<trkpt lat="47.827360" lon="6.664240">
						<ele>579</ele>
						<time>2023-01-17T22:28:50Z</time>
					</trkpt>
					<trkpt lat="47.827130" lon="6.664470">
						<ele>573</ele>
						<time>2023-01-17T22:28:55Z</time>
					</trkpt>
					<trkpt lat="47.827060" lon="6.664500">
						<ele>572</ele>
						<time>2023-01-17T22:28:56Z</time>
					</trkpt>
					<trkpt lat="47.826570" lon="6.664460">
						<ele>567</ele>
						<time>2023-01-17T22:29:05Z</time>
					</trkpt>
					<trkpt lat="47.826400" lon="6.664470">
						<ele>567</ele>
						<time>2023-01-17T22:29:08Z</time>
					</trkpt>
					<trkpt lat="47.825960" lon="6.664660">
						<ele>564</ele>
						<time>2023-01-17T22:29:16Z</time>
					</trkpt>
					<trkpt lat="47.825840" lon="6.664770">
						<ele>562</ele>
						<time>2023-01-17T22:29:19Z</time>
					</trkpt>
					<trkpt lat="47.825450" lon="6.665490">
						<ele>560</ele>
						<time>2023-01-17T22:29:30Z</time>
					</trkpt>
					<trkpt lat="47.824990" lon="6.666290">
						<ele>560</ele>
						<time>2023-01-17T22:29:43Z</time>
					</trkpt>
					<trkpt lat="47.824760" lon="6.666580">
						<ele>561</ele>
						<time>2023-01-17T22:29:48Z</time>
					</trkpt>
					<trkpt lat="47.824210" lon="6.667400">
						<ele>558</ele>
						<time>2023-01-17T22:30:02Z</time>
					</trkpt>
					<trkpt lat="47.824140" lon="6.667610">
						<ele>556</ele>
						<time>2023-01-17T22:30:05Z</time>
					</trkpt>
					<trkpt lat="47.824020" lon="6.668000">
						<ele>552</ele>
						<time>2023-01-17T22:30:10Z</time>
					</trkpt>
					<trkpt lat="47.823710" lon="6.668660">
						<ele>549</ele>
						<time>2023-01-17T22:30:19Z</time>
					</trkpt>
					<trkpt lat="47.823430" lon="6.668860">
						<ele>551</ele>
						<time>2023-01-17T22:30:25Z</time>
					</trkpt>
					<trkpt lat="47.823210" lon="6.668820">
						<ele>553</ele>
						<time>2023-01-17T22:30:29Z</time>
					</trkpt>
					<trkpt lat="47.822970" lon="6.668630">
						<ele>553</ele>
						<time>2023-01-17T22:30:34Z</time>
					</trkpt>
					<trkpt lat="47.822700" lon="6.668330">
						<ele>551</ele>
						<time>2023-01-17T22:30:40Z</time>
					</trkpt>
					<trkpt lat="47.822130" lon="6.667830">
						<ele>541</ele>
						<time>2023-01-17T22:30:51Z</time>
					</trkpt>
					<trkpt lat="47.822010" lon="6.667800">
						<ele>539</ele>
						<time>2023-01-17T22:30:54Z</time>
					</trkpt>
					<trkpt lat="47.821950" lon="6.667830">
						<ele>538</ele>
						<time>2023-01-17T22:30:55Z</time>
					</trkpt>
					<trkpt lat="47.821810" lon="6.668010">
						<ele>536</ele>
						<time>2023-01-17T22:30:58Z</time>
					</trkpt>
					<trkpt lat="47.821550" lon="6.668560">
						<ele>535</ele>
						<time>2023-01-17T22:31:06Z</time>
					</trkpt>
					<trkpt lat="47.821390" lon="6.668950">
						<ele>535</ele>
						<time>2023-01-17T22:31:11Z</time>
					</trkpt>
					<trkpt lat="47.821330" lon="6.669020">
						<ele>534</ele>
						<time>2023-01-17T22:31:13Z</time>
					</trkpt>
					<trkpt lat="47.821280" lon="6.669040">
						<ele>534</ele>
						<time>2023-01-17T22:31:14Z</time>
					</trkpt>
					<trkpt lat="47.821220" lon="6.668980">
						<ele>532</ele>
						<time>2023-01-17T22:31:15Z</time>
					</trkpt>
					<trkpt lat="47.821060" lon="6.668430">
						<ele>525</ele>
						<time>2023-01-17T22:31:22Z</time>
					</trkpt>
					<trkpt lat="47.821000" lon="6.668120">
						<ele>522</ele>
						<time>2023-01-17T22:31:26Z</time>
					</trkpt>
					<trkpt lat="47.821000" lon="6.667850">
						<ele>520</ele>
						<time>2023-01-17T22:31:29Z</time>
					</trkpt>
					<trkpt lat="47.820980" lon="6.667740">
						<ele>519</ele>
						<time>2023-01-17T22:31:31Z</time>
					</trkpt>
					<trkpt lat="47.820660" lon="6.667530">
						<ele>515</ele>
						<time>2023-01-17T22:31:37Z</time>
					</trkpt>
					<trkpt lat="47.820600" lon="6.667430">
						<ele>514</ele>
						<time>2023-01-17T22:31:38Z</time>
					</trkpt>
					<trkpt lat="47.820430" lon="6.666990">
						<ele>516</ele>
						<time>2023-01-17T22:31:44Z</time>
					</trkpt>
					<trkpt lat="47.820340" lon="6.666920">
						<ele>516</ele>
						<time>2023-01-17T22:31:46Z</time>
					</trkpt>
					<trkpt lat="47.819890" lon="6.666790">
						<ele>515</ele>
						<time>2023-01-17T22:31:54Z</time>
					</trkpt>
					<trkpt lat="47.819450" lon="6.666470">
						<ele>519</ele>
						<time>2023-01-17T22:32:03Z</time>
					</trkpt>
					<trkpt lat="47.819390" lon="6.666470">
						<ele>519</ele>
						<time>2023-01-17T22:32:04Z</time>
					</trkpt>
					<trkpt lat="47.819090" lon="6.666560">
						<ele>518</ele>
						<time>2023-01-17T22:32:10Z</time>
					</trkpt>
					<trkpt lat="47.818960" lon="6.666560">
						<ele>517</ele>
						<time>2023-01-17T22:32:12Z</time>
					</trkpt>
					<trkpt lat="47.818840" lon="6.666510">
						<ele>517</ele>
						<time>2023-01-17T22:32:14Z</time>
					</trkpt>
					<trkpt lat="47.818680" lon="6.666420">
						<ele>518</ele>
						<time>2023-01-17T22:32:17Z</time>
					</trkpt>
					<trkpt lat="47.818070" lon="6.665640">
						<ele>524</ele>
						<time>2023-01-17T22:32:32Z</time>
					</trkpt>
					<trkpt lat="47.817500" lon="6.665090">
						<ele>525</ele>
						<time>2023-01-17T22:32:44Z</time>
					</trkpt>
					<trkpt lat="47.817260" lon="6.664970">
						<ele>524</ele>
						<time>2023-01-17T22:32:48Z</time>
					</trkpt>
					<trkpt lat="47.816710" lon="6.664820">
						<ele>521</ele>
						<time>2023-01-17T22:32:58Z</time>
					</trkpt>
					<trkpt lat="47.816260" lon="6.664490">
						<ele>523</ele>
						<time>2023-01-17T22:33:07Z</time>
					</trkpt>
					<trkpt lat="47.816230" lon="6.664670">
						<ele>520</ele>
						<time>2023-01-17T22:33:09Z</time>
					</trkpt>
					<trkpt lat="47.815850" lon="6.665080">
						<ele>513</ele>
						<time>2023-01-17T22:33:18Z</time>
					</trkpt>
					<trkpt lat="47.815750" lon="6.665300">
						<ele>512</ele>
						<time>2023-01-17T22:33:21Z</time>
					</trkpt>
					<trkpt lat="47.815690" lon="6.665580">
						<ele>510</ele>
						<time>2023-01-17T22:33:24Z</time>
					</trkpt>
					<trkpt lat="47.815650" lon="6.665890">
						<ele>508</ele>
						<time>2023-01-17T22:33:28Z</time>
					</trkpt>
					<trkpt lat="47.815650" lon="6.666030">
						<ele>506</ele>
						<time>2023-01-17T22:33:30Z</time>
					</trkpt>
					<trkpt lat="47.815750" lon="6.666380">
						<ele>500</ele>
						<time>2023-01-17T22:33:34Z</time>
					</trkpt>
					<trkpt lat="47.815900" lon="6.666720">
						<ele>493</ele>
						<time>2023-01-17T22:33:39Z</time>
					</trkpt>
					<trkpt lat="47.815950" lon="6.667010">
						<ele>490</ele>
						<time>2023-01-17T22:33:43Z</time>
					</trkpt>
					<trkpt lat="47.815930" lon="6.667210">
						<ele>487</ele>
						<time>2023-01-17T22:33:45Z</time>
					</trkpt>
					<trkpt lat="47.815890" lon="6.667380">
						<ele>485</ele>
						<time>2023-01-17T22:33:47Z</time>
					</trkpt>
					<trkpt lat="47.815690" lon="6.667940">
						<ele>479</ele>
						<time>2023-01-17T22:33:55Z</time>
					</trkpt>
					<trkpt lat="47.815590" lon="6.668510">
						<ele>470</ele>
						<time>2023-01-17T22:34:02Z</time>
					</trkpt>
					<trkpt lat="47.815340" lon="6.669030">
						<ele>461</ele>
						<time>2023-01-17T22:34:10Z</time>
					</trkpt>
					<trkpt lat="47.815160" lon="6.669380">
						<ele>456</ele>
						<time>2023-01-17T22:34:15Z</time>
					</trkpt>
					<trkpt lat="47.814970" lon="6.669890">
						<ele>450</ele>
						<time>2023-01-17T22:34:22Z</time>
					</trkpt>
					<trkpt lat="47.814890" lon="6.670230">
						<ele>447</ele>
						<time>2023-01-17T22:34:26Z</time>
					</trkpt>
					<trkpt lat="47.814540" lon="6.670800">
						<ele>447</ele>
						<time>2023-01-17T22:34:35Z</time>
					</trkpt>
					<trkpt lat="47.814080" lon="6.671950">
						<ele>438</ele>
						<time>2023-01-17T22:34:51Z</time>
					</trkpt>
					<trkpt lat="47.813740" lon="6.672520">
						<ele>434</ele>
						<time>2023-01-17T22:35:00Z</time>
					</trkpt>
					<trkpt lat="47.813490" lon="6.672850">
						<ele>431</ele>
						<time>2023-01-17T22:35:06Z</time>
					</trkpt>
					<trkpt lat="47.813420" lon="6.672930">
						<ele>430</ele>
						<time>2023-01-17T22:35:08Z</time>
					</trkpt>
					<trkpt lat="47.813020" lon="6.673270">
						<ele>425</ele>
						<time>2023-01-17T22:35:16Z</time>
					</trkpt>
					<trkpt lat="47.812890" lon="6.673450">
						<ele>422</ele>
						<time>2023-01-17T22:35:19Z</time>
					</trkpt>
					<trkpt lat="47.812410" lon="6.674270">
						<ele>415</ele>
						<time>2023-01-17T22:35:32Z</time>
					</trkpt>
					<trkpt lat="47.812300" lon="6.674530">
						<ele>413</ele>
						<time>2023-01-17T22:35:36Z</time>
					</trkpt>
					<trkpt lat="47.812080" lon="6.675220">
						<ele>409</ele>
						<time>2023-01-17T22:35:45Z</time>
					</trkpt>
					<trkpt lat="47.811980" lon="6.675700">
						<ele>407</ele>
						<time>2023-01-17T22:35:51Z</time>
					</trkpt>
					<trkpt lat="47.811870" lon="6.676390">
						<ele>406</ele>
						<time>2023-01-17T22:36:00Z</time>
					</trkpt>
					<trkpt lat="47.811750" lon="6.676800">
						<ele>405</ele>
						<time>2023-01-17T22:36:05Z</time>
					</trkpt>
					<trkpt lat="47.811750" lon="6.676870">
						<ele>405</ele>
						<time>2023-01-17T22:36:06Z</time>
					</trkpt>
					<trkpt lat="47.811770" lon="6.676920">
						<ele>405</ele>
						<time>2023-01-17T22:36:06Z</time>
					</trkpt>
					<trkpt lat="47.811810" lon="6.677030">
						<ele>405</ele>
						<time>2023-01-17T22:36:08Z</time>
					</trkpt>
					<trkpt lat="47.812300" lon="6.678200">
						<ele>407</ele>
						<time>2023-01-17T22:36:24Z</time>
					</trkpt>
					<trkpt lat="47.812270" lon="6.678240">
						<ele>407</ele>
						<time>2023-01-17T22:36:25Z</time>
					</trkpt>
					<trkpt lat="47.812140" lon="6.678740">
						<ele>406</ele>
						<time>2023-01-17T22:36:32Z</time>
					</trkpt>
					<trkpt lat="47.812150" lon="6.678880">
						<ele>406</ele>
						<time>2023-01-17T22:36:33Z</time>
					</trkpt>
					<trkpt lat="47.812620" lon="6.679970">
						<ele>408</ele>
						<time>2023-01-17T22:36:49Z</time>
					</trkpt>
					<trkpt lat="47.812420" lon="6.680150">
						<ele>406</ele>
						<time>2023-01-17T22:36:53Z</time>
					</trkpt>
					<trkpt lat="47.812330" lon="6.680290">
						<ele>405</ele>
						<time>2023-01-17T22:36:55Z</time>
					</trkpt>
					<trkpt lat="47.812310" lon="6.680440">
						<ele>405</ele>
						<time>2023-01-17T22:36:57Z</time>
					</trkpt>
					<trkpt lat="47.812340" lon="6.680830">
						<ele>406</ele>
						<time>2023-01-17T22:37:02Z</time>
					</trkpt>
					<trkpt lat="47.812160" lon="6.680820">
						<ele>405</ele>
						<time>2023-01-17T22:37:05Z</time>
					</trkpt>
					<trkpt lat="47.811590" lon="6.680810">
						<ele>404</ele>
						<time>2023-01-17T22:37:15Z</time>
					</trkpt>
					<trkpt lat="47.811200" lon="6.680810">
						<ele>405</ele>
						<time>2023-01-17T22:37:22Z</time>
					</trkpt>
					<trkpt lat="47.811030" lon="6.680850">
						<ele>405</ele>
						<time>2023-01-17T22:37:25Z</time>
					</trkpt>
					<trkpt lat="47.810870" lon="6.680910">
						<ele>405</ele>
						<time>2023-01-17T22:37:28Z</time>
					</trkpt>
					<trkpt lat="47.810570" lon="6.681100">
						<ele>406</ele>
						<time>2023-01-17T22:37:34Z</time>
					</trkpt>
					<trkpt lat="47.810320" lon="6.681220">
						<ele>407</ele>
						<time>2023-01-17T22:37:38Z</time>
					</trkpt>
					<trkpt lat="47.810190" lon="6.681260">
						<ele>408</ele>
						<time>2023-01-17T22:37:41Z</time>
					</trkpt>
					<trkpt lat="47.810050" lon="6.681280">
						<ele>408</ele>
						<time>2023-01-17T22:37:43Z</time>
					</trkpt>
					<trkpt lat="47.809880" lon="6.681260">
						<ele>410</ele>
						<time>2023-01-17T22:37:46Z</time>
					</trkpt>
					<trkpt lat="47.809690" lon="6.681150">
						<ele>412</ele>
						<time>2023-01-17T22:37:50Z</time>
					</trkpt>
					<trkpt lat="47.809490" lon="6.680980">
						<ele>413</ele>
						<time>2023-01-17T22:37:54Z</time>
					</trkpt>
					<trkpt lat="47.809270" lon="6.680690">
						<ele>413</ele>
						<time>2023-01-17T22:37:59Z</time>
					</trkpt>
					<trkpt lat="47.808900" lon="6.680260">
						<ele>411</ele>
						<time>2023-01-17T22:38:08Z</time>
					</trkpt>
					<trkpt lat="47.808760" lon="6.680140">
						<ele>411</ele>
						<time>2023-01-17T22:38:11Z</time>
					</trkpt>
					<trkpt lat="47.808570" lon="6.680070">
						<ele>410</ele>
						<time>2023-01-17T22:38:14Z</time>
					</trkpt>
					<trkpt lat="47.808440" lon="6.680070">
						<ele>410</ele>
						<time>2023-01-17T22:38:16Z</time>
					</trkpt>
					<trkpt lat="47.808280" lon="6.680110">
						<ele>409</ele>
						<time>2023-01-17T22:38:19Z</time>
					</trkpt>
					<trkpt lat="47.808200" lon="6.680450">
						<ele>409</ele>
						<time>2023-01-17T22:38:23Z</time>
					</trkpt>
					<trkpt lat="47.808190" lon="6.680560">
						<ele>409</ele>
						<time>2023-01-17T22:38:25Z</time>
					</trkpt>
					<trkpt lat="47.808310" lon="6.681080">
						<ele>412</ele>
						<time>2023-01-17T22:38:31Z</time>
					</trkpt>
					<trkpt lat="47.808420" lon="6.681500">
						<ele>414</ele>
						<time>2023-01-17T22:38:37Z</time>
					</trkpt>
					<trkpt lat="47.808540" lon="6.681750">
						<ele>417</ele>
						<time>2023-01-17T22:38:40Z</time>
					</trkpt>
					<trkpt lat="47.808610" lon="6.681960">
						<ele>420</ele>
						<time>2023-01-17T22:38:43Z</time>
					</trkpt>
					<trkpt lat="47.808620" lon="6.682080">
						<ele>422</ele>
						<time>2023-01-17T22:38:45Z</time>
					</trkpt>
					<trkpt lat="47.808580" lon="6.682310">
						<ele>424</ele>
						<time>2023-01-17T22:38:48Z</time>
					</trkpt>
					<trkpt lat="47.808490" lon="6.682550">
						<ele>426</ele>
						<time>2023-01-17T22:38:51Z</time>
					</trkpt>
					<trkpt lat="47.808390" lon="6.682640">
						<ele>427</ele>
						<time>2023-01-17T22:38:53Z</time>
					</trkpt>
					<trkpt lat="47.808050" lon="6.682620">
						<ele>426</ele>
						<time>2023-01-17T22:38:59Z</time>
					</trkpt>
					<trkpt lat="47.807680" lon="6.682680">
						<ele>428</ele>
						<time>2023-01-17T22:39:06Z</time>
					</trkpt>
					<trkpt lat="47.807550" lon="6.682670">
						<ele>428</ele>
						<time>2023-01-17T22:39:08Z</time>
					</trkpt>
					<trkpt lat="47.806880" lon="6.682340">
						<ele>427</ele>
						<time>2023-01-17T22:39:20Z</time>
					</trkpt>
					<trkpt lat="47.806560" lon="6.682110">
						<ele>427</ele>
						<time>2023-01-17T22:39:27Z</time>
					</trkpt>
					<trkpt lat="47.806320" lon="6.681960">
						<ele>427</ele>
						<time>2023-01-17T22:39:31Z</time>
					</trkpt>
					<trkpt lat="47.805700" lon="6.681780">
						<ele>431</ele>
						<time>2023-01-17T22:39:43Z</time>
					</trkpt>
					<trkpt lat="47.805610" lon="6.681810">
						<ele>431</ele>
						<time>2023-01-17T22:39:44Z</time>
					</trkpt>
					<trkpt lat="47.805520" lon="6.681930">
						<ele>432</ele>
						<time>2023-01-17T22:39:46Z</time>
					</trkpt>
					<trkpt lat="47.805510" lon="6.682070">
						<ele>433</ele>
						<time>2023-01-17T22:39:48Z</time>
					</trkpt>
					<trkpt lat="47.805580" lon="6.682400">
						<ele>436</ele>
						<time>2023-01-17T22:39:52Z</time>
					</trkpt>
					<trkpt lat="47.805580" lon="6.682600">
						<ele>438</ele>
						<time>2023-01-17T22:39:55Z</time>
					</trkpt>
					<trkpt lat="47.805230" lon="6.683800">
						<ele>442</ele>
						<time>2023-01-17T22:40:10Z</time>
					</trkpt>
					<trkpt lat="47.805150" lon="6.684100">
						<ele>443</ele>
						<time>2023-01-17T22:40:14Z</time>
					</trkpt>
					<trkpt lat="47.805150" lon="6.684350">
						<ele>444</ele>
						<time>2023-01-17T22:40:17Z</time>
					</trkpt>
					<trkpt lat="47.805200" lon="6.684750">
						<ele>448</ele>
						<time>2023-01-17T22:40:22Z</time>
					</trkpt>
					<trkpt lat="47.805190" lon="6.684980">
						<ele>450</ele>
						<time>2023-01-17T22:40:25Z</time>
					</trkpt>
					<trkpt lat="47.805110" lon="6.685130">
						<ele>451</ele>
						<time>2023-01-17T22:40:27Z</time>
					</trkpt>
					<trkpt lat="47.804920" lon="6.685310">
						<ele>451</ele>
						<time>2023-01-17T22:40:31Z</time>
					</trkpt>
					<trkpt lat="47.804680" lon="6.685580">
						<ele>452</ele>
						<time>2023-01-17T22:40:36Z</time>
					</trkpt>
					<trkpt lat="47.804510" lon="6.685780">
						<ele>452</ele>
						<time>2023-01-17T22:40:40Z</time>
					</trkpt>
					<trkpt lat="47.804340" lon="6.686040">
						<ele>453</ele>
						<time>2023-01-17T22:40:45Z</time>
					</trkpt>
					<trkpt lat="47.804290" lon="6.686160">
						<ele>455</ele>
						<time>2023-01-17T22:40:46Z</time>
					</trkpt>
					<trkpt lat="47.804210" lon="6.686640">
						<ele>461</ele>
						<time>2023-01-17T22:40:52Z</time>
					</trkpt>
					<trkpt lat="47.804130" lon="6.686830">
						<ele>465</ele>
						<time>2023-01-17T22:40:55Z</time>
					</trkpt>
					<trkpt lat="47.803630" lon="6.687230">
						<ele>469</ele>
						<time>2023-01-17T22:41:05Z</time>
					</trkpt>
					<trkpt lat="47.803310" lon="6.687630">
						<ele>473</ele>
						<time>2023-01-17T22:41:12Z</time>
					</trkpt>
					<trkpt lat="47.803090" lon="6.687830">
						<ele>477</ele>
						<time>2023-01-17T22:41:17Z</time>
					</trkpt>
					<trkpt lat="47.802900" lon="6.687960">
						<ele>478</ele>
						<time>2023-01-17T22:41:21Z</time>
					</trkpt>
					<trkpt lat="47.802090" lon="6.688570">
						<ele>478</ele>
						<time>2023-01-17T22:41:37Z</time>
					</trkpt>
					<trkpt lat="47.801660" lon="6.688960">
						<ele>476</ele>
						<time>2023-01-17T22:41:46Z</time>
					</trkpt>
					<trkpt lat="47.801370" lon="6.689300">
						<ele>475</ele>
						<time>2023-01-17T22:41:52Z</time>
					</trkpt>
					<trkpt lat="47.800960" lon="6.689710">
						<ele>472</ele>
						<time>2023-01-17T22:42:01Z</time>
					</trkpt>
					<trkpt lat="47.800770" lon="6.689950">
						<ele>470</ele>
						<time>2023-01-17T22:42:06Z</time>
					</trkpt>
					<trkpt lat="47.800610" lon="6.690270">
						<ele>470</ele>
						<time>2023-01-17T22:42:10Z</time>
					</trkpt>
					<trkpt lat="47.800540" lon="6.690580">
						<ele>472</ele>
						<time>2023-01-17T22:42:14Z</time>
					</trkpt>
					<trkpt lat="47.800060" lon="6.691860">
						<ele>469</ele>
						<time>2023-01-17T22:42:32Z</time>
					</trkpt>
					<trkpt lat="47.799870" lon="6.692190">
						<ele>469</ele>
						<time>2023-01-17T22:42:37Z</time>
					</trkpt>
					<trkpt lat="47.799520" lon="6.692640">
						<ele>466</ele>
						<time>2023-01-17T22:42:45Z</time>
					</trkpt>
					<trkpt lat="47.799320" lon="6.692930">
						<ele>463</ele>
						<time>2023-01-17T22:42:50Z</time>
					</trkpt>
					<trkpt lat="47.799240" lon="6.693120">
						<ele>462</ele>
						<time>2023-01-17T22:42:53Z</time>
					</trkpt>
					<trkpt lat="47.799130" lon="6.693540">
						<ele>463</ele>
						<time>2023-01-17T22:42:58Z</time>
					</trkpt>
					<trkpt lat="47.799010" lon="6.694160">
						<ele>467</ele>
						<time>2023-01-17T22:43:06Z</time>
					</trkpt>
					<trkpt lat="47.798850" lon="6.694710">
						<ele>467</ele>
						<time>2023-01-17T22:43:13Z</time>
					</trkpt>
					<trkpt lat="47.798730" lon="6.695180">
						<ele>467</ele>
						<time>2023-01-17T22:43:19Z</time>
					</trkpt>
					<trkpt lat="47.798610" lon="6.695540">
						<ele>468</ele>
						<time>2023-01-17T22:43:24Z</time>
					</trkpt>
					<trkpt lat="47.798400" lon="6.695940">
						<ele>468</ele>
						<time>2023-01-17T22:43:30Z</time>
					</trkpt>
					<trkpt lat="47.798030" lon="6.696500">
						<ele>472</ele>
						<time>2023-01-17T22:43:39Z</time>
					</trkpt>
					<trkpt lat="47.797500" lon="6.697090">
						<ele>472</ele>
						<time>2023-01-17T22:43:51Z</time>
					</trkpt>
					<trkpt lat="47.797280" lon="6.697440">
						<ele>473</ele>
						<time>2023-01-17T22:43:57Z</time>
					</trkpt>
					<trkpt lat="47.797110" lon="6.697850">
						<ele>473</ele>
						<time>2023-01-17T22:44:03Z</time>
					</trkpt>
					<trkpt lat="47.797030" lon="6.698240">
						<ele>473</ele>
						<time>2023-01-17T22:44:08Z</time>
					</trkpt>
					<trkpt lat="47.796960" lon="6.698720">
						<ele>474</ele>
						<time>2023-01-17T22:44:13Z</time>
					</trkpt>
					<trkpt lat="47.796840" lon="6.699150">
						<ele>473</ele>
						<time>2023-01-17T22:44:19Z</time>
					</trkpt>
					<trkpt lat="47.796830" lon="6.699640">
						<ele>473</ele>
						<time>2023-01-17T22:44:25Z</time>
					</trkpt>
					<trkpt lat="47.796940" lon="6.700690">
						<ele>476</ele>
						<time>2023-01-17T22:44:38Z</time>
					</trkpt>
					<trkpt lat="47.797090" lon="6.701300">
						<ele>478</ele>
						<time>2023-01-17T22:44:45Z</time>
					</trkpt>
					<trkpt lat="47.797330" lon="6.701930">
						<ele>479</ele>
						<time>2023-01-17T22:44:54Z</time>
					</trkpt>
					<trkpt lat="47.797460" lon="6.702500">
						<ele>479</ele>
						<time>2023-01-17T22:45:01Z</time>
					</trkpt>
					<trkpt lat="47.797590" lon="6.703270">
						<ele>483</ele>
						<time>2023-01-17T22:45:11Z</time>
					</trkpt>
					<trkpt lat="47.797660" lon="6.703900">
						<ele>487</ele>
						<time>2023-01-17T22:45:18Z</time>
					</trkpt>
					<trkpt lat="47.797740" lon="6.705020">
						<ele>489</ele>
						<time>2023-01-17T22:45:32Z</time>
					</trkpt>
					<trkpt lat="47.797820" lon="6.705280">
						<ele>489</ele>
						<time>2023-01-17T22:45:35Z</time>
					</trkpt>
					<trkpt lat="47.798170" lon="6.705860">
						<ele>494</ele>
						<time>2023-01-17T22:45:44Z</time>
					</trkpt>
					<trkpt lat="47.798330" lon="6.706260">
						<ele>495</ele>
						<time>2023-01-17T22:45:50Z</time>
					</trkpt>
					<trkpt lat="47.798460" lon="6.706720">
						<ele>499</ele>
						<time>2023-01-17T22:45:56Z</time>
					</trkpt>
					<trkpt lat="47.798620" lon="6.707760">
						<ele>498</ele>
						<time>2023-01-17T22:46:09Z</time>
					</trkpt>
					<trkpt lat="47.798720" lon="6.708160">
						<ele>496</ele>
						<time>2023-01-17T22:46:14Z</time>
					</trkpt>
					<trkpt lat="47.798850" lon="6.708590">
						<ele>497</ele>
						<time>2023-01-17T22:46:19Z</time>
					</trkpt>
					<trkpt lat="47.799290" lon="6.709810">
						<ele>493</ele>
						<time>2023-01-17T22:46:36Z</time>
					</trkpt>
					<trkpt lat="47.799590" lon="6.710440">
						<ele>497</ele>
						<time>2023-01-17T22:46:45Z</time>
					</trkpt>
					<trkpt lat="47.800720" lon="6.712990">
						<ele>501</ele>
						<time>2023-01-17T22:47:22Z</time>
					</trkpt>
					<trkpt lat="47.800930" lon="6.713590">
						<ele>499</ele>
						<time>2023-01-17T22:47:30Z</time>
					</trkpt>
					<trkpt lat="47.801150" lon="6.714440">
						<ele>498</ele>
						<time>2023-01-17T22:47:41Z</time>
					</trkpt>
					<trkpt lat="47.801410" lon="6.715340">
						<ele>500</ele>
						<time>2023-01-17T22:47:52Z</time>
					</trkpt>
					<trkpt lat="47.801630" lon="6.715860">
						<ele>498</ele>
						<time>2023-01-17T22:48:00Z</time>
					</trkpt>
					<trkpt lat="47.801850" lon="6.716190">
						<ele>501</ele>
						<time>2023-01-17T22:48:05Z</time>
					</trkpt>
					<trkpt lat="47.802370" lon="6.716860">
						<ele>506</ele>
						<time>2023-01-17T22:48:18Z</time>
					</trkpt>
					<trkpt lat="47.802650" lon="6.717140">
						<ele>507</ele>
						<time>2023-01-17T22:48:24Z</time>
					</trkpt>
					<trkpt lat="47.802890" lon="6.717320">
						<ele>510</ele>
						<time>2023-01-17T22:48:28Z</time>
					</trkpt>
					<trkpt lat="47.803320" lon="6.718110">
						<ele>508</ele>
						<time>2023-01-17T22:48:41Z</time>
					</trkpt>
					<trkpt lat="47.803540" lon="6.718400">
						<ele>511</ele>
						<time>2023-01-17T22:48:46Z</time>
					</trkpt>
					<trkpt lat="47.803700" lon="6.718750">
						<ele>514</ele>
						<time>2023-01-17T22:48:51Z</time>
					</trkpt>
					<trkpt lat="47.803810" lon="6.719140">
						<ele>514</ele>
						<time>2023-01-17T22:48:56Z</time>
					</trkpt>
					<trkpt lat="47.803950" lon="6.719370">
						<ele>515</ele>
						<time>2023-01-17T22:49:00Z</time>
					</trkpt>
					<trkpt lat="47.804120" lon="6.719560">
						<ele>517</ele>
						<time>2023-01-17T22:49:03Z</time>
					</trkpt>
					<trkpt lat="47.804440" lon="6.720100">
						<ele>520</ele>
						<time>2023-01-17T22:49:12Z</time>
					</trkpt>
					<trkpt lat="47.805080" lon="6.720710">
						<ele>523</ele>
						<time>2023-01-17T22:49:25Z</time>
					</trkpt>
					<trkpt lat="47.805580" lon="6.721020">
						<ele>532</ele>
						<time>2023-01-17T22:49:35Z</time>
					</trkpt>
					<trkpt lat="47.805720" lon="6.721240">
						<ele>535</ele>
						<time>2023-01-17T22:49:39Z</time>
					</trkpt>
					<trkpt lat="47.805940" lon="6.721890">
						<ele>538</ele>
						<time>2023-01-17T22:49:47Z</time>
					</trkpt>
					<trkpt lat="47.806030" lon="6.722400">
						<ele>540</ele>
						<time>2023-01-17T22:49:54Z</time>
					</trkpt>
					<trkpt lat="47.805970" lon="6.722910">
						<ele>539</ele>
						<time>2023-01-17T22:50:00Z</time>
					</trkpt>
					<trkpt lat="47.805840" lon="6.723430">
						<ele>538</ele>
						<time>2023-01-17T22:50:07Z</time>
					</trkpt>
					<trkpt lat="47.805910" lon="6.723720">
						<ele>539</ele>
						<time>2023-01-17T22:50:10Z</time>
					</trkpt>
					<trkpt lat="47.806260" lon="6.724560">
						<ele>542</ele>
						<time>2023-01-17T22:50:22Z</time>
					</trkpt>
					<trkpt lat="47.806610" lon="6.725260">
						<ele>547</ele>
						<time>2023-01-17T22:50:32Z</time>
					</trkpt>
					<trkpt lat="47.806710" lon="6.725570">
						<ele>548</ele>
						<time>2023-01-17T22:50:37Z</time>
					</trkpt>
					<trkpt lat="47.806700" lon="6.725850">
						<ele>547</ele>
						<time>2023-01-17T22:50:40Z</time>
					</trkpt>
					<trkpt lat="47.806710" lon="6.726370">
						<ele>554</ele>
						<time>2023-01-17T22:50:46Z</time>
					</trkpt>
					<trkpt lat="47.806690" lon="6.727130">
						<ele>559</ele>
						<time>2023-01-17T22:50:55Z</time>
					</trkpt>
					<trkpt lat="47.806510" lon="6.728130">
						<ele>559</ele>
						<time>2023-01-17T22:51:08Z</time>
					</trkpt>
					<trkpt lat="47.806560" lon="6.728890">
						<ele>563</ele>
						<time>2023-01-17T22:51:17Z</time>
					</trkpt>
					<trkpt lat="47.806790" lon="6.729790">
						<ele>572</ele>
						<time>2023-01-17T22:51:28Z</time>
					</trkpt>
					<trkpt lat="47.806820" lon="6.730480">
						<ele>570</ele>
						<time>2023-01-17T22:51:37Z</time>
					</trkpt>
					<trkpt lat="47.806900" lon="6.730870">
						<ele>572</ele>
						<time>2023-01-17T22:51:41Z</time>
					</trkpt>
					<trkpt lat="47.807080" lon="6.731320">
						<ele>576</ele>
						<time>2023-01-17T22:51:48Z</time>
					</trkpt>
					<trkpt lat="47.807250" lon="6.731650">
						<ele>578</ele>
						<time>2023-01-17T22:51:53Z</time>
					</trkpt>
					<trkpt lat="47.807400" lon="6.732060">
						<ele>577</ele>
						<time>2023-01-17T22:51:58Z</time>
					</trkpt>
					<trkpt lat="47.807480" lon="6.732250">
						<ele>576</ele>
						<time>2023-01-17T22:52:01Z</time>
					</trkpt>
					<trkpt lat="47.807880" lon="6.732930">
						<ele>581</ele>
						<time>2023-01-17T22:52:12Z</time>
					</trkpt>
					<trkpt lat="47.808020" lon="6.733250">
						<ele>581</ele>
						<time>2023-01-17T22:52:16Z</time>
					</trkpt>
					<trkpt lat="47.808480" lon="6.733860">
						<ele>586</ele>
						<time>2023-01-17T22:52:27Z</time>
					</trkpt>
					<trkpt lat="47.808730" lon="6.734360">
						<ele>584</ele>
						<time>2023-01-17T22:52:35Z</time>
					</trkpt>
					<trkpt lat="47.809180" lon="6.735290">
						<ele>581</ele>
						<time>2023-01-17T22:52:48Z</time>
					</trkpt>
					<trkpt lat="47.809380" lon="6.735870">
						<ele>579</ele>
						<time>2023-01-17T22:52:56Z</time>
					</trkpt>
					<trkpt lat="47.809650" lon="6.736530">
						<ele>579</ele>
						<time>2023-01-17T22:53:05Z</time>
					</trkpt>
					<trkpt lat="47.810070" lon="6.737440">
						<ele>576</ele>
						<time>2023-01-17T22:53:19Z</time>
					</trkpt>
					<trkpt lat="47.810190" lon="6.737640">
						<ele>577</ele>
						<time>2023-01-17T22:53:22Z</time>
					</trkpt>
					<trkpt lat="47.810410" lon="6.738240">
						<ele>578</ele>
						<time>2023-01-17T22:53:30Z</time>
					</trkpt>
					<trkpt lat="47.810390" lon="6.738310">
						<ele>577</ele>
						<time>2023-01-17T22:53:31Z</time>
					</trkpt>
					<trkpt lat="47.810250" lon="6.738540">
						<ele>574</ele>
						<time>2023-01-17T22:53:35Z</time>
					</trkpt>
					<trkpt lat="47.810200" lon="6.738730">
						<ele>573</ele>
						<time>2023-01-17T22:53:37Z</time>
					</trkpt>
					<trkpt lat="47.810190" lon="6.738930">
						<ele>573</ele>
						<time>2023-01-17T22:53:39Z</time>
					</trkpt>
					<trkpt lat="47.810210" lon="6.739270">
						<ele>573</ele>
						<time>2023-01-17T22:53:43Z</time>
					</trkpt>
					<trkpt lat="47.810190" lon="6.739420">
						<ele>573</ele>
						<time>2023-01-17T22:53:45Z</time>
					</trkpt>
					<trkpt lat="47.810150" lon="6.739500">
						<ele>573</ele>
						<time>2023-01-17T22:53:47Z</time>
					</trkpt>
					<trkpt lat="47.810060" lon="6.739600">
						<ele>572</ele>
						<time>2023-01-17T22:53:49Z</time>
					</trkpt>
					<trkpt lat="47.810000" lon="6.739690">
						<ele>572</ele>
						<time>2023-01-17T22:53:50Z</time>
					</trkpt>
					<trkpt lat="47.809940" lon="6.739810">
						<ele>573</ele>
						<time>2023-01-17T22:53:52Z</time>
					</trkpt>
					<trkpt lat="47.809860" lon="6.740090">
						<ele>574</ele>
						<time>2023-01-17T22:53:55Z</time>
					</trkpt>
					<trkpt lat="47.809720" lon="6.740350">
						<ele>576</ele>
						<time>2023-01-17T22:53:59Z</time>
					</trkpt>
					<trkpt lat="47.809620" lon="6.740450">
						<ele>578</ele>
						<time>2023-01-17T22:54:02Z</time>
					</trkpt>
					<trkpt lat="47.809500" lon="6.740500">
						<ele>579</ele>
						<time>2023-01-17T22:54:04Z</time>
					</trkpt>
					<trkpt lat="47.809430" lon="6.740510">
						<ele>579</ele>
						<time>2023-01-17T22:54:05Z</time>
					</trkpt>
					<trkpt lat="47.809210" lon="6.740450">
						<ele>581</ele>
						<time>2023-01-17T22:54:09Z</time>
					</trkpt>
					<trkpt lat="47.809110" lon="6.740400">
						<ele>583</ele>
						<time>2023-01-17T22:54:11Z</time>
					</trkpt>
					<trkpt lat="47.809030" lon="6.740310">
						<ele>585</ele>
						<time>2023-01-17T22:54:13Z</time>
					</trkpt>
					<trkpt lat="47.808990" lon="6.740210">
						<ele>586</ele>
						<time>2023-01-17T22:54:14Z</time>
					</trkpt>
					<trkpt lat="47.808860" lon="6.739790">
						<ele>586</ele>
						<time>2023-01-17T22:54:20Z</time>
					</trkpt>
					<trkpt lat="47.808770" lon="6.739590">
						<ele>586</ele>
						<time>2023-01-17T22:54:22Z</time>
					</trkpt>
					<trkpt lat="47.808550" lon="6.739450">
						<ele>589</ele>
						<time>2023-01-17T22:54:27Z</time>
					</trkpt>
					<trkpt lat="47.808270" lon="6.739140">
						<ele>591</ele>
						<time>2023-01-17T22:54:33Z</time>
					</trkpt>
					<trkpt lat="47.807450" lon="6.738050">
						<ele>603</ele>
						<time>2023-01-17T22:54:52Z</time>
					</trkpt>
					<trkpt lat="47.807250" lon="6.737860">
						<ele>604</ele>
						<time>2023-01-17T22:54:57Z</time>
					</trkpt>
					<trkpt lat="47.806670" lon="6.737820">
						<ele>620</ele>
						<time>2023-01-17T22:55:07Z</time>
					</trkpt>
					<trkpt lat="47.805340" lon="6.737930">
						<ele>625</ele>
						<time>2023-01-17T22:55:31Z</time>
					</trkpt>
					<trkpt lat="47.805060" lon="6.738190">
						<ele>628</ele>
						<time>2023-01-17T22:55:37Z</time>
					</trkpt>
					<trkpt lat="47.804970" lon="6.738560">
						<ele>634</ele>
						<time>2023-01-17T22:55:41Z</time>
					</trkpt>
					<trkpt lat="47.804710" lon="6.739420">
						<ele>646</ele>
						<time>2023-01-17T22:55:53Z</time>
					</trkpt>
					<trkpt lat="47.804320" lon="6.740500">
						<ele>648</ele>
						<time>2023-01-17T22:56:07Z</time>
					</trkpt>
					<trkpt lat="47.804180" lon="6.740860">
						<ele>647</ele>
						<time>2023-01-17T22:56:12Z</time>
					</trkpt>
					<trkpt lat="47.803750" lon="6.741850">
						<ele>648</ele>
						<time>2023-01-17T22:56:26Z</time>
					</trkpt>
					<trkpt lat="47.803440" lon="6.742320">
						<ele>649</ele>
						<time>2023-01-17T22:56:34Z</time>
					</trkpt>
					<trkpt lat="47.803040" lon="6.742690">
						<ele>654</ele>
						<time>2023-01-17T22:56:43Z</time>
					</trkpt>
					<trkpt lat="47.802640" lon="6.742970">
						<ele>662</ele>
						<time>2023-01-17T22:56:50Z</time>
					</trkpt>
					<trkpt lat="47.802430" lon="6.742990">
						<ele>663</ele>
						<time>2023-01-17T22:56:54Z</time>
					</trkpt>
					<trkpt lat="47.802180" lon="6.742970">
						<ele>663</ele>
						<time>2023-01-17T22:56:59Z</time>
					</trkpt>
					<trkpt lat="47.801890" lon="6.743010">
						<ele>664</ele>
						<time>2023-01-17T22:57:04Z</time>
					</trkpt>
					<trkpt lat="47.801810" lon="6.743020">
						<ele>665</ele>
						<time>2023-01-17T22:57:05Z</time>
					</trkpt>
					<trkpt lat="47.801520" lon="6.743070">
						<ele>665</ele>
						<time>2023-01-17T22:57:10Z</time>
					</trkpt>
					<trkpt lat="47.800900" lon="6.743450">
						<ele>664</ele>
						<time>2023-01-17T22:57:22Z</time>
					</trkpt>
					<trkpt lat="47.800650" lon="6.743460">
						<ele>665</ele>
						<time>2023-01-17T22:57:27Z</time>
					</trkpt>
					<trkpt lat="47.800470" lon="6.743380">
						<ele>664</ele>
						<time>2023-01-17T22:57:30Z</time>
					</trkpt>
					<trkpt lat="47.800230" lon="6.743250">
						<ele>665</ele>
						<time>2023-01-17T22:57:35Z</time>
					</trkpt>
					<trkpt lat="47.800130" lon="6.743220">
						<ele>666</ele>
						<time>2023-01-17T22:57:37Z</time>
					</trkpt>
					<trkpt lat="47.800040" lon="6.743250">
						<ele>666</ele>
						<time>2023-01-17T22:57:38Z</time>
					</trkpt>
					<trkpt lat="47.799980" lon="6.743330">
						<ele>666</ele>
						<time>2023-01-17T22:57:40Z</time>
					</trkpt>
					<trkpt lat="47.799980" lon="6.743420">
						<ele>667</ele>
						<time>2023-01-17T22:57:41Z</time>
					</trkpt>
					<trkpt lat="47.800290" lon="6.743950">
						<ele>673</ele>
						<time>2023-01-17T22:57:49Z</time>
					</trkpt>
					<trkpt lat="47.800450" lon="6.744320">
						<ele>679</ele>
						<time>2023-01-17T22:57:54Z</time>
					</trkpt>
					<trkpt lat="47.800470" lon="6.744600">
						<ele>685</ele>
						<time>2023-01-17T22:57:58Z</time>
					</trkpt>
					<trkpt lat="47.800450" lon="6.744710">
						<ele>688</ele>
						<time>2023-01-17T22:57:59Z</time>
					</trkpt>
					<trkpt lat="47.800390" lon="6.744770">
						<ele>690</ele>
						<time>2023-01-17T22:58:00Z</time>
					</trkpt>
					<trkpt lat="47.799670" lon="6.744850">
						<ele>696</ele>
						<time>2023-01-17T22:58:13Z</time>
					</trkpt>
					<trkpt lat="47.799430" lon="6.744830">
						<ele>696</ele>
						<time>2023-01-17T22:58:17Z</time>
					</trkpt>
					<trkpt lat="47.799280" lon="6.744890">
						<ele>697</ele>
						<time>2023-01-17T22:58:20Z</time>
					</trkpt>
					<trkpt lat="47.799170" lon="6.744960">
						<ele>699</ele>
						<time>2023-01-17T22:58:22Z</time>
					</trkpt>
					<trkpt lat="47.799080" lon="6.745070">
						<ele>703</ele>
						<time>2023-01-17T22:58:24Z</time>
					</trkpt>
					<trkpt lat="47.798940" lon="6.745260">
						<ele>709</ele>
						<time>2023-01-17T22:58:28Z</time>
					</trkpt>
					<trkpt lat="47.798760" lon="6.745400">
						<ele>715</ele>
						<time>2023-01-17T22:58:31Z</time>
					</trkpt>
					<trkpt lat="47.798560" lon="6.745340">
						<ele>715</ele>
						<time>2023-01-17T22:58:35Z</time>
					</trkpt>
					<trkpt lat="47.798410" lon="6.745240">
						<ele>714</ele>
						<time>2023-01-17T22:58:38Z</time>
					</trkpt>
					<trkpt lat="47.798250" lon="6.745080">
						<ele>713</ele>
						<time>2023-01-17T22:58:41Z</time>
					</trkpt>
					<trkpt lat="47.798030" lon="6.745000">
						<ele>714</ele>
						<time>2023-01-17T22:58:45Z</time>
					</trkpt>
					<trkpt lat="47.797830" lon="6.745040">
						<ele>718</ele>
						<time>2023-01-17T22:58:49Z</time>
					</trkpt>
					<trkpt lat="47.797470" lon="6.745390">
						<ele>728</ele>
						<time>2023-01-17T22:58:57Z</time>
					</trkpt>
					<trkpt lat="47.796910" lon="6.745990">
						<ele>738</ele>
						<time>2023-01-17T22:59:09Z</time>
					</trkpt>
					<trkpt lat="47.796840" lon="6.746120">
						<ele>740</ele>
						<time>2023-01-17T22:59:11Z</time>
					</trkpt>
					<trkpt lat="47.796820" lon="6.746260">
						<ele>742</ele>
						<time>2023-01-17T22:59:13Z</time>
					</trkpt>
					<trkpt lat="47.796830" lon="6.746450">
						<ele>744</ele>
						<time>2023-01-17T22:59:15Z</time>
					</trkpt>
					<trkpt lat="47.796900" lon="6.746540">
						<ele>746</ele>
						<time>2023-01-17T22:59:17Z</time>
					</trkpt>
					<trkpt lat="47.797010" lon="6.746550">
						<ele>746</ele>
						<time>2023-01-17T22:59:19Z</time>
					</trkpt>
					<trkpt lat="47.797280" lon="6.746530">
						<ele>746</ele>
						<time>2023-01-17T22:59:23Z</time>
					</trkpt>
					<trkpt lat="47.797360" lon="6.746570">
						<ele>747</ele>
						<time>2023-01-17T22:59:25Z</time>
					</trkpt>
					<trkpt lat="47.797400" lon="6.746630">
						<ele>748</ele>
						<time>2023-01-17T22:59:26Z</time>
					</trkpt>
					<trkpt lat="47.797400" lon="6.746750">
						<ele>751</ele>
						<time>2023-01-17T22:59:27Z</time>
					</trkpt>
					<trkpt lat="47.797260" lon="6.746930">
						<ele>755</ele>
						<time>2023-01-17T22:59:31Z</time>
					</trkpt>
					<trkpt lat="47.797040" lon="6.747290">
						<ele>761</ele>
						<time>2023-01-17T22:59:36Z</time>
					</trkpt>
					<trkpt lat="47.796190" lon="6.748740">
						<ele>785</ele>
						<time>2023-01-17T22:59:59Z</time>
					</trkpt>
					<trkpt lat="47.796010" lon="6.749790">
						<ele>799</ele>
						<time>2023-01-17T23:00:12Z</time>
					</trkpt>
					<trkpt lat="47.795960" lon="6.749980">
						<ele>801</ele>
						<time>2023-01-17T23:00:15Z</time>
					</trkpt>
					<trkpt lat="47.795780" lon="6.750440">
						<ele>805</ele>
						<time>2023-01-17T23:00:21Z</time>
					</trkpt>
					<trkpt lat="47.795650" lon="6.750690">
						<ele>810</ele>
						<time>2023-01-17T23:00:25Z</time>
					</trkpt>
					<trkpt lat="47.795480" lon="6.750770">
						<ele>811</ele>
						<time>2023-01-17T23:00:28Z</time>
					</trkpt>
					<trkpt lat="47.795280" lon="6.750820">
						<ele>812</ele>
						<time>2023-01-17T23:00:32Z</time>
					</trkpt>
					<trkpt lat="47.795000" lon="6.750940">
						<ele>816</ele>
						<time>2023-01-17T23:00:37Z</time>
					</trkpt>
					<trkpt lat="47.794580" lon="6.751260">
						<ele>828</ele>
						<time>2023-01-17T23:00:45Z</time>
					</trkpt>
					<trkpt lat="47.794320" lon="6.751570">
						<ele>836</ele>
						<time>2023-01-17T23:00:51Z</time>
					</trkpt>
					<trkpt lat="47.794260" lon="6.751570">
						<ele>836</ele>
						<time>2023-01-17T23:00:52Z</time>
					</trkpt>
					<trkpt lat="47.794200" lon="6.751550">
						<ele>835</ele>
						<time>2023-01-17T23:00:53Z</time>
					</trkpt>
					<trkpt lat="47.794120" lon="6.751440">
						<ele>835</ele>
						<time>2023-01-17T23:00:55Z</time>
					</trkpt>
					<trkpt lat="47.794060" lon="6.751260">
						<ele>835</ele>
						<time>2023-01-17T23:00:58Z</time>
					</trkpt>
					<trkpt lat="47.793930" lon="6.750500">
						<ele>833</ele>
						<time>2023-01-17T23:01:07Z</time>
					</trkpt>
					<trkpt lat="47.793830" lon="6.750200">
						<ele>836</ele>
						<time>2023-01-17T23:01:11Z</time>
					</trkpt>
					<trkpt lat="47.793700" lon="6.749960">
						<ele>839</ele>
						<time>2023-01-17T23:01:15Z</time>
					</trkpt>
					<trkpt lat="47.793550" lon="6.749740">
						<ele>841</ele>
						<time>2023-01-17T23:01:19Z</time>
					</trkpt>
					<trkpt lat="47.793320" lon="6.749530">
						<ele>845</ele>
						<time>2023-01-17T23:01:23Z</time>
					</trkpt>
					<trkpt lat="47.793170" lon="6.749440">
						<ele>848</ele>
						<time>2023-01-17T23:01:26Z</time>
					</trkpt>
					<trkpt lat="47.793110" lon="6.749360">
						<ele>848</ele>
						<time>2023-01-17T23:01:28Z</time>
					</trkpt>
					<trkpt lat="47.793070" lon="6.749260">
						<ele>848</ele>
						<time>2023-01-17T23:01:29Z</time>
					</trkpt>
					<trkpt lat="47.792990" lon="6.748780">
						<ele>850</ele>
						<time>2023-01-17T23:01:35Z</time>
					</trkpt>
					<trkpt lat="47.792970" lon="6.748360">
						<ele>851</ele>
						<time>2023-01-17T23:01:40Z</time>
					</trkpt>
					<trkpt lat="47.792970" lon="6.748080">
						<ele>854</ele>
						<time>2023-01-17T23:01:43Z</time>
					</trkpt>
					<trkpt lat="47.792930" lon="6.747970">
						<ele>856</ele>
						<time>2023-01-17T23:01:45Z</time>
					</trkpt>
					<trkpt lat="47.792850" lon="6.747970">
						<ele>859</ele>
						<time>2023-01-17T23:01:46Z</time>
					</trkpt>
					<trkpt lat="47.792780" lon="6.748000">
						<ele>860</ele>
						<time>2023-01-17T23:01:48Z</time>
					</trkpt>
					<trkpt lat="47.792620" lon="6.748260">
						<ele>862</ele>
						<time>2023-01-17T23:01:52Z</time>
					</trkpt>
					<trkpt lat="47.792340" lon="6.749150">
						<ele>870</ele>
						<time>2023-01-17T23:02:03Z</time>
					</trkpt>
					<trkpt lat="47.792200" lon="6.749320">
						<ele>877</ele>
						<time>2023-01-17T23:02:07Z</time>
					</trkpt>
					<trkpt lat="47.792120" lon="6.749250">
						<ele>879</ele>
						<time>2023-01-17T23:02:08Z</time>
					</trkpt>
					<trkpt lat="47.791990" lon="6.748920">
						<ele>884</ele>
						<time>2023-01-17T23:02:13Z</time>
					</trkpt>
					<trkpt lat="47.791910" lon="6.748590">
						<ele>889</ele>
						<time>2023-01-17T23:02:17Z</time>
					</trkpt>
					<trkpt lat="47.791900" lon="6.748210">
						<ele>892</ele>
						<time>2023-01-17T23:02:22Z</time>
					</trkpt>
					<trkpt lat="47.792080" lon="6.746640">
						<ele>904</ele>
						<time>2023-01-17T23:02:41Z</time>
					</trkpt>
					<trkpt lat="47.791790" lon="6.744360">
						<ele>916</ele>
						<time>2023-01-17T23:03:08Z</time>
					</trkpt>
					<trkpt lat="47.791460" lon="6.743110">
						<ele>917</ele>
						<time>2023-01-17T23:03:25Z</time>
					</trkpt>
					<trkpt lat="47.791410" lon="6.742640">
						<ele>914</ele>
						<time>2023-01-17T23:03:30Z</time>
					</trkpt>
					<trkpt lat="47.791320" lon="6.742400">
						<ele>915</ele>
						<time>2023-01-17T23:03:33Z</time>
					</trkpt>
					<trkpt lat="47.791210" lon="6.742280">
						<ele>918</ele>
						<time>2023-01-17T23:03:36Z</time>
					</trkpt>
					<trkpt lat="47.790880" lon="6.742070">
						<ele>923</ele>
						<time>2023-01-17T23:03:42Z</time>
					</trkpt>
					<trkpt lat="47.790730" lon="6.742070">
						<ele>923</ele>
						<time>2023-01-17T23:03:45Z</time>
					</trkpt>
					<trkpt lat="47.790520" lon="6.742150">
						<ele>923</ele>
						<time>2023-01-17T23:03:49Z</time>
					</trkpt>
					<trkpt lat="47.790390" lon="6.742180">
						<ele>922</ele>
						<time>2023-01-17T23:03:51Z</time>
					</trkpt>
					<trkpt lat="47.790280" lon="6.742140">
						<ele>921</ele>
						<time>2023-01-17T23:03:53Z</time>
					</trkpt>
					<trkpt lat="47.789820" lon="6.741640">
						<ele>913</ele>
						<time>2023-01-17T23:04:03Z</time>
					</trkpt>
					<trkpt lat="47.788410" lon="6.740590">
						<ele>907</ele>
						<time>2023-01-17T23:04:31Z</time>
					</trkpt>
					<trkpt lat="47.787860" lon="6.739850">
						<ele>904</ele>
						<time>2023-01-17T23:04:45Z</time>
					</trkpt>
					<trkpt lat="47.787510" lon="6.739380">
						<ele>903</ele>
						<time>2023-01-17T23:04:53Z</time>
					</trkpt>
					<trkpt lat="47.787270" lon="6.738930">
						<ele>902</ele>
						<time>2023-01-17T23:05:00Z</time>
					</trkpt>
					<trkpt lat="47.787030" lon="6.738220">
						<ele>901</ele>
						<time>2023-01-17T23:05:09Z</time>
					</trkpt>
					<trkpt lat="47.786840" lon="6.737850">
						<ele>905</ele>
						<time>2023-01-17T23:05:15Z</time>
					</trkpt>
					<trkpt lat="47.786580" lon="6.737490">
						<ele>907</ele>
						<time>2023-01-17T23:05:21Z</time>
					</trkpt>
					<trkpt lat="47.786460" lon="6.737380">
						<ele>907</ele>
						<time>2023-01-17T23:05:24Z</time>
					</trkpt>
					<trkpt lat="47.786380" lon="6.737230">
						<ele>907</ele>
						<time>2023-01-17T23:05:26Z</time>
					</trkpt>
					<trkpt lat="47.786040" lon="6.736680">
						<ele>905</ele>
						<time>2023-01-17T23:05:35Z</time>
					</trkpt>
					<trkpt lat="47.785850" lon="6.736280">
						<ele>906</ele>
						<time>2023-01-17T23:05:41Z</time>
					</trkpt>
					<trkpt lat="47.785530" lon="6.735060">
						<ele>902</ele>
						<time>2023-01-17T23:05:56Z</time>
					</trkpt>
					<trkpt lat="47.785510" lon="6.734860">
						<ele>900</ele>
						<time>2023-01-17T23:05:59Z</time>
					</trkpt>
					<trkpt lat="47.785520" lon="6.734660">
						<ele>897</ele>
						<time>2023-01-17T23:06:01Z</time>
					</trkpt>
					<trkpt lat="47.785560" lon="6.734470">
						<ele>896</ele>
						<time>2023-01-17T23:06:04Z</time>
					</trkpt>
					<trkpt lat="47.785680" lon="6.734070">
						<ele>894</ele>
						<time>2023-01-17T23:06:09Z</time>
					</trkpt>
					<trkpt lat="47.785700" lon="6.733900">
						<ele>894</ele>
						<time>2023-01-17T23:06:11Z</time>
					</trkpt>
					<trkpt lat="47.785690" lon="6.733780">
						<ele>893</ele>
						<time>2023-01-17T23:06:12Z</time>
					</trkpt>
					<trkpt lat="47.785550" lon="6.733330">
						<ele>888</ele>
						<time>2023-01-17T23:06:18Z</time>
					</trkpt>
					<trkpt lat="47.785430" lon="6.732830">
						<ele>882</ele>
						<time>2023-01-17T23:06:25Z</time>
					</trkpt>
					<trkpt lat="47.785420" lon="6.732680">
						<ele>880</ele>
						<time>2023-01-17T23:06:26Z</time>
					</trkpt>
					<trkpt lat="47.785420" lon="6.731970">
						<ele>873</ele>
						<time>2023-01-17T23:06:35Z</time>
					</trkpt>
					<trkpt lat="47.785230" lon="6.731010">
						<ele>860</ele>
						<time>2023-01-17T23:06:47Z</time>
					</trkpt>
					<trkpt lat="47.785170" lon="6.730780">
						<ele>857</ele>
						<time>2023-01-17T23:06:50Z</time>
					</trkpt>
					<trkpt lat="47.785060" lon="6.730710">
						<ele>854</ele>
						<time>2023-01-17T23:06:52Z</time>
					</trkpt>
					<trkpt lat="47.784560" lon="6.731310">
						<ele>848</ele>
						<time>2023-01-17T23:07:03Z</time>
					</trkpt>
					<trkpt lat="47.784240" lon="6.731640">
						<ele>843</ele>
						<time>2023-01-17T23:07:10Z</time>
					</trkpt>
					<trkpt lat="47.784020" lon="6.731920">
						<ele>844</ele>
						<time>2023-01-17T23:07:15Z</time>
					</trkpt>
					<trkpt lat="47.783530" lon="6.732290">
						<ele>842</ele>
						<time>2023-01-17T23:07:25Z</time>
					</trkpt>
					<trkpt lat="47.782780" lon="6.733100">
						<ele>840</ele>
						<time>2023-01-17T23:07:42Z</time>
					</trkpt>
					<trkpt lat="47.782470" lon="6.733540">
						<ele>837</ele>
						<time>2023-01-17T23:07:49Z</time>
					</trkpt>
					<trkpt lat="47.782380" lon="6.733740">
						<ele>835</ele>
						<time>2023-01-17T23:07:52Z</time>
					</trkpt>
					<trkpt lat="47.782280" lon="6.734170">
						<ele>834</ele>
						<time>2023-01-17T23:07:58Z</time>
					</trkpt>
					<trkpt lat="47.782190" lon="6.734460">
						<ele>834</ele>
						<time>2023-01-17T23:08:02Z</time>
					</trkpt>
					<trkpt lat="47.782110" lon="6.734600">
						<ele>834</ele>
						<time>2023-01-17T23:08:04Z</time>
					</trkpt>
					<trkpt lat="47.782010" lon="6.734680">
						<ele>833</ele>
						<time>2023-01-17T23:08:06Z</time>
					</trkpt>
					<trkpt lat="47.781820" lon="6.734790">
						<ele>832</ele>
						<time>2023-01-17T23:08:09Z</time>
					</trkpt>
					<trkpt lat="47.781620" lon="6.734830">
						<ele>831</ele>
						<time>2023-01-17T23:08:13Z</time>
					</trkpt>
					<trkpt lat="47.780800" lon="6.734790">
						<ele>825</ele>
						<time>2023-01-17T23:08:28Z</time>
					</trkpt>
					<trkpt lat="47.780550" lon="6.734720">
						<ele>826</ele>
						<time>2023-01-17T23:08:32Z</time>
					</trkpt>
					<trkpt lat="47.780400" lon="6.734620">
						<ele>825</ele>
						<time>2023-01-17T23:08:35Z</time>
					</trkpt>
					<trkpt lat="47.779270" lon="6.733180">
						<ele>822</ele>
						<time>2023-01-17T23:09:01Z</time>
					</trkpt>
					<trkpt lat="47.779150" lon="6.732990">
						<ele>822</ele>
						<time>2023-01-17T23:09:05Z</time>
					</trkpt>
					<trkpt lat="47.779110" lon="6.732880">
						<ele>822</ele>
						<time>2023-01-17T23:09:06Z</time>
					</trkpt>
					<trkpt lat="47.778990" lon="6.731910">
						<ele>819</ele>
						<time>2023-01-17T23:09:18Z</time>
					</trkpt>
					<trkpt lat="47.778880" lon="6.731480">
						<ele>818</ele>
						<time>2023-01-17T23:09:23Z</time>
					</trkpt>
					<trkpt lat="47.778700" lon="6.731070">
						<ele>818</ele>
						<time>2023-01-17T23:09:29Z</time>
					</trkpt>
					<trkpt lat="47.778610" lon="6.730950">
						<ele>818</ele>
						<time>2023-01-17T23:09:31Z</time>
					</trkpt>
					<trkpt lat="47.778530" lon="6.730880">
						<ele>818</ele>
						<time>2023-01-17T23:09:33Z</time>
					</trkpt>
					<trkpt lat="47.778460" lon="6.730850">
						<ele>819</ele>
						<time>2023-01-17T23:09:34Z</time>
					</trkpt>
					<trkpt lat="47.778390" lon="6.730850">
						<ele>819</ele>
						<time>2023-01-17T23:09:36Z</time>
					</trkpt>
					<trkpt lat="47.778180" lon="6.730950">
						<ele>821</ele>
						<time>2023-01-17T23:09:40Z</time>
					</trkpt>
					<trkpt lat="47.778000" lon="6.731060">
						<ele>822</ele>
						<time>2023-01-17T23:09:43Z</time>
					</trkpt>
					<trkpt lat="47.776570" lon="6.732080">
						<ele>823</ele>
						<time>2023-01-17T23:10:11Z</time>
					</trkpt>
					<trkpt lat="47.776340" lon="6.732300">
						<ele>825</ele>
						<time>2023-01-17T23:10:16Z</time>
					</trkpt>
					<trkpt lat="47.775990" lon="6.732830">
						<ele>824</ele>
						<time>2023-01-17T23:10:25Z</time>
					</trkpt>
					<trkpt lat="47.775510" lon="6.733420">
						<ele>820</ele>
						<time>2023-01-17T23:10:36Z</time>
					</trkpt>
					<trkpt lat="47.775070" lon="6.733860">
						<ele>814</ele>
						<time>2023-01-17T23:10:45Z</time>
					</trkpt>
					<trkpt lat="47.774910" lon="6.733920">
						<ele>811</ele>
						<time>2023-01-17T23:10:48Z</time>
					</trkpt>
					<trkpt lat="47.774770" lon="6.733920">
						<ele>809</ele>
						<time>2023-01-17T23:10:51Z</time>
					</trkpt>
					<trkpt lat="47.774620" lon="6.733860">
						<ele>808</ele>
						<time>2023-01-17T23:10:54Z</time>
					</trkpt>
					<trkpt lat="47.774420" lon="6.733760">
						<ele>807</ele>
						<time>2023-01-17T23:10:57Z</time>
					</trkpt>
					<trkpt lat="47.774150" lon="6.733470">
						<ele>814</ele>
						<time>2023-01-17T23:11:03Z</time>
					</trkpt>
					<trkpt lat="47.774070" lon="6.733400">
						<ele>816</ele>
						<time>2023-01-17T23:11:05Z</time>
					</trkpt>
					<trkpt lat="47.773980" lon="6.733360">
						<ele>816</ele>
						<time>2023-01-17T23:11:07Z</time>
					</trkpt>
					<trkpt lat="47.773570" lon="6.733470">
						<ele>809</ele>
						<time>2023-01-17T23:11:14Z</time>
					</trkpt>
					<trkpt lat="47.773230" lon="6.733510">
						<ele>805</ele>
						<time>2023-01-17T23:11:20Z</time>
					</trkpt>
					<trkpt lat="47.773000" lon="6.733490">
						<ele>805</ele>
						<time>2023-01-17T23:11:24Z</time>
					</trkpt>
					<trkpt lat="47.772720" lon="6.733370">
						<ele>808</ele>
						<time>2023-01-17T23:11:29Z</time>
					</trkpt>
					<trkpt lat="47.772610" lon="6.733360">
						<ele>808</ele>
						<time>2023-01-17T23:11:31Z</time>
					</trkpt>
					<trkpt lat="47.772190" lon="6.733530">
						<ele>796</ele>
						<time>2023-01-17T23:11:39Z</time>
					</trkpt>
					<trkpt lat="47.772010" lon="6.733520">
						<ele>794</ele>
						<time>2023-01-17T23:11:42Z</time>
					</trkpt>
					<trkpt lat="47.771900" lon="6.733490">
						<ele>793</ele>
						<time>2023-01-17T23:11:44Z</time>
					</trkpt>
					<trkpt lat="47.771780" lon="6.733420">
						<ele>793</ele>
						<time>2023-01-17T23:11:47Z</time>
					</trkpt>
					<trkpt lat="47.771600" lon="6.733220">
						<ele>793</ele>
						<time>2023-01-17T23:11:51Z</time>
					</trkpt>
					<trkpt lat="47.771470" lon="6.733020">
						<ele>792</ele>
						<time>2023-01-17T23:11:54Z</time>
					</trkpt>
					<trkpt lat="47.771350" lon="6.732590">
						<ele>796</ele>
						<time>2023-01-17T23:11:59Z</time>
					</trkpt>
					<trkpt lat="47.771230" lon="6.732310">
						<ele>795</ele>
						<time>2023-01-17T23:12:03Z</time>
					</trkpt>
					<trkpt lat="47.770960" lon="6.731740">
						<ele>792</ele>
						<time>2023-01-17T23:12:12Z</time>
					</trkpt>
					<trkpt lat="47.770790" lon="6.731270">
						<ele>795</ele>
						<time>2023-01-17T23:12:18Z</time>
					</trkpt>
					<trkpt lat="47.770710" lon="6.731120">
						<ele>796</ele>
						<time>2023-01-17T23:12:20Z</time>
					</trkpt>
					<trkpt lat="47.770630" lon="6.731010">
						<ele>796</ele>
						<time>2023-01-17T23:12:22Z</time>
					</trkpt>
					<trkpt lat="47.770020" lon="6.730500">
						<ele>786</ele>
						<time>2023-01-17T23:12:35Z</time>
					</trkpt>
					<trkpt lat="47.769410" lon="6.729910">
						<ele>787</ele>
						<time>2023-01-17T23:12:48Z</time>
					</trkpt>
					<trkpt lat="47.769130" lon="6.729690">
						<ele>788</ele>
						<time>2023-01-17T23:12:53Z</time>
					</trkpt>
					<trkpt lat="47.768940" lon="6.729650">
						<ele>792</ele>
						<time>2023-01-17T23:12:57Z</time>
					</trkpt>
					<trkpt lat="47.768830" lon="6.729660">
						<ele>792</ele>
						<time>2023-01-17T23:12:59Z</time>
					</trkpt>
					<trkpt lat="47.768690" lon="6.729720">
						<ele>792</ele>
						<time>2023-01-17T23:13:01Z</time>
					</trkpt>
					<trkpt lat="47.768520" lon="6.729940">
						<ele>787</ele>
						<time>2023-01-17T23:13:05Z</time>
					</trkpt>
					<trkpt lat="47.768400" lon="6.730140">
						<ele>783</ele>
						<time>2023-01-17T23:13:09Z</time>
					</trkpt>
					<trkpt lat="47.767300" lon="6.732970">
						<ele>750</ele>
						<time>2023-01-17T23:13:48Z</time>
					</trkpt>
					<trkpt lat="47.767170" lon="6.733220">
						<ele>746</ele>
						<time>2023-01-17T23:13:51Z</time>
					</trkpt>
					<trkpt lat="47.767100" lon="6.733300">
						<ele>744</ele>
						<time>2023-01-17T23:13:53Z</time>
					</trkpt>
					<trkpt lat="47.766990" lon="6.733340">
						<ele>745</ele>
						<time>2023-01-17T23:13:55Z</time>
					</trkpt>
					<trkpt lat="47.765900" lon="6.733580">
						<ele>746</ele>
						<time>2023-01-17T23:14:15Z</time>
					</trkpt>
					<trkpt lat="47.765510" lon="6.733800">
						<ele>737</ele>
						<time>2023-01-17T23:14:22Z</time>
					</trkpt>
					<trkpt lat="47.765150" lon="6.733900">
						<ele>733</ele>
						<time>2023-01-17T23:14:29Z</time>
					</trkpt>
					<trkpt lat="47.764760" lon="6.733940">
						<ele>728</ele>
						<time>2023-01-17T23:14:36Z</time>
					</trkpt>
					<trkpt lat="47.764620" lon="6.733890">
						<ele>727</ele>
						<time>2023-01-17T23:14:38Z</time>
					</trkpt>
					<trkpt lat="47.764470" lon="6.733800">
						<ele>727</ele>
						<time>2023-01-17T23:14:41Z</time>
					</trkpt>
					<trkpt lat="47.764310" lon="6.733640">
						<ele>728</ele>
						<time>2023-01-17T23:14:44Z</time>
					</trkpt>
					<trkpt lat="47.764150" lon="6.733390">
						<ele>729</ele>
						<time>2023-01-17T23:14:49Z</time>
					</trkpt>
					<trkpt lat="47.764060" lon="6.733190">
						<ele>729</ele>
						<time>2023-01-17T23:14:51Z</time>
					</trkpt>
					<trkpt lat="47.763920" lon="6.732800">
						<ele>729</ele>
						<time>2023-01-17T23:14:57Z</time>
					</trkpt>
					<trkpt lat="47.763570" lon="6.731720">
						<ele>728</ele>
						<time>2023-01-17T23:15:11Z</time>
					</trkpt>
					<trkpt lat="47.763480" lon="6.731500">
						<ele>729</ele>
						<time>2023-01-17T23:15:14Z</time>
					</trkpt>
					<trkpt lat="47.763360" lon="6.731310">
						<ele>728</ele>
						<time>2023-01-17T23:15:17Z</time>
					</trkpt>
					<trkpt lat="47.763170" lon="6.731080">
						<ele>726</ele>
						<time>2023-01-17T23:15:22Z</time>
					</trkpt>
					<trkpt lat="47.762860" lon="6.730750">
						<ele>722</ele>
						<time>2023-01-17T23:15:28Z</time>
					</trkpt>
					<trkpt lat="47.762480" lon="6.730430">
						<ele>713</ele>
						<time>2023-01-17T23:15:36Z</time>
					</trkpt>
					<trkpt lat="47.762230" lon="6.730050">
						<ele>710</ele>
						<time>2023-01-17T23:15:43Z</time>
					</trkpt>
					<trkpt lat="47.762110" lon="6.729730">
						<ele>706</ele>
						<time>2023-01-17T23:15:47Z</time>
					</trkpt>
					<trkpt lat="47.761790" lon="6.728280">
						<ele>702</ele>
						<time>2023-01-17T23:16:05Z</time>
					</trkpt>
					<trkpt lat="47.761490" lon="6.727650">
						<ele>698</ele>
						<time>2023-01-17T23:16:14Z</time>
					</trkpt>
					<trkpt lat="47.761160" lon="6.726570">
						<ele>696</ele>
						<time>2023-01-17T23:16:29Z</time>
					</trkpt>
					<trkpt lat="47.760750" lon="6.725620">
						<ele>692</ele>
						<time>2023-01-17T23:16:42Z</time>
					</trkpt>
					<trkpt lat="47.760360" lon="6.725220">
						<ele>688</ele>
						<time>2023-01-17T23:16:51Z</time>
					</trkpt>
					<trkpt lat="47.759990" lon="6.725140">
						<ele>682</ele>
						<time>2023-01-17T23:16:57Z</time>
					</trkpt>
					<trkpt lat="47.759790" lon="6.725050">
						<ele>678</ele>
						<time>2023-01-17T23:17:01Z</time>
					</trkpt>
					<trkpt lat="47.759620" lon="6.724930">
						<ele>675</ele>
						<time>2023-01-17T23:17:04Z</time>
					</trkpt>
					<trkpt lat="47.759440" lon="6.724710">
						<ele>674</ele>
						<time>2023-01-17T23:17:08Z</time>
					</trkpt>
					<trkpt lat="47.759310" lon="6.724480">
						<ele>674</ele>
						<time>2023-01-17T23:17:12Z</time>
					</trkpt>
					<trkpt lat="47.758450" lon="6.722450">
						<ele>665</ele>
						<time>2023-01-17T23:17:41Z</time>
					</trkpt>
					<trkpt lat="47.758220" lon="6.722020">
						<ele>662</ele>
						<time>2023-01-17T23:17:47Z</time>
					</trkpt>
					<trkpt lat="47.757760" lon="6.721360">
						<ele>654</ele>
						<time>2023-01-17T23:17:59Z</time>
					</trkpt>
					<trkpt lat="47.757570" lon="6.720960">
						<ele>654</ele>
						<time>2023-01-17T23:18:05Z</time>
					</trkpt>
					<trkpt lat="47.757460" lon="6.720640">
						<ele>655</ele>
						<time>2023-01-17T23:18:09Z</time>
					</trkpt>
					<trkpt lat="47.757330" lon="6.720320">
						<ele>654</ele>
						<time>2023-01-17T23:18:13Z</time>
					</trkpt>
					<trkpt lat="47.756950" lon="6.719800">
						<ele>650</ele>
						<time>2023-01-17T23:18:22Z</time>
					</trkpt>
					<trkpt lat="47.756300" lon="6.719010">
						<ele>644</ele>
						<time>2023-01-17T23:18:37Z</time>
					</trkpt>
					<trkpt lat="47.756280" lon="6.718920">
						<ele>643</ele>
						<time>2023-01-17T23:18:39Z</time>
					</trkpt>
					<trkpt lat="47.756300" lon="6.718830">
						<ele>642</ele>
						<time>2023-01-17T23:18:40Z</time>
					</trkpt>
					<trkpt lat="47.756390" lon="6.718720">
						<ele>642</ele>
						<time>2023-01-17T23:18:42Z</time>
					</trkpt>
					<trkpt lat="47.756460" lon="6.718720">
						<ele>642</ele>
						<time>2023-01-17T23:18:43Z</time>
					</trkpt>
					<trkpt lat="47.757060" lon="6.719020">
						<ele>645</ele>
						<time>2023-01-17T23:18:54Z</time>
					</trkpt>
					<trkpt lat="47.757150" lon="6.719030">
						<ele>645</ele>
						<time>2023-01-17T23:18:56Z</time>
					</trkpt>
					<trkpt lat="47.757610" lon="6.718990">
						<ele>642</ele>
						<time>2023-01-17T23:19:04Z</time>
					</trkpt>
					<trkpt lat="47.757680" lon="6.718960">
						<ele>640</ele>
						<time>2023-01-17T23:19:05Z</time>
					</trkpt>
					<trkpt lat="47.757720" lon="6.718910">
						<ele>639</ele>
						<time>2023-01-17T23:19:06Z</time>
					</trkpt>
					<trkpt lat="47.757730" lon="6.718770">
						<ele>636</ele>
						<time>2023-01-17T23:19:08Z</time>
					</trkpt>
					<trkpt lat="47.757710" lon="6.718700">
						<ele>635</ele>
						<time>2023-01-17T23:19:09Z</time>
					</trkpt>
					<trkpt lat="47.757660" lon="6.718640">
						<ele>634</ele>
						<time>2023-01-17T23:19:10Z</time>
					</trkpt>
					<trkpt lat="47.757530" lon="6.718590">
						<ele>635</ele>
						<time>2023-01-17T23:19:12Z</time>
					</trkpt>
					<trkpt lat="47.757220" lon="6.718500">
						<ele>635</ele>
						<time>2023-01-17T23:19:18Z</time>
					</trkpt>
					<trkpt lat="47.756890" lon="6.718100">
						<ele>631</ele>
						<time>2023-01-17T23:19:26Z</time>
					</trkpt>
					<trkpt lat="47.756630" lon="6.717680">
						<ele>627</ele>
						<time>2023-01-17T23:19:32Z</time>
					</trkpt>
					<trkpt lat="47.756600" lon="6.717510">
						<ele>625</ele>
						<time>2023-01-17T23:19:35Z</time>
					</trkpt>
					<trkpt lat="47.756580" lon="6.717330">
						<ele>623</ele>
						<time>2023-01-17T23:19:37Z</time>
					</trkpt>
					<trkpt lat="47.756600" lon="6.716910">
						<ele>618</ele>
						<time>2023-01-17T23:19:42Z</time>
					</trkpt>
					<trkpt lat="47.756560" lon="6.716640">
						<ele>615</ele>
						<time>2023-01-17T23:19:45Z</time>
					</trkpt>
					<trkpt lat="47.756500" lon="6.716500">
						<ele>615</ele>
						<time>2023-01-17T23:19:47Z</time>
					</trkpt>
					<trkpt lat="47.756420" lon="6.716390">
						<ele>615</ele>
						<time>2023-01-17T23:19:49Z</time>
					</trkpt>
					<trkpt lat="47.756230" lon="6.716200">
						<ele>617</ele>
						<time>2023-01-17T23:19:53Z</time>
					</trkpt>
					<trkpt lat="47.756200" lon="6.716070">
						<ele>617</ele>
						<time>2023-01-17T23:19:55Z</time>
					</trkpt>
					<trkpt lat="47.755900" lon="6.716160">
						<ele>623</ele>
						<time>2023-01-17T23:20:00Z</time>
					</trkpt>
					<trkpt lat="47.755700" lon="6.716270">
						<ele>623</ele>
						<time>2023-01-17T23:20:04Z</time>
					</trkpt>
					<trkpt lat="47.755490" lon="6.716470">
						<ele>620</ele>
						<time>2023-01-17T23:20:08Z</time>
					</trkpt>
					<trkpt lat="47.755340" lon="6.716640">
						<ele>615</ele>
						<time>2023-01-17T23:20:12Z</time>
					</trkpt>
					<trkpt lat="47.755140" lon="6.716950">
						<ele>611</ele>
						<time>2023-01-17T23:20:17Z</time>
					</trkpt>
					<trkpt lat="47.755000" lon="6.717260">
						<ele>607</ele>
						<time>2023-01-17T23:20:21Z</time>
					</trkpt>
					<trkpt lat="47.754890" lon="6.717610">
						<ele>604</ele>
						<time>2023-01-17T23:20:26Z</time>
					</trkpt>
					<trkpt lat="47.754590" lon="6.718440">
						<ele>596</ele>
						<time>2023-01-17T23:20:37Z</time>
					</trkpt>
					<trkpt lat="47.754550" lon="6.718990">
						<ele>595</ele>
						<time>2023-01-17T23:20:44Z</time>
					</trkpt>
					<trkpt lat="47.754590" lon="6.719420">
						<ele>593</ele>
						<time>2023-01-17T23:20:49Z</time>
					</trkpt>
					<trkpt lat="47.754640" lon="6.719730">
						<ele>591</ele>
						<time>2023-01-17T23:20:53Z</time>
					</trkpt>
					<trkpt lat="47.754720" lon="6.720050">
						<ele>589</ele>
						<time>2023-01-17T23:20:57Z</time>
					</trkpt>
					<trkpt lat="47.754850" lon="6.720410">
						<ele>587</ele>
						<time>2023-01-17T23:21:02Z</time>
					</trkpt>
					<trkpt lat="47.754980" lon="6.720630">
						<ele>586</ele>
						<time>2023-01-17T23:21:05Z</time>
					</trkpt>
					<trkpt lat="47.755580" lon="6.721340">
						<ele>589</ele>
						<time>2023-01-17T23:21:19Z</time>
					</trkpt>
					<trkpt lat="47.755760" lon="6.721690">
						<ele>585</ele>
						<time>2023-01-17T23:21:24Z</time>
					</trkpt>
					<trkpt lat="47.755890" lon="6.722040">
						<ele>585</ele>
						<time>2023-01-17T23:21:29Z</time>
					</trkpt>
					<trkpt lat="47.756080" lon="6.722910">
						<ele>582</ele>
						<time>2023-01-17T23:21:40Z</time>
					</trkpt>
					<trkpt lat="47.756240" lon="6.723710">
						<ele>580</ele>
						<time>2023-01-17T23:21:50Z</time>
					</trkpt>
					<trkpt lat="47.756240" lon="6.723890">
						<ele>580</ele>
						<time>2023-01-17T23:21:52Z</time>
					</trkpt>
					<trkpt lat="47.756220" lon="6.724020">
						<ele>579</ele>
						<time>2023-01-17T23:21:54Z</time>
					</trkpt>
					<trkpt lat="47.756170" lon="6.724140">
						<ele>578</ele>
						<time>2023-01-17T23:21:55Z</time>
					</trkpt>
					<trkpt lat="47.756020" lon="6.724290">
						<ele>577</ele>
						<time>2023-01-17T23:21:59Z</time>
					</trkpt>
					<trkpt lat="47.755870" lon="6.724320">
						<ele>574</ele>
						<time>2023-01-17T23:22:01Z</time>
					</trkpt>
					<trkpt lat="47.755810" lon="6.724300">
						<ele>573</ele>
						<time>2023-01-17T23:22:02Z</time>
					</trkpt>
					<trkpt lat="47.755720" lon="6.724210">
						<ele>571</ele>
						<time>2023-01-17T23:22:04Z</time>
					</trkpt>
					<trkpt lat="47.755270" lon="6.723640">
						<ele>566</ele>
						<time>2023-01-17T23:22:15Z</time>
					</trkpt>
					<trkpt lat="47.754830" lon="6.723170">
						<ele>563</ele>
						<time>2023-01-17T23:22:24Z</time>
					</trkpt>
					<trkpt lat="47.754450" lon="6.722440">
						<ele>561</ele>
						<time>2023-01-17T23:22:36Z</time>
					</trkpt>
					<trkpt lat="47.754240" lon="6.722090">
						<ele>559</ele>
						<time>2023-01-17T23:22:41Z</time>
					</trkpt>
					<trkpt lat="47.753550" lon="6.721240">
						<ele>548</ele>
						<time>2023-01-17T23:22:57Z</time>
					</trkpt>
					<trkpt lat="47.753440" lon="6.721220">
						<ele>546</ele>
						<time>2023-01-17T23:22:59Z</time>
					</trkpt>
					<trkpt lat="47.753330" lon="6.721230">
						<ele>544</ele>
						<time>2023-01-17T23:23:01Z</time>
					</trkpt>
					<trkpt lat="47.753240" lon="6.721280">
						<ele>543</ele>
						<time>2023-01-17T23:23:03Z</time>
					</trkpt>
					<trkpt lat="47.753120" lon="6.721460">
						<ele>542</ele>
						<time>2023-01-17T23:23:06Z</time>
					</trkpt>
					<trkpt lat="47.752940" lon="6.721980">
						<ele>539</ele>
						<time>2023-01-17T23:23:13Z</time>
					</trkpt>
					<trkpt lat="47.752870" lon="6.722270">
						<ele>538</ele>
						<time>2023-01-17T23:23:16Z</time>
					</trkpt>
					<trkpt lat="47.752820" lon="6.722390">
						<ele>538</ele>
						<time>2023-01-17T23:23:18Z</time>
					</trkpt>
					<trkpt lat="47.752720" lon="6.722470">
						<ele>537</ele>
						<time>2023-01-17T23:23:20Z</time>
					</trkpt>
					<trkpt lat="47.752630" lon="6.722510">
						<ele>537</ele>
						<time>2023-01-17T23:23:22Z</time>
					</trkpt>
					<trkpt lat="47.752520" lon="6.722480">
						<ele>536</ele>
						<time>2023-01-17T23:23:24Z</time>
					</trkpt>
					<trkpt lat="47.752290" lon="6.722330">
						<ele>535</ele>
						<time>2023-01-17T23:23:28Z</time>
					</trkpt>
					<trkpt lat="47.752230" lon="6.722250">
						<ele>535</ele>
						<time>2023-01-17T23:23:30Z</time>
					</trkpt>
					<trkpt lat="47.752160" lon="6.722110">
						<ele>535</ele>
						<time>2023-01-17T23:23:32Z</time>
					</trkpt>
					<trkpt lat="47.752050" lon="6.721730">
						<ele>535</ele>
						<time>2023-01-17T23:23:37Z</time>
					</trkpt>
					<trkpt lat="47.751980" lon="6.721280">
						<ele>535</ele>
						<time>2023-01-17T23:23:42Z</time>
					</trkpt>
					<trkpt lat="47.751960" lon="6.720930">
						<ele>534</ele>
						<time>2023-01-17T23:23:46Z</time>
					</trkpt>
					<trkpt lat="47.751940" lon="6.720780">
						<ele>535</ele>
						<time>2023-01-17T23:23:48Z</time>
					</trkpt>
					<trkpt lat="47.751890" lon="6.720660">
						<ele>536</ele>
						<time>2023-01-17T23:23:50Z</time>
					</trkpt>
					<trkpt lat="47.751810" lon="6.720550">
						<ele>536</ele>
						<time>2023-01-17T23:23:52Z</time>
					</trkpt>
					<trkpt lat="47.751720" lon="6.720510">
						<ele>536</ele>
						<time>2023-01-17T23:23:54Z</time>
					</trkpt>
					<trkpt lat="47.751630" lon="6.720500">
						<ele>536</ele>
						<time>2023-01-17T23:23:55Z</time>
					</trkpt>
					<trkpt lat="47.751520" lon="6.720590">
						<ele>535</ele>
						<time>2023-01-17T23:23:57Z</time>
					</trkpt>
					<trkpt lat="47.751180" lon="6.721180">
						<ele>528</ele>
						<time>2023-01-17T23:24:07Z</time>
					</trkpt>
					<trkpt lat="47.751020" lon="6.721400">
						<ele>525</ele>
						<time>2023-01-17T23:24:11Z</time>
					</trkpt>
					<trkpt lat="47.750970" lon="6.721510">
						<ele>524</ele>
						<time>2023-01-17T23:24:12Z</time>
					</trkpt>
					<trkpt lat="47.750930" lon="6.721630">
						<ele>522</ele>
						<time>2023-01-17T23:24:14Z</time>
					</trkpt>
					<trkpt lat="47.750850" lon="6.722120">
						<ele>519</ele>
						<time>2023-01-17T23:24:20Z</time>
					</trkpt>
					<trkpt lat="47.750810" lon="6.722440">
						<ele>518</ele>
						<time>2023-01-17T23:24:24Z</time>
					</trkpt>
					<trkpt lat="47.750820" lon="6.722820">
						<ele>514</ele>
						<time>2023-01-17T23:24:28Z</time>
					</trkpt>
					<trkpt lat="47.750870" lon="6.723040">
						<ele>513</ele>
						<time>2023-01-17T23:24:31Z</time>
					</trkpt>
					<trkpt lat="47.750930" lon="6.723200">
						<ele>512</ele>
						<time>2023-01-17T23:24:33Z</time>
					</trkpt>
					<trkpt lat="47.751000" lon="6.723310">
						<ele>512</ele>
						<time>2023-01-17T23:24:35Z</time>
					</trkpt>
					<trkpt lat="47.751130" lon="6.723430">
						<ele>512</ele>
						<time>2023-01-17T23:24:38Z</time>
					</trkpt>
					<trkpt lat="47.751800" lon="6.723860">
						<ele>513</ele>
						<time>2023-01-17T23:24:51Z</time>
					</trkpt>
					<trkpt lat="47.751990" lon="6.724110">
						<ele>510</ele>
						<time>2023-01-17T23:24:55Z</time>
					</trkpt>
					<trkpt lat="47.752080" lon="6.724320">
						<ele>509</ele>
						<time>2023-01-17T23:24:58Z</time>
					</trkpt>
					<trkpt lat="47.752120" lon="6.724660">
						<ele>506</ele>
						<time>2023-01-17T23:25:02Z</time>
					</trkpt>
					<trkpt lat="47.752120" lon="6.724980">
						<ele>502</ele>
						<time>2023-01-17T23:25:06Z</time>
					</trkpt>
					<trkpt lat="47.752070" lon="6.725250">
						<ele>502</ele>
						<time>2023-01-17T23:25:10Z</time>
					</trkpt>
					<trkpt lat="47.752020" lon="6.725410">
						<ele>502</ele>
						<time>2023-01-17T23:25:12Z</time>
					</trkpt>
					<trkpt lat="47.751930" lon="6.725550">
						<ele>501</ele>
						<time>2023-01-17T23:25:14Z</time>
					</trkpt>
					<trkpt lat="47.751670" lon="6.725790">
						<ele>498</ele>
						<time>2023-01-17T23:25:19Z</time>
					</trkpt>
					<trkpt lat="47.751570" lon="6.726020">
						<ele>497</ele>
						<time>2023-01-17T23:25:23Z</time>
					</trkpt>
					<trkpt lat="47.751520" lon="6.726240">
						<ele>497</ele>
						<time>2023-01-17T23:25:25Z</time>
					</trkpt>
					<trkpt lat="47.751460" lon="6.726650">
						<ele>498</ele>
						<time>2023-01-17T23:25:31Z</time>
					</trkpt>
					<trkpt lat="47.751450" lon="6.726760">
						<ele>497</ele>
						<time>2023-01-17T23:25:32Z</time>
					</trkpt>
					<trkpt lat="47.751460" lon="6.726950">
						<ele>496</ele>
						<time>2023-01-17T23:25:34Z</time>
					</trkpt>
					<trkpt lat="47.751530" lon="6.727330">
						<ele>495</ele>
						<time>2023-01-17T23:25:39Z</time>
					</trkpt>
					<trkpt lat="47.751530" lon="6.727420">
						<ele>495</ele>
						<time>2023-01-17T23:25:40Z</time>
					</trkpt>
					<trkpt lat="47.751490" lon="6.727560">
						<ele>493</ele>
						<time>2023-01-17T23:25:42Z</time>
					</trkpt>
					<trkpt lat="47.751440" lon="6.727650">
						<ele>492</ele>
						<time>2023-01-17T23:25:43Z</time>
					</trkpt>
					<trkpt lat="47.751260" lon="6.727810">
						<ele>489</ele>
						<time>2023-01-17T23:25:47Z</time>
					</trkpt>
					<trkpt lat="47.751150" lon="6.727940">
						<ele>486</ele>
						<time>2023-01-17T23:25:49Z</time>
					</trkpt>
					<trkpt lat="47.750910" lon="6.728850">
						<ele>481</ele>
						<time>2023-01-17T23:26:01Z</time>
					</trkpt>
					<trkpt lat="47.750660" lon="6.730200">
						<ele>479</ele>
						<time>2023-01-17T23:26:18Z</time>
					</trkpt>
					<trkpt lat="47.750570" lon="6.730790">
						<ele>476</ele>
						<time>2023-01-17T23:26:25Z</time>
					</trkpt>
					<trkpt lat="47.750700" lon="6.730820">
						<ele>477</ele>
						<time>2023-01-17T23:26:27Z</time>
					</trkpt>
					<trkpt lat="47.751240" lon="6.731060">
						<ele>479</ele>
						<time>2023-01-17T23:26:37Z</time>
					</trkpt>
					<trkpt lat="47.751610" lon="6.731300">
						<ele>480</ele>
						<time>2023-01-17T23:26:45Z</time>
					</trkpt>
					<trkpt lat="47.752550" lon="6.732150">
						<ele>480</ele>
						<time>2023-01-17T23:27:04Z</time>
					</trkpt>
					<trkpt lat="47.752790" lon="6.732300">
						<ele>481</ele>
						<time>2023-01-17T23:27:09Z</time>
					</trkpt>
					<trkpt lat="47.753560" lon="6.732690">
						<ele>485</ele>
						<time>2023-01-17T23:27:23Z</time>
					</trkpt>
					<trkpt lat="47.753880" lon="6.732930">
						<ele>488</ele>
						<time>2023-01-17T23:27:30Z</time>
					</trkpt>
					<trkpt lat="47.754070" lon="6.733110">
						<ele>489</ele>
						<time>2023-01-17T23:27:34Z</time>
					</trkpt>
					<trkpt lat="47.754580" lon="6.733960">
						<ele>489</ele>
						<time>2023-01-17T23:27:47Z</time>
					</trkpt>
					<trkpt lat="47.755100" lon="6.734770">
						<ele>487</ele>
						<time>2023-01-17T23:28:01Z</time>
					</trkpt>
					<trkpt lat="47.755400" lon="6.735460">
						<ele>487</ele>
						<time>2023-01-17T23:28:11Z</time>
					</trkpt>
					<trkpt lat="47.755440" lon="6.735700">
						<ele>487</ele>
						<time>2023-01-17T23:28:13Z</time>
					</trkpt>
					<trkpt lat="47.755580" lon="6.737110">
						<ele>487</ele>
						<time>2023-01-17T23:28:31Z</time>
					</trkpt>
					<trkpt lat="47.755650" lon="6.737470">
						<ele>486</ele>
						<time>2023-01-17T23:28:35Z</time>
					</trkpt>
					<trkpt lat="47.755740" lon="6.737630">
						<ele>486</ele>
						<time>2023-01-17T23:28:37Z</time>
					</trkpt>
					<trkpt lat="47.755870" lon="6.737790">
						<ele>486</ele>
						<time>2023-01-17T23:28:40Z</time>
					</trkpt>
					<trkpt lat="47.756020" lon="6.737910">
						<ele>487</ele>
						<time>2023-01-17T23:28:44Z</time>
					</trkpt>
					<trkpt lat="47.756170" lon="6.738000">
						<ele>488</ele>
						<time>2023-01-17T23:28:46Z</time>
					</trkpt>
					<trkpt lat="47.757060" lon="6.738100">
						<ele>490</ele>
						<time>2023-01-17T23:29:02Z</time>
					</trkpt>
					<trkpt lat="47.757190" lon="6.738170">
						<ele>490</ele>
						<time>2023-01-17T23:29:05Z</time>
					</trkpt>
					<trkpt lat="47.757370" lon="6.738340">
						<ele>490</ele>
						<time>2023-01-17T23:29:09Z</time>
					</trkpt>
					<trkpt lat="47.757770" lon="6.738910">
						<ele>489</ele>
						<time>2023-01-17T23:29:18Z</time>
					</trkpt>
					<trkpt lat="47.758450" lon="6.739690">
						<ele>489</ele>
						<time>2023-01-17T23:29:34Z</time>
					</trkpt>
					<trkpt lat="47.758850" lon="6.739920">
						<ele>489</ele>
						<time>2023-01-17T23:29:41Z</time>
					</trkpt>
					<trkpt lat="47.759310" lon="6.740380">
						<ele>491</ele>
						<time>2023-01-17T23:29:51Z</time>
					</trkpt>
					<trkpt lat="47.759920" lon="6.741080">
						<ele>492</ele>
						<time>2023-01-17T23:30:05Z</time>
					</trkpt>
					<trkpt lat="47.760220" lon="6.741200">
						<ele>493</ele>
						<time>2023-01-17T23:30:10Z</time>
					</trkpt>
					<trkpt lat="47.760750" lon="6.741500">
						<ele>495</ele>
						<time>2023-01-17T23:30:20Z</time>
					</trkpt>
					<trkpt lat="47.760850" lon="6.741590">
						<ele>495</ele>
						<time>2023-01-17T23:30:23Z</time>
					</trkpt>
					<trkpt lat="47.761200" lon="6.742220">
						<ele>498</ele>
						<time>2023-01-17T23:30:32Z</time>
					</trkpt>
					<trkpt lat="47.761440" lon="6.742450">
						<ele>499</ele>
						<time>2023-01-17T23:30:37Z</time>
					</trkpt>
					<trkpt lat="47.761630" lon="6.742510">
						<ele>501</ele>
						<time>2023-01-17T23:30:41Z</time>
					</trkpt>
					<trkpt lat="47.761730" lon="6.742500">
						<ele>501</ele>
						<time>2023-01-17T23:30:43Z</time>
					</trkpt>
					<trkpt lat="47.762470" lon="6.742200">
						<ele>502</ele>
						<time>2023-01-17T23:30:56Z</time>
					</trkpt>
					<trkpt lat="47.762930" lon="6.742170">
						<ele>503</ele>
						<time>2023-01-17T23:31:05Z</time>
					</trkpt>
					<trkpt lat="47.763110" lon="6.742160">
						<ele>503</ele>
						<time>2023-01-17T23:31:08Z</time>
					</trkpt>
					<trkpt lat="47.763490" lon="6.742080">
						<ele>504</ele>
						<time>2023-01-17T23:31:15Z</time>
					</trkpt>
					<trkpt lat="47.763730" lon="6.742000">
						<ele>503</ele>
						<time>2023-01-17T23:31:19Z</time>
					</trkpt>
					<trkpt lat="47.764120" lon="6.741780">
						<ele>502</ele>
						<time>2023-01-17T23:31:26Z</time>
					</trkpt>
					<trkpt lat="47.764350" lon="6.741710">
						<ele>502</ele>
						<time>2023-01-17T23:31:31Z</time>
					</trkpt>
					<trkpt lat="47.765010" lon="6.741560">
						<ele>505</ele>
						<time>2023-01-17T23:31:42Z</time>
					</trkpt>
					<trkpt lat="47.765650" lon="6.741320">
						<ele>507</ele>
						<time>2023-01-17T23:31:54Z</time>
					</trkpt>
					<trkpt lat="47.765750" lon="6.741330">
						<ele>507</ele>
						<time>2023-01-17T23:31:56Z</time>
					</trkpt>
					<trkpt lat="47.766340" lon="6.741500">
						<ele>504</ele>
						<time>2023-01-17T23:32:07Z</time>
					</trkpt>
					<trkpt lat="47.766440" lon="6.741580">
						<ele>503</ele>
						<time>2023-01-17T23:32:09Z</time>
					</trkpt>
					<trkpt lat="47.767060" lon="6.742280">
						<ele>503</ele>
						<time>2023-01-17T23:32:22Z</time>
					</trkpt>
					<trkpt lat="47.767260" lon="6.742480">
						<ele>504</ele>
						<time>2023-01-17T23:32:27Z</time>
					</trkpt>
					<trkpt lat="47.767440" lon="6.742640">
						<ele>505</ele>
						<time>2023-01-17T23:32:30Z</time>
					</trkpt>
					<trkpt lat="47.767600" lon="6.742720">
						<ele>505</ele>
						<time>2023-01-17T23:32:33Z</time>
					</trkpt>
					<trkpt lat="47.767980" lon="6.742760">
						<ele>506</ele>
						<time>2023-01-17T23:32:40Z</time>
					</trkpt>
					<trkpt lat="47.768130" lon="6.742690">
						<ele>507</ele>
						<time>2023-01-17T23:32:43Z</time>
					</trkpt>
					<trkpt lat="47.768260" lon="6.742570">
						<ele>508</ele>
						<time>2023-01-17T23:32:46Z</time>
					</trkpt>
					<trkpt lat="47.768550" lon="6.742230">
						<ele>511</ele>
						<time>2023-01-17T23:32:52Z</time>
					</trkpt>
					<trkpt lat="47.768720" lon="6.742120">
						<ele>512</ele>
						<time>2023-01-17T23:32:56Z</time>
					</trkpt>
					<trkpt lat="47.768850" lon="6.742070">
						<ele>513</ele>
						<time>2023-01-17T23:32:58Z</time>
					</trkpt>
					<trkpt lat="47.768990" lon="6.742060">
						<ele>513</ele>
						<time>2023-01-17T23:33:01Z</time>
					</trkpt>
					<trkpt lat="47.769150" lon="6.742080">
						<ele>513</ele>
						<time>2023-01-17T23:33:03Z</time>
					</trkpt>
					<trkpt lat="47.769930" lon="6.742360">
						<ele>516</ele>
						<time>2023-01-17T23:33:18Z</time>
					</trkpt>
					<trkpt lat="47.770330" lon="6.742530">
						<ele>518</ele>
						<time>2023-01-17T23:33:25Z</time>
					</trkpt>
					<trkpt lat="47.770460" lon="6.742700">
						<ele>518</ele>
						<time>2023-01-17T23:33:28Z</time>
					</trkpt>
					<trkpt lat="47.770570" lon="6.742930">
						<ele>517</ele>
						<time>2023-01-17T23:33:32Z</time>
					</trkpt>
					<trkpt lat="47.770610" lon="6.743090">
						<ele>516</ele>
						<time>2023-01-17T23:33:34Z</time>
					</trkpt>
					<trkpt lat="47.770700" lon="6.743610">
						<ele>513</ele>
						<time>2023-01-17T23:33:40Z</time>
					</trkpt>
					<trkpt lat="47.770800" lon="6.743940">
						<ele>513</ele>
						<time>2023-01-17T23:33:44Z</time>
					</trkpt>
					<trkpt lat="47.770860" lon="6.744060">
						<ele>513</ele>
						<time>2023-01-17T23:33:46Z</time>
					</trkpt>
					<trkpt lat="47.771020" lon="6.744340">
						<ele>515</ele>
						<time>2023-01-17T23:33:51Z</time>
					</trkpt>
					<trkpt lat="47.771190" lon="6.744650">
						<ele>518</ele>
						<time>2023-01-17T23:33:55Z</time>
					</trkpt>
					<trkpt lat="47.771260" lon="6.744820">
						<ele>520</ele>
						<time>2023-01-17T23:33:58Z</time>
					</trkpt>
					<trkpt lat="47.771290" lon="6.744990">
						<ele>520</ele>
						<time>2023-01-17T23:34:00Z</time>
					</trkpt>
					<trkpt lat="47.771270" lon="6.745140">
						<ele>521</ele>
						<time>2023-01-17T23:34:02Z</time>
					</trkpt>
					<trkpt lat="47.771040" lon="6.745900">
						<ele>524</ele>
						<time>2023-01-17T23:34:12Z</time>
					</trkpt>
					<trkpt lat="47.771000" lon="6.746130">
						<ele>528</ele>
						<time>2023-01-17T23:34:14Z</time>
					</trkpt>
					<trkpt lat="47.771020" lon="6.746350">
						<ele>531</ele>
						<time>2023-01-17T23:34:17Z</time>
					</trkpt>
					<trkpt lat="47.771050" lon="6.746480">
						<ele>532</ele>
						<time>2023-01-17T23:34:19Z</time>
					</trkpt>
					<trkpt lat="47.771130" lon="6.746620">
						<ele>532</ele>
						<time>2023-01-17T23:34:21Z</time>
					</trkpt>
					<trkpt lat="47.771410" lon="6.746950">
						<ele>530</ele>
						<time>2023-01-17T23:34:27Z</time>
					</trkpt>
					<trkpt lat="47.771580" lon="6.747220">
						<ele>529</ele>
						<time>2023-01-17T23:34:32Z</time>
					</trkpt>
					<trkpt lat="47.771830" lon="6.747770">
						<ele>532</ele>
						<time>2023-01-17T23:34:40Z</time>
					</trkpt>
					<trkpt lat="47.771900" lon="6.748080">
						<ele>535</ele>
						<time>2023-01-17T23:34:44Z</time>
					</trkpt>
					<trkpt lat="47.771920" lon="6.748680">
						<ele>543</ele>
						<time>2023-01-17T23:34:51Z</time>
					</trkpt>
					<trkpt lat="47.772430" lon="6.750590">
						<ele>543</ele>
						<time>2023-01-17T23:35:15Z</time>
					</trkpt>
					<trkpt lat="47.772600" lon="6.751320">
						<ele>545</ele>
						<time>2023-01-17T23:35:25Z</time>
					</trkpt>
					<trkpt lat="47.772620" lon="6.751530">
						<ele>546</ele>
						<time>2023-01-17T23:35:27Z</time>
					</trkpt>
					<trkpt lat="47.772820" lon="6.751630">
						<ele>542</ele>
						<time>2023-01-17T23:35:31Z</time>
					</trkpt>
					<trkpt lat="47.772860" lon="6.751710">
						<ele>542</ele>
						<time>2023-01-17T23:35:32Z</time>
					</trkpt>
					<trkpt lat="47.772880" lon="6.751810">
						<ele>542</ele>
						<time>2023-01-17T23:35:33Z</time>
					</trkpt>
					<trkpt lat="47.772850" lon="6.752160">
						<ele>546</ele>
						<time>2023-01-17T23:35:37Z</time>
					</trkpt>
					<trkpt lat="47.772860" lon="6.752270">
						<ele>546</ele>
						<time>2023-01-17T23:35:39Z</time>
					</trkpt>
					<trkpt lat="47.773020" lon="6.753030">
						<ele>546</ele>
						<time>2023-01-17T23:35:48Z</time>
					</trkpt>
					<trkpt lat="47.773080" lon="6.753410">
						<ele>545</ele>
						<time>2023-01-17T23:35:53Z</time>
					</trkpt>
					<trkpt lat="47.773230" lon="6.754180">
						<ele>546</ele>
						<time>2023-01-17T23:36:03Z</time>
					</trkpt>
					<trkpt lat="47.773350" lon="6.754940">
						<ele>550</ele>
						<time>2023-01-17T23:36:12Z</time>
					</trkpt>
					<trkpt lat="47.773640" lon="6.755590">
						<ele>552</ele>
						<time>2023-01-17T23:36:21Z</time>
					</trkpt>
					<trkpt lat="47.773740" lon="6.755890">
						<ele>554</ele>
						<time>2023-01-17T23:36:25Z</time>
					</trkpt>
					<trkpt lat="47.773900" lon="6.756490">
						<ele>560</ele>
						<time>2023-01-17T23:36:33Z</time>
					</trkpt>
					<trkpt lat="47.774240" lon="6.757430">
						<ele>564</ele>
						<time>2023-01-17T23:36:46Z</time>
					</trkpt>
					<trkpt lat="47.774400" lon="6.758140">
						<ele>568</ele>
						<time>2023-01-17T23:36:55Z</time>
					</trkpt>
					<trkpt lat="47.774450" lon="6.758290">
						<ele>568</ele>
						<time>2023-01-17T23:36:57Z</time>
					</trkpt>
					<trkpt lat="47.774510" lon="6.758430">
						<ele>568</ele>
						<time>2023-01-17T23:36:59Z</time>
					</trkpt>
					<trkpt lat="47.774600" lon="6.758570">
						<ele>568</ele>
						<time>2023-01-17T23:37:01Z</time>
					</trkpt>
					<trkpt lat="47.775030" lon="6.758900">
						<ele>561</ele>
						<time>2023-01-17T23:37:10Z</time>
					</trkpt>
					<trkpt lat="47.775210" lon="6.759100">
						<ele>562</ele>
						<time>2023-01-17T23:37:14Z</time>
					</trkpt>
					<trkpt lat="47.775450" lon="6.759410">
						<ele>563</ele>
						<time>2023-01-17T23:37:19Z</time>
					</trkpt>
					<trkpt lat="47.776080" lon="6.760400">
						<ele>565</ele>
						<time>2023-01-17T23:37:36Z</time>
					</trkpt>
					<trkpt lat="47.776810" lon="6.761440">
						<ele>570</ele>
						<time>2023-01-17T23:37:54Z</time>
					</trkpt>
					<trkpt lat="47.776900" lon="6.761630">
						<ele>571</ele>
						<time>2023-01-17T23:37:56Z</time>
					</trkpt>
					<trkpt lat="47.777080" lon="6.762230">
						<ele>575</ele>
						<time>2023-01-17T23:38:04Z</time>
					</trkpt>
					<trkpt lat="47.777360" lon="6.763070">
						<ele>580</ele>
						<time>2023-01-17T23:38:15Z</time>
					</trkpt>
					<trkpt lat="47.777480" lon="6.763450">
						<ele>583</ele>
						<time>2023-01-17T23:38:20Z</time>
					</trkpt>
					<trkpt lat="47.777540" lon="6.763610">
						<ele>585</ele>
						<time>2023-01-17T23:38:23Z</time>
					</trkpt>
					<trkpt lat="47.778320" lon="6.764330">
						<ele>589</ele>
						<time>2023-01-17T23:38:39Z</time>
					</trkpt>
					<trkpt lat="47.778800" lon="6.764670">
						<ele>591</ele>
						<time>2023-01-17T23:38:48Z</time>
					</trkpt>
					<trkpt lat="47.779460" lon="6.765070">
						<ele>590</ele>
						<time>2023-01-17T23:39:01Z</time>
					</trkpt>
					<trkpt lat="47.779640" lon="6.765220">
						<ele>590</ele>
						<time>2023-01-17T23:39:05Z</time>
					</trkpt>
					<trkpt lat="47.780100" lon="6.765780">
						<ele>594</ele>
						<time>2023-01-17T23:39:15Z</time>
					</trkpt>
					<trkpt lat="47.780940" lon="6.766700">
						<ele>588</ele>
						<time>2023-01-17T23:39:34Z</time>
					</trkpt>
					<trkpt lat="47.781040" lon="6.766840">
						<ele>588</ele>
						<time>2023-01-17T23:39:36Z</time>
					</trkpt>
					<trkpt lat="47.781140" lon="6.767050">
						<ele>588</ele>
						<time>2023-01-17T23:39:39Z</time>
					</trkpt>
					<trkpt lat="47.781220" lon="6.767270">
						<ele>589</ele>
						<time>2023-01-17T23:39:42Z</time>
					</trkpt>
					<trkpt lat="47.781280" lon="6.767450">
						<ele>590</ele>
						<time>2023-01-17T23:39:45Z</time>
					</trkpt>
					<trkpt lat="47.781350" lon="6.767800">
						<ele>594</ele>
						<time>2023-01-17T23:39:49Z</time>
					</trkpt>
					<trkpt lat="47.781470" lon="6.768050">
						<ele>594</ele>
						<time>2023-01-17T23:39:53Z</time>
					</trkpt>
					<trkpt lat="47.781570" lon="6.768150">
						<ele>593</ele>
						<time>2023-01-17T23:39:55Z</time>
					</trkpt>
					<trkpt lat="47.781950" lon="6.768460">
						<ele>593</ele>
						<time>2023-01-17T23:40:03Z</time>
					</trkpt>
					<trkpt lat="47.782440" lon="6.768910">
						<ele>596</ele>
						<time>2023-01-17T23:40:13Z</time>
					</trkpt>
					<trkpt lat="47.782580" lon="6.769020">
						<ele>598</ele>
						<time>2023-01-17T23:40:16Z</time>
					</trkpt>
					<trkpt lat="47.782720" lon="6.769090">
						<ele>599</ele>
						<time>2023-01-17T23:40:18Z</time>
					</trkpt>
					<trkpt lat="47.782910" lon="6.769150">
						<ele>601</ele>
						<time>2023-01-17T23:40:22Z</time>
					</trkpt>
					<trkpt lat="47.783270" lon="6.769110">
						<ele>603</ele>
						<time>2023-01-17T23:40:28Z</time>
					</trkpt>
					<trkpt lat="47.783550" lon="6.768980">
						<ele>608</ele>
						<time>2023-01-17T23:40:33Z</time>
					</trkpt>
					<trkpt lat="47.784050" lon="6.768690">
						<ele>616</ele>
						<time>2023-01-17T23:40:43Z</time>
					</trkpt>
					<trkpt lat="47.784260" lon="6.768640">
						<ele>618</ele>
						<time>2023-01-17T23:40:47Z</time>
					</trkpt>
					<trkpt lat="47.784490" lon="6.768670">
						<ele>621</ele>
						<time>2023-01-17T23:40:51Z</time>
					</trkpt>
					<trkpt lat="47.784610" lon="6.768720">
						<ele>623</ele>
						<time>2023-01-17T23:40:53Z</time>
					</trkpt>
					<trkpt lat="47.784750" lon="6.768840">
						<ele>625</ele>
						<time>2023-01-17T23:40:56Z</time>
					</trkpt>
					<trkpt lat="47.784950" lon="6.769030">
						<ele>627</ele>
						<time>2023-01-17T23:41:00Z</time>
					</trkpt>
					<trkpt lat="47.785340" lon="6.769500">
						<ele>633</ele>
						<time>2023-01-17T23:41:09Z</time>
					</trkpt>
					<trkpt lat="47.785590" lon="6.769940">
						<ele>632</ele>
						<time>2023-01-17T23:41:16Z</time>
					</trkpt>
					<trkpt lat="47.786290" lon="6.771900">
						<ele>641</ele>
						<time>2023-01-17T23:41:43Z</time>
					</trkpt>
					<trkpt lat="47.786610" lon="6.772560">
						<ele>636</ele>
						<time>2023-01-17T23:41:52Z</time>
					</trkpt>
					<trkpt lat="47.786690" lon="6.772890">
						<ele>636</ele>
						<time>2023-01-17T23:41:57Z</time>
					</trkpt>
					<trkpt lat="47.786790" lon="6.773640">
						<ele>641</ele>
						<time>2023-01-17T23:42:06Z</time>
					</trkpt>
					<trkpt lat="47.786840" lon="6.773920">
						<ele>643</ele>
						<time>2023-01-17T23:42:09Z</time>
					</trkpt>
					<trkpt lat="47.786900" lon="6.774090">
						<ele>643</ele>
						<time>2023-01-17T23:42:11Z</time>
					</trkpt>
					<trkpt lat="47.787030" lon="6.774290">
						<ele>644</ele>
						<time>2023-01-17T23:42:15Z</time>
					</trkpt>
					<trkpt lat="47.788100" lon="6.775630">
						<ele>649</ele>
						<time>2023-01-17T23:42:40Z</time>
					</trkpt>
					<trkpt lat="47.788790" lon="6.776150">
						<ele>647</ele>
						<time>2023-01-17T23:42:53Z</time>
					</trkpt>
					<trkpt lat="47.789060" lon="6.776430">
						<ele>644</ele>
						<time>2023-01-17T23:42:59Z</time>
					</trkpt>
					<trkpt lat="47.789310" lon="6.776830">
						<ele>643</ele>
						<time>2023-01-17T23:43:06Z</time>
					</trkpt>
					<trkpt lat="47.789530" lon="6.777300">
						<ele>644</ele>
						<time>2023-01-17T23:43:13Z</time>
					</trkpt>
					<trkpt lat="47.790580" lon="6.779070">
						<ele>650</ele>
						<time>2023-01-17T23:43:41Z</time>
					</trkpt>
					<trkpt lat="47.790810" lon="6.779370">
						<ele>650</ele>
						<time>2023-01-17T23:43:46Z</time>
					</trkpt>
					<trkpt lat="47.791080" lon="6.779600">
						<ele>652</ele>
						<time>2023-01-17T23:43:52Z</time>
					</trkpt>
					<trkpt lat="47.791960" lon="6.780220">
						<ele>655</ele>
						<time>2023-01-17T23:44:09Z</time>
					</trkpt>
					<trkpt lat="47.792050" lon="6.780320">
						<ele>656</ele>
						<time>2023-01-17T23:44:11Z</time>
					</trkpt>
					<trkpt lat="47.792180" lon="6.780530">
						<ele>657</ele>
						<time>2023-01-17T23:44:15Z</time>
					</trkpt>
					<trkpt lat="47.792830" lon="6.781800">
						<ele>660</ele>
						<time>2023-01-17T23:44:34Z</time>
					</trkpt>
					<trkpt lat="47.792930" lon="6.781860">
						<ele>660</ele>
						<time>2023-01-17T23:44:36Z</time>
					</trkpt>
					<trkpt lat="47.793470" lon="6.782040">
						<ele>661</ele>
						<time>2023-01-17T23:44:45Z</time>
					</trkpt>
					<trkpt lat="47.793850" lon="6.782240">
						<ele>663</ele>
						<time>2023-01-17T23:44:53Z</time>
					</trkpt>
					<trkpt lat="47.794310" lon="6.782540">
						<ele>662</ele>
						<time>2023-01-17T23:45:02Z</time>
					</trkpt>
					<trkpt lat="47.794390" lon="6.782630">
						<ele>664</ele>
						<time>2023-01-17T23:45:03Z</time>
					</trkpt>
					<trkpt lat="47.794530" lon="6.782890">
						<ele>666</ele>
						<time>2023-01-17T23:45:07Z</time>
					</trkpt>
					<trkpt lat="47.794830" lon="6.783810">
						<ele>670</ele>
						<time>2023-01-17T23:45:20Z</time>
					</trkpt>
					<trkpt lat="47.794960" lon="6.784040">
						<ele>671</ele>
						<time>2023-01-17T23:45:23Z</time>
					</trkpt>
					<trkpt lat="47.795050" lon="6.784150">
						<ele>670</ele>
						<time>2023-01-17T23:45:25Z</time>
					</trkpt>
					<trkpt lat="47.795260" lon="6.784340">
						<ele>671</ele>
						<time>2023-01-17T23:45:30Z</time>
					</trkpt>
					<trkpt lat="47.795330" lon="6.784390">
						<ele>671</ele>
						<time>2023-01-17T23:45:31Z</time>
					</trkpt>
					<trkpt lat="47.795560" lon="6.784460">
						<ele>670</ele>
						<time>2023-01-17T23:45:35Z</time>
					</trkpt>
					<trkpt lat="47.796080" lon="6.785040">
						<ele>672</ele>
						<time>2023-01-17T23:45:47Z</time>
					</trkpt>
					<trkpt lat="47.796420" lon="6.785170">
						<ele>673</ele>
						<time>2023-01-17T23:45:53Z</time>
					</trkpt>
					<trkpt lat="47.796630" lon="6.785450">
						<ele>674</ele>
						<time>2023-01-17T23:45:58Z</time>
					</trkpt>
					<trkpt lat="47.796840" lon="6.785820">
						<ele>675</ele>
						<time>2023-01-17T23:46:04Z</time>
					</trkpt>
					<trkpt lat="47.797360" lon="6.786910">
						<ele>679</ele>
						<time>2023-01-17T23:46:20Z</time>
					</trkpt>
					<trkpt lat="47.797860" lon="6.787910">
						<ele>684</ele>
						<time>2023-01-17T23:46:35Z</time>
					</trkpt>
					<trkpt lat="47.798090" lon="6.788460">
						<ele>683</ele>
						<time>2023-01-17T23:46:42Z</time>
					</trkpt>
					<trkpt lat="47.798580" lon="6.789720">
						<ele>696</ele>
						<time>2023-01-17T23:47:00Z</time>
					</trkpt>
					<trkpt lat="47.799410" lon="6.791600">
						<ele>705</ele>
						<time>2023-01-17T23:47:27Z</time>
					</trkpt>
					<trkpt lat="47.799490" lon="6.791730">
						<ele>706</ele>
						<time>2023-01-17T23:47:29Z</time>
					</trkpt>
					<trkpt lat="47.799960" lon="6.792280">
						<ele>708</ele>
						<time>2023-01-17T23:47:39Z</time>
					</trkpt>
					<trkpt lat="47.800050" lon="6.792400">
						<ele>709</ele>
						<time>2023-01-17T23:47:42Z</time>
					</trkpt>
					<trkpt lat="47.800160" lon="6.792650">
						<ele>712</ele>
						<time>2023-01-17T23:47:45Z</time>
					</trkpt>
					<trkpt lat="47.800250" lon="6.792910">
						<ele>715</ele>
						<time>2023-01-17T23:47:49Z</time>
					</trkpt>
					<trkpt lat="47.800290" lon="6.793130">
						<ele>716</ele>
						<time>2023-01-17T23:47:51Z</time>
					</trkpt>
					<trkpt lat="47.800320" lon="6.793520">
						<ele>716</ele>
						<time>2023-01-17T23:47:56Z</time>
					</trkpt>
					<trkpt lat="47.800350" lon="6.793570">
						<ele>716</ele>
						<time>2023-01-17T23:47:57Z</time>
					</trkpt>
					<trkpt lat="47.800380" lon="6.793590">
						<ele>717</ele>
						<time>2023-01-17T23:47:57Z</time>
					</trkpt>
					<trkpt lat="47.800480" lon="6.793570">
						<ele>720</ele>
						<time>2023-01-17T23:47:59Z</time>
					</trkpt>
					<trkpt lat="47.800520" lon="6.793520">
						<ele>721</ele>
						<time>2023-01-17T23:48:00Z</time>
					</trkpt>
					<trkpt lat="47.800550" lon="6.793450">
						<ele>722</ele>
						<time>2023-01-17T23:48:01Z</time>
					</trkpt>
					<trkpt lat="47.800570" lon="6.793360">
						<ele>724</ele>
						<time>2023-01-17T23:48:02Z</time>
					</trkpt>
					<trkpt lat="47.800550" lon="6.792800">
						<ele>726</ele>
						<time>2023-01-17T23:48:09Z</time>
					</trkpt>
					<trkpt lat="47.800500" lon="6.792420">
						<ele>727</ele>
						<time>2023-01-17T23:48:14Z</time>
					</trkpt>
					<trkpt lat="47.800380" lon="6.791800">
						<ele>729</ele>
						<time>2023-01-17T23:48:21Z</time>
					</trkpt>
					<trkpt lat="47.800090" lon="6.790600">
						<ele>734</ele>
						<time>2023-01-17T23:48:37Z</time>
					</trkpt>
					<trkpt lat="47.800020" lon="6.790420">
						<ele>733</ele>
						<time>2023-01-17T23:48:39Z</time>
					</trkpt>
					<trkpt lat="47.799950" lon="6.790310">
						<ele>732</ele>
						<time>2023-01-17T23:48:41Z</time>
					</trkpt>
					<trkpt lat="47.799780" lon="6.790170">
						<ele>728</ele>
						<time>2023-01-17T23:48:44Z</time>
					</trkpt>
					<trkpt lat="47.799730" lon="6.790070">
						<ele>727</ele>
						<time>2023-01-17T23:48:46Z</time>
					</trkpt>
					<trkpt lat="47.799720" lon="6.789930">
						<ele>728</ele>
						<time>2023-01-17T23:48:47Z</time>
					</trkpt>
					<trkpt lat="47.799720" lon="6.789820">
						<ele>729</ele>
						<time>2023-01-17T23:48:49Z</time>
					</trkpt>
					<trkpt lat="47.799740" lon="6.789730">
						<ele>730</ele>
						<time>2023-01-17T23:48:50Z</time>
					</trkpt>
					<trkpt lat="47.799840" lon="6.789630">
						<ele>735</ele>
						<time>2023-01-17T23:48:52Z</time>
					</trkpt>
					<trkpt lat="47.799960" lon="6.789630">
						<ele>739</ele>
						<time>2023-01-17T23:48:54Z</time>
					</trkpt>
					<trkpt lat="47.800030" lon="6.789690">
						<ele>742</ele>
						<time>2023-01-17T23:48:56Z</time>
					</trkpt>
					<trkpt lat="47.800080" lon="6.789800">
						<ele>743</ele>
						<time>2023-01-17T23:48:57Z</time>
					</trkpt>
					<trkpt lat="47.800130" lon="6.789990">
						<ele>744</ele>
						<time>2023-01-17T23:49:00Z</time>
					</trkpt>
					<trkpt lat="47.800180" lon="6.790370">
						<ele>742</ele>
						<time>2023-01-17T23:49:04Z</time>
					</trkpt>
					<trkpt lat="47.800240" lon="6.790560">
						<ele>742</ele>
						<time>2023-01-17T23:49:07Z</time>
					</trkpt>
					<trkpt lat="47.800480" lon="6.791130">
						<ele>744</ele>
						<time>2023-01-17T23:49:15Z</time>
					</trkpt>
					<trkpt lat="47.801150" lon="6.792350">
						<ele>757</ele>
						<time>2023-01-17T23:49:34Z</time>
					</trkpt>
					<trkpt lat="47.801460" lon="6.793020">
						<ele>761</ele>
						<time>2023-01-17T23:49:43Z</time>
					</trkpt>
					<trkpt lat="47.801680" lon="6.793620">
						<ele>762</ele>
						<time>2023-01-17T23:49:52Z</time>
					</trkpt>
					<trkpt lat="47.801800" lon="6.793910">
						<ele>764</ele>
						<time>2023-01-17T23:49:56Z</time>
					</trkpt>
					<trkpt lat="47.801970" lon="6.794170">
						<ele>767</ele>
						<time>2023-01-17T23:50:00Z</time>
					</trkpt>
					<trkpt lat="47.802160" lon="6.794360">
						<ele>771</ele>
						<time>2023-01-17T23:50:04Z</time>
					</trkpt>
					<trkpt lat="47.802600" lon="6.794630">
						<ele>778</ele>
						<time>2023-01-17T23:50:12Z</time>
					</trkpt>
					<trkpt lat="47.803210" lon="6.794980">
						<ele>780</ele>
						<time>2023-01-17T23:50:24Z</time>
					</trkpt>
					<trkpt lat="47.803820" lon="6.795180">
						<ele>782</ele>
						<time>2023-01-17T23:50:35Z</time>
					</trkpt>
					<trkpt lat="47.803990" lon="6.795210">
						<ele>783</ele>
						<time>2023-01-17T23:50:38Z</time>
					</trkpt>
					<trkpt lat="47.804660" lon="6.795120">
						<ele>789</ele>
						<time>2023-01-17T23:50:50Z</time>
					</trkpt>
					<trkpt lat="47.805760" lon="6.794820">
						<ele>804</ele>
						<time>2023-01-17T23:51:10Z</time>
					</trkpt>
					<trkpt lat="47.805870" lon="6.794750">
						<ele>807</ele>
						<time>2023-01-17T23:51:12Z</time>
					</trkpt>
					<trkpt lat="47.806020" lon="6.794590">
						<ele>811</ele>
						<time>2023-01-17T23:51:16Z</time>
					</trkpt>
					<trkpt lat="47.806170" lon="6.794550">
						<ele>811</ele>
						<time>2023-01-17T23:51:18Z</time>
					</trkpt>
					<trkpt lat="47.806570" lon="6.794620">
						<ele>804</ele>
						<time>2023-01-17T23:51:25Z</time>
					</trkpt>
					<trkpt lat="47.807160" lon="6.794660">
						<ele>807</ele>
						<time>2023-01-17T23:51:36Z</time>
					</trkpt>
					<trkpt lat="47.807250" lon="6.794640">
						<ele>809</ele>
						<time>2023-01-17T23:51:38Z</time>
					</trkpt>
					<trkpt lat="47.807650" lon="6.794460">
						<ele>820</ele>
						<time>2023-01-17T23:51:45Z</time>
					</trkpt>
					<trkpt lat="47.807720" lon="6.794460">
						<ele>823</ele>
						<time>2023-01-17T23:51:46Z</time>
					</trkpt>
					<trkpt lat="47.807880" lon="6.794540">
						<ele>826</ele>
						<time>2023-01-17T23:51:49Z</time>
					</trkpt>
					<trkpt lat="47.808560" lon="6.795100">
						<ele>829</ele>
						<time>2023-01-17T23:52:03Z</time>
					</trkpt>
					<trkpt lat="47.808690" lon="6.795150">
						<ele>831</ele>
						<time>2023-01-17T23:52:05Z</time>
					</trkpt>
					<trkpt lat="47.809600" lon="6.795310">
						<ele>839</ele>
						<time>2023-01-17T23:52:22Z</time>
					</trkpt>
					<trkpt lat="47.810350" lon="6.795540">
						<ele>840</ele>
						<time>2023-01-17T23:52:35Z</time>
					</trkpt>
					<trkpt lat="47.810600" lon="6.795590">
						<ele>842</ele>
						<time>2023-01-17T23:52:40Z</time>
					</trkpt>
					<trkpt lat="47.810810" lon="6.795680">
						<ele>842</ele>
						<time>2023-01-17T23:52:44Z</time>
					</trkpt>
					<trkpt lat="47.811690" lon="6.796150">
						<ele>859</ele>
						<time>2023-01-17T23:53:00Z</time>
					</trkpt>
					<trkpt lat="47.811800" lon="6.796230">
						<ele>862</ele>
						<time>2023-01-17T23:53:03Z</time>
					</trkpt>
					<trkpt lat="47.812000" lon="6.796460">
						<ele>865</ele>
						<time>2023-01-17T23:53:07Z</time>
					</trkpt>
					<trkpt lat="47.812080" lon="6.796630">
						<ele>864</ele>
						<time>2023-01-17T23:53:10Z</time>
					</trkpt>
					<trkpt lat="47.812200" lon="6.796950">
						<ele>863</ele>
						<time>2023-01-17T23:53:14Z</time>
					</trkpt>
					<trkpt lat="47.812420" lon="6.797780">
						<ele>864</ele>
						<time>2023-01-17T23:53:25Z</time>
					</trkpt>
					<trkpt lat="47.812430" lon="6.797910">
						<ele>864</ele>
						<time>2023-01-17T23:53:26Z</time>
					</trkpt>
					<trkpt lat="47.812390" lon="6.798350">
						<ele>864</ele>
						<time>2023-01-17T23:53:31Z</time>
					</trkpt>
					<trkpt lat="47.812430" lon="6.799000">
						<ele>871</ele>
						<time>2023-01-17T23:53:39Z</time>
					</trkpt>
					<trkpt lat="47.812490" lon="6.799250">
						<ele>874</ele>
						<time>2023-01-17T23:53:42Z</time>
					</trkpt>
					<trkpt lat="47.812630" lon="6.799520">
						<ele>878</ele>
						<time>2023-01-17T23:53:47Z</time>
					</trkpt>
					<trkpt lat="47.812900" lon="6.799700">
						<ele>885</ele>
						<time>2023-01-17T23:53:52Z</time>
					</trkpt>
					<trkpt lat="47.813180" lon="6.800070">
						<ele>889</ele>
						<time>2023-01-17T23:53:58Z</time>
					</trkpt>
					<trkpt lat="47.813250" lon="6.800120">
						<ele>890</ele>
						<time>2023-01-17T23:54:00Z</time>
					</trkpt>
					<trkpt lat="47.813640" lon="6.800210">
						<ele>895</ele>
						<time>2023-01-17T23:54:07Z</time>
					</trkpt>
					<trkpt lat="47.813710" lon="6.800250">
						<ele>896</ele>
						<time>2023-01-17T23:54:08Z</time>
					</trkpt>
					<trkpt lat="47.813920" lon="6.800430">
						<ele>898</ele>
						<time>2023-01-17T23:54:12Z</time>
					</trkpt>
					<trkpt lat="47.814070" lon="6.800410">
						<ele>900</ele>
						<time>2023-01-17T23:54:15Z</time>
					</trkpt>
					<trkpt lat="47.814190" lon="6.800370">
						<ele>902</ele>
						<time>2023-01-17T23:54:17Z</time>
					</trkpt>
					<trkpt lat="47.814330" lon="6.800300">
						<ele>906</ele>
						<time>2023-01-17T23:54:20Z</time>
					</trkpt>
					<trkpt lat="47.814560" lon="6.800150">
						<ele>914</ele>
						<time>2023-01-17T23:54:24Z</time>
					</trkpt>
					<trkpt lat="47.814680" lon="6.800130">
						<ele>917</ele>
						<time>2023-01-17T23:54:27Z</time>
					</trkpt>
					<trkpt lat="47.814770" lon="6.800160">
						<ele>919</ele>
						<time>2023-01-17T23:54:28Z</time>
					</trkpt>
					<trkpt lat="47.815060" lon="6.800550">
						<ele>917</ele>
						<time>2023-01-17T23:54:35Z</time>
					</trkpt>
					<trkpt lat="47.815150" lon="6.800650">
						<ele>916</ele>
						<time>2023-01-17T23:54:37Z</time>
					</trkpt>
					<trkpt lat="47.815350" lon="6.800720">
						<ele>918</ele>
						<time>2023-01-17T23:54:41Z</time>
					</trkpt>
					<trkpt lat="47.815600" lon="6.800650">
						<ele>922</ele>
						<time>2023-01-17T23:54:45Z</time>
					</trkpt>
					<trkpt lat="47.815730" lon="6.800540">
						<ele>925</ele>
						<time>2023-01-17T23:54:48Z</time>
					</trkpt>
					<trkpt lat="47.815820" lon="6.800190">
						<ele>928</ele>
						<time>2023-01-17T23:54:53Z</time>
					</trkpt>
					<trkpt lat="47.815930" lon="6.799690">
						<ele>936</ele>
						<time>2023-01-17T23:54:59Z</time>
					</trkpt>
					<trkpt lat="47.815980" lon="6.799600">
						<ele>938</ele>
						<time>2023-01-17T23:55:00Z</time>
					</trkpt>
					<trkpt lat="47.816350" lon="6.799330">
						<ele>940</ele>
						<time>2023-01-17T23:55:08Z</time>
					</trkpt>
					<trkpt lat="47.816360" lon="6.799260">
						<ele>942</ele>
						<time>2023-01-17T23:55:08Z</time>
					</trkpt>
					<trkpt lat="47.816340" lon="6.799180">
						<ele>944</ele>
						<time>2023-01-17T23:55:09Z</time>
					</trkpt>
					<trkpt lat="47.816310" lon="6.799120">
						<ele>946</ele>
						<time>2023-01-17T23:55:10Z</time>
					</trkpt>
					<trkpt lat="47.816260" lon="6.799100">
						<ele>947</ele>
						<time>2023-01-17T23:55:11Z</time>
					</trkpt>
					<trkpt lat="47.816150" lon="6.799140">
						<ele>947</ele>
						<time>2023-01-17T23:55:13Z</time>
					</trkpt>
					<trkpt lat="47.815920" lon="6.799290">
						<ele>946</ele>
						<time>2023-01-17T23:55:18Z</time>
					</trkpt>
					<trkpt lat="47.815700" lon="6.799360">
						<ele>945</ele>
						<time>2023-01-17T23:55:22Z</time>
					</trkpt>
					<trkpt lat="47.815510" lon="6.799390">
						<ele>943</ele>
						<time>2023-01-17T23:55:25Z</time>
					</trkpt>
					<trkpt lat="47.815320" lon="6.799340">
						<ele>944</ele>
						<time>2023-01-17T23:55:29Z</time>
					</trkpt>
					<trkpt lat="47.815190" lon="6.799270">
						<ele>945</ele>
						<time>2023-01-17T23:55:31Z</time>
					</trkpt>
					<trkpt lat="47.815080" lon="6.799130">
						<ele>947</ele>
						<time>2023-01-17T23:55:34Z</time>
					</trkpt>
					<trkpt lat="47.815000" lon="6.798990">
						<ele>949</ele>
						<time>2023-01-17T23:55:36Z</time>
					</trkpt>
					<trkpt lat="47.814930" lon="6.798770">
						<ele>951</ele>
						<time>2023-01-17T23:55:39Z</time>
					</trkpt>
					<trkpt lat="47.814740" lon="6.797750">
						<ele>961</ele>
						<time>2023-01-17T23:55:51Z</time>
					</trkpt>
					<trkpt lat="47.814640" lon="6.797110">
						<ele>967</ele>
						<time>2023-01-17T23:55:59Z</time>
					</trkpt>
					<trkpt lat="47.814560" lon="6.796260">
						<ele>977</ele>
						<time>2023-01-17T23:56:09Z</time>
					</trkpt>
					<trkpt lat="47.814500" lon="6.795910">
						<ele>980</ele>
						<time>2023-01-17T23:56:14Z</time>
					</trkpt>
					<trkpt lat="47.814200" lon="6.794840">
						<ele>987</ele>
						<time>2023-01-17T23:56:28Z</time>
					</trkpt>
					<trkpt lat="47.813790" lon="6.793720">
						<ele>992</ele>
						<time>2023-01-17T23:56:43Z</time>
					</trkpt>
					<trkpt lat="47.813720" lon="6.793450">
						<ele>993</ele>
						<time>2023-01-17T23:56:46Z</time>
					</trkpt>
					<trkpt lat="47.813670" lon="6.793210">
						<ele>994</ele>
						<time>2023-01-17T23:56:49Z</time>
					</trkpt>
					<trkpt lat="47.813660" lon="6.793040">
						<ele>996</ele>
						<time>2023-01-17T23:56:51Z</time>
					</trkpt>
					<trkpt lat="47.813650" lon="6.792360">
						<ele>1004</ele>
						<time>2023-01-17T23:56:59Z</time>
					</trkpt>
					<trkpt lat="47.813640" lon="6.792190">
						<ele>1006</ele>
						<time>2023-01-17T23:57:02Z</time>
					</trkpt>
					<trkpt lat="47.813600" lon="6.791960">
						<ele>1007</ele>
						<time>2023-01-17T23:57:04Z</time>
					</trkpt>
					<trkpt lat="47.813480" lon="6.791550">
						<ele>1009</ele>
						<time>2023-01-17T23:57:10Z</time>
					</trkpt>
					<trkpt lat="47.813030" lon="6.790650">
						<ele>1018</ele>
						<time>2023-01-17T23:57:23Z</time>
					</trkpt>
					<trkpt lat="47.812800" lon="6.790380">
						<ele>1021</ele>
						<time>2023-01-17T23:57:28Z</time>
					</trkpt>
					<trkpt lat="47.812620" lon="6.790230">
						<ele>1020</ele>
						<time>2023-01-17T23:57:32Z</time>
					</trkpt>
					<trkpt lat="47.812280" lon="6.789860">
						<ele>1025</ele>
						<time>2023-01-17T23:57:39Z</time>
					</trkpt>
					<trkpt lat="47.811520" lon="6.789140">
						<ele>1041</ele>
						<time>2023-01-17T23:57:56Z</time>
					</trkpt>
					<trkpt lat="47.811340" lon="6.789060">
						<ele>1044</ele>
						<time>2023-01-17T23:57:59Z</time>
					</trkpt>
					<trkpt lat="47.811160" lon="6.789050">
						<ele>1045</ele>
						<time>2023-01-17T23:58:02Z</time>
					</trkpt>
					<trkpt lat="47.811020" lon="6.789080">
						<ele>1044</ele>
						<time>2023-01-17T23:58:05Z</time>
					</trkpt>
					<trkpt lat="47.810870" lon="6.789160">
						<ele>1042</ele>
						<time>2023-01-17T23:58:07Z</time>
					</trkpt>
					<trkpt lat="47.810440" lon="6.789520">
						<ele>1038</ele>
						<time>2023-01-17T23:58:16Z</time>
					</trkpt>
					<trkpt lat="47.810130" lon="6.789820">
						<ele>1037</ele>
						<time>2023-01-17T23:58:23Z</time>
					</trkpt>
					<trkpt lat="47.809880" lon="6.789920">
						<ele>1035</ele>
						<time>2023-01-17T23:58:27Z</time>
					</trkpt>
					<trkpt lat="47.809700" lon="6.789910">
						<ele>1031</ele>
						<time>2023-01-17T23:58:31Z</time>
					</trkpt>
					<trkpt lat="47.809640" lon="6.789860">
						<ele>1031</ele>
						<time>2023-01-17T23:58:32Z</time>
					</trkpt>
					<trkpt lat="47.809600" lon="6.789730">
						<ele>1032</ele>
						<time>2023-01-17T23:58:34Z</time>
					</trkpt>
					<trkpt lat="47.809580" lon="6.789610">
						<ele>1034</ele>
						<time>2023-01-17T23:58:35Z</time>
					</trkpt>
					<trkpt lat="47.809600" lon="6.789460">
						<ele>1038</ele>
						<time>2023-01-17T23:58:37Z</time>
					</trkpt>
					<trkpt lat="47.809660" lon="6.789410">
						<ele>1040</ele>
						<time>2023-01-17T23:58:38Z</time>
					</trkpt>
					<trkpt lat="47.809720" lon="6.789400">
						<ele>1041</ele>
						<time>2023-01-17T23:58:39Z</time>
					</trkpt>
					<trkpt lat="47.810000" lon="6.789590">
						<ele>1043</ele>
						<time>2023-01-17T23:58:45Z</time>
					</trkpt>
					<trkpt lat="47.810060" lon="6.789600">
						<ele>1042</ele>
						<time>2023-01-17T23:58:46Z</time>
					</trkpt>
					<trkpt lat="47.810120" lon="6.789580">
						<ele>1042</ele>
						<time>2023-01-17T23:58:47Z</time>
					</trkpt>
					<trkpt lat="47.810250" lon="6.789470">
						<ele>1042</ele>
						<time>2023-01-17T23:58:49Z</time>
					</trkpt>
					<trkpt lat="47.810480" lon="6.789230">
						<ele>1044</ele>
						<time>2023-01-17T23:58:54Z</time>
					</trkpt>
					<trkpt lat="47.810770" lon="6.788830">
						<ele>1054</ele>
						<time>2023-01-17T23:59:01Z</time>
					</trkpt>
					<trkpt lat="47.810940" lon="6.788680">
						<ele>1058</ele>
						<time>2023-01-17T23:59:05Z</time>
					</trkpt>
					<trkpt lat="47.811090" lon="6.788630">
						<ele>1060</ele>
						<time>2023-01-17T23:59:08Z</time>
					</trkpt>
					<trkpt lat="47.811330" lon="6.788580">
						<ele>1062</ele>
						<time>2023-01-17T23:59:12Z</time>
					</trkpt>
					<trkpt lat="47.811540" lon="6.788570">
						<ele>1063</ele>
						<time>2023-01-17T23:59:16Z</time>
					</trkpt>
					<trkpt lat="47.811660" lon="6.788580">
						<ele>1062</ele>
						<time>2023-01-17T23:59:18Z</time>
					</trkpt>
					<trkpt lat="47.811910" lon="6.788680">
						<ele>1062</ele>
						<time>2023-01-17T23:59:22Z</time>
					</trkpt>
					<trkpt lat="47.812140" lon="6.788600">
						<ele>1069</ele>
						<time>2023-01-17T23:59:27Z</time>
					</trkpt>
					<trkpt lat="47.812270" lon="6.788610">
						<ele>1070</ele>
						<time>2023-01-17T23:59:29Z</time>
					</trkpt>
					<trkpt lat="47.812700" lon="6.788770">
						<ele>1074</ele>
						<time>2023-01-17T23:59:37Z</time>
					</trkpt>
					<trkpt lat="47.813170" lon="6.789260">
						<ele>1069</ele>
						<time>2023-01-17T23:59:47Z</time>
					</trkpt>
					<trkpt lat="47.813850" lon="6.789560">
						<ele>1079</ele>
						<time>2023-01-18T00:00:00Z</time>
					</trkpt>
					<trkpt lat="47.814030" lon="6.789680">
						<ele>1081</ele>
						<time>2023-01-18T00:00:03Z</time>
					</trkpt>
					<trkpt lat="47.814460" lon="6.790000">
						<ele>1086</ele>
						<time>2023-01-18T00:00:12Z</time>
					</trkpt>
					<trkpt lat="47.814510" lon="6.790060">
						<ele>1086</ele>
						<time>2023-01-18T00:00:13Z</time>
					</trkpt>
					<trkpt lat="47.814560" lon="6.790160">
						<ele>1086</ele>
						<time>2023-01-18T00:00:14Z</time>
					</trkpt>
					<trkpt lat="47.814620" lon="6.790420">
						<ele>1084</ele>
						<time>2023-01-18T00:00:18Z</time>
					</trkpt>
					<trkpt lat="47.814650" lon="6.790510">
						<ele>1084</ele>
						<time>2023-01-18T00:00:19Z</time>
					</trkpt>
					<trkpt lat="47.814730" lon="6.790640">
						<ele>1086</ele>
						<time>2023-01-18T00:00:21Z</time>
					</trkpt>
					<trkpt lat="47.814880" lon="6.790810">
						<ele>1091</ele>
						<time>2023-01-18T00:00:24Z</time>
					</trkpt>
					<trkpt lat="47.814970" lon="6.791010">
						<ele>1093</ele>
						<time>2023-01-18T00:00:27Z</time>
					</trkpt>
					<trkpt lat="47.815040" lon="6.791240">
						<ele>1094</ele>
						<time>2023-01-18T00:00:30Z</time>
					</trkpt>
					<trkpt lat="47.815080" lon="6.791660">
						<ele>1090</ele>
						<time>2023-01-18T00:00:35Z</time>
					</trkpt>
					<trkpt lat="47.815120" lon="6.791810">
						<ele>1090</ele>
						<time>2023-01-18T00:00:37Z</time>
					</trkpt>
					<trkpt lat="47.815630" lon="6.792710">
						<ele>1096</ele>
						<time>2023-01-18T00:00:51Z</time>
					</trkpt>
					<trkpt lat="47.815750" lon="6.792840">
						<ele>1097</ele>
						<time>2023-01-18T00:00:54Z</time>
					</trkpt>
					<trkpt lat="47.815980" lon="6.793010">
						<ele>1100</ele>
						<time>2023-01-18T00:00:59Z</time>
					</trkpt>
					<trkpt lat="47.816440" lon="6.793180">
						<ele>1109</ele>
						<time>2023-01-18T00:01:07Z</time>
					</trkpt>
					<trkpt lat="47.816910" lon="6.793310">
						<ele>1116</ele>
						<time>2023-01-18T00:01:15Z</time>
					</trkpt>
					<trkpt lat="47.817760" lon="6.793700">
						<ele>1115</ele>
						<time>2023-01-18T00:01:31Z</time>
					</trkpt>
					<trkpt lat="47.817880" lon="6.793800">
						<ele>1114</ele>
						<time>2023-01-18T00:01:34Z</time>
					</trkpt>
					<trkpt lat="47.818390" lon="6.794460">
						<ele>1114</ele>
						<time>2023-01-18T00:01:46Z</time>
					</trkpt>
					<trkpt lat="47.818460" lon="6.794550">
						<ele>1114</ele>
						<time>2023-01-18T00:01:47Z</time>
					</trkpt>
					<trkpt lat="47.818540" lon="6.794600">
						<ele>1114</ele>
						<time>2023-01-18T00:01:49Z</time>
					</trkpt>
					<trkpt lat="47.818610" lon="6.794610">
						<ele>1115</ele>
						<time>2023-01-18T00:01:50Z</time>
					</trkpt>
					<trkpt lat="47.818820" lon="6.794510">
						<ele>1118</ele>
						<time>2023-01-18T00:01:54Z</time>
					</trkpt>
					<trkpt lat="47.818940" lon="6.794520">
						<ele>1118</ele>
						<time>2023-01-18T00:01:56Z</time>
					</trkpt>
					<trkpt lat="47.819170" lon="6.794640">
						<ele>1119</ele>
						<time>2023-01-18T00:02:01Z</time>
					</trkpt>
					<trkpt lat="47.819250" lon="6.794670">
						<ele>1118</ele>
						<time>2023-01-18T00:02:02Z</time>
					</trkpt>
					<trkpt lat="47.819510" lon="6.794660">
						<ele>1116</ele>
						<time>2023-01-18T00:02:07Z</time>
					</trkpt>
					<trkpt lat="47.819660" lon="6.794610">
						<ele>1116</ele>
						<time>2023-01-18T00:02:09Z</time>
					</trkpt>
					<trkpt lat="47.819820" lon="6.794480">
						<ele>1117</ele>
						<time>2023-01-18T00:02:13Z</time>
					</trkpt>
					<trkpt lat="47.819900" lon="6.794380">
						<ele>1119</ele>
						<time>2023-01-18T00:02:15Z</time>
					</trkpt>
					<trkpt lat="47.819990" lon="6.794240">
						<ele>1121</ele>
						<time>2023-01-18T00:02:17Z</time>
					</trkpt>
					<trkpt lat="47.820170" lon="6.793840">
						<ele>1124</ele>
						<time>2023-01-18T00:02:23Z</time>
					</trkpt>
					<trkpt lat="47.820260" lon="6.793700">
						<ele>1125</ele>
						<time>2023-01-18T00:02:25Z</time>
					</trkpt>
					<trkpt lat="47.820320" lon="6.793640">
						<ele>1125</ele>
						<time>2023-01-18T00:02:26Z</time>
					</trkpt>
					<trkpt lat="47.820390" lon="6.793600">
						<ele>1125</ele>
						<time>2023-01-18T00:02:28Z</time>
					</trkpt>
					<trkpt lat="47.820560" lon="6.793580">
						<ele>1125</ele>
						<time>2023-01-18T00:02:31Z</time>
					</trkpt>
					<trkpt lat="47.820730" lon="6.793630">
						<ele>1124</ele>
						<time>2023-01-18T00:02:34Z</time>
					</trkpt>
					<trkpt lat="47.820930" lon="6.793560">
						<ele>1125</ele>
						<time>2023-01-18T00:02:37Z</time>
					</trkpt>
					<trkpt lat="47.821110" lon="6.793440">
						<ele>1125</ele>
						<time>2023-01-18T00:02:41Z</time>
					</trkpt>
					<trkpt lat="47.821300" lon="6.793120">
						<ele>1125</ele>
						<time>2023-01-18T00:02:46Z</time>
					</trkpt>
					<trkpt lat="47.821440" lon="6.792980">
						<ele>1125</ele>
						<time>2023-01-18T00:02:49Z</time>
					</trkpt>
					<trkpt lat="47.821680" lon="6.792830">
						<ele>1127</ele>
						<time>2023-01-18T00:02:54Z</time>
					</trkpt>
					<trkpt lat="47.822120" lon="6.792610">
						<ele>1133</ele>
						<time>2023-01-18T00:03:02Z</time>
					</trkpt>
					<trkpt lat="47.822190" lon="6.792510">
						<ele>1136</ele>
						<time>2023-01-18T00:03:04Z</time>
					</trkpt>
					<trkpt lat="47.822240" lon="6.792280">
						<ele>1137</ele>
						<time>2023-01-18T00:03:06Z</time>
					</trkpt>
					<trkpt lat="47.822330" lon="6.791650">
						<ele>1139</ele>
						<time>2023-01-18T00:03:14Z</time>
					</trkpt>
					<trkpt lat="47.822370" lon="6.791460">
						<ele>1141</ele>
						<time>2023-01-18T00:03:16Z</time>
					</trkpt>
					<trkpt lat="47.822550" lon="6.790970">
						<ele>1147</ele>
						<time>2023-01-18T00:03:23Z</time>
					</trkpt>
					<trkpt lat="47.822590" lon="6.790850">
						<ele>1149</ele>
						<time>2023-01-18T00:03:25Z</time>
					</trkpt>
					<trkpt lat="47.822600" lon="6.790720">
						<ele>1150</ele>
						<time>2023-01-18T00:03:26Z</time>
					</trkpt>
					<trkpt lat="47.822610" lon="6.790510">
						<ele>1151</ele>
						<time>2023-01-18T00:03:29Z</time>
					</trkpt>
					<trkpt lat="47.822520" lon="6.789530">
						<ele>1153</ele>
						<time>2023-01-18T00:03:41Z</time>
					</trkpt>
					<trkpt lat="47.822510" lon="6.789160">
						<ele>1153</ele>
						<time>2023-01-18T00:03:45Z</time>
					</trkpt>
					<trkpt lat="47.822530" lon="6.788920">
						<ele>1154</ele>
						<time>2023-01-18T00:03:48Z</time>
					</trkpt>
					<trkpt lat="47.822520" lon="6.788480">
						<ele>1154</ele>
						<time>2023-01-18T00:03:53Z</time>
					</trkpt>
					<trkpt lat="47.822610" lon="6.787810">
						<ele>1151</ele>
						<time>2023-01-18T00:04:01Z</time>
					</trkpt>
					<trkpt lat="47.822610" lon="6.787680">
						<ele>1150</ele>
						<time>2023-01-18T00:04:03Z</time>
					</trkpt>
					<trkpt lat="47.822540" lon="6.787350">
						<ele>1148</ele>
						<time>2023-01-18T00:04:07Z</time>
					</trkpt>
					<trkpt lat="47.822550" lon="6.787150">
						<ele>1147</ele>
						<time>2023-01-18T00:04:09Z</time>
					</trkpt>
					<trkpt lat="47.822580" lon="6.787050">
						<ele>1146</ele>
						<time>2023-01-18T00:04:11Z</time>
					</trkpt>
					<trkpt lat="47.822630" lon="6.786980">
						<ele>1146</ele>
						<time>2023-01-18T00:04:12Z</time>
					</trkpt>
					<trkpt lat="47.822710" lon="6.786900">
						<ele>1145</ele>
						<time>2023-01-18T00:04:14Z</time>
					</trkpt>
					<trkpt lat="47.822810" lon="6.786890">
						<ele>1144</ele>
						<time>2023-01-18T00:04:16Z</time>
					</trkpt>
					<trkpt lat="47.822880" lon="6.786930">
						<ele>1145</ele>
						<time>2023-01-18T00:04:17Z</time>
					</trkpt>
					<trkpt lat="47.823430" lon="6.787540">
						<ele>1150</ele>
						<time>2023-01-18T00:04:29Z</time>
					</trkpt>
					<trkpt lat="47.823670" lon="6.787770">
						<ele>1149</ele>
						<time>2023-01-18T00:04:34Z</time>
					</trkpt>
					<trkpt lat="47.823740" lon="6.787820">
						<ele>1149</ele>
						<time>2023-01-18T00:04:36Z</time>
					</trkpt>
					<trkpt lat="47.823930" lon="6.787860">
						<ele>1148</ele>
						<time>2023-01-18T00:04:39Z</time>
					</trkpt>
					<trkpt lat="47.824130" lon="6.787860">
						<ele>1145</ele>
						<time>2023-01-18T00:04:42Z</time>
					</trkpt>
					<trkpt lat="47.824900" lon="6.787600">
						<ele>1139</ele>
						<time>2023-01-18T00:04:57Z</time>
					</trkpt>
					<trkpt lat="47.826000" lon="6.787390">
						<ele>1137</ele>
						<time>2023-01-18T00:05:16Z</time>
					</trkpt>
					<trkpt lat="47.826100" lon="6.787290">
						<ele>1137</ele>
						<time>2023-01-18T00:05:18Z</time>
					</trkpt>
					<trkpt lat="47.826160" lon="6.787110">
						<ele>1135</ele>
						<time>2023-01-18T00:05:21Z</time>
					</trkpt>
					<trkpt lat="47.826190" lon="6.786470">
						<ele>1125</ele>
						<time>2023-01-18T00:05:28Z</time>
					</trkpt>
					<trkpt lat="47.826220" lon="6.786190">
						<ele>1122</ele>
						<time>2023-01-18T00:05:32Z</time>
					</trkpt>
					<trkpt lat="47.826440" lon="6.784630">
						<ele>1100</ele>
						<time>2023-01-18T00:05:51Z</time>
					</trkpt>
					<trkpt lat="47.826470" lon="6.784560">
						<ele>1099</ele>
						<time>2023-01-18T00:05:52Z</time>
					</trkpt>
					<trkpt lat="47.826550" lon="6.784450">
						<ele>1099</ele>
						<time>2023-01-18T00:05:54Z</time>
					</trkpt>
					<trkpt lat="47.826650" lon="6.784400">
						<ele>1100</ele>
						<time>2023-01-18T00:05:56Z</time>
					</trkpt>
					<trkpt lat="47.826770" lon="6.784410">
						<ele>1101</ele>
						<time>2023-01-18T00:05:58Z</time>
					</trkpt>
					<trkpt lat="47.826960" lon="6.784550">
						<ele>1106</ele>
						<time>2023-01-18T00:06:02Z</time>
					</trkpt>
					<trkpt lat="47.827120" lon="6.784570">
						<ele>1107</ele>
						<time>2023-01-18T00:06:04Z</time>
					</trkpt>
					<trkpt lat="47.827770" lon="6.784450">
						<ele>1100</ele>
						<time>2023-01-18T00:06:16Z</time>
					</trkpt>
					<trkpt lat="47.828000" lon="6.784430">
						<ele>1096</ele>
						<time>2023-01-18T00:06:20Z</time>
					</trkpt>
					<trkpt lat="47.828200" lon="6.784510">
						<ele>1096</ele>
						<time>2023-01-18T00:06:24Z</time>
					</trkpt>
					<trkpt lat="47.829260" lon="6.785110">
						<ele>1092</ele>
						<time>2023-01-18T00:06:44Z</time>
					</trkpt>
					<trkpt lat="47.829340" lon="6.785120">
						<ele>1093</ele>
						<time>2023-01-18T00:06:46Z</time>
					</trkpt>
					<trkpt lat="47.829430" lon="6.785100">
						<ele>1093</ele>
						<time>2023-01-18T00:06:47Z</time>
					</trkpt>
					<trkpt lat="47.829500" lon="6.785050">
						<ele>1092</ele>
						<time>2023-01-18T00:06:49Z</time>
					</trkpt>
					<trkpt lat="47.830530" lon="6.784120">
						<ele>1065</ele>
						<time>2023-01-18T00:07:10Z</time>
					</trkpt>
					<trkpt lat="47.830800" lon="6.784030">
						<ele>1066</ele>
						<time>2023-01-18T00:07:15Z</time>
					</trkpt>
					<trkpt lat="47.831710" lon="6.783790">
						<ele>1059</ele>
						<time>2023-01-18T00:07:31Z</time>
					</trkpt>
					<trkpt lat="47.831820" lon="6.783780">
						<ele>1057</ele>
						<time>2023-01-18T00:07:33Z</time>
					</trkpt>
					<trkpt lat="47.832010" lon="6.783820">
						<ele>1055</ele>
						<time>2023-01-18T00:07:37Z</time>
					</trkpt>
					<trkpt lat="47.832290" lon="6.783980">
						<ele>1056</ele>
						<time>2023-01-18T00:07:42Z</time>
					</trkpt>
					<trkpt lat="47.832530" lon="6.784180">
						<ele>1058</ele>
						<time>2023-01-18T00:07:47Z</time>
					</trkpt>
					<trkpt lat="47.832780" lon="6.784500">
						<ele>1063</ele>
						<time>2023-01-18T00:07:53Z</time>
					</trkpt>
					<trkpt lat="47.832890" lon="6.784590">
						<ele>1064</ele>
						<time>2023-01-18T00:07:55Z</time>
					</trkpt>
					<trkpt lat="47.833040" lon="6.784600">
						<ele>1063</ele>
						<time>2023-01-18T00:07:58Z</time>
					</trkpt>
					<trkpt lat="47.833250" lon="6.784480">
						<ele>1057</ele>
						<time>2023-01-18T00:08:02Z</time>
					</trkpt>
					<trkpt lat="47.833350" lon="6.784390">
						<ele>1054</ele>
						<time>2023-01-18T00:08:04Z</time>
					</trkpt>
					<trkpt lat="47.833540" lon="6.784130">
						<ele>1051</ele>
						<time>2023-01-18T00:08:08Z</time>
					</trkpt>
					<trkpt lat="47.833670" lon="6.783910">
						<ele>1049</ele>
						<time>2023-01-18T00:08:12Z</time>
					</trkpt>
					<trkpt lat="47.833840" lon="6.783530">
						<ele>1045</ele>
						<time>2023-01-18T00:08:17Z</time>
					</trkpt>
					<trkpt lat="47.834010" lon="6.782630">
						<ele>1034</ele>
						<time>2023-01-18T00:08:28Z</time>
					</trkpt>
					<trkpt lat="47.834040" lon="6.782330">
						<ele>1032</ele>
						<time>2023-01-18T00:08:32Z</time>
					</trkpt>
					<trkpt lat="47.834050" lon="6.782020">
						<ele>1030</ele>
						<time>2023-01-18T00:08:36Z</time>
					</trkpt>
					<trkpt lat="47.834050" lon="6.781910">
						<ele>1029</ele>
						<time>2023-01-18T00:08:37Z</time>
					</trkpt>
					<trkpt lat="47.833980" lon="6.781550">
						<ele>1024</ele>
						<time>2023-01-18T00:08:42Z</time>
					</trkpt>
					<trkpt lat="47.833880" lon="6.781230">
						<ele>1019</ele>
						<time>2023-01-18T00:08:46Z</time>
					</trkpt>
					<trkpt lat="47.832990" lon="6.778880">
						<ele>999</ele>
						<time>2023-01-18T00:09:18Z</time>
					</trkpt>
					<trkpt lat="47.832980" lon="6.778760">
						<ele>998</ele>
						<time>2023-01-18T00:09:19Z</time>
					</trkpt>
					<trkpt lat="47.832990" lon="6.778660">
						<ele>999</ele>
						<time>2023-01-18T00:09:21Z</time>
					</trkpt>
					<trkpt lat="47.833020" lon="6.778570">
						<ele>999</ele>
						<time>2023-01-18T00:09:22Z</time>
					</trkpt>
					<trkpt lat="47.833070" lon="6.778510">
						<ele>1000</ele>
						<time>2023-01-18T00:09:23Z</time>
					</trkpt>
					<trkpt lat="47.833180" lon="6.778450">
						<ele>1001</ele>
						<time>2023-01-18T00:09:25Z</time>
					</trkpt>
					<trkpt lat="47.833290" lon="6.778490">
						<ele>1003</ele>
						<time>2023-01-18T00:09:27Z</time>
					</trkpt>
					<trkpt lat="47.833340" lon="6.778540">
						<ele>1004</ele>
						<time>2023-01-18T00:09:28Z</time>
					</trkpt>
					<trkpt lat="47.833570" lon="6.778960">
						<ele>1007</ele>
						<time>2023-01-18T00:09:35Z</time>
					</trkpt>
					<trkpt lat="47.833640" lon="6.779050">
						<ele>1007</ele>
						<time>2023-01-18T00:09:36Z</time>
					</trkpt>
					<trkpt lat="47.833840" lon="6.779210">
						<ele>1008</ele>
						<time>2023-01-18T00:09:40Z</time>
					</trkpt>
					<trkpt lat="47.834030" lon="6.779420">
						<ele>1009</ele>
						<time>2023-01-18T00:09:45Z</time>
					</trkpt>
					<trkpt lat="47.834140" lon="6.779620">
						<ele>1010</ele>
						<time>2023-01-18T00:09:48Z</time>
					</trkpt>
					<trkpt lat="47.834330" lon="6.780130">
						<ele>1008</ele>
						<time>2023-01-18T00:09:55Z</time>
					</trkpt>
					<trkpt lat="47.834490" lon="6.780430">
						<ele>1007</ele>
						<time>2023-01-18T00:09:59Z</time>
					</trkpt>
					<trkpt lat="47.834850" lon="6.780970">
						<ele>1005</ele>
						<time>2023-01-18T00:10:08Z</time>
					</trkpt>
					<trkpt lat="47.835020" lon="6.781190">
						<ele>1005</ele>
						<time>2023-01-18T00:10:12Z</time>
					</trkpt>
					<trkpt lat="47.835340" lon="6.781500">
						<ele>999</ele>
						<time>2023-01-18T00:10:19Z</time>
					</trkpt>
					<trkpt lat="47.835530" lon="6.781780">
						<ele>997</ele>
						<time>2023-01-18T00:10:24Z</time>
					</trkpt>
					<trkpt lat="47.836480" lon="6.782750">
						<ele>991</ele>
						<time>2023-01-18T00:10:44Z</time>
					</trkpt>
					<trkpt lat="47.836630" lon="6.782850">
						<ele>990</ele>
						<time>2023-01-18T00:10:47Z</time>
					</trkpt>
					<trkpt lat="47.837080" lon="6.783010">
						<ele>985</ele>
						<time>2023-01-18T00:10:55Z</time>
					</trkpt>
					<trkpt lat="47.837200" lon="6.783040">
						<ele>984</ele>
						<time>2023-01-18T00:10:58Z</time>
					</trkpt>
					<trkpt lat="47.837270" lon="6.783020">
						<ele>981</ele>
						<time>2023-01-18T00:10:59Z</time>
					</trkpt>
					<trkpt lat="47.837730" lon="6.782810">
						<ele>970</ele>
						<time>2023-01-18T00:11:07Z</time>
					</trkpt>
					<trkpt lat="47.837850" lon="6.782730">
						<ele>968</ele>
						<time>2023-01-18T00:11:10Z</time>
					</trkpt>
					<trkpt lat="47.837980" lon="6.782590">
						<ele>964</ele>
						<time>2023-01-18T00:11:13Z</time>
					</trkpt>
					<trkpt lat="47.838530" lon="6.781680">
						<ele>953</ele>
						<time>2023-01-18T00:11:27Z</time>
					</trkpt>
					<trkpt lat="47.838660" lon="6.781530">
						<ele>951</ele>
						<time>2023-01-18T00:11:30Z</time>
					</trkpt>
					<trkpt lat="47.838730" lon="6.781490">
						<ele>950</ele>
						<time>2023-01-18T00:11:32Z</time>
					</trkpt>
					<trkpt lat="47.838850" lon="6.781490">
						<ele>950</ele>
						<time>2023-01-18T00:11:34Z</time>
					</trkpt>
					<trkpt lat="47.839000" lon="6.781550">
						<ele>951</ele>
						<time>2023-01-18T00:11:36Z</time>
					</trkpt>
					<trkpt lat="47.839090" lon="6.781620">
						<ele>952</ele>
						<time>2023-01-18T00:11:38Z</time>
					</trkpt>
					<trkpt lat="47.839210" lon="6.781790">
						<ele>953</ele>
						<time>2023-01-18T00:11:41Z</time>
					</trkpt>
					<trkpt lat="47.839450" lon="6.782180">
						<ele>949</ele>
						<time>2023-01-18T00:11:48Z</time>
					</trkpt>
					<trkpt lat="47.839720" lon="6.782780">
						<ele>947</ele>
						<time>2023-01-18T00:11:56Z</time>
					</trkpt>
					<trkpt lat="47.839930" lon="6.783310">
						<ele>946</ele>
						<time>2023-01-18T00:12:04Z</time>
					</trkpt>
					<trkpt lat="47.840120" lon="6.784080">
						<ele>945</ele>
						<time>2023-01-18T00:12:13Z</time>
					</trkpt>
					<trkpt lat="47.840180" lon="6.784200">
						<ele>945</ele>
						<time>2023-01-18T00:12:15Z</time>
					</trkpt>
					<trkpt lat="47.840270" lon="6.784350">
						<ele>945</ele>
						<time>2023-01-18T00:12:18Z</time>
					</trkpt>
					<trkpt lat="47.840330" lon="6.784390">
						<ele>945</ele>
						<time>2023-01-18T00:12:19Z</time>
					</trkpt>
					<trkpt lat="47.840470" lon="6.784420">
						<ele>943</ele>
						<time>2023-01-18T00:12:21Z</time>
					</trkpt>
					<trkpt lat="47.840730" lon="6.784390">
						<ele>939</ele>
						<time>2023-01-18T00:12:26Z</time>
					</trkpt>
					<trkpt lat="47.840810" lon="6.784410">
						<ele>938</ele>
						<time>2023-01-18T00:12:27Z</time>
					</trkpt>
					<trkpt lat="47.840870" lon="6.784450">
						<ele>938</ele>
						<time>2023-01-18T00:12:28Z</time>
					</trkpt>
					<trkpt lat="47.840940" lon="6.784540">
						<ele>937</ele>
						<time>2023-01-18T00:12:30Z</time>
					</trkpt>
					<trkpt lat="47.841070" lon="6.784790">
						<ele>938</ele>
						<time>2023-01-18T00:12:34Z</time>
					</trkpt>
					<trkpt lat="47.841390" lon="6.785640">
						<ele>941</ele>
						<time>2023-01-18T00:12:46Z</time>
					</trkpt>
					<trkpt lat="47.841470" lon="6.785820">
						<ele>941</ele>
						<time>2023-01-18T00:12:48Z</time>
					</trkpt>
					<trkpt lat="47.841560" lon="6.785950">
						<ele>940</ele>
						<time>2023-01-18T00:12:50Z</time>
					</trkpt>
					<trkpt lat="47.841840" lon="6.786180">
						<ele>937</ele>
						<time>2023-01-18T00:12:56Z</time>
					</trkpt>
					<trkpt lat="47.841910" lon="6.786260">
						<ele>936</ele>
						<time>2023-01-18T00:12:58Z</time>
					</trkpt>
					<trkpt lat="47.842050" lon="6.786570">
						<ele>937</ele>
						<time>2023-01-18T00:13:02Z</time>
					</trkpt>
					<trkpt lat="47.842160" lon="6.786740">
						<ele>937</ele>
						<time>2023-01-18T00:13:05Z</time>
					</trkpt>
					<trkpt lat="47.842470" lon="6.786940">
						<ele>934</ele>
						<time>2023-01-18T00:13:11Z</time>
					</trkpt>
					<trkpt lat="47.842620" lon="6.787050">
						<ele>932</ele>
						<time>2023-01-18T00:13:14Z</time>
					</trkpt>
					<trkpt lat="47.842830" lon="6.787310">
						<ele>930</ele>
						<time>2023-01-18T00:13:19Z</time>
					</trkpt>
					<trkpt lat="47.842910" lon="6.787450">
						<ele>930</ele>
						<time>2023-01-18T00:13:21Z</time>
					</trkpt>
					<trkpt lat="47.843070" lon="6.787880">
						<ele>932</ele>
						<time>2023-01-18T00:13:27Z</time>
					</trkpt>
					<trkpt lat="47.843510" lon="6.788380">
						<ele>927</ele>
						<time>2023-01-18T00:13:37Z</time>
					</trkpt>
					<trkpt lat="47.843830" lon="6.788900">
						<ele>927</ele>
						<time>2023-01-18T00:13:45Z</time>
					</trkpt>
					<trkpt lat="47.844160" lon="6.789270">
						<ele>923</ele>
						<time>2023-01-18T00:13:52Z</time>
					</trkpt>
					<trkpt lat="47.844230" lon="6.789340">
						<ele>924</ele>
						<time>2023-01-18T00:13:54Z</time>
					</trkpt>
					<trkpt lat="47.844320" lon="6.789380">
						<ele>924</ele>
						<time>2023-01-18T00:13:56Z</time>
					</trkpt>
					<trkpt lat="47.844440" lon="6.789360">
						<ele>924</ele>
						<time>2023-01-18T00:13:58Z</time>
					</trkpt>
					<trkpt lat="47.844520" lon="6.789260">
						<ele>922</ele>
						<time>2023-01-18T00:14:00Z</time>
					</trkpt>
					<trkpt lat="47.844630" lon="6.788910">
						<ele>919</ele>
						<time>2023-01-18T00:14:04Z</time>
					</trkpt>
					<trkpt lat="47.844750" lon="6.788740">
						<ele>918</ele>
						<time>2023-01-18T00:14:07Z</time>
					</trkpt>
					<trkpt lat="47.845150" lon="6.788310">
						<ele>915</ele>
						<time>2023-01-18T00:14:16Z</time>
					</trkpt>
					<trkpt lat="47.845250" lon="6.788230">
						<ele>915</ele>
						<time>2023-01-18T00:14:18Z</time>
					</trkpt>
					<trkpt lat="47.845370" lon="6.788160">
						<ele>916</ele>
						<time>2023-01-18T00:14:20Z</time>
					</trkpt>
					<trkpt lat="47.845520" lon="6.788160">
						<ele>916</ele>
						<time>2023-01-18T00:14:23Z</time>
					</trkpt>
					<trkpt lat="47.845820" lon="6.788340">
						<ele>915</ele>
						<time>2023-01-18T00:14:29Z</time>
					</trkpt>
					<trkpt lat="47.845910" lon="6.788370">
						<ele>914</ele>
						<time>2023-01-18T00:14:30Z</time>
					</trkpt>
					<trkpt lat="47.846250" lon="6.788420">
						<ele>911</ele>
						<time>2023-01-18T00:14:36Z</time>
					</trkpt>
					<trkpt lat="47.846620" lon="6.788370">
						<ele>910</ele>
						<time>2023-01-18T00:14:43Z</time>
					</trkpt>
					<trkpt lat="47.846830" lon="6.788280">
						<ele>908</ele>
						<time>2023-01-18T00:14:47Z</time>
					</trkpt>
					<trkpt lat="47.846950" lon="6.788210">
						<ele>908</ele>
						<time>2023-01-18T00:14:49Z</time>
					</trkpt>
					<trkpt lat="47.847300" lon="6.787900">
						<ele>908</ele>
						<time>2023-01-18T00:14:56Z</time>
					</trkpt>
					<trkpt lat="47.847420" lon="6.787760">
						<ele>908</ele>
						<time>2023-01-18T00:14:59Z</time>
					</trkpt>
					<trkpt lat="47.847510" lon="6.787620">
						<ele>910</ele>
						<time>2023-01-18T00:15:01Z</time>
					</trkpt>
					<trkpt lat="47.848220" lon="6.786280">
						<ele>901</ele>
						<time>2023-01-18T00:15:22Z</time>
					</trkpt>
					<trkpt lat="47.848280" lon="6.786190">
						<ele>901</ele>
						<time>2023-01-18T00:15:23Z</time>
					</trkpt>
					<trkpt lat="47.848430" lon="6.786060">
						<ele>899</ele>
						<time>2023-01-18T00:15:26Z</time>
					</trkpt>
					<trkpt lat="47.848610" lon="6.785980">
						<ele>898</ele>
						<time>2023-01-18T00:15:30Z</time>
					</trkpt>
					<trkpt lat="47.848790" lon="6.785970">
						<ele>896</ele>
						<time>2023-01-18T00:15:33Z</time>
					</trkpt>
					<trkpt lat="47.849030" lon="6.786010">
						<ele>893</ele>
						<time>2023-01-18T00:15:37Z</time>
					</trkpt>
					<trkpt lat="47.849130" lon="6.786010">
						<ele>892</ele>
						<time>2023-01-18T00:15:39Z</time>
					</trkpt>
					<trkpt lat="47.849190" lon="6.785970">
						<ele>892</ele>
						<time>2023-01-18T00:15:40Z</time>
					</trkpt>
					<trkpt lat="47.849330" lon="6.785760">
						<ele>892</ele>
						<time>2023-01-18T00:15:44Z</time>
					</trkpt>
					<trkpt lat="47.849410" lon="6.785600">
						<ele>891</ele>
						<time>2023-01-18T00:15:46Z</time>
					</trkpt>
					<trkpt lat="47.849460" lon="6.785420">
						<ele>891</ele>
						<time>2023-01-18T00:15:48Z</time>
					</trkpt>
					<trkpt lat="47.849600" lon="6.784650">
						<ele>892</ele>
						<time>2023-01-18T00:15:58Z</time>
					</trkpt>
					<trkpt lat="47.849640" lon="6.784310">
						<ele>892</ele>
						<time>2023-01-18T00:16:02Z</time>
					</trkpt>
					<trkpt lat="47.849600" lon="6.784090">
						<ele>892</ele>
						<time>2023-01-18T00:16:05Z</time>
					</trkpt>
					<trkpt lat="47.849560" lon="6.783960">
						<ele>891</ele>
						<time>2023-01-18T00:16:07Z</time>
					</trkpt>
					<trkpt lat="47.848910" lon="6.782480">
						<ele>881</ele>
						<time>2023-01-18T00:16:28Z</time>
					</trkpt>
					<trkpt lat="47.848730" lon="6.782000">
						<ele>878</ele>
						<time>2023-01-18T00:16:34Z</time>
					</trkpt>
					<trkpt lat="47.848500" lon="6.781240">
						<ele>875</ele>
						<time>2023-01-18T00:16:44Z</time>
					</trkpt>
					<trkpt lat="47.848450" lon="6.781000">
						<ele>875</ele>
						<time>2023-01-18T00:16:47Z</time>
					</trkpt>
					<trkpt lat="47.848370" lon="6.780400">
						<ele>876</ele>
						<time>2023-01-18T00:16:54Z</time>
					</trkpt>
					<trkpt lat="47.848250" lon="6.779900">
						<ele>876</ele>
						<time>2023-01-18T00:17:01Z</time>
					</trkpt>
					<trkpt lat="47.848190" lon="6.779700">
						<ele>877</ele>
						<time>2023-01-18T00:17:03Z</time>
					</trkpt>
					<trkpt lat="47.848090" lon="6.779500">
						<ele>876</ele>
						<time>2023-01-18T00:17:06Z</time>
					</trkpt>
					<trkpt lat="47.847760" lon="6.778940">
						<ele>873</ele>
						<time>2023-01-18T00:17:15Z</time>
					</trkpt>
					<trkpt lat="47.847660" lon="6.778630">
						<ele>873</ele>
						<time>2023-01-18T00:17:19Z</time>
					</trkpt>
					<trkpt lat="47.847540" lon="6.778060">
						<ele>874</ele>
						<time>2023-01-18T00:17:27Z</time>
					</trkpt>
					<trkpt lat="47.847470" lon="6.777370">
						<ele>879</ele>
						<time>2023-01-18T00:17:35Z</time>
					</trkpt>
					<trkpt lat="47.847410" lon="6.777160">
						<ele>880</ele>
						<time>2023-01-18T00:17:38Z</time>
					</trkpt>
					<trkpt lat="47.847040" lon="6.776430">
						<ele>878</ele>
						<time>2023-01-18T00:17:49Z</time>
					</trkpt>
					<trkpt lat="47.846020" lon="6.773720">
						<ele>872</ele>
						<time>2023-01-18T00:18:26Z</time>
					</trkpt>
					<trkpt lat="47.845660" lon="6.772600">
						<ele>872</ele>
						<time>2023-01-18T00:18:40Z</time>
					</trkpt>
					<trkpt lat="47.845510" lon="6.772250">
						<ele>873</ele>
						<time>2023-01-18T00:18:45Z</time>
					</trkpt>
					<trkpt lat="47.845120" lon="6.771780">
						<ele>871</ele>
						<time>2023-01-18T00:18:54Z</time>
					</trkpt>
					<trkpt lat="47.844290" lon="6.770880">
						<ele>867</ele>
						<time>2023-01-18T00:19:13Z</time>
					</trkpt>
					<trkpt lat="47.843190" lon="6.769110">
						<ele>853</ele>
						<time>2023-01-18T00:19:41Z</time>
					</trkpt>
					<trkpt lat="47.843020" lon="6.768790">
						<ele>846</ele>
						<time>2023-01-18T00:19:46Z</time>
					</trkpt>
					<trkpt lat="47.842970" lon="6.768570">
						<ele>845</ele>
						<time>2023-01-18T00:19:49Z</time>
					</trkpt>
					<trkpt lat="47.842940" lon="6.768410">
						<ele>845</ele>
						<time>2023-01-18T00:19:51Z</time>
					</trkpt>
					<trkpt lat="47.842930" lon="6.768080">
						<ele>841</ele>
						<time>2023-01-18T00:19:55Z</time>
					</trkpt>
					<trkpt lat="47.842960" lon="6.767960">
						<ele>840</ele>
						<time>2023-01-18T00:19:57Z</time>
					</trkpt>
					<trkpt lat="47.843000" lon="6.767860">
						<ele>840</ele>
						<time>2023-01-18T00:19:58Z</time>
					</trkpt>
					<trkpt lat="47.843090" lon="6.767740">
						<ele>841</ele>
						<time>2023-01-18T00:20:00Z</time>
					</trkpt>
					<trkpt lat="47.843410" lon="6.767580">
						<ele>849</ele>
						<time>2023-01-18T00:20:06Z</time>
					</trkpt>
					<trkpt lat="47.843490" lon="6.767510">
						<ele>849</ele>
						<time>2023-01-18T00:20:08Z</time>
					</trkpt>
					<trkpt lat="47.843690" lon="6.767280">
						<ele>847</ele>
						<time>2023-01-18T00:20:12Z</time>
					</trkpt>
					<trkpt lat="47.843760" lon="6.767170">
						<ele>846</ele>
						<time>2023-01-18T00:20:14Z</time>
					</trkpt>
					<trkpt lat="47.843960" lon="6.766780">
						<ele>841</ele>
						<time>2023-01-18T00:20:20Z</time>
					</trkpt>
					<trkpt lat="47.844120" lon="6.766690">
						<ele>843</ele>
						<time>2023-01-18T00:20:23Z</time>
					</trkpt>
					<trkpt lat="47.844340" lon="6.766450">
						<ele>840</ele>
						<time>2023-01-18T00:20:28Z</time>
					</trkpt>
					<trkpt lat="47.844530" lon="6.766310">
						<ele>840</ele>
						<time>2023-01-18T00:20:32Z</time>
					</trkpt>
					<trkpt lat="47.844930" lon="6.766100">
						<ele>844</ele>
						<time>2023-01-18T00:20:39Z</time>
					</trkpt>
					<trkpt lat="47.845060" lon="6.765960">
						<ele>844</ele>
						<time>2023-01-18T00:20:42Z</time>
					</trkpt>
					<trkpt lat="47.845180" lon="6.765770">
						<ele>843</ele>
						<time>2023-01-18T00:20:45Z</time>
					</trkpt>
					<trkpt lat="47.845430" lon="6.764700">
						<ele>833</ele>
						<time>2023-01-18T00:20:59Z</time>
					</trkpt>
					<trkpt lat="47.845500" lon="6.764490">
						<ele>833</ele>
						<time>2023-01-18T00:21:01Z</time>
					</trkpt>
					<trkpt lat="47.845610" lon="6.764270">
						<ele>834</ele>
						<time>2023-01-18T00:21:05Z</time>
					</trkpt>
					<trkpt lat="47.845900" lon="6.763890">
						<ele>841</ele>
						<time>2023-01-18T00:21:12Z</time>
					</trkpt>
					<trkpt lat="47.845980" lon="6.763640">
						<ele>840</ele>
						<time>2023-01-18T00:21:15Z</time>
					</trkpt>
					<trkpt lat="47.846120" lon="6.762660">
						<ele>835</ele>
						<time>2023-01-18T00:21:27Z</time>
					</trkpt>
					<trkpt lat="47.846140" lon="6.762360">
						<ele>836</ele>
						<time>2023-01-18T00:21:30Z</time>
					</trkpt>
					<trkpt lat="47.846120" lon="6.762010">
						<ele>838</ele>
						<time>2023-01-18T00:21:35Z</time>
					</trkpt>
					<trkpt lat="47.845980" lon="6.761530">
						<ele>836</ele>
						<time>2023-01-18T00:21:41Z</time>
					</trkpt>
					<trkpt lat="47.845730" lon="6.761070">
						<ele>833</ele>
						<time>2023-01-18T00:21:48Z</time>
					</trkpt>
					<trkpt lat="47.845390" lon="6.760090">
						<ele>831</ele>
						<time>2023-01-18T00:22:01Z</time>
					</trkpt>
					<trkpt lat="47.845280" lon="6.759570">
						<ele>828</ele>
						<time>2023-01-18T00:22:08Z</time>
					</trkpt>
					<trkpt lat="47.845310" lon="6.759230">
						<ele>830</ele>
						<time>2023-01-18T00:22:12Z</time>
					</trkpt>
					<trkpt lat="47.845390" lon="6.758850">
						<ele>829</ele>
						<time>2023-01-18T00:22:16Z</time>
					</trkpt>
					<trkpt lat="47.845610" lon="6.758390">
						<ele>831</ele>
						<time>2023-01-18T00:22:23Z</time>
					</trkpt>
					<trkpt lat="47.846180" lon="6.757310">
						<ele>838</ele>
						<time>2023-01-18T00:22:40Z</time>
					</trkpt>
					<trkpt lat="47.846210" lon="6.757180">
						<ele>839</ele>
						<time>2023-01-18T00:22:41Z</time>
					</trkpt>
					<trkpt lat="47.846220" lon="6.756930">
						<ele>837</ele>
						<time>2023-01-18T00:22:44Z</time>
					</trkpt>
					<trkpt lat="47.846160" lon="6.756540">
						<ele>834</ele>
						<time>2023-01-18T00:22:49Z</time>
					</trkpt>
					<trkpt lat="47.846110" lon="6.756040">
						<ele>831</ele>
						<time>2023-01-18T00:22:55Z</time>
					</trkpt>
					<trkpt lat="47.846100" lon="6.755520">
						<ele>829</ele>
						<time>2023-01-18T00:23:01Z</time>
					</trkpt>
					<trkpt lat="47.846010" lon="6.754980">
						<ele>824</ele>
						<time>2023-01-18T00:23:08Z</time>
					</trkpt>
					<trkpt lat="47.845950" lon="6.754300">
						<ele>817</ele>
						<time>2023-01-18T00:23:16Z</time>
					</trkpt>
					<trkpt lat="47.845970" lon="6.754070">
						<ele>815</ele>
						<time>2023-01-18T00:23:19Z</time>
					</trkpt>
					<trkpt lat="47.846010" lon="6.753850">
						<ele>814</ele>
						<time>2023-01-18T00:23:22Z</time>
					</trkpt>
					<trkpt lat="47.846070" lon="6.753700">
						<ele>814</ele>
						<time>2023-01-18T00:23:24Z</time>
					</trkpt>
					<trkpt lat="47.846260" lon="6.753420">
						<ele>815</ele>
						<time>2023-01-18T00:23:28Z</time>
					</trkpt>
					<trkpt lat="47.846480" lon="6.753270">
						<ele>815</ele>
						<time>2023-01-18T00:23:33Z</time>
					</trkpt>
					<trkpt lat="47.846920" lon="6.753060">
						<ele>814</ele>
						<time>2023-01-18T00:23:41Z</time>
					</trkpt>
					<trkpt lat="47.847050" lon="6.753010">
						<ele>813</ele>
						<time>2023-01-18T00:23:43Z</time>
					</trkpt>
					<trkpt lat="47.847180" lon="6.752990">
						<ele>813</ele>
						<time>2023-01-18T00:23:46Z</time>
					</trkpt>
					<trkpt lat="47.847440" lon="6.753040">
						<ele>815</ele>
						<time>2023-01-18T00:23:50Z</time>
					</trkpt>
					<trkpt lat="47.847750" lon="6.753180">
						<ele>818</ele>
						<time>2023-01-18T00:23:56Z</time>
					</trkpt>
					<trkpt lat="47.847860" lon="6.753200">
						<ele>818</ele>
						<time>2023-01-18T00:23:58Z</time>
					</trkpt>
					<trkpt lat="47.847990" lon="6.753190">
						<ele>818</ele>
						<time>2023-01-18T00:24:00Z</time>
					</trkpt>
					<trkpt lat="47.848200" lon="6.753090">
						<ele>815</ele>
						<time>2023-01-18T00:24:04Z</time>
					</trkpt>
					<trkpt lat="47.848680" lon="6.752760">
						<ele>808</ele>
						<time>2023-01-18T00:24:14Z</time>
					</trkpt>
					<trkpt lat="47.848810" lon="6.752720">
						<ele>808</ele>
						<time>2023-01-18T00:24:16Z</time>
					</trkpt>
					<trkpt lat="47.849920" lon="6.752640">
						<ele>799</ele>
						<time>2023-01-18T00:24:36Z</time>
					</trkpt>
					<trkpt lat="47.850080" lon="6.752680">
						<ele>797</ele>
						<time>2023-01-18T00:24:39Z</time>
					</trkpt>
					<trkpt lat="47.850240" lon="6.752770">
						<ele>796</ele>
						<time>2023-01-18T00:24:42Z</time>
					</trkpt>
					<trkpt lat="47.850360" lon="6.752870">
						<ele>795</ele>
						<time>2023-01-18T00:24:44Z</time>
					</trkpt>
					<trkpt lat="47.850450" lon="6.752980">
						<ele>795</ele>
						<time>2023-01-18T00:24:46Z</time>
					</trkpt>
					<trkpt lat="47.850630" lon="6.753310">
						<ele>795</ele>
						<time>2023-01-18T00:24:51Z</time>
					</trkpt>
					<trkpt lat="47.850840" lon="6.754000">
						<ele>792</ele>
						<time>2023-01-18T00:25:00Z</time>
					</trkpt>
					<trkpt lat="47.850920" lon="6.754530">
						<ele>790</ele>
						<time>2023-01-18T00:25:07Z</time>
					</trkpt>
					<trkpt lat="47.850910" lon="6.754890">
						<ele>791</ele>
						<time>2023-01-18T00:25:11Z</time>
					</trkpt>
					<trkpt lat="47.850850" lon="6.755640">
						<ele>790</ele>
						<time>2023-01-18T00:25:20Z</time>
					</trkpt>
					<trkpt lat="47.850860" lon="6.756050">
						<ele>790</ele>
						<time>2023-01-18T00:25:25Z</time>
					</trkpt>
					<trkpt lat="47.850910" lon="6.756250">
						<ele>789</ele>
						<time>2023-01-18T00:25:28Z</time>
					</trkpt>
					<trkpt lat="47.851220" lon="6.757440">
						<ele>788</ele>
						<time>2023-01-18T00:25:43Z</time>
					</trkpt>
					<trkpt lat="47.851950" lon="6.759340">
						<ele>779</ele>
						<time>2023-01-18T00:26:09Z</time>
					</trkpt>
					<trkpt lat="47.852060" lon="6.759510">
						<ele>780</ele>
						<time>2023-01-18T00:26:12Z</time>
					</trkpt>
					<trkpt lat="47.852130" lon="6.759570">
						<ele>781</ele>
						<time>2023-01-18T00:26:13Z</time>
					</trkpt>
					<trkpt lat="47.853440" lon="6.760050">
						<ele>771</ele>
						<time>2023-01-18T00:26:37Z</time>
					</trkpt>
					<trkpt lat="47.853840" lon="6.760140">
						<ele>770</ele>
						<time>2023-01-18T00:26:45Z</time>
					</trkpt>
					<trkpt lat="47.854490" lon="6.760360">
						<ele>773</ele>
						<time>2023-01-18T00:26:56Z</time>
					</trkpt>
					<trkpt lat="47.854770" lon="6.760340">
						<ele>771</ele>
						<time>2023-01-18T00:27:01Z</time>
					</trkpt>
					<trkpt lat="47.855040" lon="6.760230">
						<ele>766</ele>
						<time>2023-01-18T00:27:06Z</time>
					</trkpt>
					<trkpt lat="47.855110" lon="6.760220">
						<ele>766</ele>
						<time>2023-01-18T00:27:08Z</time>
					</trkpt>
					<trkpt lat="47.855350" lon="6.760270">
						<ele>769</ele>
						<time>2023-01-18T00:27:12Z</time>
					</trkpt>
					<trkpt lat="47.855470" lon="6.760240">
						<ele>769</ele>
						<time>2023-01-18T00:27:14Z</time>
					</trkpt>
					<trkpt lat="47.855640" lon="6.760080">
						<ele>765</ele>
						<time>2023-01-18T00:27:18Z</time>
					</trkpt>
					<trkpt lat="47.855820" lon="6.759760">
						<ele>758</ele>
						<time>2023-01-18T00:27:23Z</time>
					</trkpt>
					<trkpt lat="47.855870" lon="6.759680">
						<ele>757</ele>
						<time>2023-01-18T00:27:24Z</time>
					</trkpt>
					<trkpt lat="47.855940" lon="6.759620">
						<ele>756</ele>
						<time>2023-01-18T00:27:25Z</time>
					</trkpt>
					<trkpt lat="47.856080" lon="6.759570">
						<ele>755</ele>
						<time>2023-01-18T00:27:28Z</time>
					</trkpt>
					<trkpt lat="47.857050" lon="6.759340">
						<ele>759</ele>
						<time>2023-01-18T00:27:45Z</time>
					</trkpt>
					<trkpt lat="47.857220" lon="6.759220">
						<ele>760</ele>
						<time>2023-01-18T00:27:49Z</time>
					</trkpt>
					<trkpt lat="47.857350" lon="6.759030">
						<ele>759</ele>
						<time>2023-01-18T00:27:52Z</time>
					</trkpt>
					<trkpt lat="47.857400" lon="6.758900">
						<ele>757</ele>
						<time>2023-01-18T00:27:54Z</time>
					</trkpt>
					<trkpt lat="47.857440" lon="6.758740">
						<ele>754</ele>
						<time>2023-01-18T00:27:56Z</time>
					</trkpt>
					<trkpt lat="47.857450" lon="6.758100">
						<ele>742</ele>
						<time>2023-01-18T00:28:03Z</time>
					</trkpt>
					<trkpt lat="47.857490" lon="6.757790">
						<ele>739</ele>
						<time>2023-01-18T00:28:07Z</time>
					</trkpt>
					<trkpt lat="47.857560" lon="6.757490">
						<ele>738</ele>
						<time>2023-01-18T00:28:11Z</time>
					</trkpt>
					<trkpt lat="47.857680" lon="6.757150">
						<ele>741</ele>
						<time>2023-01-18T00:28:16Z</time>
					</trkpt>
					<trkpt lat="47.857700" lon="6.756960">
						<ele>740</ele>
						<time>2023-01-18T00:28:18Z</time>
					</trkpt>
					<trkpt lat="47.857690" lon="6.756780">
						<ele>739</ele>
						<time>2023-01-18T00:28:20Z</time>
					</trkpt>
					<trkpt lat="47.857610" lon="6.756470">
						<ele>734</ele>
						<time>2023-01-18T00:28:24Z</time>
					</trkpt>
					<trkpt lat="47.857590" lon="6.756270">
						<ele>732</ele>
						<time>2023-01-18T00:28:26Z</time>
					</trkpt>
					<trkpt lat="47.857670" lon="6.754390">
						<ele>725</ele>
						<time>2023-01-18T00:28:49Z</time>
					</trkpt>
					<trkpt lat="47.857660" lon="6.754220">
						<ele>724</ele>
						<time>2023-01-18T00:28:51Z</time>
					</trkpt>
					<trkpt lat="47.857530" lon="6.753590">
						<ele>715</ele>
						<time>2023-01-18T00:28:59Z</time>
					</trkpt>
					<trkpt lat="47.857520" lon="6.753470">
						<ele>714</ele>
						<time>2023-01-18T00:29:00Z</time>
					</trkpt>
					<trkpt lat="47.857530" lon="6.753200">
						<ele>712</ele>
						<time>2023-01-18T00:29:04Z</time>
					</trkpt>
					<trkpt lat="47.857590" lon="6.752990">
						<ele>711</ele>
						<time>2023-01-18T00:29:06Z</time>
					</trkpt>
					<trkpt lat="47.857660" lon="6.752890">
						<ele>712</ele>
						<time>2023-01-18T00:29:08Z</time>
					</trkpt>
					<trkpt lat="47.857860" lon="6.752660">
						<ele>715</ele>
						<time>2023-01-18T00:29:12Z</time>
					</trkpt>
					<trkpt lat="47.857980" lon="6.752520">
						<ele>716</ele>
						<time>2023-01-18T00:29:15Z</time>
					</trkpt>
					<trkpt lat="47.858100" lon="6.752150">
						<ele>716</ele>
						<time>2023-01-18T00:29:20Z</time>
					</trkpt>
					<trkpt lat="47.858280" lon="6.751880">
						<ele>718</ele>
						<time>2023-01-18T00:29:25Z</time>
					</trkpt>
					<trkpt lat="47.858340" lon="6.751740">
						<ele>717</ele>
						<time>2023-01-18T00:29:27Z</time>
					</trkpt>
					<trkpt lat="47.858340" lon="6.751650">
						<ele>716</ele>
						<time>2023-01-18T00:29:28Z</time>
					</trkpt>
					<trkpt lat="47.858320" lon="6.751530">
						<ele>718</ele>
						<time>2023-01-18T00:29:29Z</time>
					</trkpt>
					<trkpt lat="47.858230" lon="6.751370">
						<ele>718</ele>
						<time>2023-01-18T00:29:32Z</time>
					</trkpt>
					<trkpt lat="47.858080" lon="6.751200">
						<ele>716</ele>
						<time>2023-01-18T00:29:35Z</time>
					</trkpt>
					<trkpt lat="47.857910" lon="6.751090">
						<ele>712</ele>
						<time>2023-01-18T00:29:38Z</time>
					</trkpt>
					<trkpt lat="47.857870" lon="6.751030">
						<ele>712</ele>
						<time>2023-01-18T00:29:39Z</time>
					</trkpt>
					<trkpt lat="47.857820" lon="6.750870">
						<ele>713</ele>
						<time>2023-01-18T00:29:41Z</time>
					</trkpt>
					<trkpt lat="47.857830" lon="6.750590">
						<ele>717</ele>
						<time>2023-01-18T00:29:45Z</time>
					</trkpt>
					<trkpt lat="47.857810" lon="6.750480">
						<ele>717</ele>
						<time>2023-01-18T00:29:46Z</time>
					</trkpt>
					<trkpt lat="47.857770" lon="6.750320">
						<ele>718</ele>
						<time>2023-01-18T00:29:48Z</time>
					</trkpt>
					<trkpt lat="47.857660" lon="6.750180">
						<ele>716</ele>
						<time>2023-01-18T00:29:51Z</time>
					</trkpt>
					<trkpt lat="47.857450" lon="6.750010">
						<ele>711</ele>
						<time>2023-01-18T00:29:55Z</time>
					</trkpt>
					<trkpt lat="47.857380" lon="6.749870">
						<ele>707</ele>
						<time>2023-01-18T00:29:57Z</time>
					</trkpt>
					<trkpt lat="47.857330" lon="6.749650">
						<ele>704</ele>
						<time>2023-01-18T00:30:00Z</time>
					</trkpt>
					<trkpt lat="47.857340" lon="6.749490">
						<ele>703</ele>
						<time>2023-01-18T00:30:02Z</time>
					</trkpt>
					<trkpt lat="47.857410" lon="6.749250">
						<ele>704</ele>
						<time>2023-01-18T00:30:05Z</time>
					</trkpt>
					<trkpt lat="47.857640" lon="6.748780">
						<ele>700</ele>
						<time>2023-01-18T00:30:12Z</time>
					</trkpt>
					<trkpt lat="47.857750" lon="6.748670">
						<ele>700</ele>
						<time>2023-01-18T00:30:14Z</time>
					</trkpt>
					<trkpt lat="47.858010" lon="6.748620">
						<ele>706</ele>
						<time>2023-01-18T00:30:19Z</time>
					</trkpt>
					<trkpt lat="47.858080" lon="6.748570">
						<ele>707</ele>
						<time>2023-01-18T00:30:20Z</time>
					</trkpt>
					<trkpt lat="47.858160" lon="6.748420">
						<ele>706</ele>
						<time>2023-01-18T00:30:23Z</time>
					</trkpt>
					<trkpt lat="47.858190" lon="6.748330">
						<ele>705</ele>
						<time>2023-01-18T00:30:24Z</time>
					</trkpt>
					<trkpt lat="47.858230" lon="6.748100">
						<ele>700</ele>
						<time>2023-01-18T00:30:27Z</time>
					</trkpt>
					<trkpt lat="47.858200" lon="6.747610">
						<ele>688</ele>
						<time>2023-01-18T00:30:32Z</time>
					</trkpt>
					<trkpt lat="47.858220" lon="6.747470">
						<ele>686</ele>
						<time>2023-01-18T00:30:34Z</time>
					</trkpt>
					<trkpt lat="47.858250" lon="6.747410">
						<ele>685</ele>
						<time>2023-01-18T00:30:35Z</time>
					</trkpt>
					<trkpt lat="47.858370" lon="6.747340">
						<ele>686</ele>
						<time>2023-01-18T00:30:37Z</time>
					</trkpt>
					<trkpt lat="47.858770" lon="6.747340">
						<ele>687</ele>
						<time>2023-01-18T00:30:44Z</time>
					</trkpt>
					<trkpt lat="47.858890" lon="6.747310">
						<ele>687</ele>
						<time>2023-01-18T00:30:47Z</time>
					</trkpt>
					<trkpt lat="47.859240" lon="6.747160">
						<ele>687</ele>
						<time>2023-01-18T00:30:53Z</time>
					</trkpt>
					<trkpt lat="47.859440" lon="6.747150">
						<ele>687</ele>
						<time>2023-01-18T00:30:57Z</time>
					</trkpt>
					<trkpt lat="47.859770" lon="6.747220">
						<ele>686</ele>
						<time>2023-01-18T00:31:03Z</time>
					</trkpt>
					<trkpt lat="47.859920" lon="6.747220">
						<ele>685</ele>
						<time>2023-01-18T00:31:05Z</time>
					</trkpt>
					<trkpt lat="47.859960" lon="6.747200">
						<ele>685</ele>
						<time>2023-01-18T00:31:06Z</time>
					</trkpt>
					<trkpt lat="47.860000" lon="6.747130">
						<ele>686</ele>
						<time>2023-01-18T00:31:07Z</time>
					</trkpt>
					<trkpt lat="47.860010" lon="6.747080">
						<ele>687</ele>
						<time>2023-01-18T00:31:08Z</time>
					</trkpt>
					<trkpt lat="47.860350" lon="6.747030">
						<ele>685</ele>
						<time>2023-01-18T00:31:14Z</time>
					</trkpt>
					<trkpt lat="47.860590" lon="6.746970">
						<ele>684</ele>
						<time>2023-01-18T00:31:18Z</time>
					</trkpt>
					<trkpt lat="47.860730" lon="6.746910">
						<ele>685</ele>
						<time>2023-01-18T00:31:21Z</time>
					</trkpt>
					<trkpt lat="47.860830" lon="6.746850">
						<ele>686</ele>
						<time>2023-01-18T00:31:23Z</time>
					</trkpt>
					<trkpt lat="47.860970" lon="6.746720">
						<ele>684</ele>
						<time>2023-01-18T00:31:26Z</time>
					</trkpt>
					<trkpt lat="47.861090" lon="6.746520">
						<ele>683</ele>
						<time>2023-01-18T00:31:29Z</time>
					</trkpt>
					<trkpt lat="47.861540" lon="6.745570">
						<ele>675</ele>
						<time>2023-01-18T00:31:43Z</time>
					</trkpt>
					<trkpt lat="47.861650" lon="6.745100">
						<ele>674</ele>
						<time>2023-01-18T00:31:49Z</time>
					</trkpt>
					<trkpt lat="47.861850" lon="6.744040">
						<ele>674</ele>
						<time>2023-01-18T00:32:02Z</time>
					</trkpt>
					<trkpt lat="47.861930" lon="6.743360">
						<ele>678</ele>
						<time>2023-01-18T00:32:10Z</time>
					</trkpt>
					<trkpt lat="47.861950" lon="6.743250">
						<ele>678</ele>
						<time>2023-01-18T00:32:11Z</time>
					</trkpt>
					<trkpt lat="47.861990" lon="6.743190">
						<ele>678</ele>
						<time>2023-01-18T00:32:12Z</time>
					</trkpt>
					<trkpt lat="47.862060" lon="6.743180">
						<ele>677</ele>
						<time>2023-01-18T00:32:14Z</time>
					</trkpt>
					<trkpt lat="47.862100" lon="6.743210">
						<ele>676</ele>
						<time>2023-01-18T00:32:14Z</time>
					</trkpt>
					<trkpt lat="47.862120" lon="6.743280">
						<ele>675</ele>
						<time>2023-01-18T00:32:15Z</time>
					</trkpt>
					<trkpt lat="47.862130" lon="6.743390">
						<ele>674</ele>
						<time>2023-01-18T00:32:17Z</time>
					</trkpt>
					<trkpt lat="47.862010" lon="6.744530">
						<ele>664</ele>
						<time>2023-01-18T00:32:30Z</time>
					</trkpt>
					<trkpt lat="47.861990" lon="6.745840">
						<ele>653</ele>
						<time>2023-01-18T00:32:46Z</time>
					</trkpt>
					<trkpt lat="47.861970" lon="6.746000">
						<ele>651</ele>
						<time>2023-01-18T00:32:48Z</time>
					</trkpt>
					<trkpt lat="47.861920" lon="6.746220">
						<ele>650</ele>
						<time>2023-01-18T00:32:51Z</time>
					</trkpt>
					<trkpt lat="47.861620" lon="6.747230">
						<ele>642</ele>
						<time>2023-01-18T00:33:04Z</time>
					</trkpt>
					<trkpt lat="47.861530" lon="6.747440">
						<ele>640</ele>
						<time>2023-01-18T00:33:07Z</time>
					</trkpt>
					<trkpt lat="47.861400" lon="6.747640">
						<ele>640</ele>
						<time>2023-01-18T00:33:10Z</time>
					</trkpt>
					<trkpt lat="47.860980" lon="6.748290">
						<ele>641</ele>
						<time>2023-01-18T00:33:21Z</time>
					</trkpt>
					<trkpt lat="47.860900" lon="6.748500">
						<ele>642</ele>
						<time>2023-01-18T00:33:24Z</time>
					</trkpt>
					<trkpt lat="47.860880" lon="6.748610">
						<ele>642</ele>
						<time>2023-01-18T00:33:25Z</time>
					</trkpt>
					<trkpt lat="47.860870" lon="6.748880">
						<ele>639</ele>
						<time>2023-01-18T00:33:29Z</time>
					</trkpt>
					<trkpt lat="47.860940" lon="6.749240">
						<ele>633</ele>
						<time>2023-01-18T00:33:33Z</time>
					</trkpt>
					<trkpt lat="47.861010" lon="6.749420">
						<ele>630</ele>
						<time>2023-01-18T00:33:35Z</time>
					</trkpt>
					<trkpt lat="47.861290" lon="6.749870">
						<ele>620</ele>
						<time>2023-01-18T00:33:43Z</time>
					</trkpt>
					<trkpt lat="47.861410" lon="6.750210">
						<ele>616</ele>
						<time>2023-01-18T00:33:47Z</time>
					</trkpt>
					<trkpt lat="47.861420" lon="6.750610">
						<ele>618</ele>
						<time>2023-01-18T00:33:52Z</time>
					</trkpt>
					<trkpt lat="47.861400" lon="6.750950">
						<ele>621</ele>
						<time>2023-01-18T00:33:56Z</time>
					</trkpt>
					<trkpt lat="47.861350" lon="6.751540">
						<ele>626</ele>
						<time>2023-01-18T00:34:03Z</time>
					</trkpt>
					<trkpt lat="47.861380" lon="6.751780">
						<ele>626</ele>
						<time>2023-01-18T00:34:06Z</time>
					</trkpt>
					<trkpt lat="47.861640" lon="6.752520">
						<ele>624</ele>
						<time>2023-01-18T00:34:16Z</time>
					</trkpt>
					<trkpt lat="47.861800" lon="6.752860">
						<ele>624</ele>
						<time>2023-01-18T00:34:21Z</time>
					</trkpt>
					<trkpt lat="47.861880" lon="6.752980">
						<ele>623</ele>
						<time>2023-01-18T00:34:23Z</time>
					</trkpt>
					<trkpt lat="47.862120" lon="6.753240">
						<ele>618</ele>
						<time>2023-01-18T00:34:28Z</time>
					</trkpt>
					<trkpt lat="47.862450" lon="6.753520">
						<ele>608</ele>
						<time>2023-01-18T00:34:35Z</time>
					</trkpt>
					<trkpt lat="47.862880" lon="6.754070">
						<ele>604</ele>
						<time>2023-01-18T00:34:45Z</time>
					</trkpt>
					<trkpt lat="47.863050" lon="6.754200">
						<ele>601</ele>
						<time>2023-01-18T00:34:49Z</time>
					</trkpt>
					<trkpt lat="47.863130" lon="6.754220">
						<ele>599</ele>
						<time>2023-01-18T00:34:50Z</time>
					</trkpt>
					<trkpt lat="47.863500" lon="6.754140">
						<ele>590</ele>
						<time>2023-01-18T00:34:57Z</time>
					</trkpt>
					<trkpt lat="47.863730" lon="6.754150">
						<ele>588</ele>
						<time>2023-01-18T00:35:01Z</time>
					</trkpt>
					<trkpt lat="47.864570" lon="6.754420">
						<ele>580</ele>
						<time>2023-01-18T00:35:16Z</time>
					</trkpt>
					<trkpt lat="47.864790" lon="6.754560">
						<ele>577</ele>
						<time>2023-01-18T00:35:20Z</time>
					</trkpt>
					<trkpt lat="47.864900" lon="6.754660">
						<ele>576</ele>
						<time>2023-01-18T00:35:23Z</time>
					</trkpt>
					<trkpt lat="47.864970" lon="6.754750">
						<ele>575</ele>
						<time>2023-01-18T00:35:24Z</time>
					</trkpt>
					<trkpt lat="47.865000" lon="6.754840">
						<ele>576</ele>
						<time>2023-01-18T00:35:26Z</time>
					</trkpt>
					<trkpt lat="47.865020" lon="6.754930">
						<ele>577</ele>
						<time>2023-01-18T00:35:27Z</time>
					</trkpt>
					<trkpt lat="47.865010" lon="6.755040">
						<ele>578</ele>
						<time>2023-01-18T00:35:28Z</time>
					</trkpt>
					<trkpt lat="47.864950" lon="6.755390">
						<ele>580</ele>
						<time>2023-01-18T00:35:32Z</time>
					</trkpt>
					<trkpt lat="47.864950" lon="6.755650">
						<ele>581</ele>
						<time>2023-01-18T00:35:35Z</time>
					</trkpt>
					<trkpt lat="47.865020" lon="6.755890">
						<ele>580</ele>
						<time>2023-01-18T00:35:39Z</time>
					</trkpt>
					<trkpt lat="47.865230" lon="6.756330">
						<ele>577</ele>
						<time>2023-01-18T00:35:45Z</time>
					</trkpt>
					<trkpt lat="47.865460" lon="6.756720">
						<ele>575</ele>
						<time>2023-01-18T00:35:51Z</time>
					</trkpt>
					<trkpt lat="47.865540" lon="6.756800">
						<ele>574</ele>
						<time>2023-01-18T00:35:53Z</time>
					</trkpt>
					<trkpt lat="47.865610" lon="6.756840">
						<ele>573</ele>
						<time>2023-01-18T00:35:54Z</time>
					</trkpt>
					<trkpt lat="47.865920" lon="6.756930">
						<ele>569</ele>
						<time>2023-01-18T00:36:00Z</time>
					</trkpt>
					<trkpt lat="47.866170" lon="6.757150">
						<ele>569</ele>
						<time>2023-01-18T00:36:05Z</time>
					</trkpt>
					<trkpt lat="47.866310" lon="6.757230">
						<ele>568</ele>
						<time>2023-01-18T00:36:08Z</time>
					</trkpt>
					<trkpt lat="47.866380" lon="6.757230">
						<ele>567</ele>
						<time>2023-01-18T00:36:09Z</time>
					</trkpt>
					<trkpt lat="47.866440" lon="6.757210">
						<ele>567</ele>
						<time>2023-01-18T00:36:10Z</time>
					</trkpt>
					<trkpt lat="47.866550" lon="6.757090">
						<ele>565</ele>
						<time>2023-01-18T00:36:12Z</time>
					</trkpt>
					<trkpt lat="47.866640" lon="6.756880">
						<ele>563</ele>
						<time>2023-01-18T00:36:15Z</time>
					</trkpt>
					<trkpt lat="47.866730" lon="6.756560">
						<ele>560</ele>
						<time>2023-01-18T00:36:20Z</time>
					</trkpt>
					<trkpt lat="47.866750" lon="6.756430">
						<ele>559</ele>
						<time>2023-01-18T00:36:21Z</time>
					</trkpt>
					<trkpt lat="47.866740" lon="6.756170">
						<ele>558</ele>
						<time>2023-01-18T00:36:24Z</time>
					</trkpt>
					<trkpt lat="47.866640" lon="6.755420">
						<ele>555</ele>
						<time>2023-01-18T00:36:33Z</time>
					</trkpt>
					<trkpt lat="47.866640" lon="6.755250">
						<ele>555</ele>
						<time>2023-01-18T00:36:35Z</time>
					</trkpt>
					<trkpt lat="47.866700" lon="6.755020">
						<ele>554</ele>
						<time>2023-01-18T00:36:38Z</time>
					</trkpt>
					<trkpt lat="47.866810" lon="6.754790">
						<ele>553</ele>
						<time>2023-01-18T00:36:42Z</time>
					</trkpt>
					<trkpt lat="47.866960" lon="6.754640">
						<ele>551</ele>
						<time>2023-01-18T00:36:45Z</time>
					</trkpt>
					<trkpt lat="47.867350" lon="6.754490">
						<ele>546</ele>
						<time>2023-01-18T00:36:52Z</time>
					</trkpt>
					<trkpt lat="47.867590" lon="6.754430">
						<ele>544</ele>
						<time>2023-01-18T00:36:56Z</time>
					</trkpt>
					<trkpt lat="47.867840" lon="6.754530">
						<ele>543</ele>
						<time>2023-01-18T00:37:01Z</time>
					</trkpt>
					<trkpt lat="47.868510" lon="6.755060">
						<ele>540</ele>
						<time>2023-01-18T00:37:15Z</time>
					</trkpt>
					<trkpt lat="47.868760" lon="6.755380">
						<ele>539</ele>
						<time>2023-01-18T00:37:20Z</time>
					</trkpt>
					<trkpt lat="47.869030" lon="6.755840">
						<ele>538</ele>
						<time>2023-01-18T00:37:28Z</time>
					</trkpt>
					<trkpt lat="47.869130" lon="6.756050">
						<ele>538</ele>
						<time>2023-01-18T00:37:31Z</time>
					</trkpt>
					<trkpt lat="47.869200" lon="6.756260">
						<ele>537</ele>
						<time>2023-01-18T00:37:34Z</time>
					</trkpt>
					<trkpt lat="47.869420" lon="6.757060">
						<ele>536</ele>
						<time>2023-01-18T00:37:44Z</time>
					</trkpt>
					<trkpt lat="47.869490" lon="6.757210">
						<ele>536</ele>
						<time>2023-01-18T00:37:46Z</time>
					</trkpt>
					<trkpt lat="47.869630" lon="6.757400">
						<ele>535</ele>
						<time>2023-01-18T00:37:49Z</time>
					</trkpt>
					<trkpt lat="47.869740" lon="6.757460">
						<ele>534</ele>
						<time>2023-01-18T00:37:52Z</time>
					</trkpt>
					<trkpt lat="47.869890" lon="6.757500">
						<ele>534</ele>
						<time>2023-01-18T00:37:54Z</time>
					</trkpt>
					<trkpt lat="47.870840" lon="6.757320">
						<ele>529</ele>
						<time>2023-01-18T00:38:11Z</time>
					</trkpt>
					<trkpt lat="47.870980" lon="6.757310">
						<ele>528</ele>
						<time>2023-01-18T00:38:14Z</time>
					</trkpt>
					<trkpt lat="47.871190" lon="6.757350">
						<ele>527</ele>
						<time>2023-01-18T00:38:18Z</time>
					</trkpt>
					<trkpt lat="47.871450" lon="6.757420">
						<ele>525</ele>
						<time>2023-01-18T00:38:22Z</time>
					</trkpt>
					<trkpt lat="47.871690" lon="6.757520">
						<ele>524</ele>
						<time>2023-01-18T00:38:27Z</time>
					</trkpt>
					<trkpt lat="47.871890" lon="6.757640">
						<ele>523</ele>
						<time>2023-01-18T00:38:31Z</time>
					</trkpt>
					<trkpt lat="47.872820" lon="6.758430">
						<ele>519</ele>
						<time>2023-01-18T00:38:50Z</time>
					</trkpt>
					<trkpt lat="47.873190" lon="6.758770">
						<ele>518</ele>
						<time>2023-01-18T00:38:57Z</time>
					</trkpt>
					<trkpt lat="47.874160" lon="6.760070">
						<ele>503</ele>
						<time>2023-01-18T00:39:21Z</time>
					</trkpt>
					<trkpt lat="47.874280" lon="6.760280">
						<ele>502</ele>
						<time>2023-01-18T00:39:24Z</time>
					</trkpt>
					<trkpt lat="47.874620" lon="6.761280">
						<ele>497</ele>
						<time>2023-01-18T00:39:37Z</time>
					</trkpt>
					<trkpt lat="47.874790" lon="6.761940">
						<ele>495</ele>
						<time>2023-01-18T00:39:46Z</time>
					</trkpt>
					<trkpt lat="47.874840" lon="6.762160">
						<ele>495</ele>
						<time>2023-01-18T00:39:48Z</time>
					</trkpt>
					<trkpt lat="47.874880" lon="6.762770">
						<ele>495</ele>
						<time>2023-01-18T00:39:56Z</time>
					</trkpt>
					<trkpt lat="47.874960" lon="6.763030">
						<ele>494</ele>
						<time>2023-01-18T00:39:59Z</time>
					</trkpt>
					<trkpt lat="47.875030" lon="6.763180">
						<ele>494</ele>
						<time>2023-01-18T00:40:01Z</time>
					</trkpt>
					<trkpt lat="47.875080" lon="6.763110">
						<ele>494</ele>
						<time>2023-01-18T00:40:03Z</time>
					</trkpt>
					<trkpt lat="47.875010" lon="6.762950">
						<ele>494</ele>
						<time>2023-01-18T00:40:05Z</time>
					</trkpt>
					<trkpt lat="47.874970" lon="6.762800">
						<ele>495</ele>
						<time>2023-01-18T00:40:07Z</time>
					</trkpt>
					<trkpt lat="47.874990" lon="6.762620">
						<ele>495</ele>
						<time>2023-01-18T00:40:09Z</time>
					</trkpt>
					<trkpt lat="47.874990" lon="6.762230">
						<ele>495</ele>
						<time>2023-01-18T00:40:14Z</time>
					</trkpt>
					<trkpt lat="47.875040" lon="6.761710">
						<ele>495</ele>
						<time>2023-01-18T00:40:20Z</time>
					</trkpt>
					<trkpt lat="47.875050" lon="6.761120">
						<ele>496</ele>
						<time>2023-01-18T00:40:27Z</time>
					</trkpt>
					<trkpt lat="47.875110" lon="6.760710">
						<ele>496</ele>
						<time>2023-01-18T00:40:32Z</time>
					</trkpt>
					<trkpt lat="47.875300" lon="6.759820">
						<ele>495</ele>
						<time>2023-01-18T00:40:43Z</time>
					</trkpt>
					<trkpt lat="47.875410" lon="6.759470">
						<ele>495</ele>
						<time>2023-01-18T00:40:48Z</time>
					</trkpt>
					<trkpt lat="47.875510" lon="6.759220">
						<ele>495</ele>
						<time>2023-01-18T00:40:51Z</time>
					</trkpt>
					<trkpt lat="47.876040" lon="6.758120">
						<ele>496</ele>
						<time>2023-01-18T00:41:07Z</time>
					</trkpt>
					<trkpt lat="47.876330" lon="6.757620">
						<ele>496</ele>
						<time>2023-01-18T00:41:15Z</time>
					</trkpt>
					<trkpt lat="47.876860" lon="6.756760">
						<ele>495</ele>
						<time>2023-01-18T00:41:29Z</time>
					</trkpt>
					<trkpt lat="47.876970" lon="6.756610">
						<ele>495</ele>
						<time>2023-01-18T00:41:32Z</time>
					</trkpt>
					<trkpt lat="47.877250" lon="6.756350">
						<ele>493</ele>
						<time>2023-01-18T00:41:38Z</time>
					</trkpt>
					<trkpt lat="47.878930" lon="6.754370">
						<ele>488</ele>
						<time>2023-01-18T00:42:16Z</time>
					</trkpt>
					<trkpt lat="47.879360" lon="6.753810">
						<ele>487</ele>
						<time>2023-01-18T00:42:26Z</time>
					</trkpt>
					<trkpt lat="47.879930" lon="6.753030">
						<ele>487</ele>
						<time>2023-01-18T00:42:40Z</time>
					</trkpt>
					<trkpt lat="47.880440" lon="6.752220">
						<ele>487</ele>
						<time>2023-01-18T00:42:53Z</time>
					</trkpt>
					<trkpt lat="47.880860" lon="6.751480">
						<ele>487</ele>
						<time>2023-01-18T00:43:05Z</time>
					</trkpt>
					<trkpt lat="47.880910" lon="6.751310">
						<ele>487</ele>
						<time>2023-01-18T00:43:07Z</time>
					</trkpt>
					<trkpt lat="47.882190" lon="6.749020">
						<ele>482</ele>
						<time>2023-01-18T00:43:42Z</time>
					</trkpt>
					<trkpt lat="47.883140" lon="6.747420">
						<ele>479</ele>
						<time>2023-01-18T00:44:08Z</time>
					</trkpt>
					<trkpt lat="47.883610" lon="6.746730">
						<ele>479</ele>
						<time>2023-01-18T00:44:20Z</time>
					</trkpt>
					<trkpt lat="47.884010" lon="6.746080">
						<ele>478</ele>
						<time>2023-01-18T00:44:30Z</time>
					</trkpt>
					<trkpt lat="47.884290" lon="6.745670">
						<ele>477</ele>
						<time>2023-01-18T00:44:37Z</time>
					</trkpt>
					<trkpt lat="47.884540" lon="6.745340">
						<ele>476</ele>
						<time>2023-01-18T00:44:43Z</time>
					</trkpt>
					<trkpt lat="47.884540" lon="6.745250">
						<ele>476</ele>
						<time>2023-01-18T00:44:44Z</time>
					</trkpt>
					<trkpt lat="47.884580" lon="6.745140">
						<ele>476</ele>
						<time>2023-01-18T00:44:46Z</time>
					</trkpt>
					<trkpt lat="47.886520" lon="6.742490">
						<ele>475</ele>
						<time>2023-01-18T00:45:32Z</time>
					</trkpt>
					<trkpt lat="47.886810" lon="6.741960">
						<ele>475</ele>
						<time>2023-01-18T00:45:41Z</time>
					</trkpt>
					<trkpt lat="47.886910" lon="6.741940">
						<ele>475</ele>
						<time>2023-01-18T00:45:42Z</time>
					</trkpt>
					<trkpt lat="47.887020" lon="6.741760">
						<ele>474</ele>
						<time>2023-01-18T00:45:45Z</time>
					</trkpt>
					<trkpt lat="47.889380" lon="6.738510">
						<ele>472</ele>
						<time>2023-01-18T00:46:42Z</time>
					</trkpt>
					<trkpt lat="47.889800" lon="6.737990">
						<ele>471</ele>
						<time>2023-01-18T00:46:52Z</time>
					</trkpt>
					<trkpt lat="47.889960" lon="6.737700">
						<ele>471</ele>
						<time>2023-01-18T00:46:57Z</time>
					</trkpt>
					<trkpt lat="47.890230" lon="6.737100">
						<ele>472</ele>
						<time>2023-01-18T00:47:05Z</time>
					</trkpt>
					<trkpt lat="47.890520" lon="6.736360">
						<ele>471</ele>
						<time>2023-01-18T00:47:15Z</time>
					</trkpt>
					<trkpt lat="47.890650" lon="6.735970">
						<ele>471</ele>
						<time>2023-01-18T00:47:21Z</time>
					</trkpt>
					<trkpt lat="47.890740" lon="6.735550">
						<ele>470</ele>
						<time>2023-01-18T00:47:26Z</time>
					</trkpt>
					<trkpt lat="47.890890" lon="6.734690">
						<ele>468</ele>
						<time>2023-01-18T00:47:36Z</time>
					</trkpt>
					<trkpt lat="47.891100" lon="6.733240">
						<ele>465</ele>
						<time>2023-01-18T00:47:54Z</time>
					</trkpt>
					<trkpt lat="47.891200" lon="6.732670">
						<ele>465</ele>
						<time>2023-01-18T00:48:01Z</time>
					</trkpt>
					<trkpt lat="47.891360" lon="6.732030">
						<ele>466</ele>
						<time>2023-01-18T00:48:09Z</time>
					</trkpt>
					<trkpt lat="47.891480" lon="6.731640">
						<ele>466</ele>
						<time>2023-01-18T00:48:14Z</time>
					</trkpt>
					<trkpt lat="47.891790" lon="6.730750">
						<ele>463</ele>
						<time>2023-01-18T00:48:26Z</time>
					</trkpt>
					<trkpt lat="47.892100" lon="6.730020">
						<ele>462</ele>
						<time>2023-01-18T00:48:37Z</time>
					</trkpt>
					<trkpt lat="47.892360" lon="6.729530">
						<ele>462</ele>
						<time>2023-01-18T00:48:44Z</time>
					</trkpt>
					<trkpt lat="47.892690" lon="6.728970">
						<ele>462</ele>
						<time>2023-01-18T00:48:53Z</time>
					</trkpt>
					<trkpt lat="47.892870" lon="6.728700">
						<ele>463</ele>
						<time>2023-01-18T00:48:58Z</time>
					</trkpt>
					<trkpt lat="47.893070" lon="6.728460">
						<ele>463</ele>
						<time>2023-01-18T00:49:02Z</time>
					</trkpt>
					<trkpt lat="47.893630" lon="6.727790">
						<ele>464</ele>
						<time>2023-01-18T00:49:15Z</time>
					</trkpt>
					<trkpt lat="47.893680" lon="6.727730">
						<ele>464</ele>
						<time>2023-01-18T00:49:16Z</time>
					</trkpt>
					<trkpt lat="47.894370" lon="6.726860">
						<ele>463</ele>
						<time>2023-01-18T00:49:32Z</time>
					</trkpt>
					<trkpt lat="47.894530" lon="6.726630">
						<ele>462</ele>
						<time>2023-01-18T00:49:36Z</time>
					</trkpt>
					<trkpt lat="47.894780" lon="6.726220">
						<ele>461</ele>
						<time>2023-01-18T00:49:43Z</time>
					</trkpt>
					<trkpt lat="47.895110" lon="6.725590">
						<ele>460</ele>
						<time>2023-01-18T00:49:52Z</time>
					</trkpt>
					<trkpt lat="47.895480" lon="6.724670">
						<ele>458</ele>
						<time>2023-01-18T00:50:05Z</time>
					</trkpt>
					<trkpt lat="47.895710" lon="6.723860">
						<ele>457</ele>
						<time>2023-01-18T00:50:16Z</time>
					</trkpt>
					<trkpt lat="47.895910" lon="6.722930">
						<ele>458</ele>
						<time>2023-01-18T00:50:27Z</time>
					</trkpt>
					<trkpt lat="47.896470" lon="6.718860">
						<ele>456</ele>
						<time>2023-01-18T00:51:17Z</time>
					</trkpt>
					<trkpt lat="47.896650" lon="6.717970">
						<ele>457</ele>
						<time>2023-01-18T00:51:28Z</time>
					</trkpt>
					<trkpt lat="47.896790" lon="6.717410">
						<ele>456</ele>
						<time>2023-01-18T00:51:35Z</time>
					</trkpt>
					<trkpt lat="47.897000" lon="6.716810">
						<ele>455</ele>
						<time>2023-01-18T00:51:43Z</time>
					</trkpt>
					<trkpt lat="47.897300" lon="6.716110">
						<ele>455</ele>
						<time>2023-01-18T00:51:53Z</time>
					</trkpt>
					<trkpt lat="47.898470" lon="6.713840">
						<ele>455</ele>
						<time>2023-01-18T00:52:27Z</time>
					</trkpt>
					<trkpt lat="47.898510" lon="6.713770">
						<ele>455</ele>
						<time>2023-01-18T00:52:28Z</time>
					</trkpt>
					<trkpt lat="47.900140" lon="6.710630">
						<ele>454</ele>
						<time>2023-01-18T00:53:16Z</time>
					</trkpt>
					<trkpt lat="47.900970" lon="6.709220">
						<ele>456</ele>
						<time>2023-01-18T00:53:38Z</time>
					</trkpt>
					<trkpt lat="47.901630" lon="6.708220">
						<ele>456</ele>
						<time>2023-01-18T00:53:55Z</time>
					</trkpt>
					<trkpt lat="47.905400" lon="6.702800">
						<ele>453</ele>
						<time>2023-01-18T00:55:28Z</time>
					</trkpt>
					<trkpt lat="47.906830" lon="6.700720">
						<ele>457</ele>
						<time>2023-01-18T00:56:03Z</time>
					</trkpt>
					<trkpt lat="47.907170" lon="6.700150">
						<ele>456</ele>
						<time>2023-01-18T00:56:13Z</time>
					</trkpt>
					<trkpt lat="47.907420" lon="6.699550">
						<ele>454</ele>
						<time>2023-01-18T00:56:21Z</time>
					</trkpt>
					<trkpt lat="47.907550" lon="6.699180">
						<ele>454</ele>
						<time>2023-01-18T00:56:26Z</time>
					</trkpt>
					<trkpt lat="47.907670" lon="6.698750">
						<ele>455</ele>
						<time>2023-01-18T00:56:32Z</time>
					</trkpt>
					<trkpt lat="47.907800" lon="6.698060">
						<ele>454</ele>
						<time>2023-01-18T00:56:40Z</time>
					</trkpt>
					<trkpt lat="47.907860" lon="6.697460">
						<ele>452</ele>
						<time>2023-01-18T00:56:47Z</time>
					</trkpt>
					<trkpt lat="47.907870" lon="6.696910">
						<ele>451</ele>
						<time>2023-01-18T00:56:54Z</time>
					</trkpt>
					<trkpt lat="47.907760" lon="6.695500">
						<ele>450</ele>
						<time>2023-01-18T00:57:11Z</time>
					</trkpt>
					<trkpt lat="47.907130" lon="6.689560">
						<ele>447</ele>
						<time>2023-01-18T00:58:23Z</time>
					</trkpt>
					<trkpt lat="47.906920" lon="6.687480">
						<ele>446</ele>
						<time>2023-01-18T00:58:48Z</time>
					</trkpt>
					<trkpt lat="47.906870" lon="6.686830">
						<ele>444</ele>
						<time>2023-01-18T00:58:55Z</time>
					</trkpt>
					<trkpt lat="47.906830" lon="6.685970">
						<ele>441</ele>
						<time>2023-01-18T00:59:06Z</time>
					</trkpt>
					<trkpt lat="47.906820" lon="6.685060">
						<ele>439</ele>
						<time>2023-01-18T00:59:17Z</time>
					</trkpt>
					<trkpt lat="47.906840" lon="6.683830">
						<ele>439</ele>
						<time>2023-01-18T00:59:31Z</time>
					</trkpt>
					<trkpt lat="47.906920" lon="6.682580">
						<ele>437</ele>
						<time>2023-01-18T00:59:46Z</time>
					</trkpt>
					<trkpt lat="47.907540" lon="6.676830">
						<ele>434</ele>
						<time>2023-01-18T01:00:56Z</time>
					</trkpt>
					<trkpt lat="47.907600" lon="6.676460">
						<ele>433</ele>
						<time>2023-01-18T01:01:00Z</time>
					</trkpt>
					<trkpt lat="47.907720" lon="6.675870">
						<ele>431</ele>
						<time>2023-01-18T01:01:08Z</time>
					</trkpt>
					<trkpt lat="47.907980" lon="6.674930">
						<ele>430</ele>
						<time>2023-01-18T01:01:20Z</time>
					</trkpt>
					<trkpt lat="47.908200" lon="6.674340">
						<ele>430</ele>
						<time>2023-01-18T01:01:28Z</time>
					</trkpt>
					<trkpt lat="47.908520" lon="6.673630">
						<ele>430</ele>
						<time>2023-01-18T01:01:38Z</time>
					</trkpt>
					<trkpt lat="47.908670" lon="6.673350">
						<ele>430</ele>
						<time>2023-01-18T01:01:42Z</time>
					</trkpt>
					<trkpt lat="47.908920" lon="6.672930">
						<ele>429</ele>
						<time>2023-01-18T01:01:49Z</time>
					</trkpt>
					<trkpt lat="47.909290" lon="6.672400">
						<ele>429</ele>
						<time>2023-01-18T01:01:58Z</time>
					</trkpt>
					<trkpt lat="47.909690" lon="6.671940">
						<ele>428</ele>
						<time>2023-01-18T01:02:07Z</time>
					</trkpt>
					<trkpt lat="47.910450" lon="6.671120">
						<ele>428</ele>
						<time>2023-01-18T01:02:24Z</time>
					</trkpt>
					<trkpt lat="47.911070" lon="6.670450">
						<ele>429</ele>
						<time>2023-01-18T01:02:37Z</time>
					</trkpt>
					<trkpt lat="47.911290" lon="6.670210">
						<ele>429</ele>
						<time>2023-01-18T01:02:42Z</time>
					</trkpt>
					<trkpt lat="47.914900" lon="6.666350">
						<ele>425</ele>
						<time>2023-01-18T01:04:01Z</time>
					</trkpt>
					<trkpt lat="47.915770" lon="6.665540">
						<ele>426</ele>
						<time>2023-01-18T01:04:19Z</time>
					</trkpt>
					<trkpt lat="47.919830" lon="6.662170">
						<ele>424</ele>
						<time>2023-01-18T01:05:42Z</time>
					</trkpt>
					<trkpt lat="47.920790" lon="6.661320">
						<ele>424</ele>
						<time>2023-01-18T01:06:02Z</time>
					</trkpt>
					<trkpt lat="47.921180" lon="6.660890">
						<ele>423</ele>
						<time>2023-01-18T01:06:11Z</time>
					</trkpt>
					<trkpt lat="47.921360" lon="6.660650">
						<ele>422</ele>
						<time>2023-01-18T01:06:15Z</time>
					</trkpt>
					<trkpt lat="47.921650" lon="6.660150">
						<ele>421</ele>
						<time>2023-01-18T01:06:23Z</time>
					</trkpt>
					<trkpt lat="47.921830" lon="6.659870">
						<ele>421</ele>
						<time>2023-01-18T01:06:27Z</time>
					</trkpt>
					<trkpt lat="47.922080" lon="6.659620">
						<ele>421</ele>
						<time>2023-01-18T01:06:33Z</time>
					</trkpt>
					<trkpt lat="47.922910" lon="6.658920">
						<ele>423</ele>
						<time>2023-01-18T01:06:50Z</time>
					</trkpt>
					<trkpt lat="47.923030" lon="6.658890">
						<ele>423</ele>
						<time>2023-01-18T01:06:52Z</time>
					</trkpt>
					<trkpt lat="47.923090" lon="6.658890">
						<ele>424</ele>
						<time>2023-01-18T01:06:53Z</time>
					</trkpt>
					<trkpt lat="47.923360" lon="6.658960">
						<ele>424</ele>
						<time>2023-01-18T01:06:58Z</time>
					</trkpt>
					<trkpt lat="47.923480" lon="6.658950">
						<ele>424</ele>
						<time>2023-01-18T01:07:00Z</time>
					</trkpt>
					<trkpt lat="47.923550" lon="6.658920">
						<ele>424</ele>
						<time>2023-01-18T01:07:01Z</time>
					</trkpt>
					<trkpt lat="47.924170" lon="6.658460">
						<ele>424</ele>
						<time>2023-01-18T01:07:14Z</time>
					</trkpt>
					<trkpt lat="47.924360" lon="6.658380">
						<ele>424</ele>
						<time>2023-01-18T01:07:17Z</time>
					</trkpt>
					<trkpt lat="47.925820" lon="6.657160">
						<ele>422</ele>
						<time>2023-01-18T01:07:47Z</time>
					</trkpt>
					<trkpt lat="47.926160" lon="6.656930">
						<ele>421</ele>
						<time>2023-01-18T01:07:54Z</time>
					</trkpt>
					<trkpt lat="47.926390" lon="6.656700">
						<ele>420</ele>
						<time>2023-01-18T01:07:58Z</time>
					</trkpt>
					<trkpt lat="47.926780" lon="6.656350">
						<ele>419</ele>
						<time>2023-01-18T01:08:07Z</time>
					</trkpt>
					<trkpt lat="47.929540" lon="6.654040">
						<ele>420</ele>
						<time>2023-01-18T01:09:03Z</time>
					</trkpt>
					<trkpt lat="47.930520" lon="6.653240">
						<ele>421</ele>
						<time>2023-01-18T01:09:23Z</time>
					</trkpt>
					<trkpt lat="47.930620" lon="6.653160">
						<ele>421</ele>
						<time>2023-01-18T01:09:25Z</time>
					</trkpt>
					<trkpt lat="47.931440" lon="6.652480">
						<ele>419</ele>
						<time>2023-01-18T01:09:41Z</time>
					</trkpt>
					<trkpt lat="47.931870" lon="6.652220">
						<ele>418</ele>
						<time>2023-01-18T01:09:50Z</time>
					</trkpt>
					<trkpt lat="47.932120" lon="6.652090">
						<ele>418</ele>
						<time>2023-01-18T01:09:54Z</time>
					</trkpt>
					<trkpt lat="47.932700" lon="6.651890">
						<ele>417</ele>
						<time>2023-01-18T01:10:05Z</time>
					</trkpt>
					<trkpt lat="47.933880" lon="6.651600">
						<ele>416</ele>
						<time>2023-01-18T01:10:26Z</time>
					</trkpt>
					<trkpt lat="47.933980" lon="6.651410">
						<ele>417</ele>
						<time>2023-01-18T01:10:29Z</time>
					</trkpt>
					<trkpt lat="47.934040" lon="6.651340">
						<ele>417</ele>
						<time>2023-01-18T01:10:31Z</time>
					</trkpt>
					<trkpt lat="47.934100" lon="6.651350">
						<ele>417</ele>
						<time>2023-01-18T01:10:32Z</time>
					</trkpt>
					<trkpt lat="47.934310" lon="6.651480">
						<ele>417</ele>
						<time>2023-01-18T01:10:36Z</time>
					</trkpt>
					<trkpt lat="47.934710" lon="6.651320">
						<ele>417</ele>
						<time>2023-01-18T01:10:43Z</time>
					</trkpt>
					<trkpt lat="47.935170" lon="6.651020">
						<ele>417</ele>
						<time>2023-01-18T01:10:52Z</time>
					</trkpt>
					<trkpt lat="47.935360" lon="6.650880">
						<ele>417</ele>
						<time>2023-01-18T01:10:56Z</time>
					</trkpt>
					<trkpt lat="47.935770" lon="6.650490">
						<ele>418</ele>
						<time>2023-01-18T01:11:04Z</time>
					</trkpt>
					<trkpt lat="47.938130" lon="6.648060">
						<ele>425</ele>
						<time>2023-01-18T01:11:55Z</time>
					</trkpt>
					<trkpt lat="47.938460" lon="6.647700">
						<ele>427</ele>
						<time>2023-01-18T01:12:03Z</time>
					</trkpt>
					<trkpt lat="47.938790" lon="6.647220">
						<ele>428</ele>
						<time>2023-01-18T01:12:11Z</time>
					</trkpt>
					<trkpt lat="47.939070" lon="6.646720">
						<ele>429</ele>
						<time>2023-01-18T01:12:19Z</time>
					</trkpt>
					<trkpt lat="47.939200" lon="6.646440">
						<ele>429</ele>
						<time>2023-01-18T01:12:23Z</time>
					</trkpt>
					<trkpt lat="47.939320" lon="6.646130">
						<ele>430</ele>
						<time>2023-01-18T01:12:27Z</time>
					</trkpt>
					<trkpt lat="47.939910" lon="6.644170">
						<ele>426</ele>
						<time>2023-01-18T01:12:53Z</time>
					</trkpt>
					<trkpt lat="47.940210" lon="6.643210">
						<ele>423</ele>
						<time>2023-01-18T01:13:05Z</time>
					</trkpt>
					<trkpt lat="47.940340" lon="6.642840">
						<ele>423</ele>
						<time>2023-01-18T01:13:10Z</time>
					</trkpt>
					<trkpt lat="47.940490" lon="6.642460">
						<ele>422</ele>
						<time>2023-01-18T01:13:15Z</time>
					</trkpt>
					<trkpt lat="47.940660" lon="6.642120">
						<ele>421</ele>
						<time>2023-01-18T01:13:20Z</time>
					</trkpt>
					<trkpt lat="47.940940" lon="6.641620">
						<ele>420</ele>
						<time>2023-01-18T01:13:28Z</time>
					</trkpt>
					<trkpt lat="47.941270" lon="6.641150">
						<ele>418</ele>
						<time>2023-01-18T01:13:36Z</time>
					</trkpt>
					<trkpt lat="47.945730" lon="6.635940">
						<ele>414</ele>
						<time>2023-01-18T01:15:17Z</time>
					</trkpt>
					<trkpt lat="47.945990" lon="6.635690">
						<ele>413</ele>
						<time>2023-01-18T01:15:23Z</time>
					</trkpt>
					<trkpt lat="47.946290" lon="6.635470">
						<ele>413</ele>
						<time>2023-01-18T01:15:29Z</time>
					</trkpt>
					<trkpt lat="47.946600" lon="6.635270">
						<ele>412</ele>
						<time>2023-01-18T01:15:35Z</time>
					</trkpt>
					<trkpt lat="47.947110" lon="6.635070">
						<ele>410</ele>
						<time>2023-01-18T01:15:44Z</time>
					</trkpt>
					<trkpt lat="47.948440" lon="6.634600">
						<ele>413</ele>
						<time>2023-01-18T01:16:08Z</time>
					</trkpt>
					<trkpt lat="47.948750" lon="6.634420">
						<ele>414</ele>
						<time>2023-01-18T01:16:14Z</time>
					</trkpt>
					<trkpt lat="47.949040" lon="6.634190">
						<ele>414</ele>
						<time>2023-01-18T01:16:20Z</time>
					</trkpt>
					<trkpt lat="47.951930" lon="6.631730">
						<ele>405</ele>
						<time>2023-01-18T01:17:19Z</time>
					</trkpt>
					<trkpt lat="47.952260" lon="6.631520">
						<ele>406</ele>
						<time>2023-01-18T01:17:26Z</time>
					</trkpt>
					<trkpt lat="47.952700" lon="6.631300">
						<ele>406</ele>
						<time>2023-01-18T01:17:34Z</time>
					</trkpt>
					<trkpt lat="47.953010" lon="6.631190">
						<ele>407</ele>
						<time>2023-01-18T01:17:40Z</time>
					</trkpt>
					<trkpt lat="47.953440" lon="6.631080">
						<ele>407</ele>
						<time>2023-01-18T01:17:47Z</time>
					</trkpt>
					<trkpt lat="47.953990" lon="6.631050">
						<ele>406</ele>
						<time>2023-01-18T01:17:57Z</time>
					</trkpt>
					<trkpt lat="47.954540" lon="6.631110">
						<ele>407</ele>
						<time>2023-01-18T01:18:07Z</time>
					</trkpt>
					<trkpt lat="47.954960" lon="6.631240">
						<ele>407</ele>
						<time>2023-01-18T01:18:15Z</time>
					</trkpt>
					<trkpt lat="47.955380" lon="6.631410">
						<ele>407</ele>
						<time>2023-01-18T01:18:22Z</time>
					</trkpt>
					<trkpt lat="47.955660" lon="6.631570">
						<ele>407</ele>
						<time>2023-01-18T01:18:28Z</time>
					</trkpt>
					<trkpt lat="47.955980" lon="6.631800">
						<ele>407</ele>
						<time>2023-01-18T01:18:34Z</time>
					</trkpt>
					<trkpt lat="47.956500" lon="6.632270">
						<ele>408</ele>
						<time>2023-01-18T01:18:45Z</time>
					</trkpt>
					<trkpt lat="47.957030" lon="6.632880">
						<ele>408</ele>
						<time>2023-01-18T01:18:57Z</time>
					</trkpt>
					<trkpt lat="47.957420" lon="6.633370">
						<ele>407</ele>
						<time>2023-01-18T01:19:06Z</time>
					</trkpt>
					<trkpt lat="47.957910" lon="6.633920">
						<ele>407</ele>
						<time>2023-01-18T01:19:17Z</time>
					</trkpt>
					<trkpt lat="47.958400" lon="6.634330">
						<ele>406</ele>
						<time>2023-01-18T01:19:27Z</time>
					</trkpt>
					<trkpt lat="47.958810" lon="6.634540">
						<ele>408</ele>
						<time>2023-01-18T01:19:34Z</time>
					</trkpt>
					<trkpt lat="47.959190" lon="6.634690">
						<ele>409</ele>
						<time>2023-01-18T01:19:41Z</time>
					</trkpt>
					<trkpt lat="47.959610" lon="6.634760">
						<ele>411</ele>
						<time>2023-01-18T01:19:49Z</time>
					</trkpt>
					<trkpt lat="47.960000" lon="6.634770">
						<ele>411</ele>
						<time>2023-01-18T01:19:56Z</time>
					</trkpt>
					<trkpt lat="47.960330" lon="6.634740">
						<ele>410</ele>
						<time>2023-01-18T01:20:02Z</time>
					</trkpt>
					<trkpt lat="47.960650" lon="6.634650">
						<ele>408</ele>
						<time>2023-01-18T01:20:07Z</time>
					</trkpt>
					<trkpt lat="47.960960" lon="6.634530">
						<ele>407</ele>
						<time>2023-01-18T01:20:13Z</time>
					</trkpt>
					<trkpt lat="47.962160" lon="6.633990">
						<ele>405</ele>
						<time>2023-01-18T01:20:35Z</time>
					</trkpt>
					<trkpt lat="47.962450" lon="6.633900">
						<ele>404</ele>
						<time>2023-01-18T01:20:41Z</time>
					</trkpt>
					<trkpt lat="47.962760" lon="6.633850">
						<ele>405</ele>
						<time>2023-01-18T01:20:46Z</time>
					</trkpt>
					<trkpt lat="47.963080" lon="6.633840">
						<ele>406</ele>
						<time>2023-01-18T01:20:52Z</time>
					</trkpt>
					<trkpt lat="47.965110" lon="6.634180">
						<ele>408</ele>
						<time>2023-01-18T01:21:28Z</time>
					</trkpt>
					<trkpt lat="47.965520" lon="6.634200">
						<ele>408</ele>
						<time>2023-01-18T01:21:36Z</time>
					</trkpt>
					<trkpt lat="47.966020" lon="6.634170">
						<ele>407</ele>
						<time>2023-01-18T01:21:45Z</time>
					</trkpt>
					<trkpt lat="47.966450" lon="6.634070">
						<ele>406</ele>
						<time>2023-01-18T01:21:52Z</time>
					</trkpt>
					<trkpt lat="47.969960" lon="6.632870">
						<ele>402</ele>
						<time>2023-01-18T01:22:56Z</time>
					</trkpt>
					<trkpt lat="47.970540" lon="6.632730">
						<ele>402</ele>
						<time>2023-01-18T01:23:07Z</time>
					</trkpt>
					<trkpt lat="47.971100" lon="6.632650">
						<ele>400</ele>
						<time>2023-01-18T01:23:17Z</time>
					</trkpt>
					<trkpt lat="47.971700" lon="6.632650">
						<ele>398</ele>
						<time>2023-01-18T01:23:27Z</time>
					</trkpt>
					<trkpt lat="47.971990" lon="6.632670">
						<ele>399</ele>
						<time>2023-01-18T01:23:33Z</time>
					</trkpt>
					<trkpt lat="47.977680" lon="6.633840">
						<ele>402</ele>
						<time>2023-01-18T01:25:15Z</time>
					</trkpt>
					<trkpt lat="47.977740" lon="6.633860">
						<ele>402</ele>
						<time>2023-01-18T01:25:16Z</time>
					</trkpt>
					<trkpt lat="47.978440" lon="6.633980">
						<ele>402</ele>
						<time>2023-01-18T01:25:28Z</time>
					</trkpt>
					<trkpt lat="47.981300" lon="6.634600">
						<ele>403</ele>
						<time>2023-01-18T01:26:20Z</time>
					</trkpt>
					<trkpt lat="47.984330" lon="6.635220">
						<ele>400</ele>
						<time>2023-01-18T01:27:14Z</time>
					</trkpt>
					<trkpt lat="47.984690" lon="6.635280">
						<ele>399</ele>
						<time>2023-01-18T01:27:21Z</time>
					</trkpt>
					<trkpt lat="47.985660" lon="6.635310">
						<ele>399</ele>
						<time>2023-01-18T01:27:38Z</time>
					</trkpt>
					<trkpt lat="47.986140" lon="6.635260">
						<ele>399</ele>
						<time>2023-01-18T01:27:47Z</time>
					</trkpt>
					<trkpt lat="47.986640" lon="6.635190">
						<ele>398</ele>
						<time>2023-01-18T01:27:56Z</time>
					</trkpt>
					<trkpt lat="47.987080" lon="6.635070">
						<ele>399</ele>
						<time>2023-01-18T01:28:03Z</time>
					</trkpt>
					<trkpt lat="47.992110" lon="6.633350">
						<ele>396</ele>
						<time>2023-01-18T01:29:35Z</time>
					</trkpt>
					<trkpt lat="47.992070" lon="6.633050">
						<ele>395</ele>
						<time>2023-01-18T01:29:39Z</time>
					</trkpt>
					<trkpt lat="47.992060" lon="6.632440">
						<ele>394</ele>
						<time>2023-01-18T01:29:46Z</time>
					</trkpt>
					<trkpt lat="47.992020" lon="6.631970">
						<ele>394</ele>
						<time>2023-01-18T01:29:52Z</time>
					</trkpt>
					<trkpt lat="47.991990" lon="6.631980">
						<ele>394</ele>
						<time>2023-01-18T01:29:52Z</time>
					</trkpt>
					<trkpt lat="47.991990" lon="6.631730">
						<ele>394</ele>
						<time>2023-01-18T01:29:55Z</time>
					</trkpt>
					<trkpt lat="47.992020" lon="6.631620">
						<ele>393</ele>
						<time>2023-01-18T01:29:57Z</time>
					</trkpt>
					<trkpt lat="47.992310" lon="6.630840">
						<ele>391</ele>
						<time>2023-01-18T01:30:07Z</time>
					</trkpt>
					<trkpt lat="47.992680" lon="6.629410">
						<ele>390</ele>
						<time>2023-01-18T01:30:26Z</time>
					</trkpt>
					<trkpt lat="47.992840" lon="6.628820">
						<ele>390</ele>
						<time>2023-01-18T01:30:33Z</time>
					</trkpt>
					<trkpt lat="47.992940" lon="6.628480">
						<ele>390</ele>
						<time>2023-01-18T01:30:38Z</time>
					</trkpt>
					<trkpt lat="47.993100" lon="6.628230">
						<ele>390</ele>
						<time>2023-01-18T01:30:42Z</time>
					</trkpt>
					<trkpt lat="47.993260" lon="6.628120">
						<ele>390</ele>
						<time>2023-01-18T01:30:45Z</time>
					</trkpt>
					<trkpt lat="47.994360" lon="6.628080">
						<ele>390</ele>
						<time>2023-01-18T01:31:04Z</time>
					</trkpt>
					<trkpt lat="47.994500" lon="6.628020">
						<ele>390</ele>
						<time>2023-01-18T01:31:07Z</time>
					</trkpt>
					<trkpt lat="47.994650" lon="6.627880">
						<ele>390</ele>
						<time>2023-01-18T01:31:10Z</time>
					</trkpt>
					<trkpt lat="47.994930" lon="6.627520">
						<ele>390</ele>
						<time>2023-01-18T01:31:17Z</time>
					</trkpt>
					<trkpt lat="47.995430" lon="6.627200">
						<ele>390</ele>
						<time>2023-01-18T01:31:26Z</time>
					</trkpt>
					<trkpt lat="47.995940" lon="6.626970">
						<ele>390</ele>
						<time>2023-01-18T01:31:36Z</time>
					</trkpt>
					<trkpt lat="47.996900" lon="6.626950">
						<ele>389</ele>
						<time>2023-01-18T01:31:53Z</time>
					</trkpt>
					<trkpt lat="47.997190" lon="6.626790">
						<ele>389</ele>
						<time>2023-01-18T01:31:59Z</time>
					</trkpt>
					<trkpt lat="47.997360" lon="6.626570">
						<ele>388</ele>
						<time>2023-01-18T01:32:03Z</time>
					</trkpt>
					<trkpt lat="47.997570" lon="6.625810">
						<ele>388</ele>
						<time>2023-01-18T01:32:12Z</time>
					</trkpt>
					<trkpt lat="47.997620" lon="6.624760">
						<ele>392</ele>
						<time>2023-01-18T01:32:25Z</time>
					</trkpt>
					<trkpt lat="47.997670" lon="6.624580">
						<ele>392</ele>
						<time>2023-01-18T01:32:27Z</time>
					</trkpt>
					<trkpt lat="47.997440" lon="6.624260">
						<ele>393</ele>
						<time>2023-01-18T01:32:33Z</time>
					</trkpt>
					<trkpt lat="47.997370" lon="6.624090">
						<ele>393</ele>
						<time>2023-01-18T01:32:35Z</time>
					</trkpt>
					<trkpt lat="47.997320" lon="6.623910">
						<ele>393</ele>
						<time>2023-01-18T01:32:37Z</time>
					</trkpt>
					<trkpt lat="47.997250" lon="6.623550">
						<ele>393</ele>
						<time>2023-01-18T01:32:42Z</time>
					</trkpt>
					<trkpt lat="47.997240" lon="6.623410">
						<ele>393</ele>
						<time>2023-01-18T01:32:44Z</time>
					</trkpt>
					<trkpt lat="47.997240" lon="6.622900">
						<ele>393</ele>
						<time>2023-01-18T01:32:50Z</time>
					</trkpt>
					<trkpt lat="47.997170" lon="6.621930">
						<ele>392</ele>
						<time>2023-01-18T01:33:01Z</time>
					</trkpt>
					<trkpt lat="47.997160" lon="6.621630">
						<ele>393</ele>
						<time>2023-01-18T01:33:05Z</time>
					</trkpt>
					<trkpt lat="47.997180" lon="6.621480">
						<ele>394</ele>
						<time>2023-01-18T01:33:07Z</time>
					</trkpt>
					<trkpt lat="47.997190" lon="6.621420">
						<ele>394</ele>
						<time>2023-01-18T01:33:07Z</time>
					</trkpt>
					<trkpt lat="47.997850" lon="6.620600">
						<ele>398</ele>
						<time>2023-01-18T01:33:23Z</time>
					</trkpt>
					<trkpt lat="47.998120" lon="6.620340">
						<ele>396</ele>
						<time>2023-01-18T01:33:28Z</time>
					</trkpt>
					<trkpt lat="47.998360" lon="6.620110">
						<ele>395</ele>
						<time>2023-01-18T01:33:33Z</time>
					</trkpt>
					<trkpt lat="47.998400" lon="6.619990">
						<ele>396</ele>
						<time>2023-01-18T01:33:35Z</time>
					</trkpt>
					<trkpt lat="47.998410" lon="6.619880">
						<ele>396</ele>
						<time>2023-01-18T01:33:36Z</time>
					</trkpt>
					<trkpt lat="47.998610" lon="6.619880">
						<ele>395</ele>
						<time>2023-01-18T01:33:40Z</time>
					</trkpt>
					<trkpt lat="47.998810" lon="6.619820">
						<ele>393</ele>
						<time>2023-01-18T01:33:44Z</time>
					</trkpt>
					<trkpt lat="47.998970" lon="6.619730">
						<ele>393</ele>
						<time>2023-01-18T01:33:47Z</time>
					</trkpt>
					<trkpt lat="47.999100" lon="6.619620">
						<ele>392</ele>
						<time>2023-01-18T01:33:49Z</time>
					</trkpt>
					<trkpt lat="47.999340" lon="6.619310">
						<ele>392</ele>
						<time>2023-01-18T01:33:55Z</time>
					</trkpt>
					<trkpt lat="47.999400" lon="6.619190">
						<ele>392</ele>
						<time>2023-01-18T01:33:57Z</time>
					</trkpt>
					<trkpt lat="47.999440" lon="6.619070">
						<ele>392</ele>
						<time>2023-01-18T01:33:58Z</time>
					</trkpt>
					<trkpt lat="47.999720" lon="6.618400">
						<ele>392</ele>
						<time>2023-01-18T01:34:08Z</time>
					</trkpt>
					<trkpt lat="47.999910" lon="6.618050">
						<ele>392</ele>
						<time>2023-01-18T01:34:13Z</time>
					</trkpt>
					<trkpt lat="47.999930" lon="6.617980">
						<ele>392</ele>
						<time>2023-01-18T01:34:14Z</time>
					</trkpt>
					<trkpt lat="47.999920" lon="6.617800">
						<ele>393</ele>
						<time>2023-01-18T01:34:16Z</time>
					</trkpt>
					<trkpt lat="48.000510" lon="6.617240">
						<ele>392</ele>
						<time>2023-01-18T01:34:29Z</time>
					</trkpt>
					<trkpt lat="48.001110" lon="6.616760">
						<ele>392</ele>
						<time>2023-01-18T01:34:41Z</time>
					</trkpt>
					<trkpt lat="48.002460" lon="6.615770">
						<ele>392</ele>
						<time>2023-01-18T01:35:07Z</time>
					</trkpt>
					<trkpt lat="48.002660" lon="6.615580">
						<ele>392</ele>
						<time>2023-01-18T01:35:12Z</time>
					</trkpt>
					<trkpt lat="48.002910" lon="6.615470">
						<ele>392</ele>
						<time>2023-01-18T01:35:16Z</time>
					</trkpt>
					<trkpt lat="48.002970" lon="6.615470">
						<ele>392</ele>
						<time>2023-01-18T01:35:17Z</time>
					</trkpt>
					<trkpt lat="48.003040" lon="6.615420">
						<ele>392</ele>
						<time>2023-01-18T01:35:19Z</time>
					</trkpt>
					<trkpt lat="48.003070" lon="6.615330">
						<ele>393</ele>
						<time>2023-01-18T01:35:20Z</time>
					</trkpt>
					<trkpt lat="48.003080" lon="6.615260">
						<ele>393</ele>
						<time>2023-01-18T01:35:21Z</time>
					</trkpt>
					<trkpt lat="48.003160" lon="6.615050">
						<ele>394</ele>
						<time>2023-01-18T01:35:24Z</time>
					</trkpt>
					<trkpt lat="48.004200" lon="6.613330">
						<ele>396</ele>
						<time>2023-01-18T01:35:51Z</time>
					</trkpt>
					<trkpt lat="48.004650" lon="6.612730">
						<ele>395</ele>
						<time>2023-01-18T01:36:02Z</time>
					</trkpt>
					<trkpt lat="48.004740" lon="6.612580">
						<ele>395</ele>
						<time>2023-01-18T01:36:04Z</time>
					</trkpt>
					<trkpt lat="48.004870" lon="6.612430">
						<ele>395</ele>
						<time>2023-01-18T01:36:07Z</time>
					</trkpt>
					<trkpt lat="48.005450" lon="6.611880">
						<ele>397</ele>
						<time>2023-01-18T01:36:20Z</time>
					</trkpt>
					<trkpt lat="48.005820" lon="6.611450">
						<ele>399</ele>
						<time>2023-01-18T01:36:28Z</time>
					</trkpt>
					<trkpt lat="48.006120" lon="6.611010">
						<ele>400</ele>
						<time>2023-01-18T01:36:35Z</time>
					</trkpt>
					<trkpt lat="48.007680" lon="6.608210">
						<ele>403</ele>
						<time>2023-01-18T01:37:19Z</time>
					</trkpt>
					<trkpt lat="48.008110" lon="6.607550">
						<ele>404</ele>
						<time>2023-01-18T01:37:30Z</time>
					</trkpt>
					<trkpt lat="48.008320" lon="6.607280">
						<ele>403</ele>
						<time>2023-01-18T01:37:35Z</time>
					</trkpt>
					<trkpt lat="48.008350" lon="6.607310">
						<ele>403</ele>
						<time>2023-01-18T01:37:35Z</time>
					</trkpt>
					<trkpt lat="48.008380" lon="6.607320">
						<ele>403</ele>
						<time>2023-01-18T01:37:36Z</time>
					</trkpt>
					<trkpt lat="48.008440" lon="6.607260">
						<ele>403</ele>
						<time>2023-01-18T01:37:37Z</time>
					</trkpt>
					<trkpt lat="48.008450" lon="6.607170">
						<ele>403</ele>
						<time>2023-01-18T01:37:38Z</time>
					</trkpt>
					<trkpt lat="48.008410" lon="6.607110">
						<ele>404</ele>
						<time>2023-01-18T01:37:39Z</time>
					</trkpt>
					<trkpt lat="48.008380" lon="6.607090">
						<ele>404</ele>
						<time>2023-01-18T01:37:40Z</time>
					</trkpt>
					<trkpt lat="48.008330" lon="6.607120">
						<ele>404</ele>
						<time>2023-01-18T01:37:41Z</time>
					</trkpt>
					<trkpt lat="48.008160" lon="6.607020">
						<ele>406</ele>
						<time>2023-01-18T01:37:44Z</time>
					</trkpt>
					<trkpt lat="48.008070" lon="6.607020">
						<ele>407</ele>
						<time>2023-01-18T01:37:46Z</time>
					</trkpt>
					<trkpt lat="48.007840" lon="6.607120">
						<ele>409</ele>
						<time>2023-01-18T01:37:50Z</time>
					</trkpt>
					<trkpt lat="48.007770" lon="6.607040">
						<ele>410</ele>
						<time>2023-01-18T01:37:51Z</time>
					</trkpt>
					<trkpt lat="48.007610" lon="6.606490">
						<ele>415</ele>
						<time>2023-01-18T01:37:59Z</time>
					</trkpt>
					<trkpt lat="48.007550" lon="6.606350">
						<ele>416</ele>
						<time>2023-01-18T01:38:01Z</time>
					</trkpt>
					<trkpt lat="48.007380" lon="6.606220">
						<ele>418</ele>
						<time>2023-01-18T01:38:04Z</time>
					</trkpt>
					<trkpt lat="48.007350" lon="6.606150">
						<ele>418</ele>
						<time>2023-01-18T01:38:05Z</time>
					</trkpt>
					<trkpt lat="48.007310" lon="6.606030">
						<ele>418</ele>
						<time>2023-01-18T01:38:07Z</time>
					</trkpt>
					<trkpt lat="48.007310" lon="6.605920">
						<ele>418</ele>
						<time>2023-01-18T01:38:08Z</time>
					</trkpt>
					<trkpt lat="48.007340" lon="6.605830">
						<ele>418</ele>
						<time>2023-01-18T01:38:09Z</time>
					</trkpt>
					<trkpt lat="48.007400" lon="6.605770">
						<ele>418</ele>
						<time>2023-01-18T01:38:10Z</time>
					</trkpt>
					<trkpt lat="48.007590" lon="6.605660">
						<ele>416</ele>
						<time>2023-01-18T01:38:14Z</time>
					</trkpt>
					<trkpt lat="48.007730" lon="6.605460">
						<ele>415</ele>
						<time>2023-01-18T01:38:17Z</time>
					</trkpt>
					<trkpt lat="48.007830" lon="6.605240">
						<ele>415</ele>
						<time>2023-01-18T01:38:21Z</time>
					</trkpt>
					<trkpt lat="48.007840" lon="6.605170">
						<ele>415</ele>
						<time>2023-01-18T01:38:21Z</time>
					</trkpt>
					<trkpt lat="48.007920" lon="6.604720">
						<ele>416</ele>
						<time>2023-01-18T01:38:27Z</time>
					</trkpt>
					<trkpt lat="48.007950" lon="6.604510">
						<ele>417</ele>
						<time>2023-01-18T01:38:30Z</time>
					</trkpt>
					<trkpt lat="48.007950" lon="6.604390">
						<ele>418</ele>
						<time>2023-01-18T01:38:31Z</time>
					</trkpt>
					<trkpt lat="48.007860" lon="6.604090">
						<ele>419</ele>
						<time>2023-01-18T01:38:35Z</time>
					</trkpt>
					<trkpt lat="48.007300" lon="6.603260">
						<ele>435</ele>
						<time>2023-01-18T01:38:49Z</time>
					</trkpt>
					<trkpt lat="48.007370" lon="6.603210">
						<ele>437</ele>
						<time>2023-01-18T01:38:50Z</time>
					</trkpt>
					<trkpt lat="48.007740" lon="6.603120">
						<ele>437</ele>
						<time>2023-01-18T01:38:57Z</time>
					</trkpt>
					<trkpt lat="48.008360" lon="6.602800">
						<ele>438</ele>
						<time>2023-01-18T01:39:09Z</time>
					</trkpt>
					<trkpt lat="48.008800" lon="6.602690">
						<ele>433</ele>
						<time>2023-01-18T01:39:17Z</time>
					</trkpt>
					<trkpt lat="48.009010" lon="6.602680">
						<ele>430</ele>
						<time>2023-01-18T01:39:20Z</time>
					</trkpt>
					<trkpt lat="48.009260" lon="6.602670">
						<ele>425</ele>
						<time>2023-01-18T01:39:25Z</time>
					</trkpt>
					<trkpt lat="48.009600" lon="6.602560">
						<ele>418</ele>
						<time>2023-01-18T01:39:31Z</time>
					</trkpt>
					<trkpt lat="48.009680" lon="6.602490">
						<ele>417</ele>
						<time>2023-01-18T01:39:33Z</time>
					</trkpt>
					<trkpt lat="48.009960" lon="6.601750">
						<ele>424</ele>
						<time>2023-01-18T01:39:43Z</time>
					</trkpt>
					<trkpt lat="48.010120" lon="6.601460">
						<ele>424</ele>
						<time>2023-01-18T01:39:47Z</time>
					</trkpt>
					<trkpt lat="48.010260" lon="6.601070">
						<ele>426</ele>
						<time>2023-01-18T01:39:52Z</time>
					</trkpt>
					<trkpt lat="48.010220" lon="6.599530">
						<ele>425</ele>
						<time>2023-01-18T01:40:11Z</time>
					</trkpt>
					<trkpt lat="48.010360" lon="6.598310">
						<ele>416</ele>
						<time>2023-01-18T01:40:26Z</time>
					</trkpt>
					<trkpt lat="48.010370" lon="6.598040">
						<ele>417</ele>
						<time>2023-01-18T01:40:29Z</time>
					</trkpt>
					<trkpt lat="48.010400" lon="6.597800">
						<ele>418</ele>
						<time>2023-01-18T01:40:32Z</time>
					</trkpt>
					<trkpt lat="48.010460" lon="6.597660">
						<ele>417</ele>
						<time>2023-01-18T01:40:34Z</time>
					</trkpt>
					<trkpt lat="48.010650" lon="6.597600">
						<ele>412</ele>
						<time>2023-01-18T01:40:37Z</time>
					</trkpt>
					<trkpt lat="48.011030" lon="6.597380">
						<ele>406</ele>
						<time>2023-01-18T01:40:44Z</time>
					</trkpt>
					<trkpt lat="48.011210" lon="6.597320">
						<ele>403</ele>
						<time>2023-01-18T01:40:48Z</time>
					</trkpt>
					<trkpt lat="48.011200" lon="6.596320">
						<ele>412</ele>
						<time>2023-01-18T01:41:00Z</time>
					</trkpt>
					<trkpt lat="48.011200" lon="6.596030">
						<ele>417</ele>
						<time>2023-01-18T01:41:03Z</time>
					</trkpt>
					<trkpt lat="48.011310" lon="6.595720">
						<ele>419</ele>
						<time>2023-01-18T01:41:07Z</time>
					</trkpt>
					<trkpt lat="48.011560" lon="6.595230">
						<ele>419</ele>
						<time>2023-01-18T01:41:14Z</time>
					</trkpt>
					<trkpt lat="48.011650" lon="6.594940">
						<ele>421</ele>
						<time>2023-01-18T01:41:18Z</time>
					</trkpt>
					<trkpt lat="48.011660" lon="6.594880">
						<ele>422</ele>
						<time>2023-01-18T01:41:19Z</time>
					</trkpt>
					<trkpt lat="48.011580" lon="6.594600">
						<ele>430</ele>
						<time>2023-01-18T01:41:23Z</time>
					</trkpt>
					<trkpt lat="48.011620" lon="6.593730">
						<ele>441</ele>
						<time>2023-01-18T01:41:33Z</time>
					</trkpt>
					<trkpt lat="48.011650" lon="6.593410">
						<ele>443</ele>
						<time>2023-01-18T01:41:37Z</time>
					</trkpt>
					<trkpt lat="48.011780" lon="6.592780">
						<ele>443</ele>
						<time>2023-01-18T01:41:45Z</time>
					</trkpt>
					<trkpt lat="48.011770" lon="6.592710">
						<ele>443</ele>
						<time>2023-01-18T01:41:46Z</time>
					</trkpt>
					<trkpt lat="48.011620" lon="6.592430">
						<ele>450</ele>
						<time>2023-01-18T01:41:50Z</time>
					</trkpt>
					<trkpt lat="48.011520" lon="6.592150">
						<ele>455</ele>
						<time>2023-01-18T01:41:54Z</time>
					</trkpt>
					<trkpt lat="48.011520" lon="6.592010">
						<ele>456</ele>
						<time>2023-01-18T01:41:55Z</time>
					</trkpt>
					<trkpt lat="48.011600" lon="6.591760">
						<ele>454</ele>
						<time>2023-01-18T01:41:59Z</time>
					</trkpt>
					<trkpt lat="48.012040" lon="6.591110">
						<ele>442</ele>
						<time>2023-01-18T01:42:10Z</time>
					</trkpt>
					<trkpt lat="48.012290" lon="6.590550">
						<ele>431</ele>
						<time>2023-01-18T01:42:18Z</time>
					</trkpt>
					<trkpt lat="48.012380" lon="6.590320">
						<ele>426</ele>
						<time>2023-01-18T01:42:21Z</time>
					</trkpt>
					<trkpt lat="48.012340" lon="6.590230">
						<ele>427</ele>
						<time>2023-01-18T01:42:22Z</time>
					</trkpt>
					<trkpt lat="48.012200" lon="6.590120">
						<ele>432</ele>
						<time>2023-01-18T01:42:25Z</time>
					</trkpt>
					<trkpt lat="48.012120" lon="6.589960">
						<ele>435</ele>
						<time>2023-01-18T01:42:27Z</time>
					</trkpt>
					<trkpt lat="48.012100" lon="6.589830">
						<ele>435</ele>
						<time>2023-01-18T01:42:29Z</time>
					</trkpt>
					<trkpt lat="48.012120" lon="6.589600">
						<ele>433</ele>
						<time>2023-01-18T01:42:32Z</time>
					</trkpt>
					<trkpt lat="48.012170" lon="6.589360">
						<ele>429</ele>
						<time>2023-01-18T01:42:35Z</time>
					</trkpt>
					<trkpt lat="48.012240" lon="6.588910">
						<ele>424</ele>
						<time>2023-01-18T01:42:40Z</time>
					</trkpt>
					<trkpt lat="48.012280" lon="6.588560">
						<ele>421</ele>
						<time>2023-01-18T01:42:44Z</time>
					</trkpt>
					<trkpt lat="48.012350" lon="6.588320">
						<ele>418</ele>
						<time>2023-01-18T01:42:47Z</time>
					</trkpt>
					<trkpt lat="48.012360" lon="6.588250">
						<ele>418</ele>
						<time>2023-01-18T01:42:48Z</time>
					</trkpt>
					<trkpt lat="48.012350" lon="6.588110">
						<ele>417</ele>
						<time>2023-01-18T01:42:50Z</time>
					</trkpt>
					<trkpt lat="48.012300" lon="6.587960">
						<ele>417</ele>
						<time>2023-01-18T01:42:52Z</time>
					</trkpt>
					<trkpt lat="48.012280" lon="6.587860">
						<ele>417</ele>
						<time>2023-01-18T01:42:53Z</time>
					</trkpt>
					<trkpt lat="48.012290" lon="6.587790">
						<ele>417</ele>
						<time>2023-01-18T01:42:54Z</time>
					</trkpt>
					<trkpt lat="48.012340" lon="6.587630">
						<ele>416</ele>
						<time>2023-01-18T01:42:56Z</time>
					</trkpt>
					<trkpt lat="48.012420" lon="6.587690">
						<ele>415</ele>
						<time>2023-01-18T01:42:58Z</time>
					</trkpt>
					</trkseg>
				</trk>
			</gpx>